<?xml version='1.0' encoding='UTF-8'?><gpx version="1.1" creator="JPX - https://github.com/jenetics/jpx" xmlns="http://www.topografix.com/GPX/1/1"><trk><trkseg><trkpt lat="43.4537655" lon="12.2315506"><ele>301.0</ele><time>2026-04-26T14:09:28.042Z</time></trkpt><trkpt lat="43.4536892" lon="12.2316718"><ele>301.0</ele><time>2026-04-26T14:09:30.038Z</time></trkpt><trkpt lat="43.4536769" lon="12.2317632"><ele>301.0</ele><time>2026-04-26T14:09:31.056Z</time></trkpt><trkpt lat="43.4536943" lon="12.2318525"><ele>301.0</ele><time>2026-04-26T14:09:32.031Z</time></trkpt><trkpt lat="43.4537531" lon="12.2318879"><ele>301.0</ele><time>2026-04-26T14:09:33.047Z</time></trkpt><trkpt lat="43.4538142" lon="12.2318451"><ele>301.0</ele><time>2026-04-26T14:09:34.037Z</time></trkpt><trkpt lat="43.4538893" lon="12.2317757"><ele>301.0</ele><time>2026-04-26T14:09:35.05Z</time></trkpt><trkpt lat="43.4539699" lon="12.2317009"><ele>301.0</ele><time>2026-04-26T14:09:36.032Z</time></trkpt><trkpt lat="43.4540628" lon="12.2316115"><ele>301.0</ele><time>2026-04-26T14:09:37.057Z</time></trkpt><trkpt lat="43.4541507" lon="12.2315289"><ele>301.0</ele><time>2026-04-26T14:09:38.049Z</time></trkpt><trkpt lat="43.4542388" lon="12.2314827"><ele>301.0</ele><time>2026-04-26T14:09:39.047Z</time></trkpt><trkpt lat="43.4543316" lon="12.2314736"><ele>300.0</ele><time>2026-04-26T14:09:40.043Z</time></trkpt><trkpt lat="43.4544068" lon="12.2315127"><ele>299.0</ele><time>2026-04-26T14:09:41.044Z</time></trkpt><trkpt lat="43.4544504" lon="12.2315968"><ele>298.0</ele><time>2026-04-26T14:09:42.036Z</time></trkpt><trkpt lat="43.4544512" lon="12.2317124"><ele>297.0</ele><time>2026-04-26T14:09:43.048Z</time></trkpt><trkpt lat="43.4544197" lon="12.2318328"><ele>296.0</ele><time>2026-04-26T14:09:44.031Z</time></trkpt><trkpt lat="43.4543768" lon="12.2319567"><ele>295.0</ele><time>2026-04-26T14:09:45.051Z</time></trkpt><trkpt lat="43.4543267" lon="12.232084"><ele>295.0</ele><time>2026-04-26T14:09:46.042Z</time></trkpt><trkpt lat="43.4542709" lon="12.2322284"><ele>295.0</ele><time>2026-04-26T14:09:47.048Z</time></trkpt><trkpt lat="43.4542159" lon="12.2323772"><ele>295.0</ele><time>2026-04-26T14:09:48.04Z</time></trkpt><trkpt lat="43.4541638" lon="12.232523"><ele>295.0</ele><time>2026-04-26T14:09:49.04Z</time></trkpt><trkpt lat="43.4541095" lon="12.2326652"><ele>295.0</ele><time>2026-04-26T14:09:50.034Z</time></trkpt><trkpt lat="43.4540371" lon="12.2327946"><ele>295.0</ele><time>2026-04-26T14:09:51.057Z</time></trkpt><trkpt lat="43.4539378" lon="12.2329095"><ele>295.0</ele><time>2026-04-26T14:09:52.047Z</time></trkpt><trkpt lat="43.4538343" lon="12.2330114"><ele>295.0</ele><time>2026-04-26T14:09:53.039Z</time></trkpt><trkpt lat="43.453741" lon="12.2331039"><ele>293.8333333333333</ele><time>2026-04-26T14:09:54.052Z</time></trkpt><trkpt lat="43.4536779" lon="12.2332095"><ele>292.66666666666663</ele><time>2026-04-26T14:09:55.047Z</time></trkpt><trkpt lat="43.4536558" lon="12.2333162"><ele>291.5</ele><time>2026-04-26T14:09:56.046Z</time></trkpt><trkpt lat="43.4536524" lon="12.2334405"><ele>290.3333333333333</ele><time>2026-04-26T14:09:58.041Z</time></trkpt><trkpt lat="43.4536076" lon="12.2335169"><ele>289.1666666666667</ele><time>2026-04-26T14:10:01.034Z</time></trkpt><trkpt lat="43.4535159" lon="12.2335935"><ele>288.0</ele><time>2026-04-26T14:10:03.029Z</time></trkpt><trkpt lat="43.4534602" lon="12.2336607"><ele>288.0</ele><time>2026-04-26T14:10:04.045Z</time></trkpt><trkpt lat="43.4533939" lon="12.2337426"><ele>288.0</ele><time>2026-04-26T14:10:05.041Z</time></trkpt><trkpt lat="43.4533203" lon="12.2338318"><ele>288.0</ele><time>2026-04-26T14:10:06.043Z</time></trkpt><trkpt lat="43.4532402" lon="12.2339306"><ele>288.0</ele><time>2026-04-26T14:10:07.061Z</time></trkpt><trkpt lat="43.4531567" lon="12.2340364"><ele>288.0</ele><time>2026-04-26T14:10:08.046Z</time></trkpt><trkpt lat="43.4530699" lon="12.2341515"><ele>288.5</ele><time>2026-04-26T14:10:09.043Z</time></trkpt><trkpt lat="43.4529797" lon="12.2342767"><ele>289.0</ele><time>2026-04-26T14:10:10.039Z</time></trkpt><trkpt lat="43.452893" lon="12.2344024"><ele>289.5</ele><time>2026-04-26T14:10:11.046Z</time></trkpt><trkpt lat="43.4528065" lon="12.2345236"><ele>290.0</ele><time>2026-04-26T14:10:12.027Z</time></trkpt><trkpt lat="43.4527215" lon="12.2346451"><ele>290.0</ele><time>2026-04-26T14:10:13.042Z</time></trkpt><trkpt lat="43.4526354" lon="12.2347694"><ele>290.0</ele><time>2026-04-26T14:10:14.032Z</time></trkpt><trkpt lat="43.4525431" lon="12.2348997"><ele>290.0</ele><time>2026-04-26T14:10:15.044Z</time></trkpt><trkpt lat="43.4524481" lon="12.2350326"><ele>290.0</ele><time>2026-04-26T14:10:16.032Z</time></trkpt><trkpt lat="43.4523504" lon="12.2351732"><ele>288.5</ele><time>2026-04-26T14:10:17.039Z</time></trkpt><trkpt lat="43.45226" lon="12.2353073"><ele>287.0</ele><time>2026-04-26T14:10:18.045Z</time></trkpt><trkpt lat="43.4521665" lon="12.2354289"><ele>285.5</ele><time>2026-04-26T14:10:19.046Z</time></trkpt><trkpt lat="43.4520764" lon="12.2355388"><ele>284.0</ele><time>2026-04-26T14:10:20.049Z</time></trkpt><trkpt lat="43.4520025" lon="12.2356274"><ele>283.5</ele><time>2026-04-26T14:10:21.042Z</time></trkpt><trkpt lat="43.4519714" lon="12.2357835"><ele>283.0</ele><time>2026-04-26T14:10:23.042Z</time></trkpt><trkpt lat="43.4519891" lon="12.2358675"><ele>282.5</ele><time>2026-04-26T14:10:24.048Z</time></trkpt><trkpt lat="43.4520259" lon="12.2359467"><ele>282.0</ele><time>2026-04-26T14:10:25.045Z</time></trkpt><trkpt lat="43.4520792" lon="12.2360238"><ele>281.5</ele><time>2026-04-26T14:10:26.045Z</time></trkpt><trkpt lat="43.4521539" lon="12.2360988"><ele>281.0</ele><time>2026-04-26T14:10:27.034Z</time></trkpt><trkpt lat="43.4522454" lon="12.2361672"><ele>281.0</ele><time>2026-04-26T14:10:28.04Z</time></trkpt><trkpt lat="43.4523459" lon="12.2362431"><ele>281.0</ele><time>2026-04-26T14:10:29.044Z</time></trkpt><trkpt lat="43.4524516" lon="12.2363277"><ele>281.0</ele><time>2026-04-26T14:10:30.033Z</time></trkpt><trkpt lat="43.4525602" lon="12.2364083"><ele>281.0</ele><time>2026-04-26T14:10:31.043Z</time></trkpt><trkpt lat="43.4526671" lon="12.2364869"><ele>280.75</ele><time>2026-04-26T14:10:32.039Z</time></trkpt><trkpt lat="43.452769" lon="12.2365596"><ele>280.5</ele><time>2026-04-26T14:10:33.042Z</time></trkpt><trkpt lat="43.4528791" lon="12.2366344"><ele>280.25</ele><time>2026-04-26T14:10:34.041Z</time></trkpt><trkpt lat="43.4529804" lon="12.2367116"><ele>280.0</ele><time>2026-04-26T14:10:35.046Z</time></trkpt><trkpt lat="43.4530757" lon="12.236783"><ele>279.6</ele><time>2026-04-26T14:10:36.041Z</time></trkpt><trkpt lat="43.4531654" lon="12.2368446"><ele>279.2</ele><time>2026-04-26T14:10:37.053Z</time></trkpt><trkpt lat="43.4532524" lon="12.2369039"><ele>278.8</ele><time>2026-04-26T14:10:38.044Z</time></trkpt><trkpt lat="43.4533349" lon="12.2369545"><ele>278.4</ele><time>2026-04-26T14:10:39.039Z</time></trkpt><trkpt lat="43.453417" lon="12.2369937"><ele>278.0</ele><time>2026-04-26T14:10:40.041Z</time></trkpt><trkpt lat="43.4534959" lon="12.2370182"><ele>278.0</ele><time>2026-04-26T14:10:41.051Z</time></trkpt><trkpt lat="43.4535694" lon="12.2370284"><ele>278.0</ele><time>2026-04-26T14:10:42.047Z</time></trkpt><trkpt lat="43.4536426" lon="12.2370365"><ele>278.0</ele><time>2026-04-26T14:10:43.049Z</time></trkpt><trkpt lat="43.4537077" lon="12.2370606"><ele>278.0</ele><time>2026-04-26T14:10:44.041Z</time></trkpt><trkpt lat="43.4537775" lon="12.2371082"><ele>278.0</ele><time>2026-04-26T14:10:45.042Z</time></trkpt><trkpt lat="43.4538401" lon="12.2371921"><ele>278.0</ele><time>2026-04-26T14:10:46.041Z</time></trkpt><trkpt lat="43.4538829" lon="12.2372946"><ele>279.0</ele><time>2026-04-26T14:10:47.043Z</time></trkpt><trkpt lat="43.4539099" lon="12.2374174"><ele>280.0</ele><time>2026-04-26T14:10:48.036Z</time></trkpt><trkpt lat="43.4539226" lon="12.2375592"><ele>281.0</ele><time>2026-04-26T14:10:49.038Z</time></trkpt><trkpt lat="43.4539302" lon="12.2377162"><ele>282.0</ele><time>2026-04-26T14:10:50.05Z</time></trkpt><trkpt lat="43.4539307" lon="12.2378915"><ele>283.0</ele><time>2026-04-26T14:10:51.042Z</time></trkpt><trkpt lat="43.4539235" lon="12.2380784"><ele>282.5</ele><time>2026-04-26T14:10:52.036Z</time></trkpt><trkpt lat="43.4539141" lon="12.2382778"><ele>282.0</ele><time>2026-04-26T14:10:53.046Z</time></trkpt><trkpt lat="43.4539045" lon="12.2384745"><ele>281.5</ele><time>2026-04-26T14:10:54.044Z</time></trkpt><trkpt lat="43.4538922" lon="12.2386694"><ele>281.0</ele><time>2026-04-26T14:10:55.043Z</time></trkpt><trkpt lat="43.4538785" lon="12.2388694"><ele>281.0</ele><time>2026-04-26T14:10:56.032Z</time></trkpt><trkpt lat="43.4538639" lon="12.2390674"><ele>281.0</ele><time>2026-04-26T14:10:57.034Z</time></trkpt><trkpt lat="43.4538474" lon="12.239261"><ele>281.0</ele><time>2026-04-26T14:10:58.042Z</time></trkpt><trkpt lat="43.4538291" lon="12.2394594"><ele>281.0</ele><time>2026-04-26T14:10:59.05Z</time></trkpt><trkpt lat="43.4538132" lon="12.2396537"><ele>280.5</ele><time>2026-04-26T14:11:00.043Z</time></trkpt><trkpt lat="43.4537939" lon="12.2398379"><ele>280.0</ele><time>2026-04-26T14:11:01.045Z</time></trkpt><trkpt lat="43.4537774" lon="12.2400253"><ele>279.5</ele><time>2026-04-26T14:11:02.058Z</time></trkpt><trkpt lat="43.453761" lon="12.2402116"><ele>279.0</ele><time>2026-04-26T14:11:03.038Z</time></trkpt><trkpt lat="43.4537502" lon="12.2404069"><ele>279.0</ele><time>2026-04-26T14:11:04.045Z</time></trkpt><trkpt lat="43.4537398" lon="12.2406106"><ele>279.0</ele><time>2026-04-26T14:11:05.04Z</time></trkpt><trkpt lat="43.4537223" lon="12.2408078"><ele>279.0</ele><time>2026-04-26T14:11:06.039Z</time></trkpt><trkpt lat="43.4536996" lon="12.2410087"><ele>279.0</ele><time>2026-04-26T14:11:07.045Z</time></trkpt><trkpt lat="43.4536806" lon="12.2412036"><ele>279.5</ele><time>2026-04-26T14:11:08.032Z</time></trkpt><trkpt lat="43.4536618" lon="12.2413904"><ele>280.0</ele><time>2026-04-26T14:11:09.047Z</time></trkpt><trkpt lat="43.4536435" lon="12.2415698"><ele>280.5</ele><time>2026-04-26T14:11:10.043Z</time></trkpt><trkpt lat="43.45363" lon="12.2417268"><ele>281.0</ele><time>2026-04-26T14:11:11.049Z</time></trkpt><trkpt lat="43.4536188" lon="12.241868"><ele>281.33333333333337</ele><time>2026-04-26T14:11:12.058Z</time></trkpt><trkpt lat="43.4536087" lon="12.2419914"><ele>281.6666666666667</ele><time>2026-04-26T14:11:13.044Z</time></trkpt><trkpt lat="43.4536017" lon="12.2420963"><ele>282.0</ele><time>2026-04-26T14:11:14.039Z</time></trkpt><trkpt lat="43.4535929" lon="12.2421934"><ele>282.3333333333333</ele><time>2026-04-26T14:11:15.04Z</time></trkpt><trkpt lat="43.4535939" lon="12.2422869"><ele>282.66666666666663</ele><time>2026-04-26T14:11:16.045Z</time></trkpt><trkpt lat="43.4536056" lon="12.2423777"><ele>283.0</ele><time>2026-04-26T14:11:17.04Z</time></trkpt><trkpt lat="43.4536676" lon="12.242537"><ele>283.0</ele><time>2026-04-26T14:11:19.04Z</time></trkpt><trkpt lat="43.4537144" lon="12.2426077"><ele>283.0</ele><time>2026-04-26T14:11:20.039Z</time></trkpt><trkpt lat="43.4537679" lon="12.2426754"><ele>283.0</ele><time>2026-04-26T14:11:21.042Z</time></trkpt><trkpt lat="43.4538175" lon="12.2427415"><ele>283.0</ele><time>2026-04-26T14:11:22.055Z</time></trkpt><trkpt lat="43.4538611" lon="12.2428084"><ele>283.0</ele><time>2026-04-26T14:11:23.05Z</time></trkpt><trkpt lat="43.453898" lon="12.2428871"><ele>283.0</ele><time>2026-04-26T14:11:24.048Z</time></trkpt><trkpt lat="43.4539371" lon="12.2429728"><ele>283.0</ele><time>2026-04-26T14:11:25.051Z</time></trkpt><trkpt lat="43.4539697" lon="12.2430692"><ele>283.66666666666663</ele><time>2026-04-26T14:11:26.051Z</time></trkpt><trkpt lat="43.4540038" lon="12.2431711"><ele>284.3333333333333</ele><time>2026-04-26T14:11:27.056Z</time></trkpt><trkpt lat="43.4540392" lon="12.2432592"><ele>285.0</ele><time>2026-04-26T14:11:28.04Z</time></trkpt><trkpt lat="43.4540752" lon="12.2433422"><ele>285.6666666666667</ele><time>2026-04-26T14:11:29.059Z</time></trkpt><trkpt lat="43.4541081" lon="12.2434202"><ele>286.33333333333337</ele><time>2026-04-26T14:11:30.042Z</time></trkpt><trkpt lat="43.4541381" lon="12.2435653"><ele>287.0</ele><time>2026-04-26T14:11:32.044Z</time></trkpt><trkpt lat="43.4541357" lon="12.2437074"><ele>287.0</ele><time>2026-04-26T14:11:34.053Z</time></trkpt><trkpt lat="43.4540766" lon="12.2438324"><ele>287.0</ele><time>2026-04-26T14:11:36.045Z</time></trkpt><trkpt lat="43.4540227" lon="12.2438855"><ele>287.0</ele><time>2026-04-26T14:11:37.047Z</time></trkpt><trkpt lat="43.4539583" lon="12.243939"><ele>287.0</ele><time>2026-04-26T14:11:38.047Z</time></trkpt><trkpt lat="43.4538899" lon="12.2439922"><ele>287.0</ele><time>2026-04-26T14:11:39.04Z</time></trkpt><trkpt lat="43.4538213" lon="12.2440459"><ele>287.0</ele><time>2026-04-26T14:11:40.042Z</time></trkpt><trkpt lat="43.45375" lon="12.2441039"><ele>286.0</ele><time>2026-04-26T14:11:41.058Z</time></trkpt><trkpt lat="43.4536769" lon="12.244163"><ele>285.0</ele><time>2026-04-26T14:11:42.032Z</time></trkpt><trkpt lat="43.4535985" lon="12.2442166"><ele>284.0</ele><time>2026-04-26T14:11:43.048Z</time></trkpt><trkpt lat="43.4535203" lon="12.2442789"><ele>283.0</ele><time>2026-04-26T14:11:44.049Z</time></trkpt><trkpt lat="43.4534345" lon="12.2443427"><ele>282.0</ele><time>2026-04-26T14:11:45.046Z</time></trkpt><trkpt lat="43.4533416" lon="12.244417"><ele>282.0</ele><time>2026-04-26T14:11:46.035Z</time></trkpt><trkpt lat="43.4532489" lon="12.2444919"><ele>282.0</ele><time>2026-04-26T14:11:47.047Z</time></trkpt><trkpt lat="43.4531455" lon="12.2445806"><ele>282.0</ele><time>2026-04-26T14:11:48.037Z</time></trkpt><trkpt lat="43.4530271" lon="12.2446716"><ele>282.0</ele><time>2026-04-26T14:11:49.049Z</time></trkpt><trkpt lat="43.4528963" lon="12.2447644"><ele>282.0</ele><time>2026-04-26T14:11:50.034Z</time></trkpt><trkpt lat="43.4527558" lon="12.2448594"><ele>282.0</ele><time>2026-04-26T14:11:51.053Z</time></trkpt><trkpt lat="43.4526091" lon="12.2449605"><ele>282.0</ele><time>2026-04-26T14:11:52.043Z</time></trkpt><trkpt lat="43.4524572" lon="12.2450667"><ele>282.0</ele><time>2026-04-26T14:11:53.05Z</time></trkpt><trkpt lat="43.4523043" lon="12.2451734"><ele>282.0</ele><time>2026-04-26T14:11:54.043Z</time></trkpt><trkpt lat="43.4521468" lon="12.245287"><ele>282.0</ele><time>2026-04-26T14:11:55.046Z</time></trkpt><trkpt lat="43.4519946" lon="12.2453962"><ele>281.6666666666667</ele><time>2026-04-26T14:11:56.035Z</time></trkpt><trkpt lat="43.451851" lon="12.2454992"><ele>281.33333333333337</ele><time>2026-04-26T14:11:57.051Z</time></trkpt><trkpt lat="43.4517204" lon="12.2455962"><ele>281.0</ele><time>2026-04-26T14:11:58.043Z</time></trkpt><trkpt lat="43.4515977" lon="12.2456897"><ele>281.0</ele><time>2026-04-26T14:11:59.043Z</time></trkpt><trkpt lat="43.4514821" lon="12.2457719"><ele>281.0</ele><time>2026-04-26T14:12:00.045Z</time></trkpt><trkpt lat="43.451368" lon="12.2458431"><ele>281.0</ele><time>2026-04-26T14:12:01.051Z</time></trkpt><trkpt lat="43.4512569" lon="12.2459124"><ele>281.0</ele><time>2026-04-26T14:12:02.045Z</time></trkpt><trkpt lat="43.4511499" lon="12.2459565"><ele>280.0</ele><time>2026-04-26T14:12:03.044Z</time></trkpt><trkpt lat="43.4510476" lon="12.2459967"><ele>279.0</ele><time>2026-04-26T14:12:04.051Z</time></trkpt><trkpt lat="43.4509539" lon="12.2460736"><ele>278.0</ele><time>2026-04-26T14:12:05.041Z</time></trkpt><trkpt lat="43.4508588" lon="12.2461816"><ele>277.0</ele><time>2026-04-26T14:12:06.038Z</time></trkpt><trkpt lat="43.4507546" lon="12.2462933"><ele>277.0</ele><time>2026-04-26T14:12:07.044Z</time></trkpt><trkpt lat="43.4506405" lon="12.2463964"><ele>277.0</ele><time>2026-04-26T14:12:08.027Z</time></trkpt><trkpt lat="43.4505131" lon="12.2464934"><ele>277.0</ele><time>2026-04-26T14:12:09.046Z</time></trkpt><trkpt lat="43.4503888" lon="12.2465861"><ele>277.0</ele><time>2026-04-26T14:12:10.049Z</time></trkpt><trkpt lat="43.4502628" lon="12.2466766"><ele>277.5</ele><time>2026-04-26T14:12:11.045Z</time></trkpt><trkpt lat="43.4501375" lon="12.2467703"><ele>278.0</ele><time>2026-04-26T14:12:12.041Z</time></trkpt><trkpt lat="43.4500185" lon="12.2468599"><ele>278.5</ele><time>2026-04-26T14:12:13.041Z</time></trkpt><trkpt lat="43.4499036" lon="12.246941"><ele>279.0</ele><time>2026-04-26T14:12:14.039Z</time></trkpt><trkpt lat="43.4497882" lon="12.2470035"><ele>279.0</ele><time>2026-04-26T14:12:15.048Z</time></trkpt><trkpt lat="43.4496647" lon="12.2470537"><ele>279.0</ele><time>2026-04-26T14:12:16.03Z</time></trkpt><trkpt lat="43.4495339" lon="12.2470834"><ele>279.0</ele><time>2026-04-26T14:12:17.047Z</time></trkpt><trkpt lat="43.4493969" lon="12.2470897"><ele>279.0</ele><time>2026-04-26T14:12:18.035Z</time></trkpt><trkpt lat="43.4492495" lon="12.2470731"><ele>279.25</ele><time>2026-04-26T14:12:19.039Z</time></trkpt><trkpt lat="43.4491024" lon="12.2470443"><ele>279.5</ele><time>2026-04-26T14:12:20.036Z</time></trkpt><trkpt lat="43.4489523" lon="12.2470097"><ele>279.75</ele><time>2026-04-26T14:12:21.044Z</time></trkpt><trkpt lat="43.4488066" lon="12.246978"><ele>280.0</ele><time>2026-04-26T14:12:22.047Z</time></trkpt><trkpt lat="43.4486552" lon="12.2469451"><ele>280.3333333333333</ele><time>2026-04-26T14:12:23.05Z</time></trkpt><trkpt lat="43.4485028" lon="12.2469145"><ele>280.6666666666667</ele><time>2026-04-26T14:12:24.034Z</time></trkpt><trkpt lat="43.4483531" lon="12.2468772"><ele>281.0</ele><time>2026-04-26T14:12:25.047Z</time></trkpt><trkpt lat="43.4482099" lon="12.2468426"><ele>281.0</ele><time>2026-04-26T14:12:26.043Z</time></trkpt><trkpt lat="43.4480699" lon="12.2468123"><ele>281.0</ele><time>2026-04-26T14:12:27.055Z</time></trkpt><trkpt lat="43.4479346" lon="12.2468013"><ele>281.0</ele><time>2026-04-26T14:12:28.037Z</time></trkpt><trkpt lat="43.4477984" lon="12.2468052"><ele>281.0</ele><time>2026-04-26T14:12:29.036Z</time></trkpt><trkpt lat="43.4476559" lon="12.2468286"><ele>281.6666666666667</ele><time>2026-04-26T14:12:30.041Z</time></trkpt><trkpt lat="43.4475127" lon="12.2468832"><ele>282.3333333333333</ele><time>2026-04-26T14:12:31.037Z</time></trkpt><trkpt lat="43.4473707" lon="12.2469618"><ele>283.0</ele><time>2026-04-26T14:12:32.037Z</time></trkpt><trkpt lat="43.4472278" lon="12.2470524"><ele>282.66666666666663</ele><time>2026-04-26T14:12:33.047Z</time></trkpt><trkpt lat="43.4470812" lon="12.247147"><ele>282.3333333333333</ele><time>2026-04-26T14:12:34.044Z</time></trkpt><trkpt lat="43.4469345" lon="12.2472472"><ele>282.0</ele><time>2026-04-26T14:12:35.04Z</time></trkpt><trkpt lat="43.446788" lon="12.2473456"><ele>282.0</ele><time>2026-04-26T14:12:36.03Z</time></trkpt><trkpt lat="43.4466383" lon="12.2474522"><ele>282.0</ele><time>2026-04-26T14:12:37.047Z</time></trkpt><trkpt lat="43.4464811" lon="12.2475566"><ele>282.0</ele><time>2026-04-26T14:12:38.041Z</time></trkpt><trkpt lat="43.4463254" lon="12.2476584"><ele>281.6666666666667</ele><time>2026-04-26T14:12:39.034Z</time></trkpt><trkpt lat="43.4461717" lon="12.2477689"><ele>281.33333333333337</ele><time>2026-04-26T14:12:40.037Z</time></trkpt><trkpt lat="43.4460203" lon="12.2478757"><ele>281.0</ele><time>2026-04-26T14:12:41.042Z</time></trkpt><trkpt lat="43.4458738" lon="12.2479781"><ele>281.0</ele><time>2026-04-26T14:12:42.05Z</time></trkpt><trkpt lat="43.4457268" lon="12.2480793"><ele>281.0</ele><time>2026-04-26T14:12:43.045Z</time></trkpt><trkpt lat="43.4455768" lon="12.2481744"><ele>281.0</ele><time>2026-04-26T14:12:44.041Z</time></trkpt><trkpt lat="43.445437" lon="12.2482576"><ele>281.33333333333337</ele><time>2026-04-26T14:12:45.034Z</time></trkpt><trkpt lat="43.445302" lon="12.2483432"><ele>281.6666666666667</ele><time>2026-04-26T14:12:46.038Z</time></trkpt><trkpt lat="43.4451618" lon="12.2484283"><ele>282.0</ele><time>2026-04-26T14:12:47.032Z</time></trkpt><trkpt lat="43.4450155" lon="12.2485136"><ele>282.0</ele><time>2026-04-26T14:12:48.032Z</time></trkpt><trkpt lat="43.4448652" lon="12.2485945"><ele>282.0</ele><time>2026-04-26T14:12:49.037Z</time></trkpt><trkpt lat="43.4447192" lon="12.2486712"><ele>282.0</ele><time>2026-04-26T14:12:50.041Z</time></trkpt><trkpt lat="43.444572" lon="12.2487443"><ele>282.0</ele><time>2026-04-26T14:12:51.036Z</time></trkpt><trkpt lat="43.4444331" lon="12.2488059"><ele>282.0</ele><time>2026-04-26T14:12:52.045Z</time></trkpt><trkpt lat="43.4443009" lon="12.2488607"><ele>282.0</ele><time>2026-04-26T14:12:53.036Z</time></trkpt><trkpt lat="43.4441633" lon="12.248919"><ele>282.0</ele><time>2026-04-26T14:12:54.044Z</time></trkpt><trkpt lat="43.4440192" lon="12.2489737"><ele>281.6666666666667</ele><time>2026-04-26T14:12:55.037Z</time></trkpt><trkpt lat="43.4438708" lon="12.2490361"><ele>281.33333333333337</ele><time>2026-04-26T14:12:56.05Z</time></trkpt><trkpt lat="43.4437189" lon="12.2490997"><ele>281.0</ele><time>2026-04-26T14:12:57.05Z</time></trkpt><trkpt lat="43.4435666" lon="12.2491586"><ele>281.0</ele><time>2026-04-26T14:12:58.038Z</time></trkpt><trkpt lat="43.4434226" lon="12.249218"><ele>281.0</ele><time>2026-04-26T14:12:59.045Z</time></trkpt><trkpt lat="43.4432821" lon="12.2492809"><ele>281.0</ele><time>2026-04-26T14:13:00.038Z</time></trkpt><trkpt lat="43.4431529" lon="12.2493361"><ele>281.0</ele><time>2026-04-26T14:13:01.044Z</time></trkpt><trkpt lat="43.4430284" lon="12.2493911"><ele>281.0</ele><time>2026-04-26T14:13:02.036Z</time></trkpt><trkpt lat="43.4428988" lon="12.2494452"><ele>281.0</ele><time>2026-04-26T14:13:03.046Z</time></trkpt><trkpt lat="43.4427689" lon="12.2494928"><ele>281.0</ele><time>2026-04-26T14:13:04.039Z</time></trkpt><trkpt lat="43.4426366" lon="12.2495414"><ele>281.0</ele><time>2026-04-26T14:13:05.036Z</time></trkpt><trkpt lat="43.442504" lon="12.2495744"><ele>281.0</ele><time>2026-04-26T14:13:06.036Z</time></trkpt><trkpt lat="43.4423704" lon="12.249589"><ele>281.0</ele><time>2026-04-26T14:13:07.04Z</time></trkpt><trkpt lat="43.4422343" lon="12.2496056"><ele>281.0</ele><time>2026-04-26T14:13:08.05Z</time></trkpt><trkpt lat="43.4420886" lon="12.2496172"><ele>281.0</ele><time>2026-04-26T14:13:09.048Z</time></trkpt><trkpt lat="43.4419344" lon="12.249624"><ele>280.6666666666667</ele><time>2026-04-26T14:13:10.037Z</time></trkpt><trkpt lat="43.4417772" lon="12.2496256"><ele>280.3333333333333</ele><time>2026-04-26T14:13:11.041Z</time></trkpt><trkpt lat="43.4416074" lon="12.2496328"><ele>280.0</ele><time>2026-04-26T14:13:12.04Z</time></trkpt><trkpt lat="43.4414369" lon="12.2496438"><ele>279.3333333333333</ele><time>2026-04-26T14:13:13.045Z</time></trkpt><trkpt lat="43.4412623" lon="12.2496584"><ele>278.6666666666667</ele><time>2026-04-26T14:13:14.044Z</time></trkpt><trkpt lat="43.4410846" lon="12.2496688"><ele>278.0</ele><time>2026-04-26T14:13:15.05Z</time></trkpt><trkpt lat="43.4409141" lon="12.2496727"><ele>278.0</ele><time>2026-04-26T14:13:16.031Z</time></trkpt><trkpt lat="43.4407519" lon="12.2496746"><ele>278.0</ele><time>2026-04-26T14:13:17.043Z</time></trkpt><trkpt lat="43.4405973" lon="12.2496673"><ele>278.0</ele><time>2026-04-26T14:13:18.04Z</time></trkpt><trkpt lat="43.4404427" lon="12.2496427"><ele>278.6666666666667</ele><time>2026-04-26T14:13:19.043Z</time></trkpt><trkpt lat="43.4402843" lon="12.2496276"><ele>279.3333333333333</ele><time>2026-04-26T14:13:20.04Z</time></trkpt><trkpt lat="43.4401332" lon="12.24961"><ele>280.0</ele><time>2026-04-26T14:13:21.036Z</time></trkpt><trkpt lat="43.4399929" lon="12.2495897"><ele>280.0</ele><time>2026-04-26T14:13:22.047Z</time></trkpt><trkpt lat="43.4398566" lon="12.2495742"><ele>280.0</ele><time>2026-04-26T14:13:23.049Z</time></trkpt><trkpt lat="43.4397198" lon="12.2495568"><ele>280.0</ele><time>2026-04-26T14:13:24.034Z</time></trkpt><trkpt lat="43.4395877" lon="12.2495421"><ele>280.0</ele><time>2026-04-26T14:13:25.051Z</time></trkpt><trkpt lat="43.4394577" lon="12.2495262"><ele>281.0</ele><time>2026-04-26T14:13:26.042Z</time></trkpt><trkpt lat="43.4393224" lon="12.2495104"><ele>282.0</ele><time>2026-04-26T14:13:27.049Z</time></trkpt><trkpt lat="43.439182" lon="12.2495001"><ele>283.0</ele><time>2026-04-26T14:13:28.04Z</time></trkpt><trkpt lat="43.4390349" lon="12.2494889"><ele>284.0</ele><time>2026-04-26T14:13:29.049Z</time></trkpt><trkpt lat="43.4388831" lon="12.2494803"><ele>283.6666666666667</ele><time>2026-04-26T14:13:30.041Z</time></trkpt><trkpt lat="43.4387244" lon="12.249473"><ele>283.3333333333333</ele><time>2026-04-26T14:13:31.044Z</time></trkpt><trkpt lat="43.4385652" lon="12.2494679"><ele>283.0</ele><time>2026-04-26T14:13:32.04Z</time></trkpt><trkpt lat="43.4384026" lon="12.2494695"><ele>283.0</ele><time>2026-04-26T14:13:33.05Z</time></trkpt><trkpt lat="43.4382397" lon="12.2494679"><ele>283.0</ele><time>2026-04-26T14:13:34.038Z</time></trkpt><trkpt lat="43.4380835" lon="12.2494794"><ele>283.0</ele><time>2026-04-26T14:13:35.041Z</time></trkpt><trkpt lat="43.4379404" lon="12.2494974"><ele>283.5</ele><time>2026-04-26T14:13:36.062Z</time></trkpt><trkpt lat="43.4378075" lon="12.2495228"><ele>284.0</ele><time>2026-04-26T14:13:37.042Z</time></trkpt><trkpt lat="43.4376775" lon="12.2495497"><ele>284.5</ele><time>2026-04-26T14:13:38.038Z</time></trkpt><trkpt lat="43.4375506" lon="12.2495871"><ele>285.0</ele><time>2026-04-26T14:13:39.049Z</time></trkpt><trkpt lat="43.4374491" lon="12.2496225"><ele>285.0</ele><time>2026-04-26T14:13:40.047Z</time></trkpt><trkpt lat="43.4373679" lon="12.2496554"><ele>285.0</ele><time>2026-04-26T14:13:41.051Z</time></trkpt><trkpt lat="43.4373048" lon="12.2496872"><ele>285.0</ele><time>2026-04-26T14:13:42.039Z</time></trkpt><trkpt lat="43.4372271" lon="12.2497246"><ele>285.0</ele><time>2026-04-26T14:13:44.042Z</time></trkpt><trkpt lat="43.4371825" lon="12.249794"><ele>285.0</ele><time>2026-04-26T14:13:46.044Z</time></trkpt><trkpt lat="43.4372017" lon="12.2499357"><ele>285.0</ele><time>2026-04-26T14:13:48.036Z</time></trkpt><trkpt lat="43.4372585" lon="12.2501019"><ele>285.8333333333333</ele><time>2026-04-26T14:13:50.032Z</time></trkpt><trkpt lat="43.4372922" lon="12.2502115"><ele>286.6666666666667</ele><time>2026-04-26T14:13:51.047Z</time></trkpt><trkpt lat="43.4373234" lon="12.2503354"><ele>287.5</ele><time>2026-04-26T14:13:52.042Z</time></trkpt><trkpt lat="43.4373482" lon="12.2504549"><ele>288.33333333333337</ele><time>2026-04-26T14:13:53.047Z</time></trkpt><trkpt lat="43.437369" lon="12.2505678"><ele>289.1666666666667</ele><time>2026-04-26T14:13:54.044Z</time></trkpt><trkpt lat="43.4373884" lon="12.2506851"><ele>290.0</ele><time>2026-04-26T14:13:55.03Z</time></trkpt><trkpt lat="43.4374138" lon="12.2508152"><ele>290.33333333333337</ele><time>2026-04-26T14:13:56.047Z</time></trkpt><trkpt lat="43.4374331" lon="12.2509299"><ele>290.6666666666667</ele><time>2026-04-26T14:13:57.047Z</time></trkpt><trkpt lat="43.4374501" lon="12.2510323"><ele>291.0</ele><time>2026-04-26T14:13:58.045Z</time></trkpt><trkpt lat="43.4374967" lon="12.2511777"><ele>291.3333333333333</ele><time>2026-04-26T14:14:00.038Z</time></trkpt><trkpt lat="43.4375803" lon="12.2512172"><ele>291.66666666666663</ele><time>2026-04-26T14:14:02.039Z</time></trkpt><trkpt lat="43.4376417" lon="12.2511647"><ele>292.0</ele><time>2026-04-26T14:14:04.046Z</time></trkpt><trkpt lat="43.4376775" lon="12.2512786"><ele>292.0</ele><time>2026-04-26T14:14:07.046Z</time></trkpt><trkpt lat="43.437664" lon="12.2513911"><ele>292.0</ele><time>2026-04-26T14:14:08.042Z</time></trkpt><trkpt lat="43.4376378" lon="12.2515317"><ele>292.0</ele><time>2026-04-26T14:14:09.035Z</time></trkpt><trkpt lat="43.4376239" lon="12.2516691"><ele>292.0</ele><time>2026-04-26T14:14:10.033Z</time></trkpt><trkpt lat="43.4376061" lon="12.2518147"><ele>292.0</ele><time>2026-04-26T14:14:11.057Z</time></trkpt><trkpt lat="43.4375821" lon="12.2519777"><ele>292.4</ele><time>2026-04-26T14:14:12.051Z</time></trkpt><trkpt lat="43.437562" lon="12.2521317"><ele>292.79999999999995</ele><time>2026-04-26T14:14:13.059Z</time></trkpt><trkpt lat="43.4375407" lon="12.2522874"><ele>293.2</ele><time>2026-04-26T14:14:14.057Z</time></trkpt><trkpt lat="43.4375215" lon="12.2524344"><ele>293.59999999999997</ele><time>2026-04-26T14:14:15.049Z</time></trkpt><trkpt lat="43.4375027" lon="12.2525666"><ele>294.0</ele><time>2026-04-26T14:14:16.044Z</time></trkpt><trkpt lat="43.4374969" lon="12.2526907"><ele>294.0</ele><time>2026-04-26T14:14:17.043Z</time></trkpt><trkpt lat="43.4375124" lon="12.2528034"><ele>294.0</ele><time>2026-04-26T14:14:18.038Z</time></trkpt><trkpt lat="43.4375446" lon="12.2529167"><ele>294.0</ele><time>2026-04-26T14:14:19.048Z</time></trkpt><trkpt lat="43.437578" lon="12.2530445"><ele>294.0</ele><time>2026-04-26T14:14:20.048Z</time></trkpt><trkpt lat="43.4376112" lon="12.2531735"><ele>294.0</ele><time>2026-04-26T14:14:21.039Z</time></trkpt><trkpt lat="43.4376482" lon="12.2533163"><ele>294.3333333333333</ele><time>2026-04-26T14:14:22.057Z</time></trkpt><trkpt lat="43.4376836" lon="12.2534517"><ele>294.6666666666667</ele><time>2026-04-26T14:14:23.052Z</time></trkpt><trkpt lat="43.43772" lon="12.253577"><ele>295.0</ele><time>2026-04-26T14:14:24.042Z</time></trkpt><trkpt lat="43.4377519" lon="12.2536878"><ele>295.33333333333337</ele><time>2026-04-26T14:14:25.063Z</time></trkpt><trkpt lat="43.4377785" lon="12.2537877"><ele>295.6666666666667</ele><time>2026-04-26T14:14:26.044Z</time></trkpt><trkpt lat="43.4377953" lon="12.2538808"><ele>296.0</ele><time>2026-04-26T14:14:27.05Z</time></trkpt><trkpt lat="43.4378163" lon="12.2539654"><ele>296.2</ele><time>2026-04-26T14:14:28.036Z</time></trkpt><trkpt lat="43.4378461" lon="12.2540802"><ele>296.40000000000003</ele><time>2026-04-26T14:14:30.046Z</time></trkpt><trkpt lat="43.4378052" lon="12.2541889"><ele>296.6</ele><time>2026-04-26T14:14:34.044Z</time></trkpt><trkpt lat="43.4376899" lon="12.2542789"><ele>296.8</ele><time>2026-04-26T14:14:36.038Z</time></trkpt><trkpt lat="43.4376146" lon="12.2543398"><ele>297.0</ele><time>2026-04-26T14:14:37.045Z</time></trkpt><trkpt lat="43.4375247" lon="12.254413"><ele>297.0</ele><time>2026-04-26T14:14:38.043Z</time></trkpt><trkpt lat="43.4374317" lon="12.2544958"><ele>297.0</ele><time>2026-04-26T14:14:39.046Z</time></trkpt><trkpt lat="43.4373237" lon="12.2545854"><ele>297.0</ele><time>2026-04-26T14:14:40.037Z</time></trkpt><trkpt lat="43.4372024" lon="12.2546935"><ele>297.0</ele><time>2026-04-26T14:14:41.045Z</time></trkpt><trkpt lat="43.4370779" lon="12.2548079"><ele>297.0</ele><time>2026-04-26T14:14:42.038Z</time></trkpt><trkpt lat="43.4369519" lon="12.2549349"><ele>297.0</ele><time>2026-04-26T14:14:43.043Z</time></trkpt><trkpt lat="43.4368417" lon="12.2550676"><ele>297.0</ele><time>2026-04-26T14:14:44.034Z</time></trkpt><trkpt lat="43.4367327" lon="12.2552026"><ele>297.0</ele><time>2026-04-26T14:14:45.046Z</time></trkpt><trkpt lat="43.4366202" lon="12.2553447"><ele>297.0</ele><time>2026-04-26T14:14:46.044Z</time></trkpt><trkpt lat="43.4365048" lon="12.2554877"><ele>297.0</ele><time>2026-04-26T14:14:47.036Z</time></trkpt><trkpt lat="43.4363805" lon="12.255653"><ele>297.0</ele><time>2026-04-26T14:14:48.034Z</time></trkpt><trkpt lat="43.4362529" lon="12.2558154"><ele>296.6666666666667</ele><time>2026-04-26T14:14:49.037Z</time></trkpt><trkpt lat="43.4361245" lon="12.255982"><ele>296.33333333333337</ele><time>2026-04-26T14:14:50.04Z</time></trkpt><trkpt lat="43.4360052" lon="12.2561505"><ele>296.0</ele><time>2026-04-26T14:14:51.044Z</time></trkpt><trkpt lat="43.4358919" lon="12.2563151"><ele>296.0</ele><time>2026-04-26T14:14:52.034Z</time></trkpt><trkpt lat="43.4357877" lon="12.2564797"><ele>296.0</ele><time>2026-04-26T14:14:53.038Z</time></trkpt><trkpt lat="43.4356987" lon="12.2566464"><ele>296.0</ele><time>2026-04-26T14:14:54.047Z</time></trkpt><trkpt lat="43.4356215" lon="12.2568234"><ele>296.0</ele><time>2026-04-26T14:14:55.047Z</time></trkpt><trkpt lat="43.43557" lon="12.257011"><ele>296.0</ele><time>2026-04-26T14:14:56.038Z</time></trkpt><trkpt lat="43.4355384" lon="12.2572241"><ele>296.0</ele><time>2026-04-26T14:14:57.041Z</time></trkpt><trkpt lat="43.435521" lon="12.2574507"><ele>296.6666666666667</ele><time>2026-04-26T14:14:58.034Z</time></trkpt><trkpt lat="43.4355173" lon="12.2576817"><ele>297.3333333333333</ele><time>2026-04-26T14:14:59.036Z</time></trkpt><trkpt lat="43.4355154" lon="12.2579243"><ele>298.0</ele><time>2026-04-26T14:15:00.042Z</time></trkpt><trkpt lat="43.4355118" lon="12.2581507"><ele>298.0</ele><time>2026-04-26T14:15:01.04Z</time></trkpt><trkpt lat="43.4355056" lon="12.2583758"><ele>298.0</ele><time>2026-04-26T14:15:02.042Z</time></trkpt><trkpt lat="43.4354865" lon="12.2585884"><ele>298.0</ele><time>2026-04-26T14:15:03.042Z</time></trkpt><trkpt lat="43.4354564" lon="12.2587896"><ele>294.5</ele><time>2026-04-26T14:15:04.039Z</time></trkpt><trkpt lat="43.43542" lon="12.2589858"><ele>291.0</ele><time>2026-04-26T14:15:05.049Z</time></trkpt><trkpt lat="43.4353881" lon="12.2591783"><ele>287.5</ele><time>2026-04-26T14:15:06.036Z</time></trkpt><trkpt lat="43.435371" lon="12.2593626"><ele>284.0</ele><time>2026-04-26T14:15:07.048Z</time></trkpt><trkpt lat="43.4353578" lon="12.2595444"><ele>284.0</ele><time>2026-04-26T14:15:08.044Z</time></trkpt><trkpt lat="43.4353563" lon="12.2597162"><ele>284.0</ele><time>2026-04-26T14:15:09.043Z</time></trkpt><trkpt lat="43.4353537" lon="12.2598758"><ele>284.0</ele><time>2026-04-26T14:15:10.035Z</time></trkpt><trkpt lat="43.4353572" lon="12.2600514"><ele>284.0</ele><time>2026-04-26T14:15:11.049Z</time></trkpt><trkpt lat="43.4353659" lon="12.2602334"><ele>284.5</ele><time>2026-04-26T14:15:12.03Z</time></trkpt><trkpt lat="43.4353687" lon="12.2604204"><ele>285.0</ele><time>2026-04-26T14:15:13.049Z</time></trkpt><trkpt lat="43.4353542" lon="12.2606141"><ele>285.5</ele><time>2026-04-26T14:15:14.038Z</time></trkpt><trkpt lat="43.4353293" lon="12.2608149"><ele>286.0</ele><time>2026-04-26T14:15:15.047Z</time></trkpt><trkpt lat="43.4353137" lon="12.2610102"><ele>286.5</ele><time>2026-04-26T14:15:16.047Z</time></trkpt><trkpt lat="43.4353156" lon="12.2612138"><ele>287.0</ele><time>2026-04-26T14:15:17.048Z</time></trkpt><trkpt lat="43.4353262" lon="12.2614174"><ele>287.5</ele><time>2026-04-26T14:15:18.043Z</time></trkpt><trkpt lat="43.43535" lon="12.2616256"><ele>288.0</ele><time>2026-04-26T14:15:19.045Z</time></trkpt><trkpt lat="43.4353734" lon="12.2618413"><ele>288.3333333333333</ele><time>2026-04-26T14:15:20.037Z</time></trkpt><trkpt lat="43.4354082" lon="12.2620605"><ele>288.66666666666663</ele><time>2026-04-26T14:15:21.045Z</time></trkpt><trkpt lat="43.4354489" lon="12.2622907"><ele>289.0</ele><time>2026-04-26T14:15:22.03Z</time></trkpt><trkpt lat="43.4355027" lon="12.2625303"><ele>294.3333333333333</ele><time>2026-04-26T14:15:23.039Z</time></trkpt><trkpt lat="43.4355637" lon="12.2627653"><ele>299.6666666666667</ele><time>2026-04-26T14:15:24.035Z</time></trkpt><trkpt lat="43.4356335" lon="12.2630038"><ele>305.0</ele><time>2026-04-26T14:15:25.042Z</time></trkpt><trkpt lat="43.4357009" lon="12.2632389"><ele>305.0</ele><time>2026-04-26T14:15:26.035Z</time></trkpt><trkpt lat="43.4357591" lon="12.2634468"><ele>305.0</ele><time>2026-04-26T14:15:27.042Z</time></trkpt><trkpt lat="43.4358249" lon="12.2636407"><ele>305.0</ele><time>2026-04-26T14:15:28.05Z</time></trkpt><trkpt lat="43.4359195" lon="12.2638222"><ele>304.0</ele><time>2026-04-26T14:15:29.034Z</time></trkpt><trkpt lat="43.4360191" lon="12.263982"><ele>303.0</ele><time>2026-04-26T14:15:30.041Z</time></trkpt><trkpt lat="43.4361065" lon="12.2641401"><ele>302.0</ele><time>2026-04-26T14:15:31.045Z</time></trkpt><trkpt lat="43.4361856" lon="12.2642887"><ele>301.0</ele><time>2026-04-26T14:15:32.037Z</time></trkpt><trkpt lat="43.4362633" lon="12.2644245"><ele>302.25</ele><time>2026-04-26T14:15:33.035Z</time></trkpt><trkpt lat="43.4363487" lon="12.2645482"><ele>303.5</ele><time>2026-04-26T14:15:34.039Z</time></trkpt><trkpt lat="43.4364267" lon="12.2646488"><ele>304.75</ele><time>2026-04-26T14:15:35.04Z</time></trkpt><trkpt lat="43.436511" lon="12.2647461"><ele>306.0</ele><time>2026-04-26T14:15:36.035Z</time></trkpt><trkpt lat="43.4366011" lon="12.2648348"><ele>306.0</ele><time>2026-04-26T14:15:37.041Z</time></trkpt><trkpt lat="43.4367" lon="12.2649246"><ele>306.0</ele><time>2026-04-26T14:15:38.046Z</time></trkpt><trkpt lat="43.4367947" lon="12.2650242"><ele>306.0</ele><time>2026-04-26T14:15:39.04Z</time></trkpt><trkpt lat="43.4368818" lon="12.2651451"><ele>306.0</ele><time>2026-04-26T14:15:40.031Z</time></trkpt><trkpt lat="43.4369704" lon="12.2652944"><ele>306.0</ele><time>2026-04-26T14:15:41.031Z</time></trkpt><trkpt lat="43.4370622" lon="12.2654539"><ele>306.0</ele><time>2026-04-26T14:15:42.043Z</time></trkpt><trkpt lat="43.4371586" lon="12.2656133"><ele>306.0</ele><time>2026-04-26T14:15:43.039Z</time></trkpt><trkpt lat="43.4372584" lon="12.2657808"><ele>310.6666666666667</ele><time>2026-04-26T14:15:44.041Z</time></trkpt><trkpt lat="43.4373598" lon="12.2659482"><ele>315.33333333333337</ele><time>2026-04-26T14:15:45.043Z</time></trkpt><trkpt lat="43.4374719" lon="12.2661206"><ele>320.0</ele><time>2026-04-26T14:15:46.041Z</time></trkpt><trkpt lat="43.4375806" lon="12.2662946"><ele>316.0</ele><time>2026-04-26T14:15:47.047Z</time></trkpt><trkpt lat="43.4376955" lon="12.2664725"><ele>312.0</ele><time>2026-04-26T14:15:48.031Z</time></trkpt><trkpt lat="43.43781" lon="12.2666463"><ele>308.0</ele><time>2026-04-26T14:15:49.038Z</time></trkpt><trkpt lat="43.4379333" lon="12.2668146"><ele>315.33333333333337</ele><time>2026-04-26T14:15:50.034Z</time></trkpt><trkpt lat="43.4380541" lon="12.2669784"><ele>322.6666666666667</ele><time>2026-04-26T14:15:51.044Z</time></trkpt><trkpt lat="43.4381706" lon="12.2671266"><ele>330.0</ele><time>2026-04-26T14:15:52.04Z</time></trkpt><trkpt lat="43.4382847" lon="12.2672705"><ele>326.0</ele><time>2026-04-26T14:15:53.033Z</time></trkpt><trkpt lat="43.4383907" lon="12.2674225"><ele>322.0</ele><time>2026-04-26T14:15:54.035Z</time></trkpt><trkpt lat="43.4384812" lon="12.2675865"><ele>318.0</ele><time>2026-04-26T14:15:55.044Z</time></trkpt><trkpt lat="43.4385448" lon="12.2677753"><ele>318.0</ele><time>2026-04-26T14:15:56.028Z</time></trkpt><trkpt lat="43.4385971" lon="12.2679907"><ele>318.0</ele><time>2026-04-26T14:15:57.04Z</time></trkpt><trkpt lat="43.4386383" lon="12.2682152"><ele>318.0</ele><time>2026-04-26T14:15:58.035Z</time></trkpt><trkpt lat="43.4386799" lon="12.2684336"><ele>317.6666666666667</ele><time>2026-04-26T14:15:59.042Z</time></trkpt><trkpt lat="43.4387332" lon="12.2686673"><ele>317.33333333333337</ele><time>2026-04-26T14:16:00.043Z</time></trkpt><trkpt lat="43.4387917" lon="12.2688864"><ele>317.0</ele><time>2026-04-26T14:16:01.044Z</time></trkpt><trkpt lat="43.4388528" lon="12.2690911"><ele>317.0</ele><time>2026-04-26T14:16:02.038Z</time></trkpt><trkpt lat="43.4389251" lon="12.2692989"><ele>317.0</ele><time>2026-04-26T14:16:03.038Z</time></trkpt><trkpt lat="43.4390148" lon="12.269511"><ele>317.0</ele><time>2026-04-26T14:16:04.029Z</time></trkpt><trkpt lat="43.4391131" lon="12.2697121"><ele>314.6666666666667</ele><time>2026-04-26T14:16:05.046Z</time></trkpt><trkpt lat="43.4392254" lon="12.2699203"><ele>312.3333333333333</ele><time>2026-04-26T14:16:06.032Z</time></trkpt><trkpt lat="43.4393364" lon="12.2701331"><ele>310.0</ele><time>2026-04-26T14:16:07.034Z</time></trkpt><trkpt lat="43.4394513" lon="12.2703486"><ele>310.0</ele><time>2026-04-26T14:16:08.034Z</time></trkpt><trkpt lat="43.4395718" lon="12.2705704"><ele>310.0</ele><time>2026-04-26T14:16:09.036Z</time></trkpt><trkpt lat="43.4396948" lon="12.2707852"><ele>310.0</ele><time>2026-04-26T14:16:10.04Z</time></trkpt><trkpt lat="43.4398161" lon="12.2710026"><ele>310.66666666666663</ele><time>2026-04-26T14:16:11.045Z</time></trkpt><trkpt lat="43.439943" lon="12.2712233"><ele>311.3333333333333</ele><time>2026-04-26T14:16:12.029Z</time></trkpt><trkpt lat="43.4400569" lon="12.2714564"><ele>312.0</ele><time>2026-04-26T14:16:13.038Z</time></trkpt><trkpt lat="43.4401562" lon="12.271695"><ele>312.0</ele><time>2026-04-26T14:16:14.026Z</time></trkpt><trkpt lat="43.4402522" lon="12.2719368"><ele>312.0</ele><time>2026-04-26T14:16:15.031Z</time></trkpt><trkpt lat="43.440344" lon="12.2721823"><ele>312.0</ele><time>2026-04-26T14:16:16.027Z</time></trkpt><trkpt lat="43.4404339" lon="12.2724247"><ele>312.0</ele><time>2026-04-26T14:16:17.041Z</time></trkpt><trkpt lat="43.4405162" lon="12.2726734"><ele>312.0</ele><time>2026-04-26T14:16:18.043Z</time></trkpt><trkpt lat="43.4405922" lon="12.2729192"><ele>312.0</ele><time>2026-04-26T14:16:19.038Z</time></trkpt><trkpt lat="43.4406581" lon="12.2731757"><ele>312.0</ele><time>2026-04-26T14:16:20.029Z</time></trkpt><trkpt lat="43.4407211" lon="12.273425"><ele>312.0</ele><time>2026-04-26T14:16:21.041Z</time></trkpt><trkpt lat="43.440781" lon="12.2736568"><ele>312.0</ele><time>2026-04-26T14:16:22.035Z</time></trkpt><trkpt lat="43.4408431" lon="12.2738836"><ele>311.3333333333333</ele><time>2026-04-26T14:16:23.04Z</time></trkpt><trkpt lat="43.4409179" lon="12.2741005"><ele>310.66666666666663</ele><time>2026-04-26T14:16:24.034Z</time></trkpt><trkpt lat="43.4410138" lon="12.2743063"><ele>310.0</ele><time>2026-04-26T14:16:25.045Z</time></trkpt><trkpt lat="43.4411246" lon="12.2744989"><ele>310.0</ele><time>2026-04-26T14:16:26.041Z</time></trkpt><trkpt lat="43.4412546" lon="12.2746794"><ele>310.0</ele><time>2026-04-26T14:16:27.038Z</time></trkpt><trkpt lat="43.4413957" lon="12.2748379"><ele>310.0</ele><time>2026-04-26T14:16:28.051Z</time></trkpt><trkpt lat="43.4415451" lon="12.2749664"><ele>311.3333333333333</ele><time>2026-04-26T14:16:29.046Z</time></trkpt><trkpt lat="43.4416962" lon="12.2750612"><ele>312.6666666666667</ele><time>2026-04-26T14:16:30.035Z</time></trkpt><trkpt lat="43.4418342" lon="12.275165"><ele>314.0</ele><time>2026-04-26T14:16:31.047Z</time></trkpt><trkpt lat="43.4419494" lon="12.2752908"><ele>314.0</ele><time>2026-04-26T14:16:32.039Z</time></trkpt><trkpt lat="43.4420339" lon="12.2754449"><ele>314.0</ele><time>2026-04-26T14:16:33.043Z</time></trkpt><trkpt lat="43.4421079" lon="12.2756341"><ele>314.0</ele><time>2026-04-26T14:16:34.033Z</time></trkpt><trkpt lat="43.4421869" lon="12.2758269"><ele>315.6666666666667</ele><time>2026-04-26T14:16:35.047Z</time></trkpt><trkpt lat="43.4422787" lon="12.2760266"><ele>317.3333333333333</ele><time>2026-04-26T14:16:36.035Z</time></trkpt><trkpt lat="43.4423782" lon="12.2762298"><ele>319.0</ele><time>2026-04-26T14:16:37.055Z</time></trkpt><trkpt lat="43.4424812" lon="12.2764319"><ele>316.0</ele><time>2026-04-26T14:16:38.041Z</time></trkpt><trkpt lat="43.442596" lon="12.2766496"><ele>313.0</ele><time>2026-04-26T14:16:39.052Z</time></trkpt><trkpt lat="43.4427125" lon="12.2768737"><ele>310.0</ele><time>2026-04-26T14:16:40.055Z</time></trkpt><trkpt lat="43.442816" lon="12.2771043"><ele>309.0</ele><time>2026-04-26T14:16:41.037Z</time></trkpt><trkpt lat="43.442906" lon="12.2773338"><ele>308.0</ele><time>2026-04-26T14:16:42.044Z</time></trkpt><trkpt lat="43.4429856" lon="12.2775378"><ele>307.0</ele><time>2026-04-26T14:16:43.043Z</time></trkpt><trkpt lat="43.4430709" lon="12.2777004"><ele>309.66666666666663</ele><time>2026-04-26T14:16:44.038Z</time></trkpt><trkpt lat="43.4431806" lon="12.2778344"><ele>312.3333333333333</ele><time>2026-04-26T14:16:45.043Z</time></trkpt><trkpt lat="43.44332" lon="12.2779439"><ele>315.0</ele><time>2026-04-26T14:16:46.036Z</time></trkpt><trkpt lat="43.4434603" lon="12.278002"><ele>315.0</ele><time>2026-04-26T14:16:47.038Z</time></trkpt><trkpt lat="43.443598" lon="12.2780491"><ele>315.0</ele><time>2026-04-26T14:16:48.034Z</time></trkpt><trkpt lat="43.4437245" lon="12.2780716"><ele>315.0</ele><time>2026-04-26T14:16:49.046Z</time></trkpt><trkpt lat="43.4438498" lon="12.2780485"><ele>315.0</ele><time>2026-04-26T14:16:50.038Z</time></trkpt><trkpt lat="43.4439586" lon="12.2779761"><ele>316.6</ele><time>2026-04-26T14:16:51.043Z</time></trkpt><trkpt lat="43.4440487" lon="12.2778858"><ele>318.2</ele><time>2026-04-26T14:16:52.044Z</time></trkpt><trkpt lat="43.4441372" lon="12.2778163"><ele>319.79999999999995</ele><time>2026-04-26T14:16:53.032Z</time></trkpt><trkpt lat="43.4442197" lon="12.2777967"><ele>321.4</ele><time>2026-04-26T14:16:54.039Z</time></trkpt><trkpt lat="43.4442927" lon="12.2778417"><ele>323.0</ele><time>2026-04-26T14:16:55.036Z</time></trkpt><trkpt lat="43.4443498" lon="12.2779222"><ele>323.0</ele><time>2026-04-26T14:16:56.035Z</time></trkpt><trkpt lat="43.4444002" lon="12.2780282"><ele>323.0</ele><time>2026-04-26T14:16:57.042Z</time></trkpt><trkpt lat="43.4444684" lon="12.278163"><ele>323.0</ele><time>2026-04-26T14:16:58.032Z</time></trkpt><trkpt lat="43.4445595" lon="12.2783052"><ele>323.0</ele><time>2026-04-26T14:16:59.042Z</time></trkpt><trkpt lat="43.4446477" lon="12.2784459"><ele>323.75</ele><time>2026-04-26T14:17:00.02Z</time></trkpt><trkpt lat="43.4447346" lon="12.2785767"><ele>324.5</ele><time>2026-04-26T14:17:01.031Z</time></trkpt><trkpt lat="43.4448303" lon="12.2786909"><ele>325.25</ele><time>2026-04-26T14:17:02.038Z</time></trkpt><trkpt lat="43.4449442" lon="12.2787572"><ele>326.0</ele><time>2026-04-26T14:17:03.04Z</time></trkpt><trkpt lat="43.4450671" lon="12.2787978"><ele>326.0</ele><time>2026-04-26T14:17:04.031Z</time></trkpt><trkpt lat="43.4451745" lon="12.2788732"><ele>326.0</ele><time>2026-04-26T14:17:05.036Z</time></trkpt><trkpt lat="43.4452446" lon="12.2789872"><ele>326.0</ele><time>2026-04-26T14:17:06.031Z</time></trkpt><trkpt lat="43.4452674" lon="12.2791395"><ele>326.0</ele><time>2026-04-26T14:17:07.041Z</time></trkpt><trkpt lat="43.445257" lon="12.279298"><ele>323.25</ele><time>2026-04-26T14:17:08.04Z</time></trkpt><trkpt lat="43.445224" lon="12.2794639"><ele>320.5</ele><time>2026-04-26T14:17:09.029Z</time></trkpt><trkpt lat="43.4451913" lon="12.2796563"><ele>317.75</ele><time>2026-04-26T14:17:10.034Z</time></trkpt><trkpt lat="43.4451806" lon="12.2798619"><ele>315.0</ele><time>2026-04-26T14:17:11.035Z</time></trkpt><trkpt lat="43.445196" lon="12.2800689"><ele>315.0</ele><time>2026-04-26T14:17:12.031Z</time></trkpt><trkpt lat="43.4452215" lon="12.2802803"><ele>315.0</ele><time>2026-04-26T14:17:13.043Z</time></trkpt><trkpt lat="43.4452617" lon="12.2804994"><ele>315.0</ele><time>2026-04-26T14:17:14.034Z</time></trkpt><trkpt lat="43.4453105" lon="12.2807175"><ele>316.0</ele><time>2026-04-26T14:17:15.029Z</time></trkpt><trkpt lat="43.4453675" lon="12.2809209"><ele>317.0</ele><time>2026-04-26T14:17:16.035Z</time></trkpt><trkpt lat="43.4454248" lon="12.2811108"><ele>318.0</ele><time>2026-04-26T14:17:17.045Z</time></trkpt><trkpt lat="43.4454821" lon="12.2813006"><ele>324.5</ele><time>2026-04-26T14:17:18.031Z</time></trkpt><trkpt lat="43.4455422" lon="12.2814844"><ele>331.0</ele><time>2026-04-26T14:17:19.037Z</time></trkpt><trkpt lat="43.4456029" lon="12.2816508"><ele>337.5</ele><time>2026-04-26T14:17:20.036Z</time></trkpt><trkpt lat="43.4456616" lon="12.2818047"><ele>344.0</ele><time>2026-04-26T14:17:21.033Z</time></trkpt><trkpt lat="43.4457163" lon="12.281957"><ele>344.0</ele><time>2026-04-26T14:17:22.027Z</time></trkpt><trkpt lat="43.4457676" lon="12.2820973"><ele>344.0</ele><time>2026-04-26T14:17:23.041Z</time></trkpt><trkpt lat="43.4458127" lon="12.282233"><ele>344.0</ele><time>2026-04-26T14:17:24.028Z</time></trkpt><trkpt lat="43.4458514" lon="12.2823526"><ele>344.0</ele><time>2026-04-26T14:17:25.038Z</time></trkpt><trkpt lat="43.4458923" lon="12.2824491"><ele>344.0</ele><time>2026-04-26T14:17:26.029Z</time></trkpt><trkpt lat="43.4459362" lon="12.2825299"><ele>341.33333333333337</ele><time>2026-04-26T14:17:27.045Z</time></trkpt><trkpt lat="43.4459946" lon="12.2825974"><ele>338.6666666666667</ele><time>2026-04-26T14:17:28.03Z</time></trkpt><trkpt lat="43.446063" lon="12.2826598"><ele>336.0</ele><time>2026-04-26T14:17:29.042Z</time></trkpt><trkpt lat="43.4461366" lon="12.2827085"><ele>333.3333333333333</ele><time>2026-04-26T14:17:30.037Z</time></trkpt><trkpt lat="43.4462081" lon="12.2827523"><ele>330.66666666666663</ele><time>2026-04-26T14:17:31.043Z</time></trkpt><trkpt lat="43.4462775" lon="12.2827924"><ele>328.0</ele><time>2026-04-26T14:17:32.032Z</time></trkpt><trkpt lat="43.4463405" lon="12.2828341"><ele>330.8333333333333</ele><time>2026-04-26T14:17:33.029Z</time></trkpt><trkpt lat="43.4463971" lon="12.2828879"><ele>333.66666666666663</ele><time>2026-04-26T14:17:34.029Z</time></trkpt><trkpt lat="43.4464407" lon="12.2829538"><ele>336.5</ele><time>2026-04-26T14:17:35.038Z</time></trkpt><trkpt lat="43.4464866" lon="12.2830415"><ele>339.3333333333333</ele><time>2026-04-26T14:17:36.031Z</time></trkpt><trkpt lat="43.4465263" lon="12.2831477"><ele>342.1666666666667</ele><time>2026-04-26T14:17:37.028Z</time></trkpt><trkpt lat="43.4465581" lon="12.2832478"><ele>345.0</ele><time>2026-04-26T14:17:38.026Z</time></trkpt><trkpt lat="43.4465905" lon="12.2833625"><ele>345.0</ele><time>2026-04-26T14:17:39.031Z</time></trkpt><trkpt lat="43.4466175" lon="12.2834974"><ele>345.0</ele><time>2026-04-26T14:17:40.028Z</time></trkpt><trkpt lat="43.4466408" lon="12.2836187"><ele>345.0</ele><time>2026-04-26T14:17:41.03Z</time></trkpt><trkpt lat="43.4466539" lon="12.2837242"><ele>345.0</ele><time>2026-04-26T14:17:42.035Z</time></trkpt><trkpt lat="43.4466616" lon="12.2838125"><ele>345.0</ele><time>2026-04-26T14:17:43.051Z</time></trkpt><trkpt lat="43.4466734" lon="12.2839091"><ele>345.0</ele><time>2026-04-26T14:17:45.04Z</time></trkpt><trkpt lat="43.4467026" lon="12.2840126"><ele>341.8333333333333</ele><time>2026-04-26T14:17:58.031Z</time></trkpt><trkpt lat="43.4467121" lon="12.2841527"><ele>338.6666666666667</ele><time>2026-04-26T14:18:00.031Z</time></trkpt><trkpt lat="43.4467369" lon="12.2842633"><ele>335.5</ele><time>2026-04-26T14:18:02.029Z</time></trkpt><trkpt lat="43.4467482" lon="12.2843558"><ele>332.33333333333337</ele><time>2026-04-26T14:18:10.029Z</time></trkpt><trkpt lat="43.4467829" lon="12.2842574"><ele>329.1666666666667</ele><time>2026-04-26T14:18:16.04Z</time></trkpt><trkpt lat="43.4467507" lon="12.2841717"><ele>326.0</ele><time>2026-04-26T14:18:17.049Z</time></trkpt><trkpt lat="43.4467249" lon="12.284088"><ele>326.0</ele><time>2026-04-26T14:18:18.054Z</time></trkpt><trkpt lat="43.4466841" lon="12.2839563"><ele>326.0</ele><time>2026-04-26T14:18:20.047Z</time></trkpt><trkpt lat="43.4466577" lon="12.283851"><ele>326.0</ele><time>2026-04-26T14:18:22.038Z</time></trkpt><trkpt lat="43.4466476" lon="12.2837262"><ele>326.0</ele><time>2026-04-26T14:18:58.045Z</time></trkpt><trkpt lat="43.4466436" lon="12.2835585"><ele>326.0</ele><time>2026-04-26T14:19:00.028Z</time></trkpt><trkpt lat="43.4466295" lon="12.2834668"><ele>329.8</ele><time>2026-04-26T14:19:01.05Z</time></trkpt><trkpt lat="43.4466102" lon="12.2833606"><ele>333.6</ele><time>2026-04-26T14:19:02.032Z</time></trkpt><trkpt lat="43.4465768" lon="12.2832301"><ele>337.4</ele><time>2026-04-26T14:19:03.038Z</time></trkpt><trkpt lat="43.4465373" lon="12.2830972"><ele>341.2</ele><time>2026-04-26T14:19:04.029Z</time></trkpt><trkpt lat="43.4464774" lon="12.2829717"><ele>345.0</ele><time>2026-04-26T14:19:05.035Z</time></trkpt><trkpt lat="43.4464033" lon="12.2828695"><ele>341.6</ele><time>2026-04-26T14:19:06.041Z</time></trkpt><trkpt lat="43.4463099" lon="12.2827889"><ele>338.2</ele><time>2026-04-26T14:19:07.023Z</time></trkpt><trkpt lat="43.4462122" lon="12.2827307"><ele>334.79999999999995</ele><time>2026-04-26T14:19:08.025Z</time></trkpt><trkpt lat="43.4461136" lon="12.2826673"><ele>331.4</ele><time>2026-04-26T14:19:09.029Z</time></trkpt><trkpt lat="43.4460208" lon="12.2825847"><ele>328.0</ele><time>2026-04-26T14:19:10.025Z</time></trkpt><trkpt lat="43.4459418" lon="12.2824827"><ele>328.0</ele><time>2026-04-26T14:19:11.032Z</time></trkpt><trkpt lat="43.4458721" lon="12.282362"><ele>328.0</ele><time>2026-04-26T14:19:12.032Z</time></trkpt><trkpt lat="43.4458164" lon="12.282232"><ele>328.0</ele><time>2026-04-26T14:19:13.031Z</time></trkpt><trkpt lat="43.4457679" lon="12.2820992"><ele>328.0</ele><time>2026-04-26T14:19:14.035Z</time></trkpt><trkpt lat="43.4457176" lon="12.2819664"><ele>328.0</ele><time>2026-04-26T14:19:15.038Z</time></trkpt><trkpt lat="43.4456725" lon="12.281848"><ele>326.66666666666663</ele><time>2026-04-26T14:19:16.023Z</time></trkpt><trkpt lat="43.445634" lon="12.2817329"><ele>325.3333333333333</ele><time>2026-04-26T14:19:17.035Z</time></trkpt><trkpt lat="43.4455922" lon="12.2816343"><ele>324.0</ele><time>2026-04-26T14:19:18.026Z</time></trkpt><trkpt lat="43.445555" lon="12.2815555"><ele>322.6666666666667</ele><time>2026-04-26T14:19:19.041Z</time></trkpt><trkpt lat="43.445502" lon="12.2814782"><ele>321.33333333333337</ele><time>2026-04-26T14:19:21.047Z</time></trkpt><trkpt lat="43.4454543" lon="12.2815519"><ele>320.0</ele><time>2026-04-26T14:19:23.045Z</time></trkpt><trkpt lat="43.4454269" lon="12.2817169"><ele>320.0</ele><time>2026-04-26T14:19:25.039Z</time></trkpt><trkpt lat="43.4454281" lon="12.281818"><ele>320.0</ele><time>2026-04-26T14:19:26.036Z</time></trkpt><trkpt lat="43.4454494" lon="12.281913"><ele>320.0</ele><time>2026-04-26T14:19:27.065Z</time></trkpt><trkpt lat="43.4454721" lon="12.2820258"><ele>320.0</ele><time>2026-04-26T14:19:28.052Z</time></trkpt><trkpt lat="43.4454807" lon="12.2821592"><ele>320.0</ele><time>2026-04-26T14:19:29.06Z</time></trkpt><trkpt lat="43.4454808" lon="12.2822942"><ele>320.0</ele><time>2026-04-26T14:19:30.046Z</time></trkpt><trkpt lat="43.4454853" lon="12.2824299"><ele>321.6</ele><time>2026-04-26T14:19:31.059Z</time></trkpt><trkpt lat="43.4454997" lon="12.2825656"><ele>323.2</ele><time>2026-04-26T14:19:32.058Z</time></trkpt><trkpt lat="43.4455243" lon="12.282692"><ele>324.79999999999995</ele><time>2026-04-26T14:19:33.046Z</time></trkpt><trkpt lat="43.4455469" lon="12.2828188"><ele>326.4</ele><time>2026-04-26T14:19:34.044Z</time></trkpt><trkpt lat="43.4455657" lon="12.2829347"><ele>328.0</ele><time>2026-04-26T14:19:35.049Z</time></trkpt><trkpt lat="43.4455822" lon="12.2830437"><ele>326.1428571428571</ele><time>2026-04-26T14:19:36.033Z</time></trkpt><trkpt lat="43.4456004" lon="12.2831453"><ele>324.2857142857143</ele><time>2026-04-26T14:19:37.038Z</time></trkpt><trkpt lat="43.4456116" lon="12.2832468"><ele>322.42857142857144</ele><time>2026-04-26T14:19:38.037Z</time></trkpt><trkpt lat="43.4456188" lon="12.2833427"><ele>320.57142857142856</ele><time>2026-04-26T14:19:39.029Z</time></trkpt><trkpt lat="43.4456313" lon="12.2834311"><ele>318.7142857142857</ele><time>2026-04-26T14:19:40.033Z</time></trkpt><trkpt lat="43.4456621" lon="12.2835111"><ele>316.85714285714283</ele><time>2026-04-26T14:19:41.036Z</time></trkpt><trkpt lat="43.445711" lon="12.2835802"><ele>315.0</ele><time>2026-04-26T14:19:42.038Z</time></trkpt><trkpt lat="43.4457744" lon="12.2836345"><ele>315.0</ele><time>2026-04-26T14:19:43.033Z</time></trkpt><trkpt lat="43.4458501" lon="12.2836694"><ele>315.0</ele><time>2026-04-26T14:19:44.038Z</time></trkpt><trkpt lat="43.4459252" lon="12.2836913"><ele>315.0</ele><time>2026-04-26T14:19:45.039Z</time></trkpt><trkpt lat="43.4459936" lon="12.2837205"><ele>315.0</ele><time>2026-04-26T14:19:46.037Z</time></trkpt><trkpt lat="43.4460553" lon="12.2837669"><ele>315.0</ele><time>2026-04-26T14:19:47.037Z</time></trkpt><trkpt lat="43.4461056" lon="12.2838394"><ele>315.0</ele><time>2026-04-26T14:19:48.036Z</time></trkpt><trkpt lat="43.4461403" lon="12.2839285"><ele>315.0</ele><time>2026-04-26T14:19:49.042Z</time></trkpt><trkpt lat="43.446163" lon="12.2840274"><ele>316.3333333333333</ele><time>2026-04-26T14:19:50.041Z</time></trkpt><trkpt lat="43.4461565" lon="12.2841401"><ele>317.6666666666667</ele><time>2026-04-26T14:19:51.052Z</time></trkpt><trkpt lat="43.446126" lon="12.2842482"><ele>319.0</ele><time>2026-04-26T14:19:52.036Z</time></trkpt><trkpt lat="43.4460852" lon="12.2843498"><ele>320.33333333333337</ele><time>2026-04-26T14:19:53.054Z</time></trkpt><trkpt lat="43.4460467" lon="12.2844667"><ele>321.6666666666667</ele><time>2026-04-26T14:19:54.057Z</time></trkpt><trkpt lat="43.4460265" lon="12.2846009"><ele>323.0</ele><time>2026-04-26T14:19:55.042Z</time></trkpt><trkpt lat="43.446019" lon="12.2847363"><ele>323.75</ele><time>2026-04-26T14:19:56.027Z</time></trkpt><trkpt lat="43.446029" lon="12.2848855"><ele>324.5</ele><time>2026-04-26T14:19:57.042Z</time></trkpt><trkpt lat="43.4460428" lon="12.285051"><ele>325.25</ele><time>2026-04-26T14:19:58.039Z</time></trkpt><trkpt lat="43.4460606" lon="12.2852117"><ele>326.0</ele><time>2026-04-26T14:19:59.042Z</time></trkpt><trkpt lat="43.4460804" lon="12.2853573"><ele>326.0</ele><time>2026-04-26T14:20:00.051Z</time></trkpt><trkpt lat="43.4461096" lon="12.2854813"><ele>326.0</ele><time>2026-04-26T14:20:01.046Z</time></trkpt><trkpt lat="43.4461285" lon="12.2855968"><ele>326.0</ele><time>2026-04-26T14:20:02.04Z</time></trkpt><trkpt lat="43.4461324" lon="12.2856962"><ele>326.0</ele><time>2026-04-26T14:20:03.042Z</time></trkpt><trkpt lat="43.446102" lon="12.2857747"><ele>326.0</ele><time>2026-04-26T14:20:04.035Z</time></trkpt><trkpt lat="43.4460445" lon="12.2858177"><ele>326.0</ele><time>2026-04-26T14:20:05.043Z</time></trkpt><trkpt lat="43.4459742" lon="12.2858425"><ele>326.83333333333337</ele><time>2026-04-26T14:20:06.037Z</time></trkpt><trkpt lat="43.4458867" lon="12.2858468"><ele>327.6666666666667</ele><time>2026-04-26T14:20:07.034Z</time></trkpt><trkpt lat="43.445806" lon="12.2858581"><ele>328.5</ele><time>2026-04-26T14:20:08.038Z</time></trkpt><trkpt lat="43.4457333" lon="12.285871"><ele>329.3333333333333</ele><time>2026-04-26T14:20:09.046Z</time></trkpt><trkpt lat="43.4456576" lon="12.2859565"><ele>330.16666666666663</ele><time>2026-04-26T14:20:11.032Z</time></trkpt><trkpt lat="43.4456581" lon="12.2860964"><ele>331.0</ele><time>2026-04-26T14:20:13.028Z</time></trkpt><trkpt lat="43.4457111" lon="12.2862721"><ele>331.0</ele><time>2026-04-26T14:20:15.057Z</time></trkpt><trkpt lat="43.4457341" lon="12.286412"><ele>331.0</ele><time>2026-04-26T14:20:16.034Z</time></trkpt><trkpt lat="43.4457672" lon="12.2865687"><ele>331.0</ele><time>2026-04-26T14:20:17.03Z</time></trkpt><trkpt lat="43.4457981" lon="12.2867368"><ele>331.0</ele><time>2026-04-26T14:20:18.037Z</time></trkpt><trkpt lat="43.4458322" lon="12.2869143"><ele>332.75</ele><time>2026-04-26T14:20:19.046Z</time></trkpt><trkpt lat="43.4458616" lon="12.2871003"><ele>334.5</ele><time>2026-04-26T14:20:20.049Z</time></trkpt><trkpt lat="43.445889" lon="12.2872918"><ele>336.25</ele><time>2026-04-26T14:20:21.06Z</time></trkpt><trkpt lat="43.4459252" lon="12.2874743"><ele>338.0</ele><time>2026-04-26T14:20:22.042Z</time></trkpt><trkpt lat="43.4459732" lon="12.2876494"><ele>339.75</ele><time>2026-04-26T14:20:23.051Z</time></trkpt><trkpt lat="43.4460278" lon="12.2878308"><ele>341.5</ele><time>2026-04-26T14:20:24.049Z</time></trkpt><trkpt lat="43.4460829" lon="12.2880122"><ele>343.25</ele><time>2026-04-26T14:20:25.039Z</time></trkpt><trkpt lat="43.4461445" lon="12.2881919"><ele>345.0</ele><time>2026-04-26T14:20:26.035Z</time></trkpt><trkpt lat="43.4462072" lon="12.28837"><ele>343.25</ele><time>2026-04-26T14:20:27.039Z</time></trkpt><trkpt lat="43.4462813" lon="12.2885465"><ele>341.5</ele><time>2026-04-26T14:20:28.038Z</time></trkpt><trkpt lat="43.4463626" lon="12.2887185"><ele>339.75</ele><time>2026-04-26T14:20:29.052Z</time></trkpt><trkpt lat="43.4464534" lon="12.2888771"><ele>338.0</ele><time>2026-04-26T14:20:30.03Z</time></trkpt><trkpt lat="43.4465398" lon="12.2890217"><ele>338.0</ele><time>2026-04-26T14:20:31.042Z</time></trkpt><trkpt lat="43.446626" lon="12.2891458"><ele>338.0</ele><time>2026-04-26T14:20:32.04Z</time></trkpt><trkpt lat="43.4467164" lon="12.2892653"><ele>338.0</ele><time>2026-04-26T14:20:33.046Z</time></trkpt><trkpt lat="43.4468115" lon="12.2893844"><ele>338.0</ele><time>2026-04-26T14:20:34.054Z</time></trkpt><trkpt lat="43.4469047" lon="12.2895044"><ele>338.0</ele><time>2026-04-26T14:20:35.044Z</time></trkpt><trkpt lat="43.4469777" lon="12.2896184"><ele>338.0</ele><time>2026-04-26T14:20:36.045Z</time></trkpt><trkpt lat="43.4470399" lon="12.2897335"><ele>338.0</ele><time>2026-04-26T14:20:37.039Z</time></trkpt><trkpt lat="43.4470885" lon="12.2898504"><ele>338.0</ele><time>2026-04-26T14:20:38.043Z</time></trkpt><trkpt lat="43.4471382" lon="12.2899656"><ele>338.0</ele><time>2026-04-26T14:20:39.066Z</time></trkpt><trkpt lat="43.447192" lon="12.2900785"><ele>337.0</ele><time>2026-04-26T14:20:40.043Z</time></trkpt><trkpt lat="43.4472412" lon="12.2901933"><ele>336.0</ele><time>2026-04-26T14:20:41.05Z</time></trkpt><trkpt lat="43.4472899" lon="12.2903035"><ele>335.0</ele><time>2026-04-26T14:20:42.039Z</time></trkpt><trkpt lat="43.4473334" lon="12.2904103"><ele>334.0</ele><time>2026-04-26T14:20:43.044Z</time></trkpt><trkpt lat="43.4473788" lon="12.2905043"><ele>333.0</ele><time>2026-04-26T14:20:44.044Z</time></trkpt><trkpt lat="43.4474401" lon="12.2905858"><ele>332.0</ele><time>2026-04-26T14:20:45.055Z</time></trkpt><trkpt lat="43.4475256" lon="12.2906544"><ele>332.0</ele><time>2026-04-26T14:20:46.045Z</time></trkpt><trkpt lat="43.447614" lon="12.2907087"><ele>332.0</ele><time>2026-04-26T14:20:47.053Z</time></trkpt><trkpt lat="43.4476941" lon="12.2907603"><ele>332.0</ele><time>2026-04-26T14:20:48.057Z</time></trkpt><trkpt lat="43.4477637" lon="12.2908085"><ele>332.0</ele><time>2026-04-26T14:20:49.06Z</time></trkpt><trkpt lat="43.4478286" lon="12.2908671"><ele>332.0</ele><time>2026-04-26T14:20:50.052Z</time></trkpt><trkpt lat="43.4478789" lon="12.2909455"><ele>332.0</ele><time>2026-04-26T14:20:51.072Z</time></trkpt><trkpt lat="43.447917" lon="12.2910403"><ele>332.0</ele><time>2026-04-26T14:20:52.043Z</time></trkpt><trkpt lat="43.4479504" lon="12.2911533"><ele>332.0</ele><time>2026-04-26T14:20:53.054Z</time></trkpt><trkpt lat="43.4479719" lon="12.2912843"><ele>332.0</ele><time>2026-04-26T14:20:54.06Z</time></trkpt><trkpt lat="43.4479872" lon="12.2914034"><ele>332.0</ele><time>2026-04-26T14:20:55.035Z</time></trkpt><trkpt lat="43.4479938" lon="12.2915069"><ele>332.0</ele><time>2026-04-26T14:20:56.035Z</time></trkpt><trkpt lat="43.4480153" lon="12.2916496"><ele>331.0</ele><time>2026-04-26T14:20:58.042Z</time></trkpt><trkpt lat="43.4480772" lon="12.2917363"><ele>330.0</ele><time>2026-04-26T14:21:00.067Z</time></trkpt><trkpt lat="43.4481512" lon="12.2917361"><ele>329.0</ele><time>2026-04-26T14:21:02.042Z</time></trkpt><trkpt lat="43.4481796" lon="12.2916526"><ele>328.0</ele><time>2026-04-26T14:21:04.046Z</time></trkpt><trkpt lat="43.4481695" lon="12.2914945"><ele>327.0</ele><time>2026-04-26T14:21:06.039Z</time></trkpt><trkpt lat="43.4481574" lon="12.2913397"><ele>327.0</ele><time>2026-04-26T14:21:08.042Z</time></trkpt><trkpt lat="43.4481609" lon="12.2912418"><ele>327.0</ele><time>2026-04-26T14:21:10.034Z</time></trkpt><trkpt lat="43.4482278" lon="12.2913223"><ele>327.0</ele><time>2026-04-26T14:21:23.051Z</time></trkpt><trkpt lat="43.4482297" lon="12.2914183"><ele>327.0</ele><time>2026-04-26T14:21:24.042Z</time></trkpt><trkpt lat="43.4482323" lon="12.2915334"><ele>327.0</ele><time>2026-04-26T14:21:25.044Z</time></trkpt><trkpt lat="43.4482316" lon="12.2916714"><ele>327.0</ele><time>2026-04-26T14:21:26.044Z</time></trkpt><trkpt lat="43.4482339" lon="12.2918278"><ele>326.75</ele><time>2026-04-26T14:21:27.056Z</time></trkpt><trkpt lat="43.4482427" lon="12.2920051"><ele>326.5</ele><time>2026-04-26T14:21:28.039Z</time></trkpt><trkpt lat="43.4482717" lon="12.2921915"><ele>326.25</ele><time>2026-04-26T14:21:29.043Z</time></trkpt><trkpt lat="43.4483193" lon="12.2923816"><ele>326.0</ele><time>2026-04-26T14:21:30.046Z</time></trkpt><trkpt lat="43.4483866" lon="12.2925774"><ele>326.0</ele><time>2026-04-26T14:21:31.047Z</time></trkpt><trkpt lat="43.4484627" lon="12.2927716"><ele>326.0</ele><time>2026-04-26T14:21:32.056Z</time></trkpt><trkpt lat="43.4485414" lon="12.2929717"><ele>326.0</ele><time>2026-04-26T14:21:33.051Z</time></trkpt><trkpt lat="43.4486131" lon="12.2931794"><ele>327.33333333333337</ele><time>2026-04-26T14:21:34.033Z</time></trkpt><trkpt lat="43.4486818" lon="12.2934021"><ele>328.6666666666667</ele><time>2026-04-26T14:21:35.042Z</time></trkpt><trkpt lat="43.4487469" lon="12.2936302"><ele>330.0</ele><time>2026-04-26T14:21:36.044Z</time></trkpt><trkpt lat="43.4488093" lon="12.2938614"><ele>330.6666666666667</ele><time>2026-04-26T14:21:37.052Z</time></trkpt><trkpt lat="43.4488768" lon="12.2940924"><ele>331.33333333333337</ele><time>2026-04-26T14:21:38.043Z</time></trkpt><trkpt lat="43.4489561" lon="12.2943235"><ele>332.0</ele><time>2026-04-26T14:21:39.044Z</time></trkpt><trkpt lat="43.4490391" lon="12.2945565"><ele>332.6666666666667</ele><time>2026-04-26T14:21:40.043Z</time></trkpt><trkpt lat="43.4491238" lon="12.2947884"><ele>333.3333333333333</ele><time>2026-04-26T14:21:41.054Z</time></trkpt><trkpt lat="43.4492063" lon="12.2950108"><ele>334.0</ele><time>2026-04-26T14:21:42.041Z</time></trkpt><trkpt lat="43.4492794" lon="12.2952179"><ele>334.0</ele><time>2026-04-26T14:21:43.055Z</time></trkpt><trkpt lat="43.449353" lon="12.2954169"><ele>334.0</ele><time>2026-04-26T14:21:44.056Z</time></trkpt><trkpt lat="43.44942" lon="12.2956237"><ele>334.0</ele><time>2026-04-26T14:21:45.055Z</time></trkpt><trkpt lat="43.4494904" lon="12.2958327"><ele>334.3333333333333</ele><time>2026-04-26T14:21:46.041Z</time></trkpt><trkpt lat="43.4495657" lon="12.2960397"><ele>334.6666666666667</ele><time>2026-04-26T14:21:47.046Z</time></trkpt><trkpt lat="43.4496436" lon="12.2962508"><ele>335.0</ele><time>2026-04-26T14:21:48.045Z</time></trkpt><trkpt lat="43.4497202" lon="12.2964559"><ele>338.0</ele><time>2026-04-26T14:21:49.043Z</time></trkpt><trkpt lat="43.4497995" lon="12.2966566"><ele>341.0</ele><time>2026-04-26T14:21:50.044Z</time></trkpt><trkpt lat="43.4498823" lon="12.2968558"><ele>344.0</ele><time>2026-04-26T14:21:51.063Z</time></trkpt><trkpt lat="43.449975" lon="12.2970513"><ele>344.0</ele><time>2026-04-26T14:21:52.045Z</time></trkpt><trkpt lat="43.4500776" lon="12.2972502"><ele>344.0</ele><time>2026-04-26T14:21:53.052Z</time></trkpt><trkpt lat="43.4501888" lon="12.2974434"><ele>344.0</ele><time>2026-04-26T14:21:54.04Z</time></trkpt><trkpt lat="43.4503102" lon="12.297633"><ele>342.6666666666667</ele><time>2026-04-26T14:21:55.046Z</time></trkpt><trkpt lat="43.4504342" lon="12.2978198"><ele>341.3333333333333</ele><time>2026-04-26T14:21:56.039Z</time></trkpt><trkpt lat="43.4505685" lon="12.2979973"><ele>340.0</ele><time>2026-04-26T14:21:57.038Z</time></trkpt><trkpt lat="43.4506996" lon="12.2981562"><ele>343.3333333333333</ele><time>2026-04-26T14:21:58.037Z</time></trkpt><trkpt lat="43.4508238" lon="12.2983065"><ele>346.6666666666667</ele><time>2026-04-26T14:21:59.049Z</time></trkpt><trkpt lat="43.4509492" lon="12.2984592"><ele>350.0</ele><time>2026-04-26T14:22:00.055Z</time></trkpt><trkpt lat="43.4510807" lon="12.2986101"><ele>350.0</ele><time>2026-04-26T14:22:01.048Z</time></trkpt><trkpt lat="43.45121" lon="12.2987575"><ele>350.0</ele><time>2026-04-26T14:22:02.07Z</time></trkpt><trkpt lat="43.4513278" lon="12.2988931"><ele>350.0</ele><time>2026-04-26T14:22:03.04Z</time></trkpt><trkpt lat="43.4514445" lon="12.2990273"><ele>353.33333333333337</ele><time>2026-04-26T14:22:04.05Z</time></trkpt><trkpt lat="43.4515617" lon="12.2991606"><ele>356.6666666666667</ele><time>2026-04-26T14:22:05.046Z</time></trkpt><trkpt lat="43.4516759" lon="12.2992929"><ele>360.0</ele><time>2026-04-26T14:22:06.045Z</time></trkpt><trkpt lat="43.4517844" lon="12.2994406"><ele>360.0</ele><time>2026-04-26T14:22:07.052Z</time></trkpt><trkpt lat="43.4518834" lon="12.2996004"><ele>360.0</ele><time>2026-04-26T14:22:08.036Z</time></trkpt><trkpt lat="43.4519756" lon="12.2997685"><ele>360.0</ele><time>2026-04-26T14:22:09.066Z</time></trkpt><trkpt lat="43.4520647" lon="12.2999455"><ele>362.6666666666667</ele><time>2026-04-26T14:22:10.017Z</time></trkpt><trkpt lat="43.4521516" lon="12.3001268"><ele>365.33333333333337</ele><time>2026-04-26T14:22:11.055Z</time></trkpt><trkpt lat="43.4522411" lon="12.3003055"><ele>368.0</ele><time>2026-04-26T14:22:12.044Z</time></trkpt><trkpt lat="43.4523353" lon="12.3004764"><ele>362.33333333333337</ele><time>2026-04-26T14:22:13.04Z</time></trkpt><trkpt lat="43.4524428" lon="12.3006392"><ele>356.6666666666667</ele><time>2026-04-26T14:22:14.042Z</time></trkpt><trkpt lat="43.4525519" lon="12.3007797"><ele>351.0</ele><time>2026-04-26T14:22:15.05Z</time></trkpt><trkpt lat="43.4526603" lon="12.3009189"><ele>351.0</ele><time>2026-04-26T14:22:16.044Z</time></trkpt><trkpt lat="43.452768" lon="12.3010484"><ele>351.0</ele><time>2026-04-26T14:22:17.039Z</time></trkpt><trkpt lat="43.45288" lon="12.3011764"><ele>351.0</ele><time>2026-04-26T14:22:18.044Z</time></trkpt><trkpt lat="43.452993" lon="12.3012944"><ele>351.0</ele><time>2026-04-26T14:22:19.042Z</time></trkpt><trkpt lat="43.4531092" lon="12.301401"><ele>351.0</ele><time>2026-04-26T14:22:20.046Z</time></trkpt><trkpt lat="43.4532232" lon="12.3014972"><ele>351.0</ele><time>2026-04-26T14:22:21.041Z</time></trkpt><trkpt lat="43.4533291" lon="12.3015886"><ele>351.0</ele><time>2026-04-26T14:22:22.049Z</time></trkpt><trkpt lat="43.4534288" lon="12.3016691"><ele>351.0</ele><time>2026-04-26T14:22:23.052Z</time></trkpt><trkpt lat="43.4535138" lon="12.3017408"><ele>351.0</ele><time>2026-04-26T14:22:24.048Z</time></trkpt><trkpt lat="43.4535866" lon="12.3017999"><ele>351.0</ele><time>2026-04-26T14:22:25.041Z</time></trkpt><trkpt lat="43.4536547" lon="12.3018531"><ele>351.0</ele><time>2026-04-26T14:22:26.035Z</time></trkpt><trkpt lat="43.4537194" lon="12.3019027"><ele>351.0</ele><time>2026-04-26T14:22:27.04Z</time></trkpt><trkpt lat="43.4537829" lon="12.301959"><ele>351.0</ele><time>2026-04-26T14:22:28.05Z</time></trkpt><trkpt lat="43.4538453" lon="12.3020223"><ele>351.0</ele><time>2026-04-26T14:22:29.038Z</time></trkpt><trkpt lat="43.4539123" lon="12.3020988"><ele>351.75</ele><time>2026-04-26T14:22:30.034Z</time></trkpt><trkpt lat="43.4539852" lon="12.3021905"><ele>352.5</ele><time>2026-04-26T14:22:31.035Z</time></trkpt><trkpt lat="43.4540688" lon="12.3023098"><ele>353.25</ele><time>2026-04-26T14:22:32.042Z</time></trkpt><trkpt lat="43.4541529" lon="12.3024536"><ele>354.0</ele><time>2026-04-26T14:22:33.042Z</time></trkpt><trkpt lat="43.4542462" lon="12.302617"><ele>354.0</ele><time>2026-04-26T14:22:34.037Z</time></trkpt><trkpt lat="43.4543399" lon="12.302791"><ele>354.0</ele><time>2026-04-26T14:22:35.04Z</time></trkpt><trkpt lat="43.4544374" lon="12.3029786"><ele>354.0</ele><time>2026-04-26T14:22:36.043Z</time></trkpt><trkpt lat="43.4545346" lon="12.3031755"><ele>359.0</ele><time>2026-04-26T14:22:37.041Z</time></trkpt><trkpt lat="43.4546451" lon="12.3033699"><ele>364.0</ele><time>2026-04-26T14:22:38.04Z</time></trkpt><trkpt lat="43.4547644" lon="12.3035617"><ele>369.0</ele><time>2026-04-26T14:22:39.034Z</time></trkpt><trkpt lat="43.4548946" lon="12.3037463"><ele>363.6666666666667</ele><time>2026-04-26T14:22:40.036Z</time></trkpt><trkpt lat="43.4550354" lon="12.3039256"><ele>358.33333333333337</ele><time>2026-04-26T14:22:41.034Z</time></trkpt><trkpt lat="43.4551758" lon="12.3041002"><ele>353.0</ele><time>2026-04-26T14:22:42.047Z</time></trkpt><trkpt lat="43.4553131" lon="12.3042587"><ele>359.33333333333337</ele><time>2026-04-26T14:22:43.039Z</time></trkpt><trkpt lat="43.4554631" lon="12.3043985"><ele>365.6666666666667</ele><time>2026-04-26T14:22:44.03Z</time></trkpt><trkpt lat="43.4556233" lon="12.3045113"><ele>372.0</ele><time>2026-04-26T14:22:45.039Z</time></trkpt><trkpt lat="43.455789" lon="12.3046202"><ele>372.0</ele><time>2026-04-26T14:22:46.037Z</time></trkpt><trkpt lat="43.4559602" lon="12.3047199"><ele>372.0</ele><time>2026-04-26T14:22:47.037Z</time></trkpt><trkpt lat="43.4561316" lon="12.3048098"><ele>372.0</ele><time>2026-04-26T14:22:48.033Z</time></trkpt><trkpt lat="43.4563018" lon="12.3048919"><ele>368.0</ele><time>2026-04-26T14:22:49.038Z</time></trkpt><trkpt lat="43.4564713" lon="12.3049593"><ele>364.0</ele><time>2026-04-26T14:22:50.028Z</time></trkpt><trkpt lat="43.4566431" lon="12.3050104"><ele>360.0</ele><time>2026-04-26T14:22:51.039Z</time></trkpt><trkpt lat="43.4568236" lon="12.3050381"><ele>360.0</ele><time>2026-04-26T14:22:52.031Z</time></trkpt><trkpt lat="43.4570042" lon="12.3050533"><ele>360.0</ele><time>2026-04-26T14:22:53.038Z</time></trkpt><trkpt lat="43.4571893" lon="12.3050578"><ele>360.0</ele><time>2026-04-26T14:22:54.03Z</time></trkpt><trkpt lat="43.4573773" lon="12.3050603"><ele>360.0</ele><time>2026-04-26T14:22:55.033Z</time></trkpt><trkpt lat="43.4575691" lon="12.3050526"><ele>360.0</ele><time>2026-04-26T14:22:56.039Z</time></trkpt><trkpt lat="43.4577614" lon="12.3050347"><ele>360.0</ele><time>2026-04-26T14:22:57.035Z</time></trkpt><trkpt lat="43.4579566" lon="12.3050035"><ele>360.0</ele><time>2026-04-26T14:22:58.036Z</time></trkpt><trkpt lat="43.4581557" lon="12.3049713"><ele>360.0</ele><time>2026-04-26T14:22:59.039Z</time></trkpt><trkpt lat="43.4583584" lon="12.3049341"><ele>360.0</ele><time>2026-04-26T14:23:00.031Z</time></trkpt><trkpt lat="43.4585596" lon="12.3048903"><ele>360.0</ele><time>2026-04-26T14:23:01.034Z</time></trkpt><trkpt lat="43.4587473" lon="12.3048566"><ele>360.0</ele><time>2026-04-26T14:23:02.032Z</time></trkpt><trkpt lat="43.4589243" lon="12.3048266"><ele>360.0</ele><time>2026-04-26T14:23:03.036Z</time></trkpt><trkpt lat="43.4590969" lon="12.3048065"><ele>360.0</ele><time>2026-04-26T14:23:04.028Z</time></trkpt><trkpt lat="43.4592673" lon="12.3048045"><ele>360.0</ele><time>2026-04-26T14:23:05.035Z</time></trkpt><trkpt lat="43.4594384" lon="12.3048164"><ele>360.0</ele><time>2026-04-26T14:23:06.02Z</time></trkpt><trkpt lat="43.4596069" lon="12.3048503"><ele>361.3333333333333</ele><time>2026-04-26T14:23:07.039Z</time></trkpt><trkpt lat="43.4597682" lon="12.304911"><ele>362.66666666666663</ele><time>2026-04-26T14:23:08.034Z</time></trkpt><trkpt lat="43.4599257" lon="12.3050027"><ele>364.0</ele><time>2026-04-26T14:23:09.044Z</time></trkpt><trkpt lat="43.4600779" lon="12.3051177"><ele>364.0</ele><time>2026-04-26T14:23:10.031Z</time></trkpt><trkpt lat="43.4602242" lon="12.3052444"><ele>364.0</ele><time>2026-04-26T14:23:11.046Z</time></trkpt><trkpt lat="43.4603649" lon="12.3053802"><ele>364.0</ele><time>2026-04-26T14:23:12.034Z</time></trkpt><trkpt lat="43.4604962" lon="12.3055011"><ele>363.3333333333333</ele><time>2026-04-26T14:23:13.04Z</time></trkpt><trkpt lat="43.4606192" lon="12.305612"><ele>362.6666666666667</ele><time>2026-04-26T14:23:14.027Z</time></trkpt><trkpt lat="43.4607447" lon="12.3057237"><ele>362.0</ele><time>2026-04-26T14:23:15.039Z</time></trkpt><trkpt lat="43.4608771" lon="12.305846"><ele>362.0</ele><time>2026-04-26T14:23:16.037Z</time></trkpt><trkpt lat="43.4610124" lon="12.30597"><ele>362.0</ele><time>2026-04-26T14:23:17.045Z</time></trkpt><trkpt lat="43.4611536" lon="12.3060999"><ele>362.0</ele><time>2026-04-26T14:23:18.035Z</time></trkpt><trkpt lat="43.4612997" lon="12.3062392"><ele>364.0</ele><time>2026-04-26T14:23:19.032Z</time></trkpt><trkpt lat="43.4614521" lon="12.3063791"><ele>366.0</ele><time>2026-04-26T14:23:20.021Z</time></trkpt><trkpt lat="43.4616036" lon="12.3065188"><ele>368.0</ele><time>2026-04-26T14:23:21.047Z</time></trkpt><trkpt lat="43.4617491" lon="12.3066541"><ele>368.0</ele><time>2026-04-26T14:23:22.044Z</time></trkpt><trkpt lat="43.4618727" lon="12.3068074"><ele>368.0</ele><time>2026-04-26T14:23:23.045Z</time></trkpt><trkpt lat="43.4619783" lon="12.3069721"><ele>368.0</ele><time>2026-04-26T14:23:24.033Z</time></trkpt><trkpt lat="43.4620665" lon="12.3071732"><ele>369.0</ele><time>2026-04-26T14:23:25.034Z</time></trkpt><trkpt lat="43.4621484" lon="12.3073993"><ele>370.0</ele><time>2026-04-26T14:23:26.038Z</time></trkpt><trkpt lat="43.4622321" lon="12.307641"><ele>371.0</ele><time>2026-04-26T14:23:27.035Z</time></trkpt><trkpt lat="43.4623288" lon="12.3078927"><ele>371.33333333333337</ele><time>2026-04-26T14:23:28.041Z</time></trkpt><trkpt lat="43.4624249" lon="12.3081529"><ele>371.6666666666667</ele><time>2026-04-26T14:23:29.032Z</time></trkpt><trkpt lat="43.4625233" lon="12.3084145"><ele>372.0</ele><time>2026-04-26T14:23:30.027Z</time></trkpt><trkpt lat="43.4626093" lon="12.3087011"><ele>370.3333333333333</ele><time>2026-04-26T14:23:31.039Z</time></trkpt><trkpt lat="43.4626701" lon="12.308961"><ele>368.66666666666663</ele><time>2026-04-26T14:23:32.037Z</time></trkpt><trkpt lat="43.4627172" lon="12.3092274"><ele>367.0</ele><time>2026-04-26T14:23:33.037Z</time></trkpt><trkpt lat="43.4627585" lon="12.3094927"><ele>364.3333333333333</ele><time>2026-04-26T14:23:34.025Z</time></trkpt><trkpt lat="43.4627995" lon="12.3097489"><ele>361.6666666666667</ele><time>2026-04-26T14:23:35.039Z</time></trkpt><trkpt lat="43.4628401" lon="12.3099917"><ele>359.0</ele><time>2026-04-26T14:23:36.045Z</time></trkpt><trkpt lat="43.4628727" lon="12.3102171"><ele>359.0</ele><time>2026-04-26T14:23:37.039Z</time></trkpt><trkpt lat="43.4628917" lon="12.3104296"><ele>359.0</ele><time>2026-04-26T14:23:38.026Z</time></trkpt><trkpt lat="43.4628762" lon="12.3106427"><ele>359.0</ele><time>2026-04-26T14:23:39.034Z</time></trkpt><trkpt lat="43.4628138" lon="12.3108482"><ele>359.0</ele><time>2026-04-26T14:23:40.031Z</time></trkpt><trkpt lat="43.4627209" lon="12.3110179"><ele>359.0</ele><time>2026-04-26T14:23:41.043Z</time></trkpt><trkpt lat="43.462648" lon="12.3112054"><ele>359.0</ele><time>2026-04-26T14:23:42.035Z</time></trkpt><trkpt lat="43.4626365" lon="12.3114359"><ele>361.33333333333337</ele><time>2026-04-26T14:23:43.032Z</time></trkpt><trkpt lat="43.4626575" lon="12.311661"><ele>363.6666666666667</ele><time>2026-04-26T14:23:44.024Z</time></trkpt><trkpt lat="43.4627022" lon="12.3119099"><ele>366.0</ele><time>2026-04-26T14:23:45.039Z</time></trkpt><trkpt lat="43.4627522" lon="12.3121554"><ele>366.3333333333333</ele><time>2026-04-26T14:23:46.027Z</time></trkpt><trkpt lat="43.4628078" lon="12.3124066"><ele>366.66666666666663</ele><time>2026-04-26T14:23:47.031Z</time></trkpt><trkpt lat="43.4628623" lon="12.3126718"><ele>367.0</ele><time>2026-04-26T14:23:48.03Z</time></trkpt><trkpt lat="43.462915" lon="12.3129425"><ele>376.0</ele><time>2026-04-26T14:23:49.034Z</time></trkpt><trkpt lat="43.462965" lon="12.3132277"><ele>385.0</ele><time>2026-04-26T14:23:50.03Z</time></trkpt><trkpt lat="43.4629985" lon="12.3135254"><ele>394.0</ele><time>2026-04-26T14:23:51.04Z</time></trkpt><trkpt lat="43.4630218" lon="12.3138291"><ele>391.33333333333337</ele><time>2026-04-26T14:23:52.029Z</time></trkpt><trkpt lat="43.4630369" lon="12.3141366"><ele>388.66666666666663</ele><time>2026-04-26T14:23:53.029Z</time></trkpt><trkpt lat="43.4630616" lon="12.3144446"><ele>386.0</ele><time>2026-04-26T14:23:54.035Z</time></trkpt><trkpt lat="43.4630905" lon="12.3147467"><ele>386.0</ele><time>2026-04-26T14:23:55.045Z</time></trkpt><trkpt lat="43.4631226" lon="12.3150473"><ele>386.0</ele><time>2026-04-26T14:23:56.038Z</time></trkpt><trkpt lat="43.4631537" lon="12.3153406"><ele>386.0</ele><time>2026-04-26T14:23:57.041Z</time></trkpt><trkpt lat="43.4631862" lon="12.3156197"><ele>385.0</ele><time>2026-04-26T14:23:58.024Z</time></trkpt><trkpt lat="43.4632211" lon="12.315879"><ele>384.0</ele><time>2026-04-26T14:23:59.038Z</time></trkpt><trkpt lat="43.4632603" lon="12.3161159"><ele>383.0</ele><time>2026-04-26T14:24:00.035Z</time></trkpt><trkpt lat="43.4633008" lon="12.3163413"><ele>382.0</ele><time>2026-04-26T14:24:01.03Z</time></trkpt><trkpt lat="43.4633433" lon="12.3165569"><ele>381.0</ele><time>2026-04-26T14:24:02.034Z</time></trkpt><trkpt lat="43.4633889" lon="12.3167703"><ele>380.0</ele><time>2026-04-26T14:24:03.036Z</time></trkpt><trkpt lat="43.4634455" lon="12.3169952"><ele>380.0</ele><time>2026-04-26T14:24:04.025Z</time></trkpt><trkpt lat="43.4635254" lon="12.3172238"><ele>380.0</ele><time>2026-04-26T14:24:05.029Z</time></trkpt><trkpt lat="43.4636124" lon="12.3174412"><ele>380.0</ele><time>2026-04-26T14:24:06.034Z</time></trkpt><trkpt lat="43.4637095" lon="12.3176574"><ele>378.33333333333337</ele><time>2026-04-26T14:24:07.038Z</time></trkpt><trkpt lat="43.4638005" lon="12.3178618"><ele>376.6666666666667</ele><time>2026-04-26T14:24:08.034Z</time></trkpt><trkpt lat="43.4638849" lon="12.318056"><ele>375.0</ele><time>2026-04-26T14:24:09.035Z</time></trkpt><trkpt lat="43.4639633" lon="12.3182328"><ele>374.0</ele><time>2026-04-26T14:24:10.026Z</time></trkpt><trkpt lat="43.4640255" lon="12.3183991"><ele>373.0</ele><time>2026-04-26T14:24:11.031Z</time></trkpt><trkpt lat="43.4640563" lon="12.3185549"><ele>372.0</ele><time>2026-04-26T14:24:12.024Z</time></trkpt><trkpt lat="43.4640488" lon="12.3187321"><ele>371.0</ele><time>2026-04-26T14:24:13.028Z</time></trkpt><trkpt lat="43.4640056" lon="12.3189159"><ele>373.25</ele><time>2026-04-26T14:24:14.032Z</time></trkpt><trkpt lat="43.4639537" lon="12.3191017"><ele>375.5</ele><time>2026-04-26T14:24:15.045Z</time></trkpt><trkpt lat="43.4639082" lon="12.3192673"><ele>377.75</ele><time>2026-04-26T14:24:16.035Z</time></trkpt><trkpt lat="43.4638757" lon="12.3194394"><ele>380.0</ele><time>2026-04-26T14:24:17.027Z</time></trkpt><trkpt lat="43.4638752" lon="12.3196235"><ele>382.25</ele><time>2026-04-26T14:24:18.028Z</time></trkpt><trkpt lat="43.4639052" lon="12.3198032"><ele>384.5</ele><time>2026-04-26T14:24:19.028Z</time></trkpt><trkpt lat="43.4639496" lon="12.3199825"><ele>386.75</ele><time>2026-04-26T14:24:20.035Z</time></trkpt><trkpt lat="43.4640034" lon="12.3201782"><ele>389.0</ele><time>2026-04-26T14:24:21.034Z</time></trkpt><trkpt lat="43.4640428" lon="12.320387"><ele>389.0</ele><time>2026-04-26T14:24:22.04Z</time></trkpt><trkpt lat="43.4640706" lon="12.3206198"><ele>389.0</ele><time>2026-04-26T14:24:23.057Z</time></trkpt><trkpt lat="43.4640794" lon="12.3208618"><ele>389.0</ele><time>2026-04-26T14:24:24.063Z</time></trkpt><trkpt lat="43.4640719" lon="12.3211109"><ele>389.0</ele><time>2026-04-26T14:24:25.038Z</time></trkpt><trkpt lat="43.464052" lon="12.3213698"><ele>389.0</ele><time>2026-04-26T14:24:26.022Z</time></trkpt><trkpt lat="43.4640286" lon="12.3216195"><ele>389.0</ele><time>2026-04-26T14:24:27.028Z</time></trkpt><trkpt lat="43.4640112" lon="12.3218598"><ele>389.66666666666663</ele><time>2026-04-26T14:24:28.023Z</time></trkpt><trkpt lat="43.464022" lon="12.3221121"><ele>390.33333333333337</ele><time>2026-04-26T14:24:29.043Z</time></trkpt><trkpt lat="43.4640688" lon="12.3223642"><ele>391.0</ele><time>2026-04-26T14:24:30.024Z</time></trkpt><trkpt lat="43.4641405" lon="12.3226311"><ele>389.33333333333337</ele><time>2026-04-26T14:24:31.039Z</time></trkpt><trkpt lat="43.4642212" lon="12.3229043"><ele>387.66666666666663</ele><time>2026-04-26T14:24:32.034Z</time></trkpt><trkpt lat="43.4642994" lon="12.3231915"><ele>386.0</ele><time>2026-04-26T14:24:33.034Z</time></trkpt><trkpt lat="43.4643785" lon="12.3234957"><ele>384.5</ele><time>2026-04-26T14:24:34.035Z</time></trkpt><trkpt lat="43.4644627" lon="12.3237977"><ele>383.0</ele><time>2026-04-26T14:24:35.032Z</time></trkpt><trkpt lat="43.4645451" lon="12.3240986"><ele>389.6666666666667</ele><time>2026-04-26T14:24:36.031Z</time></trkpt><trkpt lat="43.4646189" lon="12.3243861"><ele>396.33333333333337</ele><time>2026-04-26T14:24:37.046Z</time></trkpt><trkpt lat="43.4646841" lon="12.3246594"><ele>403.0</ele><time>2026-04-26T14:24:38.03Z</time></trkpt><trkpt lat="43.464728" lon="12.3249274"><ele>403.0</ele><time>2026-04-26T14:24:39.054Z</time></trkpt><trkpt lat="43.4647528" lon="12.3251859"><ele>403.0</ele><time>2026-04-26T14:24:40.032Z</time></trkpt><trkpt lat="43.4647741" lon="12.3254216"><ele>403.0</ele><time>2026-04-26T14:24:41.031Z</time></trkpt><trkpt lat="43.46481" lon="12.325634"><ele>400.6666666666667</ele><time>2026-04-26T14:24:42.031Z</time></trkpt><trkpt lat="43.464878" lon="12.3258406"><ele>398.33333333333337</ele><time>2026-04-26T14:24:43.031Z</time></trkpt><trkpt lat="43.4649775" lon="12.326022"><ele>396.0</ele><time>2026-04-26T14:24:44.027Z</time></trkpt><trkpt lat="43.4650955" lon="12.3261852"><ele>396.0</ele><time>2026-04-26T14:24:45.041Z</time></trkpt><trkpt lat="43.465213" lon="12.3263583"><ele>396.0</ele><time>2026-04-26T14:24:46.034Z</time></trkpt><trkpt lat="43.46533" lon="12.326538"><ele>396.0</ele><time>2026-04-26T14:24:47.028Z</time></trkpt><trkpt lat="43.465439" lon="12.3267319"><ele>395.0</ele><time>2026-04-26T14:24:48.031Z</time></trkpt><trkpt lat="43.4655499" lon="12.3269321"><ele>394.0</ele><time>2026-04-26T14:24:49.028Z</time></trkpt><trkpt lat="43.4656637" lon="12.3271366"><ele>393.0</ele><time>2026-04-26T14:24:50.025Z</time></trkpt><trkpt lat="43.4657746" lon="12.327345"><ele>393.0</ele><time>2026-04-26T14:24:51.034Z</time></trkpt><trkpt lat="43.4658802" lon="12.3275636"><ele>393.0</ele><time>2026-04-26T14:24:52.036Z</time></trkpt><trkpt lat="43.4659812" lon="12.3277628"><ele>393.0</ele><time>2026-04-26T14:24:53.037Z</time></trkpt><trkpt lat="43.4660698" lon="12.3279474"><ele>392.0</ele><time>2026-04-26T14:24:54.034Z</time></trkpt><trkpt lat="43.466158" lon="12.3281245"><ele>391.0</ele><time>2026-04-26T14:24:55.03Z</time></trkpt><trkpt lat="43.4662382" lon="12.3283049"><ele>390.0</ele><time>2026-04-26T14:24:56.026Z</time></trkpt><trkpt lat="43.4663056" lon="12.3285"><ele>393.66666666666663</ele><time>2026-04-26T14:24:57.031Z</time></trkpt><trkpt lat="43.4663591" lon="12.3287024"><ele>397.3333333333333</ele><time>2026-04-26T14:24:58.034Z</time></trkpt><trkpt lat="43.4664022" lon="12.3289144"><ele>401.0</ele><time>2026-04-26T14:24:59.032Z</time></trkpt><trkpt lat="43.4664362" lon="12.3291351"><ele>401.0</ele><time>2026-04-26T14:25:00.037Z</time></trkpt><trkpt lat="43.4664628" lon="12.3293502"><ele>401.0</ele><time>2026-04-26T14:25:01.03Z</time></trkpt><trkpt lat="43.4664824" lon="12.3295638"><ele>401.0</ele><time>2026-04-26T14:25:02.034Z</time></trkpt><trkpt lat="43.4664905" lon="12.3297705"><ele>399.3333333333333</ele><time>2026-04-26T14:25:03.036Z</time></trkpt><trkpt lat="43.4664816" lon="12.3299813"><ele>397.66666666666663</ele><time>2026-04-26T14:25:04.038Z</time></trkpt><trkpt lat="43.4664515" lon="12.3301985"><ele>396.0</ele><time>2026-04-26T14:25:05.034Z</time></trkpt><trkpt lat="43.4664066" lon="12.3304295"><ele>394.33333333333337</ele><time>2026-04-26T14:25:06.031Z</time></trkpt><trkpt lat="43.4663597" lon="12.3306748"><ele>392.6666666666667</ele><time>2026-04-26T14:25:07.041Z</time></trkpt><trkpt lat="43.4663137" lon="12.3309356"><ele>391.0</ele><time>2026-04-26T14:25:08.034Z</time></trkpt><trkpt lat="43.4662792" lon="12.3312105"><ele>389.0</ele><time>2026-04-26T14:25:09.038Z</time></trkpt><trkpt lat="43.4662624" lon="12.3314834"><ele>387.0</ele><time>2026-04-26T14:25:10.034Z</time></trkpt><trkpt lat="43.4662595" lon="12.3317512"><ele>385.0</ele><time>2026-04-26T14:25:11.028Z</time></trkpt><trkpt lat="43.4662679" lon="12.3320185"><ele>385.0</ele><time>2026-04-26T14:25:12.031Z</time></trkpt><trkpt lat="43.4662975" lon="12.3322911"><ele>385.0</ele><time>2026-04-26T14:25:13.036Z</time></trkpt><trkpt lat="43.4663438" lon="12.3325686"><ele>385.0</ele><time>2026-04-26T14:25:14.031Z</time></trkpt><trkpt lat="43.4664055" lon="12.3328389"><ele>386.33333333333337</ele><time>2026-04-26T14:25:15.035Z</time></trkpt><trkpt lat="43.4664642" lon="12.3330861"><ele>387.66666666666663</ele><time>2026-04-26T14:25:16.03Z</time></trkpt><trkpt lat="43.4665113" lon="12.333312"><ele>389.0</ele><time>2026-04-26T14:25:17.045Z</time></trkpt><trkpt lat="43.466546" lon="12.3335217"><ele>389.0</ele><time>2026-04-26T14:25:18.038Z</time></trkpt><trkpt lat="43.4665607" lon="12.3337232"><ele>389.0</ele><time>2026-04-26T14:25:19.042Z</time></trkpt><trkpt lat="43.4665547" lon="12.3339207"><ele>389.0</ele><time>2026-04-26T14:25:20.028Z</time></trkpt><trkpt lat="43.4665102" lon="12.3341249"><ele>389.0</ele><time>2026-04-26T14:25:21.035Z</time></trkpt><trkpt lat="43.466435" lon="12.3343202"><ele>389.66666666666663</ele><time>2026-04-26T14:25:22.042Z</time></trkpt><trkpt lat="43.4663465" lon="12.3345227"><ele>390.33333333333337</ele><time>2026-04-26T14:25:23.054Z</time></trkpt><trkpt lat="43.4662551" lon="12.3347327"><ele>391.0</ele><time>2026-04-26T14:25:24.037Z</time></trkpt><trkpt lat="43.4661736" lon="12.334955"><ele>394.0</ele><time>2026-04-26T14:25:25.032Z</time></trkpt><trkpt lat="43.4660925" lon="12.3351866"><ele>397.0</ele><time>2026-04-26T14:25:26.028Z</time></trkpt><trkpt lat="43.4660217" lon="12.3354235"><ele>400.0</ele><time>2026-04-26T14:25:27.026Z</time></trkpt><trkpt lat="43.4659561" lon="12.3356702"><ele>400.0</ele><time>2026-04-26T14:25:28.034Z</time></trkpt><trkpt lat="43.4659061" lon="12.335922"><ele>400.0</ele><time>2026-04-26T14:25:29.035Z</time></trkpt><trkpt lat="43.46586" lon="12.3361768"><ele>400.0</ele><time>2026-04-26T14:25:30.035Z</time></trkpt><trkpt lat="43.4658309" lon="12.3364157"><ele>401.25</ele><time>2026-04-26T14:25:31.043Z</time></trkpt><trkpt lat="43.4658207" lon="12.3366255"><ele>402.5</ele><time>2026-04-26T14:25:32.03Z</time></trkpt><trkpt lat="43.4658232" lon="12.3368188"><ele>403.75</ele><time>2026-04-26T14:25:33.03Z</time></trkpt><trkpt lat="43.4658214" lon="12.3370023"><ele>405.0</ele><time>2026-04-26T14:25:34.041Z</time></trkpt><trkpt lat="43.4657941" lon="12.3371719"><ele>405.75</ele><time>2026-04-26T14:25:35.043Z</time></trkpt><trkpt lat="43.4657142" lon="12.3373198"><ele>406.5</ele><time>2026-04-26T14:25:36.039Z</time></trkpt><trkpt lat="43.4655817" lon="12.3374249"><ele>407.25</ele><time>2026-04-26T14:25:37.037Z</time></trkpt><trkpt lat="43.4654456" lon="12.3375118"><ele>408.0</ele><time>2026-04-26T14:25:38.022Z</time></trkpt><trkpt lat="43.4653059" lon="12.3376313"><ele>408.0</ele><time>2026-04-26T14:25:39.043Z</time></trkpt><trkpt lat="43.4651587" lon="12.3377811"><ele>408.0</ele><time>2026-04-26T14:25:40.034Z</time></trkpt><trkpt lat="43.4650056" lon="12.337965"><ele>408.0</ele><time>2026-04-26T14:25:41.04Z</time></trkpt><trkpt lat="43.4648515" lon="12.3381558"><ele>407.33333333333337</ele><time>2026-04-26T14:25:42.031Z</time></trkpt><trkpt lat="43.4646985" lon="12.3383771"><ele>406.6666666666667</ele><time>2026-04-26T14:25:43.037Z</time></trkpt><trkpt lat="43.4645622" lon="12.3386182"><ele>406.0</ele><time>2026-04-26T14:25:44.037Z</time></trkpt><trkpt lat="43.4644342" lon="12.3388811"><ele>410.5</ele><time>2026-04-26T14:25:45.032Z</time></trkpt><trkpt lat="43.4643048" lon="12.339149"><ele>415.0</ele><time>2026-04-26T14:25:46.031Z</time></trkpt><trkpt lat="43.464169" lon="12.3394191"><ele>415.0</ele><time>2026-04-26T14:25:47.038Z</time></trkpt><trkpt lat="43.4640325" lon="12.3396864"><ele>415.0</ele><time>2026-04-26T14:25:48.023Z</time></trkpt><trkpt lat="43.4638982" lon="12.3399328"><ele>416.0</ele><time>2026-04-26T14:25:49.03Z</time></trkpt><trkpt lat="43.4637867" lon="12.3401489"><ele>417.0</ele><time>2026-04-26T14:25:50.022Z</time></trkpt><trkpt lat="43.4636943" lon="12.3403536"><ele>418.0</ele><time>2026-04-26T14:25:51.031Z</time></trkpt><trkpt lat="43.4636301" lon="12.340558"><ele>419.0</ele><time>2026-04-26T14:25:52.025Z</time></trkpt><trkpt lat="43.4635922" lon="12.340766"><ele>420.0</ele><time>2026-04-26T14:25:53.039Z</time></trkpt><trkpt lat="43.4635742" lon="12.3409842"><ele>421.0</ele><time>2026-04-26T14:25:54.024Z</time></trkpt><trkpt lat="43.4635717" lon="12.341215"><ele>421.0</ele><time>2026-04-26T14:25:55.036Z</time></trkpt><trkpt lat="43.4635732" lon="12.3414477"><ele>421.0</ele><time>2026-04-26T14:25:56.024Z</time></trkpt><trkpt lat="43.4635878" lon="12.3416665"><ele>421.0</ele><time>2026-04-26T14:25:57.031Z</time></trkpt><trkpt lat="43.4636098" lon="12.3418744"><ele>421.0</ele><time>2026-04-26T14:25:58.04Z</time></trkpt><trkpt lat="43.4636347" lon="12.342065"><ele>421.0</ele><time>2026-04-26T14:25:59.031Z</time></trkpt><trkpt lat="43.4636558" lon="12.3422606"><ele>421.0</ele><time>2026-04-26T14:26:00.024Z</time></trkpt><trkpt lat="43.4636543" lon="12.3424586"><ele>421.0</ele><time>2026-04-26T14:26:01.056Z</time></trkpt><trkpt lat="43.4636029" lon="12.3426376"><ele>421.33333333333337</ele><time>2026-04-26T14:26:02.063Z</time></trkpt><trkpt lat="43.4635225" lon="12.3428073"><ele>421.66666666666663</ele><time>2026-04-26T14:26:03.055Z</time></trkpt><trkpt lat="43.463443" lon="12.3429828"><ele>422.0</ele><time>2026-04-26T14:26:04.049Z</time></trkpt><trkpt lat="43.4633587" lon="12.3431661"><ele>425.3333333333333</ele><time>2026-04-26T14:26:05.039Z</time></trkpt><trkpt lat="43.4632723" lon="12.3433619"><ele>428.66666666666663</ele><time>2026-04-26T14:26:06.034Z</time></trkpt><trkpt lat="43.4631859" lon="12.3435538"><ele>432.0</ele><time>2026-04-26T14:26:07.04Z</time></trkpt><trkpt lat="43.4630977" lon="12.3437389"><ele>431.0</ele><time>2026-04-26T14:26:08.032Z</time></trkpt><trkpt lat="43.4630103" lon="12.3439124"><ele>430.0</ele><time>2026-04-26T14:26:09.037Z</time></trkpt><trkpt lat="43.4629294" lon="12.3440674"><ele>429.0</ele><time>2026-04-26T14:26:10.034Z</time></trkpt><trkpt lat="43.4628493" lon="12.3442071"><ele>428.0</ele><time>2026-04-26T14:26:11.035Z</time></trkpt><trkpt lat="43.4627719" lon="12.3443283"><ele>428.0</ele><time>2026-04-26T14:26:12.039Z</time></trkpt><trkpt lat="43.4627025" lon="12.3444459"><ele>427.99999999999994</ele><time>2026-04-26T14:26:13.039Z</time></trkpt><trkpt lat="43.4626338" lon="12.3445517"><ele>427.99999999999994</ele><time>2026-04-26T14:26:14.029Z</time></trkpt><trkpt lat="43.4625679" lon="12.3446404"><ele>428.0</ele><time>2026-04-26T14:26:15.032Z</time></trkpt><trkpt lat="43.4624966" lon="12.3447149"><ele>428.0</ele><time>2026-04-26T14:26:16.03Z</time></trkpt><trkpt lat="43.4624163" lon="12.3447667"><ele>428.2</ele><time>2026-04-26T14:26:17.034Z</time></trkpt><trkpt lat="43.4623358" lon="12.3448133"><ele>428.4</ele><time>2026-04-26T14:26:18.044Z</time></trkpt><trkpt lat="43.4622486" lon="12.3448667"><ele>428.59999999999997</ele><time>2026-04-26T14:26:19.038Z</time></trkpt><trkpt lat="43.4621482" lon="12.3449377"><ele>428.79999999999995</ele><time>2026-04-26T14:26:20.036Z</time></trkpt><trkpt lat="43.4620447" lon="12.3450152"><ele>429.0</ele><time>2026-04-26T14:26:21.027Z</time></trkpt><trkpt lat="43.4619392" lon="12.3450949"><ele>429.0</ele><time>2026-04-26T14:26:22.024Z</time></trkpt><trkpt lat="43.4618327" lon="12.3451777"><ele>429.0</ele><time>2026-04-26T14:26:23.04Z</time></trkpt><trkpt lat="43.4617243" lon="12.3452506"><ele>429.0</ele><time>2026-04-26T14:26:24.033Z</time></trkpt><trkpt lat="43.4616239" lon="12.3453083"><ele>429.0</ele><time>2026-04-26T14:26:25.026Z</time></trkpt><trkpt lat="43.4615324" lon="12.3453532"><ele>429.0</ele><time>2026-04-26T14:26:26.035Z</time></trkpt><trkpt lat="43.4614382" lon="12.3453515"><ele>429.0</ele><time>2026-04-26T14:26:27.036Z</time></trkpt><trkpt lat="43.4613516" lon="12.3453049"><ele>429.0</ele><time>2026-04-26T14:26:28.032Z</time></trkpt><trkpt lat="43.461265" lon="12.3452437"><ele>429.0</ele><time>2026-04-26T14:26:29.033Z</time></trkpt><trkpt lat="43.4611764" lon="12.3451895"><ele>429.0</ele><time>2026-04-26T14:26:30.035Z</time></trkpt><trkpt lat="43.4610735" lon="12.3451438"><ele>429.0</ele><time>2026-04-26T14:26:31.036Z</time></trkpt><trkpt lat="43.4609623" lon="12.3451"><ele>432.75</ele><time>2026-04-26T14:26:32.032Z</time></trkpt><trkpt lat="43.4608471" lon="12.3450507"><ele>436.5</ele><time>2026-04-26T14:26:33.039Z</time></trkpt><trkpt lat="43.4607293" lon="12.345004"><ele>440.25</ele><time>2026-04-26T14:26:34.038Z</time></trkpt><trkpt lat="43.4606131" lon="12.3449585"><ele>444.0</ele><time>2026-04-26T14:26:35.041Z</time></trkpt><trkpt lat="43.4604946" lon="12.3449153"><ele>445.5</ele><time>2026-04-26T14:26:36.045Z</time></trkpt><trkpt lat="43.4603776" lon="12.3448657"><ele>447.0</ele><time>2026-04-26T14:26:37.036Z</time></trkpt><trkpt lat="43.4602613" lon="12.3448094"><ele>448.5</ele><time>2026-04-26T14:26:38.027Z</time></trkpt><trkpt lat="43.4601479" lon="12.344736"><ele>450.0</ele><time>2026-04-26T14:26:39.03Z</time></trkpt><trkpt lat="43.4600353" lon="12.3446531"><ele>450.0</ele><time>2026-04-26T14:26:40.026Z</time></trkpt><trkpt lat="43.4599395" lon="12.3445715"><ele>450.0</ele><time>2026-04-26T14:26:41.035Z</time></trkpt><trkpt lat="43.4598617" lon="12.344503"><ele>450.0</ele><time>2026-04-26T14:26:42.04Z</time></trkpt><trkpt lat="43.459792" lon="12.3444491"><ele>450.0</ele><time>2026-04-26T14:26:43.037Z</time></trkpt><trkpt lat="43.4597136" lon="12.3444109"><ele>450.0</ele><time>2026-04-26T14:26:44.036Z</time></trkpt><trkpt lat="43.4596371" lon="12.3443913"><ele>450.0</ele><time>2026-04-26T14:26:45.038Z</time></trkpt><trkpt lat="43.4595535" lon="12.3444004"><ele>451.4</ele><time>2026-04-26T14:26:46.037Z</time></trkpt><trkpt lat="43.4594553" lon="12.3444321"><ele>452.8</ele><time>2026-04-26T14:26:47.045Z</time></trkpt><trkpt lat="43.4593484" lon="12.3444699"><ele>454.20000000000005</ele><time>2026-04-26T14:26:48.046Z</time></trkpt><trkpt lat="43.4592353" lon="12.3445133"><ele>455.6</ele><time>2026-04-26T14:26:49.045Z</time></trkpt><trkpt lat="43.4591231" lon="12.3445484"><ele>457.0</ele><time>2026-04-26T14:26:50.028Z</time></trkpt><trkpt lat="43.4590218" lon="12.3445921"><ele>457.00000000000006</ele><time>2026-04-26T14:26:51.042Z</time></trkpt><trkpt lat="43.4589351" lon="12.3446325"><ele>457.0</ele><time>2026-04-26T14:26:52.031Z</time></trkpt><trkpt lat="43.4588605" lon="12.3446544"><ele>457.0</ele><time>2026-04-26T14:26:53.039Z</time></trkpt><trkpt lat="43.458794" lon="12.3446916"><ele>457.0</ele><time>2026-04-26T14:26:54.038Z</time></trkpt><trkpt lat="43.4587606" lon="12.3447963"><ele>457.00000000000006</ele><time>2026-04-26T14:26:56.022Z</time></trkpt><trkpt lat="43.4588314" lon="12.3448734"><ele>457.0</ele><time>2026-04-26T14:26:58.039Z</time></trkpt><trkpt lat="43.4589757" lon="12.3448895"><ele>460.5</ele><time>2026-04-26T14:27:00.036Z</time></trkpt><trkpt lat="43.4590783" lon="12.3448825"><ele>464.0</ele><time>2026-04-26T14:27:01.034Z</time></trkpt><trkpt lat="43.4591941" lon="12.3448947"><ele>467.5</ele><time>2026-04-26T14:27:02.034Z</time></trkpt><trkpt lat="43.4593078" lon="12.3449102"><ele>471.0</ele><time>2026-04-26T14:27:03.037Z</time></trkpt><trkpt lat="43.4594253" lon="12.3449141"><ele>471.0</ele><time>2026-04-26T14:27:04.031Z</time></trkpt><trkpt lat="43.4595345" lon="12.3449063"><ele>471.0</ele><time>2026-04-26T14:27:05.04Z</time></trkpt><trkpt lat="43.4596323" lon="12.344898"><ele>471.0</ele><time>2026-04-26T14:27:06.035Z</time></trkpt><trkpt lat="43.4597292" lon="12.3449124"><ele>471.0</ele><time>2026-04-26T14:27:07.033Z</time></trkpt><trkpt lat="43.4598209" lon="12.3449686"><ele>471.0</ele><time>2026-04-26T14:27:08.054Z</time></trkpt><trkpt lat="43.4599099" lon="12.3450546"><ele>469.25</ele><time>2026-04-26T14:27:09.05Z</time></trkpt><trkpt lat="43.4600021" lon="12.3451689"><ele>467.5</ele><time>2026-04-26T14:27:10.029Z</time></trkpt><trkpt lat="43.4600982" lon="12.3452982"><ele>465.75</ele><time>2026-04-26T14:27:11.027Z</time></trkpt><trkpt lat="43.4602006" lon="12.3454375"><ele>464.0</ele><time>2026-04-26T14:27:12.027Z</time></trkpt><trkpt lat="43.4603095" lon="12.3455747"><ele>464.0</ele><time>2026-04-26T14:27:13.035Z</time></trkpt><trkpt lat="43.4604194" lon="12.345691"><ele>464.0</ele><time>2026-04-26T14:27:14.029Z</time></trkpt><trkpt lat="43.4605169" lon="12.3457921"><ele>464.0</ele><time>2026-04-26T14:27:15.024Z</time></trkpt><trkpt lat="43.460596" lon="12.3458885"><ele>464.0</ele><time>2026-04-26T14:27:16.021Z</time></trkpt><trkpt lat="43.4606566" lon="12.3459995"><ele>464.0</ele><time>2026-04-26T14:27:17.04Z</time></trkpt><trkpt lat="43.4606858" lon="12.3461415"><ele>464.0</ele><time>2026-04-26T14:27:18.032Z</time></trkpt><trkpt lat="43.4606912" lon="12.3462736"><ele>464.0</ele><time>2026-04-26T14:27:19.046Z</time></trkpt><trkpt lat="43.4606772" lon="12.3464269"><ele>464.0</ele><time>2026-04-26T14:27:20.038Z</time></trkpt><trkpt lat="43.4606369" lon="12.3465844"><ele>464.0</ele><time>2026-04-26T14:27:21.031Z</time></trkpt><trkpt lat="43.4605932" lon="12.3467435"><ele>466.4</ele><time>2026-04-26T14:27:22.048Z</time></trkpt><trkpt lat="43.4605759" lon="12.3468793"><ele>468.79999999999995</ele><time>2026-04-26T14:27:23.038Z</time></trkpt><trkpt lat="43.4605884" lon="12.3469984"><ele>471.20000000000005</ele><time>2026-04-26T14:27:24.04Z</time></trkpt><trkpt lat="43.4606412" lon="12.3470891"><ele>473.6</ele><time>2026-04-26T14:27:25.047Z</time></trkpt><trkpt lat="43.4607037" lon="12.3471727"><ele>476.0</ele><time>2026-04-26T14:27:26.044Z</time></trkpt><trkpt lat="43.4607638" lon="12.3472796"><ele>478.25</ele><time>2026-04-26T14:27:27.034Z</time></trkpt><trkpt lat="43.4608101" lon="12.3474047"><ele>480.5</ele><time>2026-04-26T14:27:28.034Z</time></trkpt><trkpt lat="43.4608542" lon="12.3475681"><ele>482.75</ele><time>2026-04-26T14:27:29.039Z</time></trkpt><trkpt lat="43.4609043" lon="12.347751"><ele>485.0</ele><time>2026-04-26T14:27:30.039Z</time></trkpt><trkpt lat="43.460967" lon="12.3479336"><ele>487.75</ele><time>2026-04-26T14:27:31.032Z</time></trkpt><trkpt lat="43.4610493" lon="12.348118"><ele>490.5</ele><time>2026-04-26T14:27:32.03Z</time></trkpt><trkpt lat="43.4611226" lon="12.3482846"><ele>493.25</ele><time>2026-04-26T14:27:33.04Z</time></trkpt><trkpt lat="43.4611885" lon="12.3484297"><ele>496.0</ele><time>2026-04-26T14:27:34.053Z</time></trkpt><trkpt lat="43.4612386" lon="12.3485767"><ele>496.0</ele><time>2026-04-26T14:27:35.032Z</time></trkpt><trkpt lat="43.4612617" lon="12.3487251"><ele>496.0</ele><time>2026-04-26T14:27:36.039Z</time></trkpt><trkpt lat="43.4612561" lon="12.3488873"><ele>496.0</ele><time>2026-04-26T14:27:37.042Z</time></trkpt><trkpt lat="43.4612234" lon="12.3490446"><ele>496.0</ele><time>2026-04-26T14:27:38.034Z</time></trkpt><trkpt lat="43.4611799" lon="12.3492098"><ele>499.5</ele><time>2026-04-26T14:27:39.032Z</time></trkpt><trkpt lat="43.4611393" lon="12.3493806"><ele>503.0</ele><time>2026-04-26T14:27:40.037Z</time></trkpt><trkpt lat="43.4610915" lon="12.3495434"><ele>506.5</ele><time>2026-04-26T14:27:41.034Z</time></trkpt><trkpt lat="43.4610519" lon="12.3496916"><ele>510.0</ele><time>2026-04-26T14:27:42.036Z</time></trkpt><trkpt lat="43.4610362" lon="12.3498324"><ele>510.5</ele><time>2026-04-26T14:27:43.051Z</time></trkpt><trkpt lat="43.4610427" lon="12.3499846"><ele>511.0</ele><time>2026-04-26T14:27:44.035Z</time></trkpt><trkpt lat="43.4610837" lon="12.3501287"><ele>511.5</ele><time>2026-04-26T14:27:45.031Z</time></trkpt><trkpt lat="43.4611301" lon="12.3502756"><ele>512.0</ele><time>2026-04-26T14:27:46.033Z</time></trkpt><trkpt lat="43.4611831" lon="12.3504151"><ele>512.0</ele><time>2026-04-26T14:27:47.045Z</time></trkpt><trkpt lat="43.4612384" lon="12.3505263"><ele>512.0</ele><time>2026-04-26T14:27:48.058Z</time></trkpt><trkpt lat="43.4613262" lon="12.3506177"><ele>512.0</ele><time>2026-04-26T14:27:49.05Z</time></trkpt><trkpt lat="43.4614326" lon="12.3506698"><ele>512.0</ele><time>2026-04-26T14:27:50.03Z</time></trkpt><trkpt lat="43.4615183" lon="12.3507067"><ele>512.0</ele><time>2026-04-26T14:27:51.051Z</time></trkpt><trkpt lat="43.4615938" lon="12.3507317"><ele>510.85714285714283</ele><time>2026-04-26T14:27:52.058Z</time></trkpt><trkpt lat="43.4616599" lon="12.3507684"><ele>509.71428571428567</ele><time>2026-04-26T14:27:53.054Z</time></trkpt><trkpt lat="43.4617031" lon="12.3508404"><ele>508.57142857142856</ele><time>2026-04-26T14:27:54.048Z</time></trkpt><trkpt lat="43.4617228" lon="12.3509259"><ele>507.42857142857144</ele><time>2026-04-26T14:27:55.034Z</time></trkpt><trkpt lat="43.4617304" lon="12.3510129"><ele>506.2857142857143</ele><time>2026-04-26T14:27:56.04Z</time></trkpt><trkpt lat="43.461716" lon="12.3510974"><ele>505.1428571428571</ele><time>2026-04-26T14:27:57.026Z</time></trkpt><trkpt lat="43.4616815" lon="12.3511776"><ele>504.0</ele><time>2026-04-26T14:27:58.023Z</time></trkpt><trkpt lat="43.4615598" lon="12.3512245"><ele>504.0</ele><time>2026-04-26T14:28:00.045Z</time></trkpt><trkpt lat="43.4614913" lon="12.3512073"><ele>504.0</ele><time>2026-04-26T14:28:01.054Z</time></trkpt><trkpt lat="43.4614184" lon="12.3511775"><ele>504.0</ele><time>2026-04-26T14:28:02.046Z</time></trkpt><trkpt lat="43.4613504" lon="12.3511657"><ele>504.0</ele><time>2026-04-26T14:28:03.051Z</time></trkpt><trkpt lat="43.4612764" lon="12.3511836"><ele>504.0</ele><time>2026-04-26T14:28:04.049Z</time></trkpt><trkpt lat="43.4611977" lon="12.3512384"><ele>504.0</ele><time>2026-04-26T14:28:05.049Z</time></trkpt><trkpt lat="43.4611222" lon="12.3512926"><ele>506.6</ele><time>2026-04-26T14:28:06.051Z</time></trkpt><trkpt lat="43.4610292" lon="12.3513319"><ele>509.2</ele><time>2026-04-26T14:28:07.038Z</time></trkpt><trkpt lat="43.4609315" lon="12.3513506"><ele>511.80000000000007</ele><time>2026-04-26T14:28:08.035Z</time></trkpt><trkpt lat="43.4608356" lon="12.3513513"><ele>514.4</ele><time>2026-04-26T14:28:09.042Z</time></trkpt><trkpt lat="43.4607389" lon="12.3513328"><ele>517.0</ele><time>2026-04-26T14:28:10.033Z</time></trkpt><trkpt lat="43.4606457" lon="12.3513037"><ele>517.0</ele><time>2026-04-26T14:28:11.049Z</time></trkpt><trkpt lat="43.460555" lon="12.3512455"><ele>517.0</ele><time>2026-04-26T14:28:12.027Z</time></trkpt><trkpt lat="43.4604813" lon="12.3511735"><ele>517.0</ele><time>2026-04-26T14:28:13.041Z</time></trkpt><trkpt lat="43.4604106" lon="12.3510641"><ele>517.0</ele><time>2026-04-26T14:28:14.04Z</time></trkpt><trkpt lat="43.460351" lon="12.3509232"><ele>517.0</ele><time>2026-04-26T14:28:15.033Z</time></trkpt><trkpt lat="43.4602953" lon="12.3507683"><ele>521.6</ele><time>2026-04-26T14:28:16.041Z</time></trkpt><trkpt lat="43.4602387" lon="12.3506205"><ele>526.2</ele><time>2026-04-26T14:28:17.041Z</time></trkpt><trkpt lat="43.4601979" lon="12.3504814"><ele>530.8</ele><time>2026-04-26T14:28:18.036Z</time></trkpt><trkpt lat="43.4601762" lon="12.3503549"><ele>535.4</ele><time>2026-04-26T14:28:19.047Z</time></trkpt><trkpt lat="43.4601936" lon="12.350241"><ele>540.0</ele><time>2026-04-26T14:28:20.023Z</time></trkpt><trkpt lat="43.4602367" lon="12.3501397"><ele>540.0</ele><time>2026-04-26T14:28:21.037Z</time></trkpt><trkpt lat="43.460291" lon="12.3500399"><ele>540.0</ele><time>2026-04-26T14:28:22.038Z</time></trkpt><trkpt lat="43.460337" lon="12.3499198"><ele>540.0</ele><time>2026-04-26T14:28:23.041Z</time></trkpt><trkpt lat="43.4603513" lon="12.3497909"><ele>540.0</ele><time>2026-04-26T14:28:24.022Z</time></trkpt><trkpt lat="43.4603409" lon="12.349665"><ele>540.0</ele><time>2026-04-26T14:28:25.056Z</time></trkpt><trkpt lat="43.4603019" lon="12.3495497"><ele>539.4</ele><time>2026-04-26T14:28:26.038Z</time></trkpt><trkpt lat="43.4602393" lon="12.349447"><ele>538.8</ele><time>2026-04-26T14:28:27.046Z</time></trkpt><trkpt lat="43.4601677" lon="12.3493621"><ele>538.2</ele><time>2026-04-26T14:28:28.032Z</time></trkpt><trkpt lat="43.4600842" lon="12.3492713"><ele>537.6</ele><time>2026-04-26T14:28:29.046Z</time></trkpt><trkpt lat="43.459999" lon="12.3491555"><ele>537.0</ele><time>2026-04-26T14:28:30.039Z</time></trkpt><trkpt lat="43.4599125" lon="12.3490273"><ele>537.0</ele><time>2026-04-26T14:28:31.042Z</time></trkpt><trkpt lat="43.459826" lon="12.3488877"><ele>537.0</ele><time>2026-04-26T14:28:32.036Z</time></trkpt><trkpt lat="43.4597359" lon="12.3487523"><ele>537.0</ele><time>2026-04-26T14:28:33.043Z</time></trkpt><trkpt lat="43.459653" lon="12.3486351"><ele>537.0</ele><time>2026-04-26T14:28:34.047Z</time></trkpt><trkpt lat="43.4595648" lon="12.3485433"><ele>537.5</ele><time>2026-04-26T14:28:35.04Z</time></trkpt><trkpt lat="43.4594681" lon="12.3484804"><ele>538.0</ele><time>2026-04-26T14:28:36.033Z</time></trkpt><trkpt lat="43.4593633" lon="12.3484499"><ele>538.5</ele><time>2026-04-26T14:28:37.038Z</time></trkpt><trkpt lat="43.4592503" lon="12.3484445"><ele>539.0</ele><time>2026-04-26T14:28:38.05Z</time></trkpt><trkpt lat="43.4591253" lon="12.3484538"><ele>539.0</ele><time>2026-04-26T14:28:39.034Z</time></trkpt><trkpt lat="43.4589964" lon="12.3484676"><ele>539.0</ele><time>2026-04-26T14:28:40.034Z</time></trkpt><trkpt lat="43.4588722" lon="12.3484738"><ele>539.0</ele><time>2026-04-26T14:28:41.05Z</time></trkpt><trkpt lat="43.458756" lon="12.3484731"><ele>539.0</ele><time>2026-04-26T14:28:42.037Z</time></trkpt><trkpt lat="43.4586567" lon="12.3484908"><ele>537.8</ele><time>2026-04-26T14:28:43.036Z</time></trkpt><trkpt lat="43.4585653" lon="12.348516"><ele>536.5999999999999</ele><time>2026-04-26T14:28:44.038Z</time></trkpt><trkpt lat="43.4584844" lon="12.3485734"><ele>535.4</ele><time>2026-04-26T14:28:45.038Z</time></trkpt><trkpt lat="43.4583965" lon="12.3486625"><ele>534.1999999999999</ele><time>2026-04-26T14:28:46.033Z</time></trkpt><trkpt lat="43.4582933" lon="12.3487634"><ele>533.0</ele><time>2026-04-26T14:28:47.047Z</time></trkpt><trkpt lat="43.4581868" lon="12.3488715"><ele>533.75</ele><time>2026-04-26T14:28:48.034Z</time></trkpt><trkpt lat="43.4580824" lon="12.3489846"><ele>534.5</ele><time>2026-04-26T14:28:49.035Z</time></trkpt><trkpt lat="43.4579788" lon="12.3491113"><ele>535.25</ele><time>2026-04-26T14:28:50.031Z</time></trkpt><trkpt lat="43.4578638" lon="12.3492381"><ele>536.0</ele><time>2026-04-26T14:28:51.034Z</time></trkpt><trkpt lat="43.4577428" lon="12.3493658"><ele>536.0</ele><time>2026-04-26T14:28:52.037Z</time></trkpt><trkpt lat="43.4576169" lon="12.3494882"><ele>536.0</ele><time>2026-04-26T14:28:53.039Z</time></trkpt><trkpt lat="43.4574914" lon="12.3496179"><ele>536.0</ele><time>2026-04-26T14:28:54.029Z</time></trkpt><trkpt lat="43.4573668" lon="12.3497462"><ele>539.3333333333333</ele><time>2026-04-26T14:28:55.05Z</time></trkpt><trkpt lat="43.4572444" lon="12.3498737"><ele>542.6666666666666</ele><time>2026-04-26T14:28:56.042Z</time></trkpt><trkpt lat="43.4571218" lon="12.349995"><ele>546.0</ele><time>2026-04-26T14:28:57.039Z</time></trkpt><trkpt lat="43.4569973" lon="12.35011"><ele>546.6666666666666</ele><time>2026-04-26T14:28:58.031Z</time></trkpt><trkpt lat="43.456869" lon="12.3502249"><ele>547.3333333333333</ele><time>2026-04-26T14:28:59.027Z</time></trkpt><trkpt lat="43.4567351" lon="12.3503383"><ele>548.0</ele><time>2026-04-26T14:29:00.045Z</time></trkpt><trkpt lat="43.4566025" lon="12.3504532"><ele>550.0</ele><time>2026-04-26T14:29:01.039Z</time></trkpt><trkpt lat="43.4564836" lon="12.3505571"><ele>552.0</ele><time>2026-04-26T14:29:02.032Z</time></trkpt><trkpt lat="43.4563896" lon="12.350656"><ele>554.0</ele><time>2026-04-26T14:29:03.039Z</time></trkpt><trkpt lat="43.4563043" lon="12.3507713"><ele>556.0</ele><time>2026-04-26T14:29:04.025Z</time></trkpt><trkpt lat="43.4562105" lon="12.3508756"><ele>556.0</ele><time>2026-04-26T14:29:05.041Z</time></trkpt><trkpt lat="43.4561082" lon="12.3509662"><ele>556.0</ele><time>2026-04-26T14:29:06.028Z</time></trkpt><trkpt lat="43.4560034" lon="12.3510215"><ele>556.0</ele><time>2026-04-26T14:29:07.039Z</time></trkpt><trkpt lat="43.4558817" lon="12.3510625"><ele>556.0</ele><time>2026-04-26T14:29:08.038Z</time></trkpt><trkpt lat="43.4557565" lon="12.3511154"><ele>556.0</ele><time>2026-04-26T14:29:09.044Z</time></trkpt><trkpt lat="43.4556304" lon="12.3511961"><ele>556.0</ele><time>2026-04-26T14:29:10.031Z</time></trkpt><trkpt lat="43.4555289" lon="12.35129"><ele>556.0</ele><time>2026-04-26T14:29:11.031Z</time></trkpt><trkpt lat="43.4554405" lon="12.351385"><ele>556.0</ele><time>2026-04-26T14:29:12.051Z</time></trkpt><trkpt lat="43.4553681" lon="12.351501"><ele>555.6</ele><time>2026-04-26T14:29:13.031Z</time></trkpt><trkpt lat="43.4552993" lon="12.3516405"><ele>555.2</ele><time>2026-04-26T14:29:14.042Z</time></trkpt><trkpt lat="43.4552365" lon="12.351778"><ele>554.8</ele><time>2026-04-26T14:29:15.041Z</time></trkpt><trkpt lat="43.4551976" lon="12.3518929"><ele>554.4</ele><time>2026-04-26T14:29:16.037Z</time></trkpt><trkpt lat="43.4551694" lon="12.3520038"><ele>554.0</ele><time>2026-04-26T14:29:17.036Z</time></trkpt><trkpt lat="43.4551587" lon="12.3521207"><ele>557.5</ele><time>2026-04-26T14:29:18.029Z</time></trkpt><trkpt lat="43.4551681" lon="12.3522544"><ele>561.0</ele><time>2026-04-26T14:29:19.04Z</time></trkpt><trkpt lat="43.4551865" lon="12.3524011"><ele>564.5</ele><time>2026-04-26T14:29:20.035Z</time></trkpt><trkpt lat="43.4551986" lon="12.352565"><ele>568.0</ele><time>2026-04-26T14:29:21.05Z</time></trkpt><trkpt lat="43.4552011" lon="12.3527407"><ele>568.0</ele><time>2026-04-26T14:29:22.026Z</time></trkpt><trkpt lat="43.4552049" lon="12.3529161"><ele>568.0</ele><time>2026-04-26T14:29:23.031Z</time></trkpt><trkpt lat="43.4552195" lon="12.3530883"><ele>568.0</ele><time>2026-04-26T14:29:24.027Z</time></trkpt><trkpt lat="43.4552459" lon="12.3532511"><ele>568.0</ele><time>2026-04-26T14:29:25.059Z</time></trkpt><trkpt lat="43.4552939" lon="12.3534064"><ele>570.0</ele><time>2026-04-26T14:29:26.018Z</time></trkpt><trkpt lat="43.4553462" lon="12.3535708"><ele>572.0</ele><time>2026-04-26T14:29:27.041Z</time></trkpt><trkpt lat="43.4554035" lon="12.3537312"><ele>574.0</ele><time>2026-04-26T14:29:28.028Z</time></trkpt><trkpt lat="43.4554468" lon="12.3538755"><ele>576.0</ele><time>2026-04-26T14:29:29.032Z</time></trkpt><trkpt lat="43.4554835" lon="12.3540123"><ele>583.0</ele><time>2026-04-26T14:29:30.035Z</time></trkpt><trkpt lat="43.4555229" lon="12.3541546"><ele>590.0</ele><time>2026-04-26T14:29:31.034Z</time></trkpt><trkpt lat="43.4555539" lon="12.3543108"><ele>597.0</ele><time>2026-04-26T14:29:32.038Z</time></trkpt><trkpt lat="43.455571" lon="12.3544733"><ele>604.0</ele><time>2026-04-26T14:29:33.025Z</time></trkpt><trkpt lat="43.4555767" lon="12.3546212"><ele>603.6666666666667</ele><time>2026-04-26T14:29:34.04Z</time></trkpt><trkpt lat="43.4555798" lon="12.354747"><ele>603.3333333333334</ele><time>2026-04-26T14:29:35.034Z</time></trkpt><trkpt lat="43.4555736" lon="12.3548578"><ele>603.0</ele><time>2026-04-26T14:29:36.028Z</time></trkpt><trkpt lat="43.4555493" lon="12.3549635"><ele>602.6666666666666</ele><time>2026-04-26T14:29:37.041Z</time></trkpt><trkpt lat="43.4555003" lon="12.3550477"><ele>602.3333333333333</ele><time>2026-04-26T14:29:38.038Z</time></trkpt><trkpt lat="43.4554281" lon="12.3551036"><ele>602.0</ele><time>2026-04-26T14:29:39.03Z</time></trkpt><trkpt lat="43.455335" lon="12.3551295"><ele>599.4</ele><time>2026-04-26T14:29:40.027Z</time></trkpt><trkpt lat="43.4552335" lon="12.355138"><ele>596.8000000000001</ele><time>2026-04-26T14:29:41.03Z</time></trkpt><trkpt lat="43.4551278" lon="12.3551445"><ele>594.2</ele><time>2026-04-26T14:29:42.031Z</time></trkpt><trkpt lat="43.4550195" lon="12.3551573"><ele>591.6</ele><time>2026-04-26T14:29:43.04Z</time></trkpt><trkpt lat="43.4549153" lon="12.3551521"><ele>589.0</ele><time>2026-04-26T14:29:44.033Z</time></trkpt><trkpt lat="43.4548191" lon="12.3551146"><ele>589.0</ele><time>2026-04-26T14:29:45.036Z</time></trkpt><trkpt lat="43.4547232" lon="12.3550218"><ele>589.0</ele><time>2026-04-26T14:29:46.034Z</time></trkpt><trkpt lat="43.4546248" lon="12.3549195"><ele>589.0</ele><time>2026-04-26T14:29:47.041Z</time></trkpt><trkpt lat="43.4545449" lon="12.3547919"><ele>589.0</ele><time>2026-04-26T14:29:48.042Z</time></trkpt><trkpt lat="43.4544678" lon="12.3546672"><ele>588.25</ele><time>2026-04-26T14:29:49.041Z</time></trkpt><trkpt lat="43.4543896" lon="12.3545675"><ele>587.5</ele><time>2026-04-26T14:29:50.034Z</time></trkpt><trkpt lat="43.4542995" lon="12.3544745"><ele>586.75</ele><time>2026-04-26T14:29:51.056Z</time></trkpt><trkpt lat="43.4542022" lon="12.354378"><ele>586.0</ele><time>2026-04-26T14:29:52.03Z</time></trkpt><trkpt lat="43.4541036" lon="12.3542777"><ele>586.0</ele><time>2026-04-26T14:29:53.038Z</time></trkpt><trkpt lat="43.4540092" lon="12.3541729"><ele>586.0</ele><time>2026-04-26T14:29:54.028Z</time></trkpt><trkpt lat="43.453911" lon="12.3540974"><ele>586.0</ele><time>2026-04-26T14:29:55.04Z</time></trkpt><trkpt lat="43.4538044" lon="12.3540445"><ele>586.0</ele><time>2026-04-26T14:29:56.036Z</time></trkpt><trkpt lat="43.4536881" lon="12.3539894"><ele>586.8</ele><time>2026-04-26T14:29:57.04Z</time></trkpt><trkpt lat="43.4535815" lon="12.3539222"><ele>587.6</ele><time>2026-04-26T14:29:58.042Z</time></trkpt><trkpt lat="43.4534889" lon="12.3538562"><ele>588.4</ele><time>2026-04-26T14:29:59.034Z</time></trkpt><trkpt lat="43.4534052" lon="12.3537886"><ele>589.2</ele><time>2026-04-26T14:30:00.037Z</time></trkpt><trkpt lat="43.4533187" lon="12.3537368"><ele>590.0</ele><time>2026-04-26T14:30:01.041Z</time></trkpt><trkpt lat="43.4532372" lon="12.3537101"><ele>590.0</ele><time>2026-04-26T14:30:02.039Z</time></trkpt><trkpt lat="43.4531569" lon="12.3537083"><ele>590.0</ele><time>2026-04-26T14:30:03.053Z</time></trkpt><trkpt lat="43.4530801" lon="12.3537416"><ele>590.0</ele><time>2026-04-26T14:30:04.026Z</time></trkpt><trkpt lat="43.452999" lon="12.3538075"><ele>590.0</ele><time>2026-04-26T14:30:05.038Z</time></trkpt><trkpt lat="43.4529129" lon="12.3538783"><ele>590.0</ele><time>2026-04-26T14:30:06.036Z</time></trkpt><trkpt lat="43.4528243" lon="12.3539246"><ele>590.6</ele><time>2026-04-26T14:30:07.041Z</time></trkpt><trkpt lat="43.452727" lon="12.3539415"><ele>591.2</ele><time>2026-04-26T14:30:08.035Z</time></trkpt><trkpt lat="43.4526231" lon="12.3539402"><ele>591.8</ele><time>2026-04-26T14:30:09.034Z</time></trkpt><trkpt lat="43.4525101" lon="12.3539142"><ele>592.4</ele><time>2026-04-26T14:30:10.038Z</time></trkpt><trkpt lat="43.4524004" lon="12.3538803"><ele>593.0</ele><time>2026-04-26T14:30:11.042Z</time></trkpt><trkpt lat="43.4522981" lon="12.3538247"><ele>593.0</ele><time>2026-04-26T14:30:12.025Z</time></trkpt><trkpt lat="43.4522042" lon="12.353748"><ele>593.0</ele><time>2026-04-26T14:30:13.034Z</time></trkpt><trkpt lat="43.4521166" lon="12.3536624"><ele>593.0</ele><time>2026-04-26T14:30:14.029Z</time></trkpt><trkpt lat="43.4520176" lon="12.3536122"><ele>593.0</ele><time>2026-04-26T14:30:15.037Z</time></trkpt><trkpt lat="43.451912" lon="12.353609"><ele>593.0</ele><time>2026-04-26T14:30:16.031Z</time></trkpt><trkpt lat="43.4518037" lon="12.3536243"><ele>595.75</ele><time>2026-04-26T14:30:17.035Z</time></trkpt><trkpt lat="43.4516891" lon="12.3536707"><ele>598.5</ele><time>2026-04-26T14:30:18.038Z</time></trkpt><trkpt lat="43.4515656" lon="12.3537217"><ele>601.25</ele><time>2026-04-26T14:30:19.036Z</time></trkpt><trkpt lat="43.4514457" lon="12.3537692"><ele>604.0</ele><time>2026-04-26T14:30:20.043Z</time></trkpt><trkpt lat="43.4513365" lon="12.3538024"><ele>608.3333333333334</ele><time>2026-04-26T14:30:21.039Z</time></trkpt><trkpt lat="43.4512363" lon="12.3538303"><ele>612.6666666666667</ele><time>2026-04-26T14:30:22.025Z</time></trkpt><trkpt lat="43.4511494" lon="12.3538523"><ele>617.0</ele><time>2026-04-26T14:30:23.042Z</time></trkpt><trkpt lat="43.4510775" lon="12.3538433"><ele>621.3333333333334</ele><time>2026-04-26T14:30:24.054Z</time></trkpt><trkpt lat="43.4510209" lon="12.353797"><ele>625.6666666666666</ele><time>2026-04-26T14:30:25.037Z</time></trkpt><trkpt lat="43.4509928" lon="12.3537091"><ele>630.0</ele><time>2026-04-26T14:30:26.033Z</time></trkpt><trkpt lat="43.4509872" lon="12.3535864"><ele>630.0</ele><time>2026-04-26T14:30:27.035Z</time></trkpt><trkpt lat="43.4509978" lon="12.3534491"><ele>630.0</ele><time>2026-04-26T14:30:28.052Z</time></trkpt><trkpt lat="43.4510201" lon="12.3532854"><ele>630.0</ele><time>2026-04-26T14:30:29.026Z</time></trkpt><trkpt lat="43.4510614" lon="12.3531129"><ele>630.0</ele><time>2026-04-26T14:30:30.029Z</time></trkpt><trkpt lat="43.4511178" lon="12.3529421"><ele>630.0</ele><time>2026-04-26T14:30:31.034Z</time></trkpt><trkpt lat="43.451179" lon="12.3527715"><ele>630.0</ele><time>2026-04-26T14:30:32.028Z</time></trkpt><trkpt lat="43.4512454" lon="12.3526263"><ele>630.0</ele><time>2026-04-26T14:30:33.034Z</time></trkpt><trkpt lat="43.4513038" lon="12.352501"><ele>630.0</ele><time>2026-04-26T14:30:34.034Z</time></trkpt><trkpt lat="43.4513607" lon="12.3523992"><ele>627.5</ele><time>2026-04-26T14:30:35.032Z</time></trkpt><trkpt lat="43.4513979" lon="12.3522928"><ele>625.0</ele><time>2026-04-26T14:30:36.036Z</time></trkpt><trkpt lat="43.4514227" lon="12.3522069"><ele>622.5</ele><time>2026-04-26T14:30:37.036Z</time></trkpt><trkpt lat="43.451381" lon="12.3520476"><ele>620.0</ele><time>2026-04-26T14:30:39.041Z</time></trkpt><trkpt lat="43.4513133" lon="12.3520228"><ele>617.5</ele><time>2026-04-26T14:30:40.045Z</time></trkpt><trkpt lat="43.4512366" lon="12.3520233"><ele>615.0</ele><time>2026-04-26T14:30:41.04Z</time></trkpt><trkpt lat="43.4511451" lon="12.352037"><ele>615.0</ele><time>2026-04-26T14:30:42.04Z</time></trkpt><trkpt lat="43.4510446" lon="12.3520561"><ele>615.0</ele><time>2026-04-26T14:30:43.037Z</time></trkpt><trkpt lat="43.450943" lon="12.35208"><ele>615.0</ele><time>2026-04-26T14:30:44.034Z</time></trkpt><trkpt lat="43.450836" lon="12.3520954"><ele>615.0</ele><time>2026-04-26T14:30:45.04Z</time></trkpt><trkpt lat="43.4507242" lon="12.3521225"><ele>615.0</ele><time>2026-04-26T14:30:46.036Z</time></trkpt><trkpt lat="43.4506011" lon="12.3521566"><ele>615.0</ele><time>2026-04-26T14:30:47.036Z</time></trkpt><trkpt lat="43.4504775" lon="12.3521956"><ele>615.0</ele><time>2026-04-26T14:30:48.034Z</time></trkpt><trkpt lat="43.4503553" lon="12.3522455"><ele>615.0</ele><time>2026-04-26T14:30:49.039Z</time></trkpt><trkpt lat="43.4502326" lon="12.3522994"><ele>615.0</ele><time>2026-04-26T14:30:50.026Z</time></trkpt><trkpt lat="43.450112" lon="12.3523592"><ele>621.0</ele><time>2026-04-26T14:30:51.026Z</time></trkpt><trkpt lat="43.4499902" lon="12.3524214"><ele>627.0</ele><time>2026-04-26T14:30:52.039Z</time></trkpt><trkpt lat="43.4498783" lon="12.3524681"><ele>633.0</ele><time>2026-04-26T14:30:53.056Z</time></trkpt><trkpt lat="43.4497803" lon="12.3525189"><ele>639.0</ele><time>2026-04-26T14:30:54.028Z</time></trkpt><trkpt lat="43.4496943" lon="12.3525921"><ele>639.0</ele><time>2026-04-26T14:30:55.049Z</time></trkpt><trkpt lat="43.44963" lon="12.3526966"><ele>639.0</ele><time>2026-04-26T14:30:56.031Z</time></trkpt><trkpt lat="43.4495824" lon="12.3528437"><ele>639.0</ele><time>2026-04-26T14:30:57.043Z</time></trkpt><trkpt lat="43.4495388" lon="12.353004"><ele>639.0</ele><time>2026-04-26T14:30:58.032Z</time></trkpt><trkpt lat="43.4494815" lon="12.3531793"><ele>640.0</ele><time>2026-04-26T14:30:59.046Z</time></trkpt><trkpt lat="43.4494018" lon="12.35334"><ele>641.0</ele><time>2026-04-26T14:31:00.035Z</time></trkpt><trkpt lat="43.4493154" lon="12.353481"><ele>642.0</ele><time>2026-04-26T14:31:01.043Z</time></trkpt><trkpt lat="43.4492161" lon="12.3535888"><ele>643.0</ele><time>2026-04-26T14:31:02.041Z</time></trkpt><trkpt lat="43.4491047" lon="12.3536683"><ele>643.0</ele><time>2026-04-26T14:31:03.032Z</time></trkpt><trkpt lat="43.4489918" lon="12.3537005"><ele>643.0</ele><time>2026-04-26T14:31:04.036Z</time></trkpt><trkpt lat="43.4488877" lon="12.3537055"><ele>643.0</ele><time>2026-04-26T14:31:05.039Z</time></trkpt><trkpt lat="43.4487967" lon="12.3536633"><ele>643.0</ele><time>2026-04-26T14:31:06.055Z</time></trkpt><trkpt lat="43.4487339" lon="12.3535816"><ele>643.0</ele><time>2026-04-26T14:31:07.049Z</time></trkpt><trkpt lat="43.4486913" lon="12.3534739"><ele>643.2</ele><time>2026-04-26T14:31:08.041Z</time></trkpt><trkpt lat="43.4486599" lon="12.3533832"><ele>643.4</ele><time>2026-04-26T14:31:09.045Z</time></trkpt><trkpt lat="43.448592" lon="12.3533093"><ele>643.6</ele><time>2026-04-26T14:31:10.033Z</time></trkpt><trkpt lat="43.4484908" lon="12.3532555"><ele>643.8000000000001</ele><time>2026-04-26T14:31:11.053Z</time></trkpt><trkpt lat="43.4483716" lon="12.3532253"><ele>644.0</ele><time>2026-04-26T14:31:12.032Z</time></trkpt><trkpt lat="43.448255" lon="12.3531898"><ele>644.0</ele><time>2026-04-26T14:31:13.054Z</time></trkpt><trkpt lat="43.4481378" lon="12.353134"><ele>644.0</ele><time>2026-04-26T14:31:14.051Z</time></trkpt><trkpt lat="43.4480452" lon="12.3530586"><ele>644.0</ele><time>2026-04-26T14:31:15.051Z</time></trkpt><trkpt lat="43.4479735" lon="12.3529823"><ele>644.0</ele><time>2026-04-26T14:31:16.046Z</time></trkpt><trkpt lat="43.4479166" lon="12.3529326"><ele>644.0</ele><time>2026-04-26T14:31:17.04Z</time></trkpt><trkpt lat="43.4478433" lon="12.3529229"><ele>643.8333333333333</ele><time>2026-04-26T14:31:19.034Z</time></trkpt><trkpt lat="43.4477644" lon="12.3529433"><ele>643.6666666666666</ele><time>2026-04-26T14:31:21.034Z</time></trkpt><trkpt lat="43.447663" lon="12.353012"><ele>643.5</ele><time>2026-04-26T14:31:23.035Z</time></trkpt><trkpt lat="43.4475855" lon="12.3530342"><ele>643.3333333333334</ele><time>2026-04-26T14:31:24.031Z</time></trkpt><trkpt lat="43.4475054" lon="12.3530471"><ele>643.1666666666667</ele><time>2026-04-26T14:31:25.027Z</time></trkpt><trkpt lat="43.4474192" lon="12.3530649"><ele>643.0</ele><time>2026-04-26T14:31:26.035Z</time></trkpt><trkpt lat="43.4473328" lon="12.3530736"><ele>644.8</ele><time>2026-04-26T14:31:27.042Z</time></trkpt><trkpt lat="43.447246" lon="12.3530953"><ele>646.5999999999999</ele><time>2026-04-26T14:31:28.033Z</time></trkpt><trkpt lat="43.4471529" lon="12.3531202"><ele>648.4000000000001</ele><time>2026-04-26T14:31:29.033Z</time></trkpt><trkpt lat="43.4470498" lon="12.3531498"><ele>650.2</ele><time>2026-04-26T14:31:30.036Z</time></trkpt><trkpt lat="43.4469431" lon="12.3531757"><ele>652.0</ele><time>2026-04-26T14:31:31.031Z</time></trkpt><trkpt lat="43.446825" lon="12.353194"><ele>650.4000000000001</ele><time>2026-04-26T14:31:32.019Z</time></trkpt><trkpt lat="43.446704" lon="12.3532004"><ele>648.8000000000001</ele><time>2026-04-26T14:31:33.042Z</time></trkpt><trkpt lat="43.4465955" lon="12.3531575"><ele>647.2</ele><time>2026-04-26T14:31:34.039Z</time></trkpt><trkpt lat="43.4465021" lon="12.3531027"><ele>645.6</ele><time>2026-04-26T14:31:35.033Z</time></trkpt><trkpt lat="43.4464177" lon="12.3530212"><ele>644.0</ele><time>2026-04-26T14:31:36.058Z</time></trkpt><trkpt lat="43.4463468" lon="12.3529056"><ele>647.2</ele><time>2026-04-26T14:31:37.047Z</time></trkpt><trkpt lat="43.4462941" lon="12.352772"><ele>650.4000000000001</ele><time>2026-04-26T14:31:38.03Z</time></trkpt><trkpt lat="43.4462491" lon="12.3526324"><ele>653.6</ele><time>2026-04-26T14:31:39.037Z</time></trkpt><trkpt lat="43.4461967" lon="12.3524866"><ele>656.8</ele><time>2026-04-26T14:31:40.039Z</time></trkpt><trkpt lat="43.446151" lon="12.3523499"><ele>660.0</ele><time>2026-04-26T14:31:41.049Z</time></trkpt><trkpt lat="43.446107" lon="12.3522271"><ele>658.2</ele><time>2026-04-26T14:31:42.034Z</time></trkpt><trkpt lat="43.4460607" lon="12.3521223"><ele>656.4</ele><time>2026-04-26T14:31:43.042Z</time></trkpt><trkpt lat="43.4460006" lon="12.3520272"><ele>654.5999999999999</ele><time>2026-04-26T14:31:44.04Z</time></trkpt><trkpt lat="43.4459229" lon="12.3519544"><ele>652.8</ele><time>2026-04-26T14:31:45.04Z</time></trkpt><trkpt lat="43.4458288" lon="12.3518939"><ele>651.0</ele><time>2026-04-26T14:31:46.032Z</time></trkpt><trkpt lat="43.4457268" lon="12.3518373"><ele>651.0</ele><time>2026-04-26T14:31:47.037Z</time></trkpt><trkpt lat="43.4456187" lon="12.3517906"><ele>651.0</ele><time>2026-04-26T14:31:48.038Z</time></trkpt><trkpt lat="43.4455134" lon="12.3517618"><ele>651.0</ele><time>2026-04-26T14:31:49.033Z</time></trkpt><trkpt lat="43.4454138" lon="12.3517628"><ele>651.0</ele><time>2026-04-26T14:31:50.025Z</time></trkpt><trkpt lat="43.4453309" lon="12.3518175"><ele>651.0</ele><time>2026-04-26T14:31:51.04Z</time></trkpt><trkpt lat="43.4452793" lon="12.3519229"><ele>650.25</ele><time>2026-04-26T14:31:52.03Z</time></trkpt><trkpt lat="43.4452442" lon="12.352069"><ele>649.5</ele><time>2026-04-26T14:31:53.039Z</time></trkpt><trkpt lat="43.4452107" lon="12.3522212"><ele>648.75</ele><time>2026-04-26T14:31:54.04Z</time></trkpt><trkpt lat="43.4451724" lon="12.3523826"><ele>648.0</ele><time>2026-04-26T14:31:55.036Z</time></trkpt><trkpt lat="43.445113" lon="12.3525369"><ele>650.0</ele><time>2026-04-26T14:31:56.032Z</time></trkpt><trkpt lat="43.4450151" lon="12.3526507"><ele>652.0</ele><time>2026-04-26T14:31:57.035Z</time></trkpt><trkpt lat="43.4449042" lon="12.3527275"><ele>654.0</ele><time>2026-04-26T14:31:58.031Z</time></trkpt><trkpt lat="43.4447843" lon="12.3527285"><ele>656.0</ele><time>2026-04-26T14:31:59.029Z</time></trkpt><trkpt lat="43.4446584" lon="12.35267"><ele>656.25</ele><time>2026-04-26T14:32:00.037Z</time></trkpt><trkpt lat="43.4445435" lon="12.3525713"><ele>656.5</ele><time>2026-04-26T14:32:01.04Z</time></trkpt><trkpt lat="43.4444214" lon="12.3524523"><ele>656.75</ele><time>2026-04-26T14:32:02.03Z</time></trkpt><trkpt lat="43.4443045" lon="12.3523174"><ele>657.0</ele><time>2026-04-26T14:32:03.035Z</time></trkpt><trkpt lat="43.4441922" lon="12.3521872"><ele>654.5</ele><time>2026-04-26T14:32:04.031Z</time></trkpt><trkpt lat="43.4440937" lon="12.3520382"><ele>652.0</ele><time>2026-04-26T14:32:05.041Z</time></trkpt><trkpt lat="43.4440113" lon="12.3518751"><ele>649.5</ele><time>2026-04-26T14:32:06.039Z</time></trkpt><trkpt lat="43.4439491" lon="12.3517071"><ele>647.0</ele><time>2026-04-26T14:32:07.041Z</time></trkpt><trkpt lat="43.4439008" lon="12.3515394"><ele>647.0</ele><time>2026-04-26T14:32:08.033Z</time></trkpt><trkpt lat="43.4438274" lon="12.3513946"><ele>647.0</ele><time>2026-04-26T14:32:09.045Z</time></trkpt><trkpt lat="43.4437183" lon="12.3512665"><ele>647.0</ele><time>2026-04-26T14:32:10.041Z</time></trkpt><trkpt lat="43.4435989" lon="12.3511513"><ele>647.0</ele><time>2026-04-26T14:32:11.033Z</time></trkpt><trkpt lat="43.443467" lon="12.3510437"><ele>646.0</ele><time>2026-04-26T14:32:12.035Z</time></trkpt><trkpt lat="43.4433305" lon="12.3509237"><ele>645.0</ele><time>2026-04-26T14:32:13.03Z</time></trkpt><trkpt lat="43.4431976" lon="12.3508119"><ele>644.0</ele><time>2026-04-26T14:32:14.025Z</time></trkpt><trkpt lat="43.4430741" lon="12.3507008"><ele>643.5</ele><time>2026-04-26T14:32:15.036Z</time></trkpt><trkpt lat="43.4429563" lon="12.3505977"><ele>643.0</ele><time>2026-04-26T14:32:16.037Z</time></trkpt><trkpt lat="43.4428388" lon="12.3505121"><ele>642.5</ele><time>2026-04-26T14:32:17.029Z</time></trkpt><trkpt lat="43.44272" lon="12.3504636"><ele>642.0</ele><time>2026-04-26T14:32:18.034Z</time></trkpt><trkpt lat="43.4425953" lon="12.3504711"><ele>642.0</ele><time>2026-04-26T14:32:19.036Z</time></trkpt><trkpt lat="43.4424817" lon="12.3505406"><ele>642.0</ele><time>2026-04-26T14:32:20.034Z</time></trkpt><trkpt lat="43.4423825" lon="12.3506548"><ele>642.0</ele><time>2026-04-26T14:32:21.041Z</time></trkpt><trkpt lat="43.4423175" lon="12.3508079"><ele>642.0</ele><time>2026-04-26T14:32:22.036Z</time></trkpt><trkpt lat="43.4422663" lon="12.3509912"><ele>642.0</ele><time>2026-04-26T14:32:23.042Z</time></trkpt><trkpt lat="43.4422207" lon="12.3511933"><ele>642.0</ele><time>2026-04-26T14:32:24.051Z</time></trkpt><trkpt lat="43.4421895" lon="12.351377"><ele>642.0</ele><time>2026-04-26T14:32:25.046Z</time></trkpt><trkpt lat="43.4421567" lon="12.3515449"><ele>642.0</ele><time>2026-04-26T14:32:26.046Z</time></trkpt><trkpt lat="43.4421249" lon="12.3517049"><ele>641.8</ele><time>2026-04-26T14:32:27.039Z</time></trkpt><trkpt lat="43.4420927" lon="12.3518581"><ele>641.6</ele><time>2026-04-26T14:32:28.035Z</time></trkpt><trkpt lat="43.4420606" lon="12.3519946"><ele>641.4</ele><time>2026-04-26T14:32:29.041Z</time></trkpt><trkpt lat="43.442027" lon="12.3521098"><ele>641.1999999999999</ele><time>2026-04-26T14:32:30.033Z</time></trkpt><trkpt lat="43.4419814" lon="12.3521987"><ele>641.0</ele><time>2026-04-26T14:32:31.036Z</time></trkpt><trkpt lat="43.4419251" lon="12.352272"><ele>641.0</ele><time>2026-04-26T14:32:32.047Z</time></trkpt><trkpt lat="43.4418644" lon="12.3523282"><ele>641.0</ele><time>2026-04-26T14:32:33.036Z</time></trkpt><trkpt lat="43.4418009" lon="12.3523711"><ele>641.0</ele><time>2026-04-26T14:32:34.035Z</time></trkpt><trkpt lat="43.4417235" lon="12.3524017"><ele>641.0</ele><time>2026-04-26T14:32:35.041Z</time></trkpt><trkpt lat="43.4416347" lon="12.352415"><ele>641.0</ele><time>2026-04-26T14:32:36.042Z</time></trkpt><trkpt lat="43.4415367" lon="12.3524191"><ele>641.0</ele><time>2026-04-26T14:32:37.044Z</time></trkpt><trkpt lat="43.4414423" lon="12.3524021"><ele>641.0</ele><time>2026-04-26T14:32:38.049Z</time></trkpt><trkpt lat="43.4413551" lon="12.3523891"><ele>641.0</ele><time>2026-04-26T14:32:39.041Z</time></trkpt><trkpt lat="43.4412693" lon="12.3523767"><ele>641.0</ele><time>2026-04-26T14:32:40.032Z</time></trkpt><trkpt lat="43.4411911" lon="12.3523742"><ele>641.0</ele><time>2026-04-26T14:32:41.043Z</time></trkpt><trkpt lat="43.441108" lon="12.3523856"><ele>641.0</ele><time>2026-04-26T14:32:42.039Z</time></trkpt><trkpt lat="43.4410239" lon="12.3524114"><ele>641.0</ele><time>2026-04-26T14:32:43.033Z</time></trkpt><trkpt lat="43.4409297" lon="12.3524506"><ele>639.5999999999999</ele><time>2026-04-26T14:32:44.041Z</time></trkpt><trkpt lat="43.4408334" lon="12.3525036"><ele>638.1999999999999</ele><time>2026-04-26T14:32:45.041Z</time></trkpt><trkpt lat="43.4407328" lon="12.352566"><ele>636.8</ele><time>2026-04-26T14:32:46.04Z</time></trkpt><trkpt lat="43.4406271" lon="12.3526304"><ele>635.4</ele><time>2026-04-26T14:32:47.027Z</time></trkpt><trkpt lat="43.4405195" lon="12.3527006"><ele>634.0</ele><time>2026-04-26T14:32:48.038Z</time></trkpt><trkpt lat="43.4404135" lon="12.3527678"><ele>633.4</ele><time>2026-04-26T14:32:49.041Z</time></trkpt><trkpt lat="43.4403102" lon="12.3528476"><ele>632.8</ele><time>2026-04-26T14:32:50.03Z</time></trkpt><trkpt lat="43.4402159" lon="12.3529305"><ele>632.2</ele><time>2026-04-26T14:32:51.044Z</time></trkpt><trkpt lat="43.4401357" lon="12.3530245"><ele>631.6</ele><time>2026-04-26T14:32:52.048Z</time></trkpt><trkpt lat="43.4400731" lon="12.353141"><ele>631.0</ele><time>2026-04-26T14:32:53.045Z</time></trkpt><trkpt lat="43.440021" lon="12.3532787"><ele>631.0</ele><time>2026-04-26T14:32:54.047Z</time></trkpt><trkpt lat="43.4399852" lon="12.3534301"><ele>631.0</ele><time>2026-04-26T14:32:55.046Z</time></trkpt><trkpt lat="43.4399556" lon="12.3535946"><ele>631.0</ele><time>2026-04-26T14:32:56.03Z</time></trkpt><trkpt lat="43.439927" lon="12.353776"><ele>631.0</ele><time>2026-04-26T14:32:57.048Z</time></trkpt><trkpt lat="43.4399104" lon="12.3539505"><ele>630.75</ele><time>2026-04-26T14:32:58.037Z</time></trkpt><trkpt lat="43.4399078" lon="12.3541101"><ele>630.5</ele><time>2026-04-26T14:32:59.039Z</time></trkpt><trkpt lat="43.4399334" lon="12.3542629"><ele>630.25</ele><time>2026-04-26T14:33:00.034Z</time></trkpt><trkpt lat="43.4399819" lon="12.3543952"><ele>630.0</ele><time>2026-04-26T14:33:01.046Z</time></trkpt><trkpt lat="43.4400515" lon="12.3545292"><ele>630.0</ele><time>2026-04-26T14:33:02.062Z</time></trkpt><trkpt lat="43.4401454" lon="12.3546613"><ele>630.0</ele><time>2026-04-26T14:33:03.043Z</time></trkpt><trkpt lat="43.4402516" lon="12.3547897"><ele>630.0</ele><time>2026-04-26T14:33:04.047Z</time></trkpt><trkpt lat="43.4403579" lon="12.354925"><ele>630.0</ele><time>2026-04-26T14:33:05.026Z</time></trkpt><trkpt lat="43.4404605" lon="12.3550599"><ele>626.75</ele><time>2026-04-26T14:33:06.04Z</time></trkpt><trkpt lat="43.4405527" lon="12.35519"><ele>623.5</ele><time>2026-04-26T14:33:07.057Z</time></trkpt><trkpt lat="43.4406216" lon="12.355324"><ele>620.25</ele><time>2026-04-26T14:33:08.037Z</time></trkpt><trkpt lat="43.4406727" lon="12.3554686"><ele>617.0</ele><time>2026-04-26T14:33:09.04Z</time></trkpt><trkpt lat="43.4406979" lon="12.3556213"><ele>617.0</ele><time>2026-04-26T14:33:10.03Z</time></trkpt><trkpt lat="43.4406995" lon="12.3557765"><ele>617.0</ele><time>2026-04-26T14:33:11.044Z</time></trkpt><trkpt lat="43.4406742" lon="12.3559374"><ele>617.0</ele><time>2026-04-26T14:33:12.034Z</time></trkpt><trkpt lat="43.4406258" lon="12.3561084"><ele>617.0</ele><time>2026-04-26T14:33:13.036Z</time></trkpt><trkpt lat="43.4405744" lon="12.356274"><ele>618.0</ele><time>2026-04-26T14:33:14.03Z</time></trkpt><trkpt lat="43.4405202" lon="12.3564379"><ele>619.0</ele><time>2026-04-26T14:33:15.045Z</time></trkpt><trkpt lat="43.440484" lon="12.3565711"><ele>620.0</ele><time>2026-04-26T14:33:16.038Z</time></trkpt><trkpt lat="43.4404719" lon="12.356683"><ele>621.0</ele><time>2026-04-26T14:33:17.051Z</time></trkpt><trkpt lat="43.4405115" lon="12.3567859"><ele>622.0</ele><time>2026-04-26T14:33:19.035Z</time></trkpt><trkpt lat="43.4405808" lon="12.3567809"><ele>622.0</ele><time>2026-04-26T14:33:21.037Z</time></trkpt><trkpt lat="43.4406373" lon="12.3566689"><ele>622.0</ele><time>2026-04-26T14:33:23.031Z</time></trkpt><trkpt lat="43.4406699" lon="12.3565688"><ele>622.0</ele><time>2026-04-26T14:33:24.047Z</time></trkpt><trkpt lat="43.4407141" lon="12.3564421"><ele>622.0</ele><time>2026-04-26T14:33:25.051Z</time></trkpt><trkpt lat="43.4407677" lon="12.3563004"><ele>622.0</ele><time>2026-04-26T14:33:26.044Z</time></trkpt><trkpt lat="43.440826" lon="12.3561613"><ele>621.0</ele><time>2026-04-26T14:33:27.032Z</time></trkpt><trkpt lat="43.4408804" lon="12.3560368"><ele>620.0</ele><time>2026-04-26T14:33:28.036Z</time></trkpt><trkpt lat="43.4409463" lon="12.3559356"><ele>619.0</ele><time>2026-04-26T14:33:29.028Z</time></trkpt><trkpt lat="43.4410225" lon="12.3558739"><ele>618.0</ele><time>2026-04-26T14:33:30.024Z</time></trkpt><trkpt lat="43.4411031" lon="12.3558423"><ele>617.0</ele><time>2026-04-26T14:33:31.045Z</time></trkpt><trkpt lat="43.4411808" lon="12.3558502"><ele>617.0</ele><time>2026-04-26T14:33:32.033Z</time></trkpt><trkpt lat="43.4412735" lon="12.3558848"><ele>617.0</ele><time>2026-04-26T14:33:33.033Z</time></trkpt><trkpt lat="43.4413749" lon="12.3559247"><ele>617.0</ele><time>2026-04-26T14:33:34.042Z</time></trkpt><trkpt lat="43.4414863" lon="12.355975"><ele>617.0</ele><time>2026-04-26T14:33:35.025Z</time></trkpt><trkpt lat="43.441602" lon="12.3560305"><ele>617.0</ele><time>2026-04-26T14:33:36.023Z</time></trkpt><trkpt lat="43.4417146" lon="12.3560827"><ele>614.2</ele><time>2026-04-26T14:33:37.035Z</time></trkpt><trkpt lat="43.44182" lon="12.3561443"><ele>611.4000000000001</ele><time>2026-04-26T14:33:38.024Z</time></trkpt><trkpt lat="43.4419091" lon="12.3562011"><ele>608.5999999999999</ele><time>2026-04-26T14:33:39.031Z</time></trkpt><trkpt lat="43.4419981" lon="12.3562641"><ele>605.8</ele><time>2026-04-26T14:33:40.022Z</time></trkpt><trkpt lat="43.4420812" lon="12.3563182"><ele>603.0</ele><time>2026-04-26T14:33:41.028Z</time></trkpt><trkpt lat="43.4421728" lon="12.3563534"><ele>602.6</ele><time>2026-04-26T14:33:42.033Z</time></trkpt><trkpt lat="43.4422672" lon="12.3563681"><ele>602.1999999999999</ele><time>2026-04-26T14:33:43.035Z</time></trkpt><trkpt lat="43.4423733" lon="12.3563702"><ele>601.8</ele><time>2026-04-26T14:33:44.03Z</time></trkpt><trkpt lat="43.4424856" lon="12.3563533"><ele>601.4</ele><time>2026-04-26T14:33:45.032Z</time></trkpt><trkpt lat="43.4426116" lon="12.3563374"><ele>601.0</ele><time>2026-04-26T14:33:46.027Z</time></trkpt><trkpt lat="43.4427248" lon="12.3563287"><ele>599.8</ele><time>2026-04-26T14:33:47.036Z</time></trkpt><trkpt lat="43.4428329" lon="12.3563196"><ele>598.6</ele><time>2026-04-26T14:33:48.031Z</time></trkpt><trkpt lat="43.4429358" lon="12.356329"><ele>597.4</ele><time>2026-04-26T14:33:49.04Z</time></trkpt><trkpt lat="43.4430283" lon="12.3563715"><ele>596.2</ele><time>2026-04-26T14:33:50.033Z</time></trkpt><trkpt lat="43.4431154" lon="12.3564307"><ele>595.0</ele><time>2026-04-26T14:33:51.03Z</time></trkpt><trkpt lat="43.443192" lon="12.3565235"><ele>594.25</ele><time>2026-04-26T14:33:52.022Z</time></trkpt><trkpt lat="43.4432723" lon="12.3566411"><ele>593.5</ele><time>2026-04-26T14:33:53.034Z</time></trkpt><trkpt lat="43.4433505" lon="12.3567778"><ele>592.75</ele><time>2026-04-26T14:33:54.037Z</time></trkpt><trkpt lat="43.4434301" lon="12.3569244"><ele>592.0</ele><time>2026-04-26T14:33:55.036Z</time></trkpt><trkpt lat="43.4435079" lon="12.3570678"><ele>591.25</ele><time>2026-04-26T14:33:56.026Z</time></trkpt><trkpt lat="43.4435841" lon="12.3572107"><ele>590.5</ele><time>2026-04-26T14:33:57.032Z</time></trkpt><trkpt lat="43.4436627" lon="12.3573522"><ele>589.75</ele><time>2026-04-26T14:33:58.026Z</time></trkpt><trkpt lat="43.4437401" lon="12.3574956"><ele>589.0</ele><time>2026-04-26T14:33:59.034Z</time></trkpt><trkpt lat="43.4438138" lon="12.3576446"><ele>588.75</ele><time>2026-04-26T14:34:00.032Z</time></trkpt><trkpt lat="43.4438896" lon="12.3577878"><ele>588.5</ele><time>2026-04-26T14:34:01.04Z</time></trkpt><trkpt lat="43.4439722" lon="12.3579148"><ele>588.25</ele><time>2026-04-26T14:34:02.033Z</time></trkpt><trkpt lat="43.4440535" lon="12.3580314"><ele>588.0</ele><time>2026-04-26T14:34:03.042Z</time></trkpt><trkpt lat="43.4441351" lon="12.3581369"><ele>586.0</ele><time>2026-04-26T14:34:04.037Z</time></trkpt><trkpt lat="43.4442154" lon="12.3582401"><ele>584.0</ele><time>2026-04-26T14:34:05.027Z</time></trkpt><trkpt lat="43.4442879" lon="12.3583445"><ele>582.0</ele><time>2026-04-26T14:34:06.018Z</time></trkpt><trkpt lat="43.444352" lon="12.3584608"><ele>580.0</ele><time>2026-04-26T14:34:07.029Z</time></trkpt><trkpt lat="43.4443987" lon="12.3585935"><ele>578.0</ele><time>2026-04-26T14:34:08.036Z</time></trkpt><trkpt lat="43.4444332" lon="12.3587362"><ele>578.25</ele><time>2026-04-26T14:34:09.036Z</time></trkpt><trkpt lat="43.4444701" lon="12.3588764"><ele>578.5</ele><time>2026-04-26T14:34:10.032Z</time></trkpt><trkpt lat="43.4445287" lon="12.3590122"><ele>578.75</ele><time>2026-04-26T14:34:11.028Z</time></trkpt><trkpt lat="43.4446092" lon="12.3591391"><ele>579.0</ele><time>2026-04-26T14:34:12.038Z</time></trkpt><trkpt lat="43.4446908" lon="12.3592529"><ele>579.0</ele><time>2026-04-26T14:34:13.027Z</time></trkpt><trkpt lat="43.4447783" lon="12.3593573"><ele>579.0</ele><time>2026-04-26T14:34:14.029Z</time></trkpt><trkpt lat="43.4448585" lon="12.3594748"><ele>579.0</ele><time>2026-04-26T14:34:15.036Z</time></trkpt><trkpt lat="43.4449113" lon="12.3595977"><ele>579.0</ele><time>2026-04-26T14:34:16.03Z</time></trkpt><trkpt lat="43.4449364" lon="12.3597248"><ele>579.0</ele><time>2026-04-26T14:34:17.032Z</time></trkpt><trkpt lat="43.4449373" lon="12.359866"><ele>577.2</ele><time>2026-04-26T14:34:18.034Z</time></trkpt><trkpt lat="43.4449256" lon="12.3599961"><ele>575.4</ele><time>2026-04-26T14:34:19.038Z</time></trkpt><trkpt lat="43.4449315" lon="12.36012"><ele>573.6</ele><time>2026-04-26T14:34:20.027Z</time></trkpt><trkpt lat="43.4449674" lon="12.3602379"><ele>571.8</ele><time>2026-04-26T14:34:21.035Z</time></trkpt><trkpt lat="43.4450216" lon="12.3603531"><ele>570.0</ele><time>2026-04-26T14:34:22.029Z</time></trkpt><trkpt lat="43.4450836" lon="12.3604883"><ele>569.0</ele><time>2026-04-26T14:34:23.034Z</time></trkpt><trkpt lat="43.4451345" lon="12.3606328"><ele>568.0</ele><time>2026-04-26T14:34:24.032Z</time></trkpt><trkpt lat="43.4451672" lon="12.36078"><ele>567.0</ele><time>2026-04-26T14:34:25.038Z</time></trkpt><trkpt lat="43.4451866" lon="12.3609255"><ele>566.0</ele><time>2026-04-26T14:34:26.028Z</time></trkpt><trkpt lat="43.4452037" lon="12.3610571"><ele>565.0</ele><time>2026-04-26T14:34:27.038Z</time></trkpt><trkpt lat="43.4452409" lon="12.3611645"><ele>565.0</ele><time>2026-04-26T14:34:28.029Z</time></trkpt><trkpt lat="43.4452865" lon="12.3612602"><ele>565.0</ele><time>2026-04-26T14:34:29.031Z</time></trkpt><trkpt lat="43.445347" lon="12.3613274"><ele>565.0</ele><time>2026-04-26T14:34:30.036Z</time></trkpt><trkpt lat="43.445393" lon="12.3613991"><ele>565.0</ele><time>2026-04-26T14:34:31.036Z</time></trkpt><trkpt lat="43.445417" lon="12.3615435"><ele>565.0</ele><time>2026-04-26T14:34:33.034Z</time></trkpt><trkpt lat="43.4453604" lon="12.3616839"><ele>563.6</ele><time>2026-04-26T14:34:35.037Z</time></trkpt><trkpt lat="43.4453118" lon="12.3617476"><ele>562.2</ele><time>2026-04-26T14:34:36.022Z</time></trkpt><trkpt lat="43.4452641" lon="12.3618635"><ele>560.8</ele><time>2026-04-26T14:34:37.024Z</time></trkpt><trkpt lat="43.4452006" lon="12.3620042"><ele>559.4</ele><time>2026-04-26T14:34:38.025Z</time></trkpt><trkpt lat="43.4451346" lon="12.3621502"><ele>558.0</ele><time>2026-04-26T14:34:39.032Z</time></trkpt><trkpt lat="43.4450777" lon="12.3622811"><ele>556.25</ele><time>2026-04-26T14:34:40.022Z</time></trkpt><trkpt lat="43.4450352" lon="12.3624125"><ele>554.5</ele><time>2026-04-26T14:34:41.03Z</time></trkpt><trkpt lat="43.4450171" lon="12.3625604"><ele>552.75</ele><time>2026-04-26T14:34:42.022Z</time></trkpt><trkpt lat="43.4450277" lon="12.3627309"><ele>551.0</ele><time>2026-04-26T14:34:43.033Z</time></trkpt><trkpt lat="43.4450442" lon="12.3628871"><ele>551.0</ele><time>2026-04-26T14:34:44.026Z</time></trkpt><trkpt lat="43.445081" lon="12.3630224"><ele>551.0</ele><time>2026-04-26T14:34:45.039Z</time></trkpt><trkpt lat="43.4451329" lon="12.3631498"><ele>551.0</ele><time>2026-04-26T14:34:46.03Z</time></trkpt><trkpt lat="43.4451966" lon="12.3632891"><ele>551.0</ele><time>2026-04-26T14:34:47.03Z</time></trkpt><trkpt lat="43.4452695" lon="12.3634384"><ele>547.6666666666666</ele><time>2026-04-26T14:34:48.027Z</time></trkpt><trkpt lat="43.4453492" lon="12.3636127"><ele>544.3333333333334</ele><time>2026-04-26T14:34:49.036Z</time></trkpt><trkpt lat="43.4454299" lon="12.3637994"><ele>541.0</ele><time>2026-04-26T14:34:50.026Z</time></trkpt><trkpt lat="43.4455012" lon="12.3639702"><ele>547.25</ele><time>2026-04-26T14:34:51.034Z</time></trkpt><trkpt lat="43.4455593" lon="12.3641399"><ele>553.5</ele><time>2026-04-26T14:34:52.028Z</time></trkpt><trkpt lat="43.4456089" lon="12.3643117"><ele>559.75</ele><time>2026-04-26T14:34:53.034Z</time></trkpt><trkpt lat="43.4456467" lon="12.3644936"><ele>566.0</ele><time>2026-04-26T14:34:54.031Z</time></trkpt><trkpt lat="43.4456648" lon="12.3646765"><ele>566.5</ele><time>2026-04-26T14:34:55.043Z</time></trkpt><trkpt lat="43.4456618" lon="12.3648549"><ele>567.0</ele><time>2026-04-26T14:34:56.036Z</time></trkpt><trkpt lat="43.4456426" lon="12.3650259"><ele>567.5</ele><time>2026-04-26T14:34:57.04Z</time></trkpt><trkpt lat="43.4456002" lon="12.3651913"><ele>568.0</ele><time>2026-04-26T14:34:58.025Z</time></trkpt><trkpt lat="43.4455433" lon="12.3653556"><ele>568.0</ele><time>2026-04-26T14:34:59.04Z</time></trkpt><trkpt lat="43.4454868" lon="12.3654973"><ele>568.0</ele><time>2026-04-26T14:35:00.031Z</time></trkpt><trkpt lat="43.4454458" lon="12.3656343"><ele>568.0</ele><time>2026-04-26T14:35:01.022Z</time></trkpt><trkpt lat="43.4454215" lon="12.365778"><ele>568.0</ele><time>2026-04-26T14:35:02.026Z</time></trkpt><trkpt lat="43.4454276" lon="12.3659316"><ele>568.0</ele><time>2026-04-26T14:35:03.037Z</time></trkpt><trkpt lat="43.4454578" lon="12.3660883"><ele>569.75</ele><time>2026-04-26T14:35:04.029Z</time></trkpt><trkpt lat="43.4455075" lon="12.3662489"><ele>571.5</ele><time>2026-04-26T14:35:05.032Z</time></trkpt><trkpt lat="43.4455406" lon="12.3664041"><ele>573.25</ele><time>2026-04-26T14:35:06.035Z</time></trkpt><trkpt lat="43.4455629" lon="12.3665685"><ele>575.0</ele><time>2026-04-26T14:35:07.051Z</time></trkpt><trkpt lat="43.4455508" lon="12.3667293"><ele>576.0</ele><time>2026-04-26T14:35:08.048Z</time></trkpt><trkpt lat="43.4455226" lon="12.3668945"><ele>577.0</ele><time>2026-04-26T14:35:09.037Z</time></trkpt><trkpt lat="43.4455003" lon="12.3670608"><ele>578.0</ele><time>2026-04-26T14:35:10.045Z</time></trkpt><trkpt lat="43.4454877" lon="12.3671874"><ele>579.0</ele><time>2026-04-26T14:35:11.045Z</time></trkpt><trkpt lat="43.4454875" lon="12.3672996"><ele>580.0</ele><time>2026-04-26T14:35:12.034Z</time></trkpt><trkpt lat="43.4455072" lon="12.3674111"><ele>580.0</ele><time>2026-04-26T14:35:13.035Z</time></trkpt><trkpt lat="43.4455465" lon="12.3675224"><ele>580.0</ele><time>2026-04-26T14:35:14.041Z</time></trkpt><trkpt lat="43.4456022" lon="12.3676139"><ele>580.0</ele><time>2026-04-26T14:35:15.047Z</time></trkpt><trkpt lat="43.4456706" lon="12.3676954"><ele>580.0</ele><time>2026-04-26T14:35:16.027Z</time></trkpt><trkpt lat="43.4457395" lon="12.3677901"><ele>580.0</ele><time>2026-04-26T14:35:17.029Z</time></trkpt><trkpt lat="43.4458169" lon="12.3678835"><ele>580.0</ele><time>2026-04-26T14:35:18.035Z</time></trkpt><trkpt lat="43.4458997" lon="12.3679879"><ele>580.0</ele><time>2026-04-26T14:35:19.03Z</time></trkpt><trkpt lat="43.4459827" lon="12.3680962"><ele>580.0</ele><time>2026-04-26T14:35:20.027Z</time></trkpt><trkpt lat="43.4460611" lon="12.3682115"><ele>580.0</ele><time>2026-04-26T14:35:21.043Z</time></trkpt><trkpt lat="43.4461457" lon="12.3683268"><ele>580.6</ele><time>2026-04-26T14:35:22.029Z</time></trkpt><trkpt lat="43.4462271" lon="12.3684372"><ele>581.2</ele><time>2026-04-26T14:35:23.034Z</time></trkpt><trkpt lat="43.4463094" lon="12.3685435"><ele>581.8</ele><time>2026-04-26T14:35:24.033Z</time></trkpt><trkpt lat="43.4463841" lon="12.3686475"><ele>582.4</ele><time>2026-04-26T14:35:25.038Z</time></trkpt><trkpt lat="43.4464582" lon="12.3687537"><ele>583.0</ele><time>2026-04-26T14:35:26.025Z</time></trkpt><trkpt lat="43.4465132" lon="12.368863"><ele>583.0</ele><time>2026-04-26T14:35:27.03Z</time></trkpt><trkpt lat="43.4465464" lon="12.3689789"><ele>583.0</ele><time>2026-04-26T14:35:28.036Z</time></trkpt><trkpt lat="43.4465506" lon="12.3691032"><ele>583.0</ele><time>2026-04-26T14:35:29.045Z</time></trkpt><trkpt lat="43.4465277" lon="12.3692276"><ele>583.0</ele><time>2026-04-26T14:35:30.022Z</time></trkpt><trkpt lat="43.4464686" lon="12.3693401"><ele>583.0</ele><time>2026-04-26T14:35:31.037Z</time></trkpt><trkpt lat="43.446383" lon="12.3694328"><ele>581.75</ele><time>2026-04-26T14:35:32.035Z</time></trkpt><trkpt lat="43.4462882" lon="12.3695219"><ele>580.5</ele><time>2026-04-26T14:35:33.044Z</time></trkpt><trkpt lat="43.4461887" lon="12.3696214"><ele>579.25</ele><time>2026-04-26T14:35:34.031Z</time></trkpt><trkpt lat="43.4460749" lon="12.3697316"><ele>578.0</ele><time>2026-04-26T14:35:35.036Z</time></trkpt><trkpt lat="43.4459613" lon="12.369843"><ele>578.0</ele><time>2026-04-26T14:35:36.033Z</time></trkpt><trkpt lat="43.4458492" lon="12.3699562"><ele>578.0</ele><time>2026-04-26T14:35:37.044Z</time></trkpt><trkpt lat="43.4457346" lon="12.3700569"><ele>578.0</ele><time>2026-04-26T14:35:38.02Z</time></trkpt><trkpt lat="43.4456188" lon="12.3701487"><ele>578.0</ele><time>2026-04-26T14:35:39.039Z</time></trkpt><trkpt lat="43.4455137" lon="12.3702379"><ele>576.1999999999999</ele><time>2026-04-26T14:35:40.027Z</time></trkpt><trkpt lat="43.4454204" lon="12.3703265"><ele>574.4</ele><time>2026-04-26T14:35:41.038Z</time></trkpt><trkpt lat="43.4453301" lon="12.3704109"><ele>572.5999999999999</ele><time>2026-04-26T14:35:42.03Z</time></trkpt><trkpt lat="43.4452587" lon="12.3705151"><ele>570.8</ele><time>2026-04-26T14:35:43.031Z</time></trkpt><trkpt lat="43.4452101" lon="12.3706475"><ele>569.0</ele><time>2026-04-26T14:35:44.023Z</time></trkpt><trkpt lat="43.4451711" lon="12.3707785"><ele>572.0</ele><time>2026-04-26T14:35:45.03Z</time></trkpt><trkpt lat="43.4451244" lon="12.3709101"><ele>575.0</ele><time>2026-04-26T14:35:46.034Z</time></trkpt><trkpt lat="43.4450653" lon="12.3710181"><ele>578.0</ele><time>2026-04-26T14:35:47.035Z</time></trkpt><trkpt lat="43.4450125" lon="12.3711041"><ele>581.0</ele><time>2026-04-26T14:35:48.028Z</time></trkpt><trkpt lat="43.4449706" lon="12.3711959"><ele>584.0</ele><time>2026-04-26T14:35:49.03Z</time></trkpt><trkpt lat="43.4449519" lon="12.371303"><ele>587.0</ele><time>2026-04-26T14:35:50.034Z</time></trkpt><trkpt lat="43.4449545" lon="12.3714191"><ele>589.6</ele><time>2026-04-26T14:35:51.03Z</time></trkpt><trkpt lat="43.4449721" lon="12.3715385"><ele>592.2</ele><time>2026-04-26T14:35:52.037Z</time></trkpt><trkpt lat="43.444995" lon="12.3716736"><ele>594.8</ele><time>2026-04-26T14:35:53.039Z</time></trkpt><trkpt lat="43.4450294" lon="12.371808"><ele>597.4</ele><time>2026-04-26T14:35:54.033Z</time></trkpt><trkpt lat="43.4450477" lon="12.3719532"><ele>600.0</ele><time>2026-04-26T14:35:55.038Z</time></trkpt><trkpt lat="43.4450695" lon="12.3720942"><ele>600.75</ele><time>2026-04-26T14:35:56.044Z</time></trkpt><trkpt lat="43.445114" lon="12.3722235"><ele>601.5</ele><time>2026-04-26T14:35:57.038Z</time></trkpt><trkpt lat="43.4451746" lon="12.3723483"><ele>602.25</ele><time>2026-04-26T14:35:58.028Z</time></trkpt><trkpt lat="43.445255" lon="12.3724643"><ele>603.0</ele><time>2026-04-26T14:35:59.041Z</time></trkpt><trkpt lat="43.4453492" lon="12.3725772"><ele>603.0</ele><time>2026-04-26T14:36:00.038Z</time></trkpt><trkpt lat="43.4454484" lon="12.3726945"><ele>603.0</ele><time>2026-04-26T14:36:01.042Z</time></trkpt><trkpt lat="43.4455527" lon="12.3728144"><ele>603.0</ele><time>2026-04-26T14:36:02.043Z</time></trkpt><trkpt lat="43.4456639" lon="12.3729383"><ele>603.0</ele><time>2026-04-26T14:36:03.036Z</time></trkpt><trkpt lat="43.445781" lon="12.373068"><ele>606.0</ele><time>2026-04-26T14:36:04.03Z</time></trkpt><trkpt lat="43.4458993" lon="12.3732018"><ele>609.0</ele><time>2026-04-26T14:36:05.038Z</time></trkpt><trkpt lat="43.4460166" lon="12.3733329"><ele>612.0</ele><time>2026-04-26T14:36:06.028Z</time></trkpt><trkpt lat="43.4461258" lon="12.3734556"><ele>615.0</ele><time>2026-04-26T14:36:07.052Z</time></trkpt><trkpt lat="43.44623" lon="12.3735673"><ele>618.75</ele><time>2026-04-26T14:36:08.037Z</time></trkpt><trkpt lat="43.4463299" lon="12.3736806"><ele>622.5</ele><time>2026-04-26T14:36:09.037Z</time></trkpt><trkpt lat="43.4464273" lon="12.3738007"><ele>626.25</ele><time>2026-04-26T14:36:10.031Z</time></trkpt><trkpt lat="43.4465245" lon="12.37393"><ele>630.0</ele><time>2026-04-26T14:36:11.044Z</time></trkpt><trkpt lat="43.4466203" lon="12.3740683"><ele>630.0</ele><time>2026-04-26T14:36:12.037Z</time></trkpt><trkpt lat="43.4467035" lon="12.3741866"><ele>630.0</ele><time>2026-04-26T14:36:13.043Z</time></trkpt><trkpt lat="43.4467649" lon="12.3742876"><ele>630.0</ele><time>2026-04-26T14:36:14.035Z</time></trkpt><trkpt lat="43.4468175" lon="12.3743579"><ele>630.0</ele><time>2026-04-26T14:36:15.031Z</time></trkpt><trkpt lat="43.4468772" lon="12.3744107"><ele>630.0</ele><time>2026-04-26T14:36:17.049Z</time></trkpt><trkpt lat="43.4469099" lon="12.3743114"><ele>630.0</ele><time>2026-04-26T14:36:20.036Z</time></trkpt><trkpt lat="43.4468885" lon="12.3741814"><ele>630.0</ele><time>2026-04-26T14:36:22.022Z</time></trkpt><trkpt lat="43.4468596" lon="12.3739941"><ele>630.0</ele><time>2026-04-26T14:36:24.051Z</time></trkpt><trkpt lat="43.4468289" lon="12.3738768"><ele>630.0</ele><time>2026-04-26T14:36:25.038Z</time></trkpt><trkpt lat="43.4468006" lon="12.3737585"><ele>630.0</ele><time>2026-04-26T14:36:26.044Z</time></trkpt><trkpt lat="43.4467795" lon="12.3736429"><ele>630.0</ele><time>2026-04-26T14:36:27.037Z</time></trkpt><trkpt lat="43.446773" lon="12.3735349"><ele>631.3333333333334</ele><time>2026-04-26T14:36:28.041Z</time></trkpt><trkpt lat="43.4467859" lon="12.3734161"><ele>632.6666666666666</ele><time>2026-04-26T14:36:29.032Z</time></trkpt><trkpt lat="43.4468148" lon="12.3732995"><ele>634.0</ele><time>2026-04-26T14:36:30.033Z</time></trkpt><trkpt lat="43.4468685" lon="12.3732086"><ele>635.3333333333333</ele><time>2026-04-26T14:36:31.035Z</time></trkpt><trkpt lat="43.4469344" lon="12.3731545"><ele>636.6666666666666</ele><time>2026-04-26T14:36:32.033Z</time></trkpt><trkpt lat="43.4470009" lon="12.3731217"><ele>638.0</ele><time>2026-04-26T14:36:33.031Z</time></trkpt><trkpt lat="43.4470638" lon="12.3731314"><ele>640.6666666666666</ele><time>2026-04-26T14:36:34.025Z</time></trkpt><trkpt lat="43.4471364" lon="12.373221"><ele>643.3333333333333</ele><time>2026-04-26T14:36:36.027Z</time></trkpt><trkpt lat="43.4471406" lon="12.3733712"><ele>646.0</ele><time>2026-04-26T14:36:38.037Z</time></trkpt><trkpt lat="43.4471615" lon="12.373453"><ele>648.6666666666666</ele><time>2026-04-26T14:36:39.036Z</time></trkpt><trkpt lat="43.4472254" lon="12.3735235"><ele>651.3333333333334</ele><time>2026-04-26T14:36:40.024Z</time></trkpt><trkpt lat="43.4472892" lon="12.373535"><ele>654.0</ele><time>2026-04-26T14:36:41.031Z</time></trkpt><trkpt lat="43.4473513" lon="12.3735017"><ele>654.0</ele><time>2026-04-26T14:36:42.031Z</time></trkpt><trkpt lat="43.4474152" lon="12.3734669"><ele>654.0</ele><time>2026-04-26T14:36:43.032Z</time></trkpt><trkpt lat="43.4474869" lon="12.3734466"><ele>654.0</ele><time>2026-04-26T14:36:44.025Z</time></trkpt><trkpt lat="43.4475649" lon="12.3734337"><ele>654.0</ele><time>2026-04-26T14:36:45.033Z</time></trkpt><trkpt lat="43.4476453" lon="12.3734448"><ele>654.0</ele><time>2026-04-26T14:36:46.037Z</time></trkpt><trkpt lat="43.4477314" lon="12.3734753"><ele>654.0</ele><time>2026-04-26T14:36:47.034Z</time></trkpt><trkpt lat="43.4478279" lon="12.3735193"><ele>654.0</ele><time>2026-04-26T14:36:48.03Z</time></trkpt><trkpt lat="43.4479349" lon="12.3735698"><ele>654.0</ele><time>2026-04-26T14:36:49.05Z</time></trkpt><trkpt lat="43.4480476" lon="12.3736228"><ele>654.0</ele><time>2026-04-26T14:36:50.027Z</time></trkpt><trkpt lat="43.4481658" lon="12.373687"><ele>654.0</ele><time>2026-04-26T14:36:51.027Z</time></trkpt><trkpt lat="43.4482865" lon="12.3737494"><ele>654.75</ele><time>2026-04-26T14:36:52.034Z</time></trkpt><trkpt lat="43.4484148" lon="12.37381"><ele>655.5</ele><time>2026-04-26T14:36:53.037Z</time></trkpt><trkpt lat="43.4485495" lon="12.3738675"><ele>656.25</ele><time>2026-04-26T14:36:54.029Z</time></trkpt><trkpt lat="43.4486847" lon="12.3739352"><ele>657.0</ele><time>2026-04-26T14:36:55.042Z</time></trkpt><trkpt lat="43.4488152" lon="12.3740097"><ele>658.25</ele><time>2026-04-26T14:36:56.036Z</time></trkpt><trkpt lat="43.4489394" lon="12.3740876"><ele>659.5</ele><time>2026-04-26T14:36:57.032Z</time></trkpt><trkpt lat="43.4490587" lon="12.3741607"><ele>660.75</ele><time>2026-04-26T14:36:58.032Z</time></trkpt><trkpt lat="43.4491808" lon="12.374219"><ele>662.0</ele><time>2026-04-26T14:36:59.037Z</time></trkpt><trkpt lat="43.4493144" lon="12.3742506"><ele>662.0</ele><time>2026-04-26T14:37:00.036Z</time></trkpt><trkpt lat="43.4494559" lon="12.3742608"><ele>662.0</ele><time>2026-04-26T14:37:01.028Z</time></trkpt><trkpt lat="43.449606" lon="12.3742727"><ele>662.0</ele><time>2026-04-26T14:37:02.031Z</time></trkpt><trkpt lat="43.4497464" lon="12.3742904"><ele>662.0</ele><time>2026-04-26T14:37:03.035Z</time></trkpt><trkpt lat="43.449876" lon="12.3743004"><ele>666.75</ele><time>2026-04-26T14:37:04.026Z</time></trkpt><trkpt lat="43.4499945" lon="12.3743118"><ele>671.5</ele><time>2026-04-26T14:37:05.048Z</time></trkpt><trkpt lat="43.4501227" lon="12.3743383"><ele>676.25</ele><time>2026-04-26T14:37:06.032Z</time></trkpt><trkpt lat="43.4502389" lon="12.3743865"><ele>681.0</ele><time>2026-04-26T14:37:07.047Z</time></trkpt><trkpt lat="43.4503399" lon="12.3744577"><ele>681.0</ele><time>2026-04-26T14:37:08.037Z</time></trkpt><trkpt lat="43.4504262" lon="12.374536"><ele>681.0</ele><time>2026-04-26T14:37:09.033Z</time></trkpt><trkpt lat="43.4504991" lon="12.3746255"><ele>681.0</ele><time>2026-04-26T14:37:10.034Z</time></trkpt><trkpt lat="43.4505687" lon="12.3747166"><ele>681.0</ele><time>2026-04-26T14:37:11.039Z</time></trkpt><trkpt lat="43.450649" lon="12.3748153"><ele>681.0</ele><time>2026-04-26T14:37:12.037Z</time></trkpt><trkpt lat="43.4507375" lon="12.3749165"><ele>684.0</ele><time>2026-04-26T14:37:13.046Z</time></trkpt><trkpt lat="43.4508359" lon="12.3750081"><ele>687.0</ele><time>2026-04-26T14:37:14.03Z</time></trkpt><trkpt lat="43.4509342" lon="12.3750933"><ele>690.0</ele><time>2026-04-26T14:37:15.042Z</time></trkpt><trkpt lat="43.4510261" lon="12.3751651"><ele>693.0</ele><time>2026-04-26T14:37:16.037Z</time></trkpt><trkpt lat="43.4511149" lon="12.3752267"><ele>696.0</ele><time>2026-04-26T14:37:17.05Z</time></trkpt><trkpt lat="43.4512097" lon="12.3752625"><ele>700.4</ele><time>2026-04-26T14:37:18.032Z</time></trkpt><trkpt lat="43.4513093" lon="12.375292"><ele>704.8</ele><time>2026-04-26T14:37:19.047Z</time></trkpt><trkpt lat="43.4514115" lon="12.3753301"><ele>709.1999999999999</ele><time>2026-04-26T14:37:20.032Z</time></trkpt><trkpt lat="43.451512" lon="12.3753649"><ele>713.5999999999999</ele><time>2026-04-26T14:37:21.04Z</time></trkpt><trkpt lat="43.4516306" lon="12.3753737"><ele>718.0</ele><time>2026-04-26T14:37:22.037Z</time></trkpt><trkpt lat="43.4517592" lon="12.3753747"><ele>718.0</ele><time>2026-04-26T14:37:23.05Z</time></trkpt><trkpt lat="43.4518768" lon="12.3753722"><ele>718.0</ele><time>2026-04-26T14:37:24.04Z</time></trkpt><trkpt lat="43.4519946" lon="12.3753604"><ele>718.0</ele><time>2026-04-26T14:37:25.033Z</time></trkpt><trkpt lat="43.4521028" lon="12.3753482"><ele>718.0</ele><time>2026-04-26T14:37:26.039Z</time></trkpt><trkpt lat="43.452189" lon="12.3753519"><ele>718.0</ele><time>2026-04-26T14:37:27.029Z</time></trkpt><trkpt lat="43.4522669" lon="12.375364"><ele>717.0</ele><time>2026-04-26T14:37:28.025Z</time></trkpt><trkpt lat="43.452347" lon="12.3753994"><ele>716.0</ele><time>2026-04-26T14:37:29.032Z</time></trkpt><trkpt lat="43.45243" lon="12.3754749"><ele>715.0</ele><time>2026-04-26T14:37:30.02Z</time></trkpt><trkpt lat="43.4525175" lon="12.3755744"><ele>714.0</ele><time>2026-04-26T14:37:31.039Z</time></trkpt><trkpt lat="43.4526039" lon="12.3756888"><ele>713.0</ele><time>2026-04-26T14:37:32.028Z</time></trkpt><trkpt lat="43.4526959" lon="12.3758194"><ele>713.0</ele><time>2026-04-26T14:37:33.033Z</time></trkpt><trkpt lat="43.4527857" lon="12.3759483"><ele>713.0</ele><time>2026-04-26T14:37:34.022Z</time></trkpt><trkpt lat="43.452868" lon="12.3760854"><ele>713.0</ele><time>2026-04-26T14:37:35.034Z</time></trkpt><trkpt lat="43.4529383" lon="12.376216"><ele>713.0</ele><time>2026-04-26T14:37:36.028Z</time></trkpt><trkpt lat="43.4529934" lon="12.3763487"><ele>714.2</ele><time>2026-04-26T14:37:37.03Z</time></trkpt><trkpt lat="43.4530339" lon="12.3764826"><ele>715.4</ele><time>2026-04-26T14:37:38.048Z</time></trkpt><trkpt lat="43.4530565" lon="12.3766365"><ele>716.6</ele><time>2026-04-26T14:37:39.032Z</time></trkpt><trkpt lat="43.453065" lon="12.3767832"><ele>717.8000000000001</ele><time>2026-04-26T14:37:40.041Z</time></trkpt><trkpt lat="43.4530722" lon="12.3769156"><ele>719.0</ele><time>2026-04-26T14:37:41.045Z</time></trkpt><trkpt lat="43.4531013" lon="12.3770069"><ele>719.0</ele><time>2026-04-26T14:37:42.036Z</time></trkpt><trkpt lat="43.4531538" lon="12.3770779"><ele>719.0</ele><time>2026-04-26T14:37:43.03Z</time></trkpt><trkpt lat="43.4532258" lon="12.377146"><ele>719.0</ele><time>2026-04-26T14:37:44.029Z</time></trkpt><trkpt lat="43.4533104" lon="12.377186"><ele>719.0</ele><time>2026-04-26T14:37:45.026Z</time></trkpt><trkpt lat="43.4533992" lon="12.3772511"><ele>719.0</ele><time>2026-04-26T14:37:46.03Z</time></trkpt><trkpt lat="43.4534935" lon="12.3773273"><ele>718.25</ele><time>2026-04-26T14:37:47.041Z</time></trkpt><trkpt lat="43.4536103" lon="12.3774497"><ele>717.5</ele><time>2026-04-26T14:37:48.029Z</time></trkpt><trkpt lat="43.4537169" lon="12.3775756"><ele>716.75</ele><time>2026-04-26T14:37:49.034Z</time></trkpt><trkpt lat="43.4538119" lon="12.3777017"><ele>716.0</ele><time>2026-04-26T14:37:50.032Z</time></trkpt><trkpt lat="43.4538839" lon="12.3778192"><ele>717.1999999999999</ele><time>2026-04-26T14:37:51.03Z</time></trkpt><trkpt lat="43.4539644" lon="12.3778824"><ele>718.4</ele><time>2026-04-26T14:37:52.039Z</time></trkpt><trkpt lat="43.4540521" lon="12.3779376"><ele>719.6</ele><time>2026-04-26T14:37:53.029Z</time></trkpt><trkpt lat="43.4541529" lon="12.3779535"><ele>720.8</ele><time>2026-04-26T14:37:54.044Z</time></trkpt><trkpt lat="43.4542566" lon="12.3779727"><ele>722.0</ele><time>2026-04-26T14:37:55.036Z</time></trkpt><trkpt lat="43.4543691" lon="12.3780198"><ele>722.0</ele><time>2026-04-26T14:37:56.035Z</time></trkpt><trkpt lat="43.454489" lon="12.3781039"><ele>722.0</ele><time>2026-04-26T14:37:57.036Z</time></trkpt><trkpt lat="43.4546082" lon="12.3782037"><ele>722.0</ele><time>2026-04-26T14:37:58.028Z</time></trkpt><trkpt lat="43.4547312" lon="12.3783075"><ele>722.0</ele><time>2026-04-26T14:37:59.035Z</time></trkpt><trkpt lat="43.4548382" lon="12.3784161"><ele>722.25</ele><time>2026-04-26T14:38:00.036Z</time></trkpt><trkpt lat="43.4549445" lon="12.3785347"><ele>722.5</ele><time>2026-04-26T14:38:01.038Z</time></trkpt><trkpt lat="43.4550491" lon="12.3786573"><ele>722.75</ele><time>2026-04-26T14:38:02.026Z</time></trkpt><trkpt lat="43.4551559" lon="12.3787752"><ele>723.0</ele><time>2026-04-26T14:38:03.027Z</time></trkpt><trkpt lat="43.4552681" lon="12.3788876"><ele>722.0</ele><time>2026-04-26T14:38:04.031Z</time></trkpt><trkpt lat="43.4553828" lon="12.3790056"><ele>721.0</ele><time>2026-04-26T14:38:05.034Z</time></trkpt><trkpt lat="43.4554895" lon="12.3791346"><ele>720.0</ele><time>2026-04-26T14:38:06.031Z</time></trkpt><trkpt lat="43.4555893" lon="12.3792643"><ele>719.0</ele><time>2026-04-26T14:38:07.029Z</time></trkpt><trkpt lat="43.4556848" lon="12.3793869"><ele>721.0</ele><time>2026-04-26T14:38:08.03Z</time></trkpt><trkpt lat="43.4557809" lon="12.379477"><ele>723.0</ele><time>2026-04-26T14:38:09.044Z</time></trkpt><trkpt lat="43.4558719" lon="12.3795646"><ele>725.0</ele><time>2026-04-26T14:38:10.037Z</time></trkpt><trkpt lat="43.4559424" lon="12.3796975"><ele>727.0</ele><time>2026-04-26T14:38:11.037Z</time></trkpt><trkpt lat="43.4559896" lon="12.3798536"><ele>727.0</ele><time>2026-04-26T14:38:12.029Z</time></trkpt><trkpt lat="43.4560345" lon="12.3800049"><ele>727.0</ele><time>2026-04-26T14:38:13.041Z</time></trkpt><trkpt lat="43.4560848" lon="12.3801554"><ele>727.0</ele><time>2026-04-26T14:38:14.035Z</time></trkpt><trkpt lat="43.4561414" lon="12.3803027"><ele>727.0</ele><time>2026-04-26T14:38:15.045Z</time></trkpt><trkpt lat="43.4562065" lon="12.3804267"><ele>725.0</ele><time>2026-04-26T14:38:16.038Z</time></trkpt><trkpt lat="43.4562817" lon="12.3805436"><ele>723.0</ele><time>2026-04-26T14:38:17.042Z</time></trkpt><trkpt lat="43.456369" lon="12.380648"><ele>721.0</ele><time>2026-04-26T14:38:18.029Z</time></trkpt><trkpt lat="43.4564557" lon="12.380756"><ele>719.0</ele><time>2026-04-26T14:38:19.042Z</time></trkpt><trkpt lat="43.4565414" lon="12.3808777"><ele>725.5</ele><time>2026-04-26T14:38:20.038Z</time></trkpt><trkpt lat="43.4566358" lon="12.3809968"><ele>732.0</ele><time>2026-04-26T14:38:21.034Z</time></trkpt><trkpt lat="43.4567359" lon="12.3811009"><ele>738.5</ele><time>2026-04-26T14:38:22.038Z</time></trkpt><trkpt lat="43.4568483" lon="12.3811863"><ele>745.0</ele><time>2026-04-26T14:38:23.034Z</time></trkpt><trkpt lat="43.4569731" lon="12.3812648"><ele>743.75</ele><time>2026-04-26T14:38:24.023Z</time></trkpt><trkpt lat="43.4570999" lon="12.3813499"><ele>742.5</ele><time>2026-04-26T14:38:25.033Z</time></trkpt><trkpt lat="43.4572318" lon="12.3814496"><ele>741.25</ele><time>2026-04-26T14:38:26.028Z</time></trkpt><trkpt lat="43.4573646" lon="12.3815535"><ele>740.0</ele><time>2026-04-26T14:38:27.033Z</time></trkpt><trkpt lat="43.4575032" lon="12.3816504"><ele>742.25</ele><time>2026-04-26T14:38:28.038Z</time></trkpt><trkpt lat="43.4576307" lon="12.3817471"><ele>744.5</ele><time>2026-04-26T14:38:29.035Z</time></trkpt><trkpt lat="43.4577599" lon="12.3818385"><ele>746.75</ele><time>2026-04-26T14:38:30.033Z</time></trkpt><trkpt lat="43.4578918" lon="12.3819124"><ele>749.0</ele><time>2026-04-26T14:38:31.031Z</time></trkpt><trkpt lat="43.4580177" lon="12.3819716"><ele>749.0</ele><time>2026-04-26T14:38:32.038Z</time></trkpt><trkpt lat="43.4581342" lon="12.3820364"><ele>749.0</ele><time>2026-04-26T14:38:33.031Z</time></trkpt><trkpt lat="43.4582513" lon="12.3821318"><ele>749.0</ele><time>2026-04-26T14:38:34.043Z</time></trkpt><trkpt lat="43.4583642" lon="12.3822537"><ele>749.0</ele><time>2026-04-26T14:38:35.037Z</time></trkpt><trkpt lat="43.4584888" lon="12.3823903"><ele>749.3333333333333</ele><time>2026-04-26T14:38:36.036Z</time></trkpt><trkpt lat="43.4586059" lon="12.3825188"><ele>749.6666666666666</ele><time>2026-04-26T14:38:37.041Z</time></trkpt><trkpt lat="43.4587299" lon="12.3826494"><ele>750.0</ele><time>2026-04-26T14:38:38.027Z</time></trkpt><trkpt lat="43.4588542" lon="12.382755"><ele>750.0</ele><time>2026-04-26T14:38:39.042Z</time></trkpt><trkpt lat="43.4589796" lon="12.3828522"><ele>750.0</ele><time>2026-04-26T14:38:40.037Z</time></trkpt><trkpt lat="43.4591" lon="12.3829591"><ele>750.0</ele><time>2026-04-26T14:38:41.033Z</time></trkpt><trkpt lat="43.4592193" lon="12.3830736"><ele>750.0</ele><time>2026-04-26T14:38:42.044Z</time></trkpt><trkpt lat="43.4593287" lon="12.383201"><ele>750.5</ele><time>2026-04-26T14:38:43.036Z</time></trkpt><trkpt lat="43.4594281" lon="12.3833274"><ele>751.0</ele><time>2026-04-26T14:38:44.032Z</time></trkpt><trkpt lat="43.4595261" lon="12.383467"><ele>751.5</ele><time>2026-04-26T14:38:45.032Z</time></trkpt><trkpt lat="43.4596261" lon="12.3836096"><ele>752.0</ele><time>2026-04-26T14:38:46.037Z</time></trkpt><trkpt lat="43.4597394" lon="12.3837381"><ele>752.3333333333333</ele><time>2026-04-26T14:38:47.042Z</time></trkpt><trkpt lat="43.4598613" lon="12.3838418"><ele>752.6666666666666</ele><time>2026-04-26T14:38:48.042Z</time></trkpt><trkpt lat="43.4599958" lon="12.3839398"><ele>753.0</ele><time>2026-04-26T14:38:49.031Z</time></trkpt><trkpt lat="43.4601297" lon="12.3840573"><ele>752.0</ele><time>2026-04-26T14:38:50.039Z</time></trkpt><trkpt lat="43.460265" lon="12.3841759"><ele>751.0</ele><time>2026-04-26T14:38:51.043Z</time></trkpt><trkpt lat="43.4604021" lon="12.3842883"><ele>750.0</ele><time>2026-04-26T14:38:52.033Z</time></trkpt><trkpt lat="43.4605198" lon="12.3843976"><ele>750.0</ele><time>2026-04-26T14:38:53.033Z</time></trkpt><trkpt lat="43.4606362" lon="12.3845098"><ele>750.0</ele><time>2026-04-26T14:38:54.036Z</time></trkpt><trkpt lat="43.4607413" lon="12.3845898"><ele>750.0</ele><time>2026-04-26T14:38:55.043Z</time></trkpt><trkpt lat="43.4608548" lon="12.3846374"><ele>750.0</ele><time>2026-04-26T14:38:56.031Z</time></trkpt><trkpt lat="43.4609786" lon="12.3846865"><ele>752.5</ele><time>2026-04-26T14:38:57.035Z</time></trkpt><trkpt lat="43.4611127" lon="12.3847339"><ele>755.0</ele><time>2026-04-26T14:38:58.027Z</time></trkpt><trkpt lat="43.4612341" lon="12.384791"><ele>757.5</ele><time>2026-04-26T14:38:59.032Z</time></trkpt><trkpt lat="43.4613624" lon="12.3848303"><ele>760.0</ele><time>2026-04-26T14:39:00.029Z</time></trkpt><trkpt lat="43.4614925" lon="12.3848749"><ele>760.0</ele><time>2026-04-26T14:39:01.042Z</time></trkpt><trkpt lat="43.4616263" lon="12.3849168"><ele>760.0</ele><time>2026-04-26T14:39:02.031Z</time></trkpt><trkpt lat="43.4617568" lon="12.3849488"><ele>760.0</ele><time>2026-04-26T14:39:03.02Z</time></trkpt><trkpt lat="43.4618897" lon="12.3849788"><ele>760.0</ele><time>2026-04-26T14:39:04.036Z</time></trkpt><trkpt lat="43.4620153" lon="12.3850019"><ele>758.4</ele><time>2026-04-26T14:39:05.045Z</time></trkpt><trkpt lat="43.4621351" lon="12.3850086"><ele>756.8</ele><time>2026-04-26T14:39:06.029Z</time></trkpt><trkpt lat="43.4622363" lon="12.3850156"><ele>755.2</ele><time>2026-04-26T14:39:07.046Z</time></trkpt><trkpt lat="43.4623343" lon="12.3850321"><ele>753.6</ele><time>2026-04-26T14:39:08.032Z</time></trkpt><trkpt lat="43.462429" lon="12.3850531"><ele>752.0</ele><time>2026-04-26T14:39:09.042Z</time></trkpt><trkpt lat="43.4625211" lon="12.3850744"><ele>752.0</ele><time>2026-04-26T14:39:10.038Z</time></trkpt><trkpt lat="43.4626164" lon="12.3850908"><ele>752.0</ele><time>2026-04-26T14:39:11.051Z</time></trkpt><trkpt lat="43.4627079" lon="12.3851067"><ele>752.0</ele><time>2026-04-26T14:39:12.03Z</time></trkpt><trkpt lat="43.4627991" lon="12.3851227"><ele>752.0</ele><time>2026-04-26T14:39:13.042Z</time></trkpt><trkpt lat="43.4628912" lon="12.3851438"><ele>752.0</ele><time>2026-04-26T14:39:14.037Z</time></trkpt><trkpt lat="43.4629816" lon="12.3851646"><ele>749.8</ele><time>2026-04-26T14:39:15.052Z</time></trkpt><trkpt lat="43.4630739" lon="12.3851803"><ele>747.6</ele><time>2026-04-26T14:39:16.037Z</time></trkpt><trkpt lat="43.4631677" lon="12.3851881"><ele>745.4</ele><time>2026-04-26T14:39:17.056Z</time></trkpt><trkpt lat="43.4632647" lon="12.3851795"><ele>743.1999999999999</ele><time>2026-04-26T14:39:18.035Z</time></trkpt><trkpt lat="43.4633604" lon="12.3851609"><ele>741.0</ele><time>2026-04-26T14:39:19.04Z</time></trkpt><trkpt lat="43.4634533" lon="12.3851239"><ele>741.0</ele><time>2026-04-26T14:39:20.03Z</time></trkpt><trkpt lat="43.4635414" lon="12.3850705"><ele>741.0</ele><time>2026-04-26T14:39:21.037Z</time></trkpt><trkpt lat="43.4636197" lon="12.3850092"><ele>741.0</ele><time>2026-04-26T14:39:22.04Z</time></trkpt><trkpt lat="43.463693" lon="12.3849524"><ele>741.0</ele><time>2026-04-26T14:39:23.04Z</time></trkpt><trkpt lat="43.4637509" lon="12.3848952"><ele>741.0</ele><time>2026-04-26T14:39:24.033Z</time></trkpt><trkpt lat="43.4638562" lon="12.3848084"><ele>739.3333333333334</ele><time>2026-04-26T14:39:26.034Z</time></trkpt><trkpt lat="43.463952" lon="12.3847664"><ele>737.6666666666666</ele><time>2026-04-26T14:39:28.031Z</time></trkpt><trkpt lat="43.4640167" lon="12.3848112"><ele>736.0</ele><time>2026-04-26T14:39:30.038Z</time></trkpt><trkpt lat="43.4639612" lon="12.3848966"><ele>734.3333333333333</ele><time>2026-04-26T14:39:33.038Z</time></trkpt><trkpt lat="43.4639225" lon="12.3849664"><ele>732.6666666666666</ele><time>2026-04-26T14:39:35.045Z</time></trkpt><trkpt lat="43.4638791" lon="12.3850362"><ele>731.0</ele><time>2026-04-26T14:39:37.037Z</time></trkpt><trkpt lat="43.4638069" lon="12.3851552"><ele>732.5999999999999</ele><time>2026-04-26T14:39:39.041Z</time></trkpt><trkpt lat="43.4637608" lon="12.3852603"><ele>734.2</ele><time>2026-04-26T14:39:40.032Z</time></trkpt><trkpt lat="43.4637135" lon="12.3853682"><ele>735.8</ele><time>2026-04-26T14:39:41.043Z</time></trkpt><trkpt lat="43.4636505" lon="12.3854937"><ele>737.4000000000001</ele><time>2026-04-26T14:39:42.038Z</time></trkpt><trkpt lat="43.4635707" lon="12.3856337"><ele>739.0</ele><time>2026-04-26T14:39:43.037Z</time></trkpt><trkpt lat="43.4634858" lon="12.3857781"><ele>739.0</ele><time>2026-04-26T14:39:44.033Z</time></trkpt><trkpt lat="43.4633887" lon="12.3859187"><ele>739.0</ele><time>2026-04-26T14:39:45.033Z</time></trkpt><trkpt lat="43.4632895" lon="12.3860438"><ele>739.0</ele><time>2026-04-26T14:39:46.032Z</time></trkpt><trkpt lat="43.4631999" lon="12.3861619"><ele>739.0</ele><time>2026-04-26T14:39:47.036Z</time></trkpt><trkpt lat="43.4631232" lon="12.3863066"><ele>735.5</ele><time>2026-04-26T14:39:48.03Z</time></trkpt><trkpt lat="43.4630687" lon="12.3864836"><ele>732.0</ele><time>2026-04-26T14:39:49.038Z</time></trkpt><trkpt lat="43.4630241" lon="12.3866851"><ele>728.5</ele><time>2026-04-26T14:39:50.021Z</time></trkpt><trkpt lat="43.4629937" lon="12.386887"><ele>725.0</ele><time>2026-04-26T14:39:51.041Z</time></trkpt><trkpt lat="43.46297" lon="12.3870846"><ele>727.5</ele><time>2026-04-26T14:39:52.023Z</time></trkpt><trkpt lat="43.4629378" lon="12.3872782"><ele>730.0</ele><time>2026-04-26T14:39:53.026Z</time></trkpt><trkpt lat="43.4628955" lon="12.3874709"><ele>732.5</ele><time>2026-04-26T14:39:54.031Z</time></trkpt><trkpt lat="43.4628477" lon="12.3876551"><ele>735.0</ele><time>2026-04-26T14:39:55.038Z</time></trkpt><trkpt lat="43.4627932" lon="12.3878357"><ele>735.0</ele><time>2026-04-26T14:39:56.023Z</time></trkpt><trkpt lat="43.4627287" lon="12.3880094"><ele>735.0</ele><time>2026-04-26T14:39:57.05Z</time></trkpt><trkpt lat="43.4626536" lon="12.3881748"><ele>735.0</ele><time>2026-04-26T14:39:58.056Z</time></trkpt><trkpt lat="43.4625687" lon="12.3883405"><ele>735.0</ele><time>2026-04-26T14:39:59.033Z</time></trkpt><trkpt lat="43.4624745" lon="12.3885079"><ele>734.6666666666666</ele><time>2026-04-26T14:40:00.025Z</time></trkpt><trkpt lat="43.4623786" lon="12.3886775"><ele>734.3333333333333</ele><time>2026-04-26T14:40:01.042Z</time></trkpt><trkpt lat="43.4622769" lon="12.3888504"><ele>734.0</ele><time>2026-04-26T14:40:02.028Z</time></trkpt><trkpt lat="43.4621689" lon="12.3890362"><ele>726.6666666666666</ele><time>2026-04-26T14:40:03.029Z</time></trkpt><trkpt lat="43.4620607" lon="12.3892192"><ele>719.3333333333334</ele><time>2026-04-26T14:40:04.032Z</time></trkpt><trkpt lat="43.4619574" lon="12.3893892"><ele>712.0</ele><time>2026-04-26T14:40:05.033Z</time></trkpt><trkpt lat="43.4618626" lon="12.3895485"><ele>713.0</ele><time>2026-04-26T14:40:06.038Z</time></trkpt><trkpt lat="43.4617764" lon="12.3896895"><ele>714.0</ele><time>2026-04-26T14:40:07.028Z</time></trkpt><trkpt lat="43.4616964" lon="12.3898096"><ele>715.0</ele><time>2026-04-26T14:40:08.031Z</time></trkpt><trkpt lat="43.4616215" lon="12.3899111"><ele>716.0</ele><time>2026-04-26T14:40:09.038Z</time></trkpt><trkpt lat="43.4615633" lon="12.3899978"><ele>717.0</ele><time>2026-04-26T14:40:10.03Z</time></trkpt><trkpt lat="43.4615269" lon="12.3900699"><ele>717.0</ele><time>2026-04-26T14:40:11.037Z</time></trkpt><trkpt lat="43.4615466" lon="12.3901889"><ele>717.0</ele><time>2026-04-26T14:40:13.031Z</time></trkpt><trkpt lat="43.4615952" lon="12.3902449"><ele>717.0</ele><time>2026-04-26T14:40:14.033Z</time></trkpt><trkpt lat="43.4616635" lon="12.390291"><ele>717.0</ele><time>2026-04-26T14:40:15.042Z</time></trkpt><trkpt lat="43.4617406" lon="12.390336"><ele>717.0</ele><time>2026-04-26T14:40:16.031Z</time></trkpt><trkpt lat="43.4618286" lon="12.390367"><ele>717.0</ele><time>2026-04-26T14:40:17.038Z</time></trkpt><trkpt lat="43.4619286" lon="12.3903806"><ele>717.0</ele><time>2026-04-26T14:40:18.038Z</time></trkpt><trkpt lat="43.4620269" lon="12.3903803"><ele>717.0</ele><time>2026-04-26T14:40:19.038Z</time></trkpt><trkpt lat="43.462123" lon="12.3903676"><ele>717.0</ele><time>2026-04-26T14:40:20.048Z</time></trkpt><trkpt lat="43.4622164" lon="12.3903461"><ele>717.0</ele><time>2026-04-26T14:40:21.033Z</time></trkpt><trkpt lat="43.4623091" lon="12.3903485"><ele>717.0</ele><time>2026-04-26T14:40:22.034Z</time></trkpt><trkpt lat="43.4624053" lon="12.3903872"><ele>716.25</ele><time>2026-04-26T14:40:23.035Z</time></trkpt><trkpt lat="43.4625099" lon="12.3904401"><ele>715.5</ele><time>2026-04-26T14:40:24.025Z</time></trkpt><trkpt lat="43.4626154" lon="12.39051"><ele>714.75</ele><time>2026-04-26T14:40:25.038Z</time></trkpt><trkpt lat="43.4627123" lon="12.3905873"><ele>714.0</ele><time>2026-04-26T14:40:26.039Z</time></trkpt><trkpt lat="43.4628088" lon="12.3906601"><ele>714.0</ele><time>2026-04-26T14:40:27.037Z</time></trkpt><trkpt lat="43.4628976" lon="12.3907443"><ele>714.0</ele><time>2026-04-26T14:40:28.037Z</time></trkpt><trkpt lat="43.4629717" lon="12.3908389"><ele>714.0</ele><time>2026-04-26T14:40:29.032Z</time></trkpt><trkpt lat="43.4630279" lon="12.390942"><ele>714.0</ele><time>2026-04-26T14:40:30.034Z</time></trkpt><trkpt lat="43.4630573" lon="12.3910618"><ele>714.0</ele><time>2026-04-26T14:40:31.037Z</time></trkpt><trkpt lat="43.4630826" lon="12.3911969"><ele>715.6</ele><time>2026-04-26T14:40:32.031Z</time></trkpt><trkpt lat="43.463101" lon="12.3913509"><ele>717.2</ele><time>2026-04-26T14:40:33.027Z</time></trkpt><trkpt lat="43.4631198" lon="12.3915026"><ele>718.8000000000001</ele><time>2026-04-26T14:40:34.038Z</time></trkpt><trkpt lat="43.4631312" lon="12.3916495"><ele>720.4000000000001</ele><time>2026-04-26T14:40:35.033Z</time></trkpt><trkpt lat="43.4631337" lon="12.3917926"><ele>722.0</ele><time>2026-04-26T14:40:36.026Z</time></trkpt><trkpt lat="43.4631352" lon="12.3919307"><ele>722.0</ele><time>2026-04-26T14:40:37.036Z</time></trkpt><trkpt lat="43.4631445" lon="12.3920574"><ele>722.0</ele><time>2026-04-26T14:40:38.03Z</time></trkpt><trkpt lat="43.4631664" lon="12.3921748"><ele>722.0</ele><time>2026-04-26T14:40:39.031Z</time></trkpt><trkpt lat="43.4632018" lon="12.3922819"><ele>722.0</ele><time>2026-04-26T14:40:40.034Z</time></trkpt><trkpt lat="43.4632461" lon="12.3923936"><ele>722.0</ele><time>2026-04-26T14:40:41.036Z</time></trkpt><trkpt lat="43.4632902" lon="12.3925121"><ele>720.0</ele><time>2026-04-26T14:40:42.028Z</time></trkpt><trkpt lat="43.463334" lon="12.3926324"><ele>718.0</ele><time>2026-04-26T14:40:43.032Z</time></trkpt><trkpt lat="43.4633713" lon="12.3927457"><ele>716.0</ele><time>2026-04-26T14:40:44.032Z</time></trkpt><trkpt lat="43.4633936" lon="12.3928581"><ele>714.0</ele><time>2026-04-26T14:40:45.032Z</time></trkpt><trkpt lat="43.4633962" lon="12.3929649"><ele>712.0</ele><time>2026-04-26T14:40:46.026Z</time></trkpt><trkpt lat="43.4633803" lon="12.393069"><ele>710.0</ele><time>2026-04-26T14:40:47.03Z</time></trkpt><trkpt lat="43.4633506" lon="12.3931849"><ele>708.5</ele><time>2026-04-26T14:40:48.029Z</time></trkpt><trkpt lat="43.463312" lon="12.3932918"><ele>707.0</ele><time>2026-04-26T14:40:49.039Z</time></trkpt><trkpt lat="43.4632696" lon="12.3933903"><ele>705.5</ele><time>2026-04-26T14:40:50.037Z</time></trkpt><trkpt lat="43.4632283" lon="12.3934968"><ele>704.0</ele><time>2026-04-26T14:40:51.041Z</time></trkpt><trkpt lat="43.4631928" lon="12.393602"><ele>702.5</ele><time>2026-04-26T14:40:52.023Z</time></trkpt><trkpt lat="43.4631664" lon="12.3937031"><ele>701.0</ele><time>2026-04-26T14:40:53.037Z</time></trkpt><trkpt lat="43.4631558" lon="12.3938119"><ele>699.6666666666666</ele><time>2026-04-26T14:40:54.037Z</time></trkpt><trkpt lat="43.4631632" lon="12.3939101"><ele>698.3333333333333</ele><time>2026-04-26T14:40:55.031Z</time></trkpt><trkpt lat="43.4631856" lon="12.3940118"><ele>697.0</ele><time>2026-04-26T14:40:56.029Z</time></trkpt><trkpt lat="43.4632117" lon="12.3940999"><ele>695.6666666666666</ele><time>2026-04-26T14:40:57.04Z</time></trkpt><trkpt lat="43.4632409" lon="12.3942017"><ele>694.3333333333334</ele><time>2026-04-26T14:40:58.038Z</time></trkpt><trkpt lat="43.4632706" lon="12.3943105"><ele>693.0</ele><time>2026-04-26T14:40:59.047Z</time></trkpt><trkpt lat="43.4632958" lon="12.3944118"><ele>693.0</ele><time>2026-04-26T14:41:00.043Z</time></trkpt><trkpt lat="43.4633246" lon="12.3945064"><ele>693.0</ele><time>2026-04-26T14:41:01.044Z</time></trkpt><trkpt lat="43.4633656" lon="12.3945938"><ele>693.0</ele><time>2026-04-26T14:41:02.033Z</time></trkpt><trkpt lat="43.4634185" lon="12.3946739"><ele>693.0</ele><time>2026-04-26T14:41:03.043Z</time></trkpt><trkpt lat="43.4634821" lon="12.3947347"><ele>693.0</ele><time>2026-04-26T14:41:04.068Z</time></trkpt><trkpt lat="43.4635458" lon="12.3947852"><ele>693.0</ele><time>2026-04-26T14:41:05.038Z</time></trkpt><trkpt lat="43.4636154" lon="12.3948333"><ele>690.1666666666666</ele><time>2026-04-26T14:41:06.034Z</time></trkpt><trkpt lat="43.4636808" lon="12.39489"><ele>687.3333333333334</ele><time>2026-04-26T14:41:07.052Z</time></trkpt><trkpt lat="43.4637414" lon="12.3949546"><ele>684.5</ele><time>2026-04-26T14:41:08.027Z</time></trkpt><trkpt lat="43.4637965" lon="12.395034"><ele>681.6666666666667</ele><time>2026-04-26T14:41:09.035Z</time></trkpt><trkpt lat="43.463848" lon="12.3951255"><ele>678.8333333333334</ele><time>2026-04-26T14:41:10.034Z</time></trkpt><trkpt lat="43.4638898" lon="12.3952115"><ele>676.0</ele><time>2026-04-26T14:41:11.041Z</time></trkpt><trkpt lat="43.4639297" lon="12.3953006"><ele>675.1999999999999</ele><time>2026-04-26T14:41:12.037Z</time></trkpt><trkpt lat="43.46397" lon="12.3953919"><ele>674.4</ele><time>2026-04-26T14:41:13.031Z</time></trkpt><trkpt lat="43.4640144" lon="12.3954644"><ele>673.6</ele><time>2026-04-26T14:41:14.039Z</time></trkpt><trkpt lat="43.4641104" lon="12.3955639"><ele>672.8</ele><time>2026-04-26T14:41:16.044Z</time></trkpt><trkpt lat="43.4641919" lon="12.3955164"><ele>672.0</ele><time>2026-04-26T14:41:18.047Z</time></trkpt><trkpt lat="43.4641846" lon="12.3953721"><ele>671.6</ele><time>2026-04-26T14:41:20.026Z</time></trkpt><trkpt lat="43.4641608" lon="12.3952495"><ele>671.2</ele><time>2026-04-26T14:41:21.046Z</time></trkpt><trkpt lat="43.4641384" lon="12.3951171"><ele>670.8</ele><time>2026-04-26T14:41:22.045Z</time></trkpt><trkpt lat="43.4641164" lon="12.3949901"><ele>670.4</ele><time>2026-04-26T14:41:23.035Z</time></trkpt><trkpt lat="43.4641002" lon="12.3948646"><ele>670.0</ele><time>2026-04-26T14:41:24.03Z</time></trkpt><trkpt lat="43.4640925" lon="12.3947452"><ele>670.6</ele><time>2026-04-26T14:41:25.044Z</time></trkpt><trkpt lat="43.4640919" lon="12.3946311"><ele>671.2</ele><time>2026-04-26T14:41:26.064Z</time></trkpt><trkpt lat="43.4640903" lon="12.3945048"><ele>671.8</ele><time>2026-04-26T14:41:27.033Z</time></trkpt><trkpt lat="43.4640979" lon="12.3943666"><ele>672.4</ele><time>2026-04-26T14:41:28.033Z</time></trkpt><trkpt lat="43.4641181" lon="12.3942282"><ele>673.0</ele><time>2026-04-26T14:41:29.032Z</time></trkpt><trkpt lat="43.4641418" lon="12.3940926"><ele>673.0</ele><time>2026-04-26T14:41:30.039Z</time></trkpt><trkpt lat="43.4641787" lon="12.3939497"><ele>673.0</ele><time>2026-04-26T14:41:31.042Z</time></trkpt><trkpt lat="43.464218" lon="12.3938097"><ele>673.0</ele><time>2026-04-26T14:41:32.032Z</time></trkpt><trkpt lat="43.4642648" lon="12.393688"><ele>673.0</ele><time>2026-04-26T14:41:33.033Z</time></trkpt><trkpt lat="43.4643135" lon="12.3935954"><ele>673.0</ele><time>2026-04-26T14:41:34.034Z</time></trkpt><trkpt lat="43.4643762" lon="12.3935341"><ele>676.0</ele><time>2026-04-26T14:41:35.038Z</time></trkpt><trkpt lat="43.4644425" lon="12.3935104"><ele>679.0</ele><time>2026-04-26T14:41:36.033Z</time></trkpt><trkpt lat="43.4645176" lon="12.3935091"><ele>682.0</ele><time>2026-04-26T14:41:37.032Z</time></trkpt><trkpt lat="43.4646056" lon="12.3935302"><ele>685.0</ele><time>2026-04-26T14:41:38.048Z</time></trkpt><trkpt lat="43.4646899" lon="12.3935662"><ele>688.0</ele><time>2026-04-26T14:41:39.031Z</time></trkpt><trkpt lat="43.4647628" lon="12.3936225"><ele>691.0</ele><time>2026-04-26T14:41:40.034Z</time></trkpt><trkpt lat="43.464825" lon="12.3937113"><ele>691.0</ele><time>2026-04-26T14:41:41.038Z</time></trkpt><trkpt lat="43.4648811" lon="12.393801"><ele>691.0</ele><time>2026-04-26T14:41:42.029Z</time></trkpt><trkpt lat="43.4649418" lon="12.3938505"><ele>691.0</ele><time>2026-04-26T14:41:43.037Z</time></trkpt><trkpt lat="43.4650116" lon="12.3938713"><ele>691.0</ele><time>2026-04-26T14:41:44.032Z</time></trkpt><trkpt lat="43.4650888" lon="12.3938838"><ele>691.0</ele><time>2026-04-26T14:41:45.037Z</time></trkpt><trkpt lat="43.4651765" lon="12.3938994"><ele>691.0</ele><time>2026-04-26T14:41:46.033Z</time></trkpt><trkpt lat="43.4652738" lon="12.393929"><ele>690.8</ele><time>2026-04-26T14:41:47.039Z</time></trkpt><trkpt lat="43.4653646" lon="12.3939877"><ele>690.5999999999999</ele><time>2026-04-26T14:41:48.025Z</time></trkpt><trkpt lat="43.4654515" lon="12.3940693"><ele>690.4</ele><time>2026-04-26T14:41:49.035Z</time></trkpt><trkpt lat="43.4655314" lon="12.394161"><ele>690.2</ele><time>2026-04-26T14:41:50.034Z</time></trkpt><trkpt lat="43.4656148" lon="12.3942708"><ele>690.0</ele><time>2026-04-26T14:41:51.027Z</time></trkpt><trkpt lat="43.4656998" lon="12.3943967"><ele>690.0</ele><time>2026-04-26T14:41:52.035Z</time></trkpt><trkpt lat="43.46578" lon="12.3945188"><ele>690.0</ele><time>2026-04-26T14:41:53.036Z</time></trkpt><trkpt lat="43.4658557" lon="12.3946228"><ele>690.0</ele><time>2026-04-26T14:41:54.033Z</time></trkpt><trkpt lat="43.4659297" lon="12.3947233"><ele>690.0</ele><time>2026-04-26T14:41:55.033Z</time></trkpt><trkpt lat="43.4660041" lon="12.3948144"><ele>690.0</ele><time>2026-04-26T14:41:56.022Z</time></trkpt><trkpt lat="43.4660714" lon="12.394908"><ele>685.8</ele><time>2026-04-26T14:41:57.036Z</time></trkpt><trkpt lat="43.4661267" lon="12.3950166"><ele>681.6</ele><time>2026-04-26T14:41:58.03Z</time></trkpt><trkpt lat="43.466168" lon="12.3951361"><ele>677.4000000000001</ele><time>2026-04-26T14:41:59.02Z</time></trkpt><trkpt lat="43.4662064" lon="12.3952653"><ele>673.2</ele><time>2026-04-26T14:42:00.022Z</time></trkpt><trkpt lat="43.4662466" lon="12.3953923"><ele>669.0</ele><time>2026-04-26T14:42:01.039Z</time></trkpt><trkpt lat="43.4663019" lon="12.3955208"><ele>669.0</ele><time>2026-04-26T14:42:02.027Z</time></trkpt><trkpt lat="43.4663599" lon="12.3956591"><ele>669.0</ele><time>2026-04-26T14:42:03.028Z</time></trkpt><trkpt lat="43.4664053" lon="12.3958119"><ele>669.0</ele><time>2026-04-26T14:42:04.037Z</time></trkpt><trkpt lat="43.466436" lon="12.3959589"><ele>669.0</ele><time>2026-04-26T14:42:05.037Z</time></trkpt><trkpt lat="43.4664647" lon="12.3960989"><ele>669.0</ele><time>2026-04-26T14:42:06.035Z</time></trkpt><trkpt lat="43.4665125" lon="12.3962253"><ele>669.0</ele><time>2026-04-26T14:42:07.049Z</time></trkpt><trkpt lat="43.4665729" lon="12.3963217"><ele>669.0</ele><time>2026-04-26T14:42:08.043Z</time></trkpt><trkpt lat="43.4666421" lon="12.3964078"><ele>669.0</ele><time>2026-04-26T14:42:09.021Z</time></trkpt><trkpt lat="43.4667257" lon="12.3964998"><ele>669.0</ele><time>2026-04-26T14:42:10.018Z</time></trkpt><trkpt lat="43.466812" lon="12.3965951"><ele>665.2</ele><time>2026-04-26T14:42:11.026Z</time></trkpt><trkpt lat="43.4668963" lon="12.3966878"><ele>661.4000000000001</ele><time>2026-04-26T14:42:12.028Z</time></trkpt><trkpt lat="43.4669741" lon="12.3967837"><ele>657.6</ele><time>2026-04-26T14:42:13.034Z</time></trkpt><trkpt lat="43.4670419" lon="12.3968895"><ele>653.8</ele><time>2026-04-26T14:42:14.03Z</time></trkpt><trkpt lat="43.4670981" lon="12.3969884"><ele>650.0</ele><time>2026-04-26T14:42:15.037Z</time></trkpt><trkpt lat="43.4671469" lon="12.3970804"><ele>649.3333333333333</ele><time>2026-04-26T14:42:16.035Z</time></trkpt><trkpt lat="43.4671916" lon="12.3971728"><ele>648.6666666666666</ele><time>2026-04-26T14:42:17.046Z</time></trkpt><trkpt lat="43.4672359" lon="12.3972545"><ele>648.0</ele><time>2026-04-26T14:42:18.037Z</time></trkpt><trkpt lat="43.4672763" lon="12.3973277"><ele>647.3333333333334</ele><time>2026-04-26T14:42:19.029Z</time></trkpt><trkpt lat="43.4673164" lon="12.397402"><ele>646.6666666666667</ele><time>2026-04-26T14:42:20.037Z</time></trkpt><trkpt lat="43.4673525" lon="12.3974818"><ele>646.0</ele><time>2026-04-26T14:42:21.036Z</time></trkpt><trkpt lat="43.4673828" lon="12.3976438"><ele>646.0</ele><time>2026-04-26T14:42:23.038Z</time></trkpt><trkpt lat="43.4673719" lon="12.3977324"><ele>646.0</ele><time>2026-04-26T14:42:24.036Z</time></trkpt><trkpt lat="43.4673508" lon="12.3978353"><ele>646.0</ele><time>2026-04-26T14:42:25.034Z</time></trkpt><trkpt lat="43.4673206" lon="12.3979436"><ele>646.0</ele><time>2026-04-26T14:42:26.045Z</time></trkpt><trkpt lat="43.4673078" lon="12.3980349"><ele>646.0</ele><time>2026-04-26T14:42:27.041Z</time></trkpt><trkpt lat="43.4673066" lon="12.3981242"><ele>646.0</ele><time>2026-04-26T14:42:28.033Z</time></trkpt><trkpt lat="43.4673163" lon="12.3982642"><ele>646.0</ele><time>2026-04-26T14:42:30.032Z</time></trkpt><trkpt lat="43.4673183" lon="12.3983635"><ele>646.0</ele><time>2026-04-26T14:42:34.035Z</time></trkpt><trkpt lat="43.4673005" lon="12.3982375"><ele>646.0</ele><time>2026-04-26T14:42:43.035Z</time></trkpt><trkpt lat="43.4672884" lon="12.3980884"><ele>646.0</ele><time>2026-04-26T14:42:45.044Z</time></trkpt><trkpt lat="43.4672966" lon="12.3979954"><ele>646.0</ele><time>2026-04-26T14:42:46.045Z</time></trkpt><trkpt lat="43.4673078" lon="12.3978998"><ele>646.0</ele><time>2026-04-26T14:42:47.039Z</time></trkpt><trkpt lat="43.4673254" lon="12.3978125"><ele>646.0</ele><time>2026-04-26T14:42:48.042Z</time></trkpt><trkpt lat="43.4673583" lon="12.3976868"><ele>646.0</ele><time>2026-04-26T14:42:50.041Z</time></trkpt><trkpt lat="43.4673568" lon="12.3975825"><ele>646.0</ele><time>2026-04-26T14:42:53.031Z</time></trkpt><trkpt lat="43.4673149" lon="12.3974754"><ele>646.0</ele><time>2026-04-26T14:43:18.032Z</time></trkpt><trkpt lat="43.4672354" lon="12.3973072"><ele>646.0</ele><time>2026-04-26T14:43:20.028Z</time></trkpt><trkpt lat="43.4671786" lon="12.3971986"><ele>645.25</ele><time>2026-04-26T14:43:21.039Z</time></trkpt><trkpt lat="43.4671189" lon="12.3970869"><ele>644.5</ele><time>2026-04-26T14:43:22.028Z</time></trkpt><trkpt lat="43.4670572" lon="12.3969635"><ele>643.75</ele><time>2026-04-26T14:43:23.043Z</time></trkpt><trkpt lat="43.4669721" lon="12.3968205"><ele>643.0</ele><time>2026-04-26T14:43:24.019Z</time></trkpt><trkpt lat="43.4668752" lon="12.3966897"><ele>644.75</ele><time>2026-04-26T14:43:25.035Z</time></trkpt><trkpt lat="43.4667719" lon="12.3965781"><ele>646.5</ele><time>2026-04-26T14:43:26.038Z</time></trkpt><trkpt lat="43.466671" lon="12.396469"><ele>648.25</ele><time>2026-04-26T14:43:27.033Z</time></trkpt><trkpt lat="43.4665852" lon="12.3963614"><ele>650.0</ele><time>2026-04-26T14:43:28.046Z</time></trkpt><trkpt lat="43.4665211" lon="12.3962513"><ele>653.8</ele><time>2026-04-26T14:43:29.033Z</time></trkpt><trkpt lat="43.4664694" lon="12.3961367"><ele>657.6</ele><time>2026-04-26T14:43:30.03Z</time></trkpt><trkpt lat="43.4664364" lon="12.3960046"><ele>661.4000000000001</ele><time>2026-04-26T14:43:31.044Z</time></trkpt><trkpt lat="43.4664068" lon="12.3958599"><ele>665.2</ele><time>2026-04-26T14:43:32.025Z</time></trkpt><trkpt lat="43.4663647" lon="12.3957136"><ele>669.0</ele><time>2026-04-26T14:43:33.037Z</time></trkpt><trkpt lat="43.4663058" lon="12.3955638"><ele>667.2</ele><time>2026-04-26T14:43:34.038Z</time></trkpt><trkpt lat="43.4662474" lon="12.3954148"><ele>665.4000000000001</ele><time>2026-04-26T14:43:35.041Z</time></trkpt><trkpt lat="43.4661963" lon="12.3952788"><ele>663.6</ele><time>2026-04-26T14:43:36.026Z</time></trkpt><trkpt lat="43.4661581" lon="12.3951508"><ele>661.8</ele><time>2026-04-26T14:43:37.031Z</time></trkpt><trkpt lat="43.466124" lon="12.3950178"><ele>660.0</ele><time>2026-04-26T14:43:38.042Z</time></trkpt><trkpt lat="43.4660743" lon="12.3949065"><ele>660.0</ele><time>2026-04-26T14:43:39.037Z</time></trkpt><trkpt lat="43.4659996" lon="12.394807"><ele>660.0</ele><time>2026-04-26T14:43:40.031Z</time></trkpt><trkpt lat="43.4659093" lon="12.3946942"><ele>660.0</ele><time>2026-04-26T14:43:41.034Z</time></trkpt><trkpt lat="43.4658145" lon="12.3945765"><ele>660.0</ele><time>2026-04-26T14:43:42.038Z</time></trkpt><trkpt lat="43.4657244" lon="12.3944507"><ele>660.75</ele><time>2026-04-26T14:43:43.028Z</time></trkpt><trkpt lat="43.4656396" lon="12.394333"><ele>661.5</ele><time>2026-04-26T14:43:44.031Z</time></trkpt><trkpt lat="43.465551" lon="12.3942278"><ele>662.25</ele><time>2026-04-26T14:43:45.027Z</time></trkpt><trkpt lat="43.4654626" lon="12.3941252"><ele>663.0</ele><time>2026-04-26T14:43:46.037Z</time></trkpt><trkpt lat="43.4653801" lon="12.3940315"><ele>663.0</ele><time>2026-04-26T14:43:47.035Z</time></trkpt><trkpt lat="43.4652825" lon="12.3939517"><ele>663.0</ele><time>2026-04-26T14:43:48.03Z</time></trkpt><trkpt lat="43.4651762" lon="12.393899"><ele>663.0</ele><time>2026-04-26T14:43:49.029Z</time></trkpt><trkpt lat="43.4650745" lon="12.3938798"><ele>663.0</ele><time>2026-04-26T14:43:50.029Z</time></trkpt><trkpt lat="43.4649898" lon="12.393872"><ele>663.0</ele><time>2026-04-26T14:43:51.034Z</time></trkpt><trkpt lat="43.4649127" lon="12.3938478"><ele>667.6666666666666</ele><time>2026-04-26T14:43:52.035Z</time></trkpt><trkpt lat="43.4648507" lon="12.3937962"><ele>672.3333333333334</ele><time>2026-04-26T14:43:53.03Z</time></trkpt><trkpt lat="43.4648043" lon="12.3937223"><ele>677.0</ele><time>2026-04-26T14:43:54.029Z</time></trkpt><trkpt lat="43.4647539" lon="12.393642"><ele>681.6666666666667</ele><time>2026-04-26T14:43:55.033Z</time></trkpt><trkpt lat="43.4646871" lon="12.3935847"><ele>686.3333333333334</ele><time>2026-04-26T14:43:56.041Z</time></trkpt><trkpt lat="43.464601" lon="12.3935473"><ele>691.0</ele><time>2026-04-26T14:43:57.031Z</time></trkpt><trkpt lat="43.4645039" lon="12.3935334"><ele>692.0</ele><time>2026-04-26T14:43:58.029Z</time></trkpt><trkpt lat="43.4644152" lon="12.393543"><ele>693.0</ele><time>2026-04-26T14:43:59.03Z</time></trkpt><trkpt lat="43.4643371" lon="12.3935888"><ele>694.0</ele><time>2026-04-26T14:44:00.028Z</time></trkpt><trkpt lat="43.4642744" lon="12.3936671"><ele>695.0</ele><time>2026-04-26T14:44:01.03Z</time></trkpt><trkpt lat="43.4642279" lon="12.3937856"><ele>696.0</ele><time>2026-04-26T14:44:02.027Z</time></trkpt><trkpt lat="43.4641941" lon="12.3939119"><ele>690.25</ele><time>2026-04-26T14:44:03.032Z</time></trkpt><trkpt lat="43.4641544" lon="12.3940558"><ele>684.5</ele><time>2026-04-26T14:44:04.026Z</time></trkpt><trkpt lat="43.4641242" lon="12.3942113"><ele>678.75</ele><time>2026-04-26T14:44:05.034Z</time></trkpt><trkpt lat="43.4641053" lon="12.3943982"><ele>673.0</ele><time>2026-04-26T14:44:06.032Z</time></trkpt><trkpt lat="43.4640997" lon="12.3945866"><ele>672.4</ele><time>2026-04-26T14:44:07.035Z</time></trkpt><trkpt lat="43.4640978" lon="12.3947695"><ele>671.8</ele><time>2026-04-26T14:44:08.024Z</time></trkpt><trkpt lat="43.4641079" lon="12.3949324"><ele>671.2</ele><time>2026-04-26T14:44:09.03Z</time></trkpt><trkpt lat="43.4641252" lon="12.3950727"><ele>670.6</ele><time>2026-04-26T14:44:10.034Z</time></trkpt><trkpt lat="43.4641497" lon="12.3951893"><ele>670.0</ele><time>2026-04-26T14:44:11.035Z</time></trkpt><trkpt lat="43.464176" lon="12.3953005"><ele>670.0</ele><time>2026-04-26T14:44:12.022Z</time></trkpt><trkpt lat="43.4641887" lon="12.395396"><ele>670.0</ele><time>2026-04-26T14:44:13.035Z</time></trkpt><trkpt lat="43.4641895" lon="12.3954844"><ele>670.0</ele><time>2026-04-26T14:44:14.034Z</time></trkpt><trkpt lat="43.4641194" lon="12.395572"><ele>670.0</ele><time>2026-04-26T14:44:16.034Z</time></trkpt><trkpt lat="43.4640368" lon="12.3955259"><ele>670.0</ele><time>2026-04-26T14:44:18.036Z</time></trkpt><trkpt lat="43.4639942" lon="12.3954317"><ele>670.0</ele><time>2026-04-26T14:44:20.033Z</time></trkpt><trkpt lat="43.4639219" lon="12.395283"><ele>670.0</ele><time>2026-04-26T14:44:22.03Z</time></trkpt><trkpt lat="43.4638794" lon="12.395199"><ele>670.0</ele><time>2026-04-26T14:44:23.037Z</time></trkpt><trkpt lat="43.4638187" lon="12.3951027"><ele>670.0</ele><time>2026-04-26T14:44:24.043Z</time></trkpt><trkpt lat="43.4637523" lon="12.3950038"><ele>670.0</ele><time>2026-04-26T14:44:25.061Z</time></trkpt><trkpt lat="43.4636724" lon="12.3949039"><ele>670.0</ele><time>2026-04-26T14:44:26.052Z</time></trkpt><trkpt lat="43.4635833" lon="12.3948137"><ele>671.0</ele><time>2026-04-26T14:44:27.04Z</time></trkpt><trkpt lat="43.4634924" lon="12.3947283"><ele>672.0</ele><time>2026-04-26T14:44:28.036Z</time></trkpt><trkpt lat="43.4634125" lon="12.3946507"><ele>673.0</ele><time>2026-04-26T14:44:29.039Z</time></trkpt><trkpt lat="43.4633498" lon="12.3945874"><ele>674.0</ele><time>2026-04-26T14:44:30.036Z</time></trkpt><trkpt lat="43.4633056" lon="12.394523"><ele>675.0</ele><time>2026-04-26T14:44:31.039Z</time></trkpt><trkpt lat="43.4632811" lon="12.3944397"><ele>676.0</ele><time>2026-04-26T14:44:32.027Z</time></trkpt><trkpt lat="43.4632622" lon="12.3943488"><ele>678.8333333333334</ele><time>2026-04-26T14:44:33.041Z</time></trkpt><trkpt lat="43.4632362" lon="12.3942503"><ele>681.6666666666667</ele><time>2026-04-26T14:44:34.034Z</time></trkpt><trkpt lat="43.4632082" lon="12.3941408"><ele>684.5</ele><time>2026-04-26T14:44:35.043Z</time></trkpt><trkpt lat="43.4631748" lon="12.394031"><ele>687.3333333333334</ele><time>2026-04-26T14:44:36.03Z</time></trkpt><trkpt lat="43.4631495" lon="12.3939284"><ele>690.1666666666666</ele><time>2026-04-26T14:44:37.032Z</time></trkpt><trkpt lat="43.4631455" lon="12.3938244"><ele>693.0</ele><time>2026-04-26T14:44:38.032Z</time></trkpt><trkpt lat="43.4631602" lon="12.3937168"><ele>694.5999999999999</ele><time>2026-04-26T14:44:39.025Z</time></trkpt><trkpt lat="43.4631872" lon="12.3936078"><ele>696.1999999999999</ele><time>2026-04-26T14:44:40.033Z</time></trkpt><trkpt lat="43.4632266" lon="12.3934937"><ele>697.8</ele><time>2026-04-26T14:44:41.035Z</time></trkpt><trkpt lat="43.4632779" lon="12.3933792"><ele>699.4</ele><time>2026-04-26T14:44:42.031Z</time></trkpt><trkpt lat="43.4633305" lon="12.3932472"><ele>701.0</ele><time>2026-04-26T14:44:43.028Z</time></trkpt><trkpt lat="43.4633752" lon="12.3931101"><ele>702.5</ele><time>2026-04-26T14:44:44.035Z</time></trkpt><trkpt lat="43.463402" lon="12.3929862"><ele>704.0</ele><time>2026-04-26T14:44:45.039Z</time></trkpt><trkpt lat="43.4634089" lon="12.392891"><ele>705.5</ele><time>2026-04-26T14:44:46.032Z</time></trkpt><trkpt lat="43.4633948" lon="12.3927948"><ele>707.0</ele><time>2026-04-26T14:44:47.034Z</time></trkpt><trkpt lat="43.4633612" lon="12.3926857"><ele>708.5</ele><time>2026-04-26T14:44:48.038Z</time></trkpt><trkpt lat="43.4633152" lon="12.3925725"><ele>710.0</ele><time>2026-04-26T14:44:49.042Z</time></trkpt><trkpt lat="43.4632657" lon="12.3924549"><ele>710.0</ele><time>2026-04-26T14:44:50.026Z</time></trkpt><trkpt lat="43.463225" lon="12.3923454"><ele>710.0</ele><time>2026-04-26T14:44:51.03Z</time></trkpt><trkpt lat="43.4631876" lon="12.3922359"><ele>710.0</ele><time>2026-04-26T14:44:52.033Z</time></trkpt><trkpt lat="43.4631542" lon="12.3921294"><ele>710.0</ele><time>2026-04-26T14:44:53.036Z</time></trkpt><trkpt lat="43.4631269" lon="12.39202"><ele>710.0</ele><time>2026-04-26T14:44:54.046Z</time></trkpt><trkpt lat="43.4631066" lon="12.3918974"><ele>710.0</ele><time>2026-04-26T14:44:55.048Z</time></trkpt><trkpt lat="43.4631041" lon="12.3917697"><ele>712.4</ele><time>2026-04-26T14:44:56.032Z</time></trkpt><trkpt lat="43.4631074" lon="12.3916412"><ele>714.8</ele><time>2026-04-26T14:44:57.042Z</time></trkpt><trkpt lat="43.463107" lon="12.3915029"><ele>717.2</ele><time>2026-04-26T14:44:58.038Z</time></trkpt><trkpt lat="43.4630939" lon="12.391355"><ele>719.6</ele><time>2026-04-26T14:44:59.063Z</time></trkpt><trkpt lat="43.4630784" lon="12.3912158"><ele>722.0</ele><time>2026-04-26T14:45:00.029Z</time></trkpt><trkpt lat="43.4630562" lon="12.3910825"><ele>720.4000000000001</ele><time>2026-04-26T14:45:01.04Z</time></trkpt><trkpt lat="43.4630312" lon="12.3909685"><ele>718.8000000000001</ele><time>2026-04-26T14:45:02.031Z</time></trkpt><trkpt lat="43.4629915" lon="12.390861"><ele>717.2</ele><time>2026-04-26T14:45:03.035Z</time></trkpt><trkpt lat="43.462926" lon="12.3907572"><ele>715.6</ele><time>2026-04-26T14:45:04.024Z</time></trkpt><trkpt lat="43.4628331" lon="12.3906702"><ele>714.0</ele><time>2026-04-26T14:45:05.024Z</time></trkpt><trkpt lat="43.4627286" lon="12.3905862"><ele>714.0</ele><time>2026-04-26T14:45:06.03Z</time></trkpt><trkpt lat="43.4626199" lon="12.3905153"><ele>714.0</ele><time>2026-04-26T14:45:07.045Z</time></trkpt><trkpt lat="43.4625161" lon="12.3904603"><ele>714.0</ele><time>2026-04-26T14:45:08.031Z</time></trkpt><trkpt lat="43.4624212" lon="12.3904093"><ele>714.0</ele><time>2026-04-26T14:45:09.029Z</time></trkpt><trkpt lat="43.4623231" lon="12.3903679"><ele>714.0</ele><time>2026-04-26T14:45:10.034Z</time></trkpt><trkpt lat="43.4622254" lon="12.3903587"><ele>714.5</ele><time>2026-04-26T14:45:11.031Z</time></trkpt><trkpt lat="43.4621331" lon="12.3903749"><ele>715.0</ele><time>2026-04-26T14:45:12.031Z</time></trkpt><trkpt lat="43.462041" lon="12.3903883"><ele>715.5</ele><time>2026-04-26T14:45:13.035Z</time></trkpt><trkpt lat="43.4619547" lon="12.39039"><ele>716.0</ele><time>2026-04-26T14:45:14.029Z</time></trkpt><trkpt lat="43.4618766" lon="12.3903713"><ele>716.5</ele><time>2026-04-26T14:45:15.041Z</time></trkpt><trkpt lat="43.4617946" lon="12.3903365"><ele>717.0</ele><time>2026-04-26T14:45:16.033Z</time></trkpt><trkpt lat="43.4617082" lon="12.3902919"><ele>717.0</ele><time>2026-04-26T14:45:17.038Z</time></trkpt><trkpt lat="43.4616263" lon="12.3902548"><ele>717.0</ele><time>2026-04-26T14:45:18.038Z</time></trkpt><trkpt lat="43.4615547" lon="12.3902168"><ele>717.0</ele><time>2026-04-26T14:45:19.035Z</time></trkpt><trkpt lat="43.4614643" lon="12.3901727"><ele>717.0</ele><time>2026-04-26T14:45:21.042Z</time></trkpt><trkpt lat="43.4613883" lon="12.3901991"><ele>717.0</ele><time>2026-04-26T14:45:23.035Z</time></trkpt><trkpt lat="43.461329" lon="12.3902344"><ele>717.0</ele><time>2026-04-26T14:45:24.037Z</time></trkpt><trkpt lat="43.4612583" lon="12.390285"><ele>716.8</ele><time>2026-04-26T14:45:25.041Z</time></trkpt><trkpt lat="43.461175" lon="12.3903389"><ele>716.6</ele><time>2026-04-26T14:45:26.04Z</time></trkpt><trkpt lat="43.4610822" lon="12.3904012"><ele>716.4</ele><time>2026-04-26T14:45:27.036Z</time></trkpt><trkpt lat="43.460978" lon="12.39046"><ele>716.1999999999999</ele><time>2026-04-26T14:45:28.038Z</time></trkpt><trkpt lat="43.4608648" lon="12.3905232"><ele>716.0</ele><time>2026-04-26T14:45:29.042Z</time></trkpt><trkpt lat="43.4607454" lon="12.3905961"><ele>716.0</ele><time>2026-04-26T14:45:30.03Z</time></trkpt><trkpt lat="43.4606207" lon="12.3906703"><ele>716.0</ele><time>2026-04-26T14:45:31.034Z</time></trkpt><trkpt lat="43.4604963" lon="12.3907447"><ele>716.0</ele><time>2026-04-26T14:45:32.034Z</time></trkpt><trkpt lat="43.4603661" lon="12.390823"><ele>716.0</ele><time>2026-04-26T14:45:33.025Z</time></trkpt><trkpt lat="43.460236" lon="12.3909046"><ele>732.0</ele><time>2026-04-26T14:45:34.022Z</time></trkpt><trkpt lat="43.4596091" lon="12.3913012"><ele>732.5</ele><time>2026-04-26T14:45:39.039Z</time></trkpt><trkpt lat="43.4595043" lon="12.3913659"><ele>733.0</ele><time>2026-04-26T14:45:40.035Z</time></trkpt><trkpt lat="43.4593994" lon="12.3914322"><ele>733.5</ele><time>2026-04-26T14:45:41.029Z</time></trkpt><trkpt lat="43.4592927" lon="12.3915136"><ele>734.0</ele><time>2026-04-26T14:45:42.033Z</time></trkpt><trkpt lat="43.4591884" lon="12.3916083"><ele>734.0</ele><time>2026-04-26T14:45:43.04Z</time></trkpt><trkpt lat="43.4590879" lon="12.3917126"><ele>734.0</ele><time>2026-04-26T14:45:44.03Z</time></trkpt><trkpt lat="43.4589897" lon="12.3918137"><ele>734.0</ele><time>2026-04-26T14:45:45.034Z</time></trkpt><trkpt lat="43.458894" lon="12.3919114"><ele>734.0</ele><time>2026-04-26T14:45:46.045Z</time></trkpt><trkpt lat="43.458797" lon="12.3920101"><ele>731.5</ele><time>2026-04-26T14:45:47.049Z</time></trkpt><trkpt lat="43.4587009" lon="12.3921045"><ele>729.0</ele><time>2026-04-26T14:45:48.033Z</time></trkpt><trkpt lat="43.4586007" lon="12.3921995"><ele>726.5</ele><time>2026-04-26T14:45:49.032Z</time></trkpt><trkpt lat="43.4584987" lon="12.3922958"><ele>724.0</ele><time>2026-04-26T14:45:50.063Z</time></trkpt><trkpt lat="43.4583937" lon="12.3923973"><ele>723.5</ele><time>2026-04-26T14:45:51.046Z</time></trkpt><trkpt lat="43.4582834" lon="12.3925065"><ele>723.0</ele><time>2026-04-26T14:45:52.03Z</time></trkpt><trkpt lat="43.4581826" lon="12.3926186"><ele>722.5</ele><time>2026-04-26T14:45:53.04Z</time></trkpt><trkpt lat="43.4580919" lon="12.3927291"><ele>722.0</ele><time>2026-04-26T14:45:54.03Z</time></trkpt><trkpt lat="43.45801" lon="12.3928422"><ele>721.25</ele><time>2026-04-26T14:45:55.033Z</time></trkpt><trkpt lat="43.4579411" lon="12.3929759"><ele>720.5</ele><time>2026-04-26T14:45:56.052Z</time></trkpt><trkpt lat="43.4578925" lon="12.3931215"><ele>719.75</ele><time>2026-04-26T14:45:57.052Z</time></trkpt><trkpt lat="43.4578772" lon="12.3932737"><ele>719.0</ele><time>2026-04-26T14:45:58.023Z</time></trkpt><trkpt lat="43.4578809" lon="12.3934268"><ele>717.25</ele><time>2026-04-26T14:45:59.025Z</time></trkpt><trkpt lat="43.457904" lon="12.3935979"><ele>715.5</ele><time>2026-04-26T14:46:00.032Z</time></trkpt><trkpt lat="43.4579322" lon="12.3937757"><ele>713.75</ele><time>2026-04-26T14:46:01.023Z</time></trkpt><trkpt lat="43.4579606" lon="12.3939709"><ele>712.0</ele><time>2026-04-26T14:46:02.032Z</time></trkpt><trkpt lat="43.4579888" lon="12.3941654"><ele>712.0</ele><time>2026-04-26T14:46:03.036Z</time></trkpt><trkpt lat="43.4580109" lon="12.3943463"><ele>712.0</ele><time>2026-04-26T14:46:04.031Z</time></trkpt><trkpt lat="43.4580213" lon="12.3945216"><ele>712.0</ele><time>2026-04-26T14:46:05.037Z</time></trkpt><trkpt lat="43.4579959" lon="12.3946881"><ele>712.0</ele><time>2026-04-26T14:46:06.039Z</time></trkpt><trkpt lat="43.4579291" lon="12.3948327"><ele>716.5</ele><time>2026-04-26T14:46:07.039Z</time></trkpt><trkpt lat="43.4578239" lon="12.394962"><ele>721.0</ele><time>2026-04-26T14:46:08.049Z</time></trkpt><trkpt lat="43.4576974" lon="12.3950447"><ele>725.5</ele><time>2026-04-26T14:46:09.061Z</time></trkpt><trkpt lat="43.4575517" lon="12.3951147"><ele>730.0</ele><time>2026-04-26T14:46:10.04Z</time></trkpt><trkpt lat="43.4573985" lon="12.3951832"><ele>730.0</ele><time>2026-04-26T14:46:11.037Z</time></trkpt><trkpt lat="43.4572467" lon="12.3952567"><ele>730.0</ele><time>2026-04-26T14:46:12.046Z</time></trkpt><trkpt lat="43.4571072" lon="12.3953263"><ele>730.0</ele><time>2026-04-26T14:46:13.062Z</time></trkpt><trkpt lat="43.456972" lon="12.3954024"><ele>730.0</ele><time>2026-04-26T14:46:14.05Z</time></trkpt><trkpt lat="43.4568424" lon="12.3954723"><ele>730.0</ele><time>2026-04-26T14:46:15.029Z</time></trkpt><trkpt lat="43.45672" lon="12.3955412"><ele>730.0</ele><time>2026-04-26T14:46:16.051Z</time></trkpt><trkpt lat="43.4566151" lon="12.3956141"><ele>730.0</ele><time>2026-04-26T14:46:17.041Z</time></trkpt><trkpt lat="43.4565278" lon="12.3956933"><ele>725.4</ele><time>2026-04-26T14:46:18.04Z</time></trkpt><trkpt lat="43.4564554" lon="12.3957675"><ele>720.8</ele><time>2026-04-26T14:46:19.046Z</time></trkpt><trkpt lat="43.4563944" lon="12.3958356"><ele>716.2</ele><time>2026-04-26T14:46:20.053Z</time></trkpt><trkpt lat="43.4563042" lon="12.3959341"><ele>711.6</ele><time>2026-04-26T14:46:22.045Z</time></trkpt><trkpt lat="43.4562455" lon="12.3959832"><ele>707.0</ele><time>2026-04-26T14:46:25.055Z</time></trkpt><trkpt lat="43.4561735" lon="12.3960999"><ele>706.4000000000001</ele><time>2026-04-26T14:46:51.035Z</time></trkpt><trkpt lat="43.4561295" lon="12.396172"><ele>705.8000000000001</ele><time>2026-04-26T14:46:52.032Z</time></trkpt><trkpt lat="43.4560756" lon="12.3962555"><ele>705.2</ele><time>2026-04-26T14:46:53.035Z</time></trkpt><trkpt lat="43.4560016" lon="12.3963491"><ele>704.6</ele><time>2026-04-26T14:46:54.031Z</time></trkpt><trkpt lat="43.4559135" lon="12.3964574"><ele>704.0</ele><time>2026-04-26T14:46:55.037Z</time></trkpt><trkpt lat="43.455813" lon="12.3965749"><ele>704.0</ele><time>2026-04-26T14:46:56.028Z</time></trkpt><trkpt lat="43.455698" lon="12.3967056"><ele>704.0</ele><time>2026-04-26T14:46:57.037Z</time></trkpt><trkpt lat="43.455577" lon="12.3968492"><ele>704.0</ele><time>2026-04-26T14:46:58.031Z</time></trkpt><trkpt lat="43.4554543" lon="12.3970013"><ele>702.3333333333333</ele><time>2026-04-26T14:46:59.034Z</time></trkpt><trkpt lat="43.4553186" lon="12.3971608"><ele>700.6666666666666</ele><time>2026-04-26T14:47:00.037Z</time></trkpt><trkpt lat="43.4551788" lon="12.3973332"><ele>699.0</ele><time>2026-04-26T14:47:01.063Z</time></trkpt><trkpt lat="43.455034" lon="12.3975087"><ele>699.0</ele><time>2026-04-26T14:47:02.025Z</time></trkpt><trkpt lat="43.4548973" lon="12.3976856"><ele>699.0</ele><time>2026-04-26T14:47:03.038Z</time></trkpt><trkpt lat="43.4547739" lon="12.3978698"><ele>699.0</ele><time>2026-04-26T14:47:04.026Z</time></trkpt><trkpt lat="43.4546679" lon="12.3980829"><ele>692.0</ele><time>2026-04-26T14:47:05.038Z</time></trkpt><trkpt lat="43.4545712" lon="12.398307"><ele>685.0</ele><time>2026-04-26T14:47:06.032Z</time></trkpt><trkpt lat="43.454475" lon="12.3985419"><ele>678.0</ele><time>2026-04-26T14:47:07.034Z</time></trkpt><trkpt lat="43.4543771" lon="12.3987656"><ele>681.3333333333334</ele><time>2026-04-26T14:47:08.023Z</time></trkpt><trkpt lat="43.4542841" lon="12.3989644"><ele>684.6666666666667</ele><time>2026-04-26T14:47:09.028Z</time></trkpt><trkpt lat="43.4541821" lon="12.3991561"><ele>688.0</ele><time>2026-04-26T14:47:10.027Z</time></trkpt><trkpt lat="43.45407" lon="12.3993423"><ele>688.0</ele><time>2026-04-26T14:47:11.042Z</time></trkpt><trkpt lat="43.4539434" lon="12.3995105"><ele>688.0</ele><time>2026-04-26T14:47:12.038Z</time></trkpt><trkpt lat="43.4538032" lon="12.3996687"><ele>688.0</ele><time>2026-04-26T14:47:13.038Z</time></trkpt><trkpt lat="43.4536609" lon="12.3998153"><ele>685.6666666666667</ele><time>2026-04-26T14:47:14.049Z</time></trkpt><trkpt lat="43.4535169" lon="12.3999438"><ele>683.3333333333334</ele><time>2026-04-26T14:47:15.037Z</time></trkpt><trkpt lat="43.4533712" lon="12.4000544"><ele>681.0</ele><time>2026-04-26T14:47:16.036Z</time></trkpt><trkpt lat="43.4532325" lon="12.4001615"><ele>681.0</ele><time>2026-04-26T14:47:17.037Z</time></trkpt><trkpt lat="43.4530995" lon="12.4002639"><ele>681.0</ele><time>2026-04-26T14:47:18.042Z</time></trkpt><trkpt lat="43.4529684" lon="12.4003738"><ele>681.0</ele><time>2026-04-26T14:47:19.042Z</time></trkpt><trkpt lat="43.4528448" lon="12.4005162"><ele>681.0</ele><time>2026-04-26T14:47:20.027Z</time></trkpt><trkpt lat="43.4527327" lon="12.4006843"><ele>681.0</ele><time>2026-04-26T14:47:21.036Z</time></trkpt><trkpt lat="43.4526368" lon="12.4008722"><ele>681.0</ele><time>2026-04-26T14:47:22.052Z</time></trkpt><trkpt lat="43.4525619" lon="12.4010889"><ele>681.0</ele><time>2026-04-26T14:47:23.039Z</time></trkpt><trkpt lat="43.4524931" lon="12.4013039"><ele>681.0</ele><time>2026-04-26T14:47:24.041Z</time></trkpt><trkpt lat="43.4524233" lon="12.4015133"><ele>681.0</ele><time>2026-04-26T14:47:25.054Z</time></trkpt><trkpt lat="43.4523398" lon="12.4017051"><ele>678.6666666666666</ele><time>2026-04-26T14:47:26.047Z</time></trkpt><trkpt lat="43.4522413" lon="12.4018858"><ele>676.3333333333333</ele><time>2026-04-26T14:47:27.038Z</time></trkpt><trkpt lat="43.4521261" lon="12.4020524"><ele>674.0</ele><time>2026-04-26T14:47:28.038Z</time></trkpt><trkpt lat="43.4519955" lon="12.4022279"><ele>673.6666666666666</ele><time>2026-04-26T14:47:29.046Z</time></trkpt><trkpt lat="43.4518648" lon="12.4024072"><ele>673.3333333333334</ele><time>2026-04-26T14:47:30.036Z</time></trkpt><trkpt lat="43.4517496" lon="12.4025921"><ele>673.0</ele><time>2026-04-26T14:47:31.026Z</time></trkpt><trkpt lat="43.4516451" lon="12.402778"><ele>673.0</ele><time>2026-04-26T14:47:32.03Z</time></trkpt><trkpt lat="43.4515494" lon="12.4029844"><ele>673.0</ele><time>2026-04-26T14:47:33.038Z</time></trkpt><trkpt lat="43.4514558" lon="12.4031989"><ele>673.0</ele><time>2026-04-26T14:47:34.027Z</time></trkpt><trkpt lat="43.451362" lon="12.4034176"><ele>672.0</ele><time>2026-04-26T14:47:35.039Z</time></trkpt><trkpt lat="43.4512629" lon="12.4036439"><ele>671.0</ele><time>2026-04-26T14:47:36.044Z</time></trkpt><trkpt lat="43.4511565" lon="12.4038763"><ele>670.0</ele><time>2026-04-26T14:47:37.04Z</time></trkpt><trkpt lat="43.4510467" lon="12.4041103"><ele>666.0</ele><time>2026-04-26T14:47:38.038Z</time></trkpt><trkpt lat="43.4509332" lon="12.4043515"><ele>662.0</ele><time>2026-04-26T14:47:39.031Z</time></trkpt><trkpt lat="43.4508184" lon="12.4046018"><ele>658.0</ele><time>2026-04-26T14:47:40.03Z</time></trkpt><trkpt lat="43.4507046" lon="12.4048574"><ele>655.0</ele><time>2026-04-26T14:47:41.036Z</time></trkpt><trkpt lat="43.4505884" lon="12.4051211"><ele>652.0</ele><time>2026-04-26T14:47:42.05Z</time></trkpt><trkpt lat="43.4504712" lon="12.4053821"><ele>649.0</ele><time>2026-04-26T14:47:43.037Z</time></trkpt><trkpt lat="43.4503537" lon="12.405639"><ele>647.0</ele><time>2026-04-26T14:47:44.027Z</time></trkpt><trkpt lat="43.4502373" lon="12.40589"><ele>645.0</ele><time>2026-04-26T14:47:45.031Z</time></trkpt><trkpt lat="43.4501261" lon="12.4061303"><ele>643.0</ele><time>2026-04-26T14:47:46.049Z</time></trkpt><trkpt lat="43.4500237" lon="12.406366"><ele>642.0</ele><time>2026-04-26T14:47:47.042Z</time></trkpt><trkpt lat="43.4499201" lon="12.4066003"><ele>641.0</ele><time>2026-04-26T14:47:48.038Z</time></trkpt><trkpt lat="43.4498157" lon="12.4068333"><ele>640.0</ele><time>2026-04-26T14:47:49.033Z</time></trkpt><trkpt lat="43.4497143" lon="12.4070575"><ele>636.0</ele><time>2026-04-26T14:47:50.038Z</time></trkpt><trkpt lat="43.4496122" lon="12.4072817"><ele>632.0</ele><time>2026-04-26T14:47:51.039Z</time></trkpt><trkpt lat="43.4495125" lon="12.4075048"><ele>628.0</ele><time>2026-04-26T14:47:52.034Z</time></trkpt><trkpt lat="43.4494078" lon="12.4077344"><ele>628.0</ele><time>2026-04-26T14:47:53.037Z</time></trkpt><trkpt lat="43.4493041" lon="12.4079728"><ele>628.0</ele><time>2026-04-26T14:47:54.038Z</time></trkpt><trkpt lat="43.4491965" lon="12.4082071"><ele>628.0</ele><time>2026-04-26T14:47:55.024Z</time></trkpt><trkpt lat="43.4490954" lon="12.4084344"><ele>628.6666666666667</ele><time>2026-04-26T14:47:56.028Z</time></trkpt><trkpt lat="43.4489935" lon="12.4086417"><ele>629.3333333333334</ele><time>2026-04-26T14:47:57.044Z</time></trkpt><trkpt lat="43.4488905" lon="12.4088032"><ele>630.0</ele><time>2026-04-26T14:47:58.033Z</time></trkpt><trkpt lat="43.4487726" lon="12.4089149"><ele>627.75</ele><time>2026-04-26T14:47:59.032Z</time></trkpt><trkpt lat="43.448645" lon="12.408963"><ele>625.5</ele><time>2026-04-26T14:48:00.043Z</time></trkpt><trkpt lat="43.4485099" lon="12.4089449"><ele>623.25</ele><time>2026-04-26T14:48:01.046Z</time></trkpt><trkpt lat="43.4483836" lon="12.4088712"><ele>621.0</ele><time>2026-04-26T14:48:02.027Z</time></trkpt><trkpt lat="43.4482542" lon="12.4087801"><ele>621.0</ele><time>2026-04-26T14:48:03.062Z</time></trkpt><trkpt lat="43.4481244" lon="12.4087261"><ele>621.0</ele><time>2026-04-26T14:48:04.036Z</time></trkpt><trkpt lat="43.4479892" lon="12.4087117"><ele>621.0</ele><time>2026-04-26T14:48:05.04Z</time></trkpt><trkpt lat="43.4478642" lon="12.4087492"><ele>621.0</ele><time>2026-04-26T14:48:06.04Z</time></trkpt><trkpt lat="43.4477688" lon="12.4088369"><ele>617.5</ele><time>2026-04-26T14:48:07.061Z</time></trkpt><trkpt lat="43.4477024" lon="12.4089795"><ele>614.0</ele><time>2026-04-26T14:48:08.038Z</time></trkpt><trkpt lat="43.4476988" lon="12.4091419"><ele>610.5</ele><time>2026-04-26T14:48:09.035Z</time></trkpt><trkpt lat="43.4477205" lon="12.4093258"><ele>607.0</ele><time>2026-04-26T14:48:10.034Z</time></trkpt><trkpt lat="43.4477787" lon="12.4095123"><ele>606.3333333333334</ele><time>2026-04-26T14:48:11.039Z</time></trkpt><trkpt lat="43.4478535" lon="12.4097111"><ele>605.6666666666666</ele><time>2026-04-26T14:48:12.045Z</time></trkpt><trkpt lat="43.4479517" lon="12.4099183"><ele>605.0</ele><time>2026-04-26T14:48:13.033Z</time></trkpt><trkpt lat="43.4480608" lon="12.4101154"><ele>605.0</ele><time>2026-04-26T14:48:14.026Z</time></trkpt><trkpt lat="43.4481718" lon="12.4102959"><ele>605.0</ele><time>2026-04-26T14:48:15.037Z</time></trkpt><trkpt lat="43.448274" lon="12.4104649"><ele>605.0</ele><time>2026-04-26T14:48:16.038Z</time></trkpt><trkpt lat="43.4483785" lon="12.4106293"><ele>601.25</ele><time>2026-04-26T14:48:17.038Z</time></trkpt><trkpt lat="43.448483" lon="12.4107788"><ele>597.5</ele><time>2026-04-26T14:48:18.032Z</time></trkpt><trkpt lat="43.4485927" lon="12.4108681"><ele>593.75</ele><time>2026-04-26T14:48:19.036Z</time></trkpt><trkpt lat="43.4487263" lon="12.4108985"><ele>590.0</ele><time>2026-04-26T14:48:20.039Z</time></trkpt><trkpt lat="43.448874" lon="12.4108877"><ele>590.0</ele><time>2026-04-26T14:48:21.033Z</time></trkpt><trkpt lat="43.4490244" lon="12.4108717"><ele>590.0</ele><time>2026-04-26T14:48:22.034Z</time></trkpt><trkpt lat="43.4491786" lon="12.4108934"><ele>590.0</ele><time>2026-04-26T14:48:23.032Z</time></trkpt><trkpt lat="43.4493355" lon="12.4109353"><ele>590.0</ele><time>2026-04-26T14:48:24.037Z</time></trkpt><trkpt lat="43.4494986" lon="12.4110103"><ele>590.0</ele><time>2026-04-26T14:48:25.067Z</time></trkpt><trkpt lat="43.4496631" lon="12.411103"><ele>590.0</ele><time>2026-04-26T14:48:26.048Z</time></trkpt><trkpt lat="43.4498325" lon="12.4112004"><ele>590.6666666666666</ele><time>2026-04-26T14:48:27.044Z</time></trkpt><trkpt lat="43.4500002" lon="12.411288"><ele>591.3333333333334</ele><time>2026-04-26T14:48:28.035Z</time></trkpt><trkpt lat="43.4501538" lon="12.4113611"><ele>592.0</ele><time>2026-04-26T14:48:29.039Z</time></trkpt><trkpt lat="43.4502918" lon="12.4114179"><ele>584.0</ele><time>2026-04-26T14:48:30.04Z</time></trkpt><trkpt lat="43.4504366" lon="12.4114434"><ele>576.0</ele><time>2026-04-26T14:48:31.037Z</time></trkpt><trkpt lat="43.450589" lon="12.4114383"><ele>568.0</ele><time>2026-04-26T14:48:32.035Z</time></trkpt><trkpt lat="43.450758" lon="12.4113802"><ele>573.6666666666667</ele><time>2026-04-26T14:48:33.032Z</time></trkpt><trkpt lat="43.4509228" lon="12.4112944"><ele>579.3333333333334</ele><time>2026-04-26T14:48:34.031Z</time></trkpt><trkpt lat="43.451102" lon="12.4112017"><ele>585.0</ele><time>2026-04-26T14:48:35.04Z</time></trkpt><trkpt lat="43.4512831" lon="12.4111234"><ele>578.0</ele><time>2026-04-26T14:48:36.029Z</time></trkpt><trkpt lat="43.4514531" lon="12.4110523"><ele>571.0</ele><time>2026-04-26T14:48:37.032Z</time></trkpt><trkpt lat="43.451622" lon="12.4109649"><ele>564.0</ele><time>2026-04-26T14:48:38.033Z</time></trkpt><trkpt lat="43.4517856" lon="12.4108811"><ele>564.0</ele><time>2026-04-26T14:48:39.034Z</time></trkpt><trkpt lat="43.4519425" lon="12.4108131"><ele>564.0</ele><time>2026-04-26T14:48:40.035Z</time></trkpt><trkpt lat="43.4520924" lon="12.4107659"><ele>564.0</ele><time>2026-04-26T14:48:41.037Z</time></trkpt><trkpt lat="43.452241" lon="12.4107488"><ele>556.6666666666666</ele><time>2026-04-26T14:48:42.029Z</time></trkpt><trkpt lat="43.4523859" lon="12.4107912"><ele>549.3333333333333</ele><time>2026-04-26T14:48:43.035Z</time></trkpt><trkpt lat="43.4525245" lon="12.4108839"><ele>542.0</ele><time>2026-04-26T14:48:44.035Z</time></trkpt><trkpt lat="43.4526454" lon="12.4110201"><ele>542.0</ele><time>2026-04-26T14:48:45.042Z</time></trkpt><trkpt lat="43.4527558" lon="12.4111726"><ele>542.0</ele><time>2026-04-26T14:48:46.029Z</time></trkpt><trkpt lat="43.4528398" lon="12.4113526"><ele>542.0</ele><time>2026-04-26T14:48:47.037Z</time></trkpt><trkpt lat="43.4528793" lon="12.4115548"><ele>541.75</ele><time>2026-04-26T14:48:48.034Z</time></trkpt><trkpt lat="43.4529046" lon="12.4117477"><ele>541.5</ele><time>2026-04-26T14:48:49.033Z</time></trkpt><trkpt lat="43.4529434" lon="12.411935"><ele>541.25</ele><time>2026-04-26T14:48:50.039Z</time></trkpt><trkpt lat="43.4530123" lon="12.4121082"><ele>541.0</ele><time>2026-04-26T14:48:51.059Z</time></trkpt><trkpt lat="43.4531073" lon="12.4122714"><ele>535.75</ele><time>2026-04-26T14:48:52.028Z</time></trkpt><trkpt lat="43.4532114" lon="12.4124317"><ele>530.5</ele><time>2026-04-26T14:48:53.028Z</time></trkpt><trkpt lat="43.4533098" lon="12.4125771"><ele>525.25</ele><time>2026-04-26T14:48:54.035Z</time></trkpt><trkpt lat="43.4533908" lon="12.4127316"><ele>520.0</ele><time>2026-04-26T14:48:55.031Z</time></trkpt><trkpt lat="43.453436" lon="12.4129151"><ele>519.3333333333334</ele><time>2026-04-26T14:48:56.033Z</time></trkpt><trkpt lat="43.4534328" lon="12.4131299"><ele>518.6666666666666</ele><time>2026-04-26T14:48:57.032Z</time></trkpt><trkpt lat="43.4534221" lon="12.4133573"><ele>518.0</ele><time>2026-04-26T14:48:58.04Z</time></trkpt><trkpt lat="43.4533977" lon="12.4135755"><ele>518.0</ele><time>2026-04-26T14:48:59.035Z</time></trkpt><trkpt lat="43.4533703" lon="12.4137722"><ele>518.0</ele><time>2026-04-26T14:49:00.029Z</time></trkpt><trkpt lat="43.4533406" lon="12.4139418"><ele>518.0</ele><time>2026-04-26T14:49:01.042Z</time></trkpt><trkpt lat="43.4532939" lon="12.4140863"><ele>518.0</ele><time>2026-04-26T14:49:02.033Z</time></trkpt><trkpt lat="43.453211" lon="12.4141861"><ele>516.0</ele><time>2026-04-26T14:49:03.031Z</time></trkpt><trkpt lat="43.4531149" lon="12.4141927"><ele>514.0</ele><time>2026-04-26T14:49:04.042Z</time></trkpt><trkpt lat="43.453015" lon="12.4141503"><ele>511.99999999999994</ele><time>2026-04-26T14:49:05.043Z</time></trkpt><trkpt lat="43.4529173" lon="12.4140713"><ele>510.0</ele><time>2026-04-26T14:49:06.055Z</time></trkpt><trkpt lat="43.4528082" lon="12.4140112"><ele>508.0</ele><time>2026-04-26T14:49:07.037Z</time></trkpt><trkpt lat="43.4526943" lon="12.4139895"><ele>508.0</ele><time>2026-04-26T14:49:08.058Z</time></trkpt><trkpt lat="43.4525665" lon="12.41402"><ele>508.0</ele><time>2026-04-26T14:49:09.051Z</time></trkpt><trkpt lat="43.4524389" lon="12.4140849"><ele>508.0</ele><time>2026-04-26T14:49:10.047Z</time></trkpt><trkpt lat="43.4523237" lon="12.4141657"><ele>508.0</ele><time>2026-04-26T14:49:11.034Z</time></trkpt><trkpt lat="43.4522229" lon="12.4142521"><ele>508.0</ele><time>2026-04-26T14:49:12.035Z</time></trkpt><trkpt lat="43.4521428" lon="12.4143491"><ele>507.99999999999994</ele><time>2026-04-26T14:49:13.034Z</time></trkpt><trkpt lat="43.4520953" lon="12.4144626"><ele>507.99999999999994</ele><time>2026-04-26T14:49:14.04Z</time></trkpt><trkpt lat="43.4520909" lon="12.4146116"><ele>508.0</ele><time>2026-04-26T14:49:15.033Z</time></trkpt><trkpt lat="43.4521281" lon="12.4147561"><ele>508.0</ele><time>2026-04-26T14:49:16.025Z</time></trkpt><trkpt lat="43.4522153" lon="12.4148912"><ele>503.0</ele><time>2026-04-26T14:49:17.034Z</time></trkpt><trkpt lat="43.4523537" lon="12.4150262"><ele>498.0</ele><time>2026-04-26T14:49:18.035Z</time></trkpt><trkpt lat="43.4524967" lon="12.4151433"><ele>493.0</ele><time>2026-04-26T14:49:19.037Z</time></trkpt><trkpt lat="43.452654" lon="12.41525"><ele>493.0</ele><time>2026-04-26T14:49:20.028Z</time></trkpt><trkpt lat="43.4528175" lon="12.4153354"><ele>493.0</ele><time>2026-04-26T14:49:21.028Z</time></trkpt><trkpt lat="43.4529743" lon="12.4154049"><ele>493.0</ele><time>2026-04-26T14:49:22.031Z</time></trkpt><trkpt lat="43.4531253" lon="12.4154541"><ele>493.25</ele><time>2026-04-26T14:49:23.036Z</time></trkpt><trkpt lat="43.4532646" lon="12.4154916"><ele>493.5</ele><time>2026-04-26T14:49:24.022Z</time></trkpt><trkpt lat="43.4534009" lon="12.4155128"><ele>493.75</ele><time>2026-04-26T14:49:25.039Z</time></trkpt><trkpt lat="43.4535384" lon="12.4155013"><ele>494.0</ele><time>2026-04-26T14:49:26.016Z</time></trkpt><trkpt lat="43.4536912" lon="12.4154662"><ele>488.66666666666663</ele><time>2026-04-26T14:49:27.047Z</time></trkpt><trkpt lat="43.453846" lon="12.4154165"><ele>483.33333333333337</ele><time>2026-04-26T14:49:28.034Z</time></trkpt><trkpt lat="43.4540058" lon="12.4153654"><ele>478.0</ele><time>2026-04-26T14:49:29.036Z</time></trkpt><trkpt lat="43.4541657" lon="12.415322"><ele>478.0</ele><time>2026-04-26T14:49:30.043Z</time></trkpt><trkpt lat="43.4543235" lon="12.415273"><ele>478.0</ele><time>2026-04-26T14:49:31.048Z</time></trkpt><trkpt lat="43.4544727" lon="12.4152302"><ele>478.0</ele><time>2026-04-26T14:49:32.028Z</time></trkpt><trkpt lat="43.4546226" lon="12.4152013"><ele>477.5</ele><time>2026-04-26T14:49:33.045Z</time></trkpt><trkpt lat="43.4547618" lon="12.4152042"><ele>477.0</ele><time>2026-04-26T14:49:34.039Z</time></trkpt><trkpt lat="43.4548955" lon="12.4152476"><ele>476.5</ele><time>2026-04-26T14:49:35.044Z</time></trkpt><trkpt lat="43.455028" lon="12.4153347"><ele>476.0</ele><time>2026-04-26T14:49:36.044Z</time></trkpt><trkpt lat="43.4551489" lon="12.4154559"><ele>472.0</ele><time>2026-04-26T14:49:37.044Z</time></trkpt><trkpt lat="43.4552681" lon="12.4156092"><ele>468.0</ele><time>2026-04-26T14:49:38.044Z</time></trkpt><trkpt lat="43.455384" lon="12.4157797"><ele>464.0</ele><time>2026-04-26T14:49:39.063Z</time></trkpt><trkpt lat="43.4555074" lon="12.4159563"><ele>464.0</ele><time>2026-04-26T14:49:40.022Z</time></trkpt><trkpt lat="43.4556331" lon="12.4161223"><ele>464.0</ele><time>2026-04-26T14:49:41.038Z</time></trkpt><trkpt lat="43.4557532" lon="12.4162778"><ele>464.0</ele><time>2026-04-26T14:49:42.032Z</time></trkpt><trkpt lat="43.4558636" lon="12.416434"><ele>464.66666666666663</ele><time>2026-04-26T14:49:43.031Z</time></trkpt><trkpt lat="43.4559699" lon="12.4165878"><ele>465.33333333333337</ele><time>2026-04-26T14:49:44.028Z</time></trkpt><trkpt lat="43.456061" lon="12.4167588"><ele>466.0</ele><time>2026-04-26T14:49:45.028Z</time></trkpt><trkpt lat="43.456132" lon="12.4169407"><ele>466.0</ele><time>2026-04-26T14:49:46.027Z</time></trkpt><trkpt lat="43.456172" lon="12.4171198"><ele>466.0</ele><time>2026-04-26T14:49:47.031Z</time></trkpt><trkpt lat="43.4561783" lon="12.417286"><ele>466.0</ele><time>2026-04-26T14:49:48.032Z</time></trkpt><trkpt lat="43.4561732" lon="12.4174213"><ele>466.0</ele><time>2026-04-26T14:49:49.042Z</time></trkpt><trkpt lat="43.4561778" lon="12.4175273"><ele>466.0</ele><time>2026-04-26T14:49:50.042Z</time></trkpt><trkpt lat="43.4561958" lon="12.4176139"><ele>467.1666666666667</ele><time>2026-04-26T14:49:51.037Z</time></trkpt><trkpt lat="43.4562557" lon="12.4177254"><ele>468.33333333333337</ele><time>2026-04-26T14:49:53.025Z</time></trkpt><trkpt lat="43.4563181" lon="12.4177941"><ele>469.5</ele><time>2026-04-26T14:49:55.032Z</time></trkpt><trkpt lat="43.4564016" lon="12.417856"><ele>470.66666666666663</ele><time>2026-04-26T14:49:57.035Z</time></trkpt><trkpt lat="43.4564604" lon="12.4179296"><ele>471.8333333333333</ele><time>2026-04-26T14:49:59.032Z</time></trkpt><trkpt lat="43.4564151" lon="12.4180086"><ele>473.0</ele><time>2026-04-26T14:50:01.028Z</time></trkpt><trkpt lat="43.4563238" lon="12.4180344"><ele>475.49999999999994</ele><time>2026-04-26T14:50:03.029Z</time></trkpt><trkpt lat="43.4562184" lon="12.4180345"><ele>478.0</ele><time>2026-04-26T14:50:05.03Z</time></trkpt><trkpt lat="43.4561269" lon="12.4180503"><ele>480.5</ele><time>2026-04-26T14:50:07.044Z</time></trkpt><trkpt lat="43.456066" lon="12.4181144"><ele>483.0</ele><time>2026-04-26T14:50:10.025Z</time></trkpt><trkpt lat="43.4561291" lon="12.4181039"><ele>485.49999999999994</ele><time>2026-04-26T14:50:14.025Z</time></trkpt><trkpt lat="43.4561809" lon="12.4180343"><ele>488.0</ele><time>2026-04-26T14:50:16.047Z</time></trkpt><trkpt lat="43.4562644" lon="12.4180192"><ele>486.4</ele><time>2026-04-26T14:50:18.038Z</time></trkpt><trkpt lat="43.4563671" lon="12.4179999"><ele>484.79999999999995</ele><time>2026-04-26T14:50:20.029Z</time></trkpt><trkpt lat="43.4564927" lon="12.4179565"><ele>483.2</ele><time>2026-04-26T14:50:22.03Z</time></trkpt><trkpt lat="43.4565666" lon="12.4179286"><ele>481.6</ele><time>2026-04-26T14:50:24.035Z</time></trkpt><trkpt lat="43.456472" lon="12.417963"><ele>480.0</ele><time>2026-04-26T14:50:53.03Z</time></trkpt><trkpt lat="43.4564143" lon="12.4180115"><ele>481.3333333333333</ele><time>2026-04-26T14:50:54.04Z</time></trkpt><trkpt lat="43.4563458" lon="12.4180487"><ele>482.66666666666663</ele><time>2026-04-26T14:50:55.034Z</time></trkpt><trkpt lat="43.4562761" lon="12.4180644"><ele>484.0</ele><time>2026-04-26T14:50:56.031Z</time></trkpt><trkpt lat="43.4562012" lon="12.4180729"><ele>485.3333333333333</ele><time>2026-04-26T14:50:57.034Z</time></trkpt><trkpt lat="43.4561213" lon="12.4181257"><ele>486.66666666666663</ele><time>2026-04-26T14:50:59.031Z</time></trkpt><trkpt lat="43.4561742" lon="12.4181946"><ele>488.0</ele><time>2026-04-26T14:51:02.026Z</time></trkpt><trkpt lat="43.4562532" lon="12.4181841"><ele>491.3333333333333</ele><time>2026-04-26T14:51:04.025Z</time></trkpt><trkpt lat="43.4563659" lon="12.4181565"><ele>494.66666666666663</ele><time>2026-04-26T14:51:06.024Z</time></trkpt><trkpt lat="43.4564309" lon="12.4181472"><ele>498.0</ele><time>2026-04-26T14:51:07.032Z</time></trkpt><trkpt lat="43.4565008" lon="12.418143"><ele>501.33333333333337</ele><time>2026-04-26T14:51:08.031Z</time></trkpt><trkpt lat="43.45658" lon="12.4181428"><ele>504.6666666666667</ele><time>2026-04-26T14:51:09.036Z</time></trkpt><trkpt lat="43.4566729" lon="12.4181599"><ele>508.0</ele><time>2026-04-26T14:51:10.03Z</time></trkpt><trkpt lat="43.456776" lon="12.4181818"><ele>508.0</ele><time>2026-04-26T14:51:11.037Z</time></trkpt><trkpt lat="43.4568798" lon="12.4181979"><ele>507.99999999999994</ele><time>2026-04-26T14:51:12.031Z</time></trkpt><trkpt lat="43.4569844" lon="12.4182134"><ele>507.99999999999994</ele><time>2026-04-26T14:51:13.029Z</time></trkpt><trkpt lat="43.4570857" lon="12.4182339"><ele>508.0</ele><time>2026-04-26T14:51:14.027Z</time></trkpt><trkpt lat="43.4571857" lon="12.4182554"><ele>508.0</ele><time>2026-04-26T14:51:15.025Z</time></trkpt><trkpt lat="43.4572786" lon="12.4182727"><ele>508.4</ele><time>2026-04-26T14:51:16.024Z</time></trkpt><trkpt lat="43.4573499" lon="12.4182836"><ele>508.79999999999995</ele><time>2026-04-26T14:51:17.026Z</time></trkpt><trkpt lat="43.4574629" lon="12.4183181"><ele>509.2</ele><time>2026-04-26T14:51:19.026Z</time></trkpt><trkpt lat="43.4575092" lon="12.4184082"><ele>509.6</ele><time>2026-04-26T14:51:21.026Z</time></trkpt><trkpt lat="43.4574484" lon="12.4184871"><ele>510.0</ele><time>2026-04-26T14:51:23.03Z</time></trkpt><trkpt lat="43.4573248" lon="12.4185464"><ele>510.0</ele><time>2026-04-26T14:51:25.027Z</time></trkpt><trkpt lat="43.4572557" lon="12.4185925"><ele>510.0</ele><time>2026-04-26T14:51:26.057Z</time></trkpt><trkpt lat="43.4571816" lon="12.4186471"><ele>510.0</ele><time>2026-04-26T14:51:27.024Z</time></trkpt><trkpt lat="43.4571072" lon="12.4187069"><ele>510.0</ele><time>2026-04-26T14:51:28.022Z</time></trkpt><trkpt lat="43.4570239" lon="12.4187751"><ele>510.0</ele><time>2026-04-26T14:51:29.031Z</time></trkpt><trkpt lat="43.4569374" lon="12.4188368"><ele>510.0</ele><time>2026-04-26T14:51:30.029Z</time></trkpt><trkpt lat="43.4568476" lon="12.4188995"><ele>513.0</ele><time>2026-04-26T14:51:31.034Z</time></trkpt><trkpt lat="43.4567696" lon="12.4189554"><ele>516.0</ele><time>2026-04-26T14:51:32.022Z</time></trkpt><trkpt lat="43.4567029" lon="12.4190136"><ele>519.0</ele><time>2026-04-26T14:51:33.029Z</time></trkpt><trkpt lat="43.4566395" lon="12.4190661"><ele>522.0</ele><time>2026-04-26T14:51:34.02Z</time></trkpt><trkpt lat="43.4565829" lon="12.419116"><ele>525.0</ele><time>2026-04-26T14:51:35.019Z</time></trkpt><trkpt lat="43.4565286" lon="12.4191689"><ele>528.0</ele><time>2026-04-26T14:51:36.032Z</time></trkpt><trkpt lat="43.4564567" lon="12.4192793"><ele>528.0</ele><time>2026-04-26T14:51:38.026Z</time></trkpt><trkpt lat="43.4564518" lon="12.4193862"><ele>528.0</ele><time>2026-04-26T14:51:40.031Z</time></trkpt><trkpt lat="43.4565045" lon="12.4194723"><ele>528.0</ele><time>2026-04-26T14:51:42.037Z</time></trkpt><trkpt lat="43.4565775" lon="12.4195634"><ele>528.0</ele><time>2026-04-26T14:51:44.03Z</time></trkpt><trkpt lat="43.456656" lon="12.4196771"><ele>528.0</ele><time>2026-04-26T14:51:46.034Z</time></trkpt><trkpt lat="43.4567394" lon="12.4197879"><ele>528.0</ele><time>2026-04-26T14:51:48.024Z</time></trkpt><trkpt lat="43.4568407" lon="12.4198367"><ele>528.0</ele><time>2026-04-26T14:51:50.037Z</time></trkpt><trkpt lat="43.4569209" lon="12.419752"><ele>528.0</ele><time>2026-04-26T14:51:52.034Z</time></trkpt><trkpt lat="43.4569656" lon="12.4196127"><ele>528.0</ele><time>2026-04-26T14:51:54.02Z</time></trkpt><trkpt lat="43.457063" lon="12.419516"><ele>528.0</ele><time>2026-04-26T14:51:56.038Z</time></trkpt><trkpt lat="43.4571913" lon="12.4194857"><ele>529.1428571428571</ele><time>2026-04-26T14:51:58.028Z</time></trkpt><trkpt lat="43.4572585" lon="12.4195057"><ele>530.2857142857143</ele><time>2026-04-26T14:51:59.038Z</time></trkpt><trkpt lat="43.4573287" lon="12.4195228"><ele>531.4285714285714</ele><time>2026-04-26T14:52:00.034Z</time></trkpt><trkpt lat="43.4574013" lon="12.419551"><ele>532.5714285714286</ele><time>2026-04-26T14:52:01.03Z</time></trkpt><trkpt lat="43.4574701" lon="12.4195992"><ele>533.7142857142857</ele><time>2026-04-26T14:52:02.023Z</time></trkpt><trkpt lat="43.4575294" lon="12.419663"><ele>534.8571428571429</ele><time>2026-04-26T14:52:03.028Z</time></trkpt><trkpt lat="43.4575832" lon="12.4197303"><ele>536.0</ele><time>2026-04-26T14:52:04.034Z</time></trkpt><trkpt lat="43.4576257" lon="12.419806"><ele>538.4285714285714</ele><time>2026-04-26T14:52:05.034Z</time></trkpt><trkpt lat="43.4576722" lon="12.4198731"><ele>540.8571428571429</ele><time>2026-04-26T14:52:06.038Z</time></trkpt><trkpt lat="43.4577151" lon="12.4199367"><ele>543.2857142857142</ele><time>2026-04-26T14:52:07.027Z</time></trkpt><trkpt lat="43.457762" lon="12.4200087"><ele>545.7142857142858</ele><time>2026-04-26T14:52:08.031Z</time></trkpt><trkpt lat="43.4578041" lon="12.4200876"><ele>548.1428571428571</ele><time>2026-04-26T14:52:09.051Z</time></trkpt><trkpt lat="43.4578431" lon="12.420175"><ele>550.5714285714286</ele><time>2026-04-26T14:52:10.042Z</time></trkpt><trkpt lat="43.4578894" lon="12.4202731"><ele>553.0</ele><time>2026-04-26T14:52:11.041Z</time></trkpt><trkpt lat="43.4579236" lon="12.4203833"><ele>554.1666666666667</ele><time>2026-04-26T14:52:12.056Z</time></trkpt><trkpt lat="43.4579523" lon="12.4205037"><ele>555.3333333333334</ele><time>2026-04-26T14:52:13.057Z</time></trkpt><trkpt lat="43.4579704" lon="12.4206236"><ele>556.5</ele><time>2026-04-26T14:52:14.037Z</time></trkpt><trkpt lat="43.4579966" lon="12.4207414"><ele>557.6666666666666</ele><time>2026-04-26T14:52:15.067Z</time></trkpt><trkpt lat="43.4580301" lon="12.4208492"><ele>558.8333333333333</ele><time>2026-04-26T14:52:16.043Z</time></trkpt><trkpt lat="43.4580796" lon="12.4209417"><ele>560.0</ele><time>2026-04-26T14:52:17.042Z</time></trkpt><trkpt lat="43.4581257" lon="12.4210336"><ele>560.0</ele><time>2026-04-26T14:52:18.052Z</time></trkpt><trkpt lat="43.4581622" lon="12.4211295"><ele>560.0</ele><time>2026-04-26T14:52:19.026Z</time></trkpt><trkpt lat="43.4581895" lon="12.4212265"><ele>560.0</ele><time>2026-04-26T14:52:20.055Z</time></trkpt><trkpt lat="43.4582052" lon="12.4213205"><ele>560.0</ele><time>2026-04-26T14:52:21.065Z</time></trkpt><trkpt lat="43.4582087" lon="12.4214157"><ele>560.0</ele><time>2026-04-26T14:52:22.036Z</time></trkpt><trkpt lat="43.4582138" lon="12.4215111"><ele>560.0</ele><time>2026-04-26T14:52:23.054Z</time></trkpt><trkpt lat="43.4582078" lon="12.421609"><ele>560.0</ele><time>2026-04-26T14:52:24.031Z</time></trkpt><trkpt lat="43.4581965" lon="12.4216993"><ele>562.4</ele><time>2026-04-26T14:52:25.027Z</time></trkpt><trkpt lat="43.4581542" lon="12.4218094"><ele>564.8</ele><time>2026-04-26T14:52:27.041Z</time></trkpt><trkpt lat="43.4581249" lon="12.4219225"><ele>567.2</ele><time>2026-04-26T14:52:29.033Z</time></trkpt><trkpt lat="43.4581119" lon="12.4220678"><ele>569.6</ele><time>2026-04-26T14:52:31.038Z</time></trkpt><trkpt lat="43.45809" lon="12.422243"><ele>572.0</ele><time>2026-04-26T14:52:33.038Z</time></trkpt><trkpt lat="43.4580524" lon="12.4223297"><ele>573.0</ele><time>2026-04-26T14:52:34.03Z</time></trkpt><trkpt lat="43.4580057" lon="12.4224098"><ele>574.0</ele><time>2026-04-26T14:52:35.041Z</time></trkpt><trkpt lat="43.4579511" lon="12.4224811"><ele>575.0</ele><time>2026-04-26T14:52:36.029Z</time></trkpt><trkpt lat="43.4578875" lon="12.4225433"><ele>576.0</ele><time>2026-04-26T14:52:37.037Z</time></trkpt><trkpt lat="43.4578168" lon="12.4226029"><ele>577.0</ele><time>2026-04-26T14:52:38.031Z</time></trkpt><trkpt lat="43.4577411" lon="12.4226692"><ele>578.0</ele><time>2026-04-26T14:52:39.029Z</time></trkpt><trkpt lat="43.4576669" lon="12.4227512"><ele>578.0</ele><time>2026-04-26T14:52:40.035Z</time></trkpt><trkpt lat="43.4575897" lon="12.4228378"><ele>578.0</ele><time>2026-04-26T14:52:41.031Z</time></trkpt><trkpt lat="43.4574986" lon="12.4229403"><ele>578.0</ele><time>2026-04-26T14:52:42.039Z</time></trkpt><trkpt lat="43.4574017" lon="12.4230409"><ele>578.0</ele><time>2026-04-26T14:52:43.041Z</time></trkpt><trkpt lat="43.4573" lon="12.4231411"><ele>579.5</ele><time>2026-04-26T14:52:44.03Z</time></trkpt><trkpt lat="43.4571953" lon="12.4232509"><ele>581.0</ele><time>2026-04-26T14:52:45.035Z</time></trkpt><trkpt lat="43.4570918" lon="12.4233736"><ele>582.5</ele><time>2026-04-26T14:52:46.03Z</time></trkpt><trkpt lat="43.4569897" lon="12.4235102"><ele>584.0</ele><time>2026-04-26T14:52:47.029Z</time></trkpt><trkpt lat="43.4568882" lon="12.4236344"><ele>584.0</ele><time>2026-04-26T14:52:48.034Z</time></trkpt><trkpt lat="43.456782" lon="12.4237341"><ele>584.0</ele><time>2026-04-26T14:52:49.037Z</time></trkpt><trkpt lat="43.4566709" lon="12.4237876"><ele>584.0</ele><time>2026-04-26T14:52:50.054Z</time></trkpt><trkpt lat="43.4565503" lon="12.4237863"><ele>584.0</ele><time>2026-04-26T14:52:51.033Z</time></trkpt><trkpt lat="43.4564264" lon="12.4237549"><ele>584.0</ele><time>2026-04-26T14:52:52.038Z</time></trkpt><trkpt lat="43.4562915" lon="12.4237134"><ele>584.0</ele><time>2026-04-26T14:52:53.036Z</time></trkpt><trkpt lat="43.4561535" lon="12.423669"><ele>584.0</ele><time>2026-04-26T14:52:54.029Z</time></trkpt><trkpt lat="43.4560076" lon="12.4236174"><ele>584.0</ele><time>2026-04-26T14:52:55.028Z</time></trkpt><trkpt lat="43.45586" lon="12.4235727"><ele>583.5</ele><time>2026-04-26T14:52:56.026Z</time></trkpt><trkpt lat="43.4557171" lon="12.4235426"><ele>583.0</ele><time>2026-04-26T14:52:57.039Z</time></trkpt><trkpt lat="43.4555743" lon="12.4235115"><ele>582.5</ele><time>2026-04-26T14:52:58.031Z</time></trkpt><trkpt lat="43.4554423" lon="12.4234808"><ele>582.0</ele><time>2026-04-26T14:52:59.026Z</time></trkpt><trkpt lat="43.4553028" lon="12.4234459"><ele>583.6666666666666</ele><time>2026-04-26T14:53:00.029Z</time></trkpt><trkpt lat="43.4551577" lon="12.4234104"><ele>585.3333333333333</ele><time>2026-04-26T14:53:01.031Z</time></trkpt><trkpt lat="43.4550093" lon="12.4233643"><ele>587.0</ele><time>2026-04-26T14:53:02.029Z</time></trkpt><trkpt lat="43.4548586" lon="12.4233153"><ele>587.0</ele><time>2026-04-26T14:53:03.03Z</time></trkpt><trkpt lat="43.45472" lon="12.4232622"><ele>587.0</ele><time>2026-04-26T14:53:04.042Z</time></trkpt><trkpt lat="43.4545896" lon="12.4232159"><ele>587.0</ele><time>2026-04-26T14:53:05.037Z</time></trkpt><trkpt lat="43.4544638" lon="12.4231854"><ele>587.0</ele><time>2026-04-26T14:53:06.023Z</time></trkpt><trkpt lat="43.4543287" lon="12.4231848"><ele>587.0</ele><time>2026-04-26T14:53:07.046Z</time></trkpt><trkpt lat="43.454203" lon="12.4232115"><ele>587.0</ele><time>2026-04-26T14:53:08.035Z</time></trkpt><trkpt lat="43.4540969" lon="12.4232773"><ele>587.0</ele><time>2026-04-26T14:53:09.043Z</time></trkpt><trkpt lat="43.4540096" lon="12.4233649"><ele>587.0</ele><time>2026-04-26T14:53:10.03Z</time></trkpt><trkpt lat="43.4539464" lon="12.4234767"><ele>587.0</ele><time>2026-04-26T14:53:11.034Z</time></trkpt><trkpt lat="43.4539012" lon="12.4236042"><ele>587.0</ele><time>2026-04-26T14:53:12.036Z</time></trkpt><trkpt lat="43.4538636" lon="12.4237335"><ele>587.0</ele><time>2026-04-26T14:53:13.038Z</time></trkpt><trkpt lat="43.4538164" lon="12.4238347"><ele>587.0</ele><time>2026-04-26T14:53:14.032Z</time></trkpt><trkpt lat="43.4537494" lon="12.4238975"><ele>587.0</ele><time>2026-04-26T14:53:15.03Z</time></trkpt><trkpt lat="43.4536721" lon="12.4239281"><ele>588.6</ele><time>2026-04-26T14:53:16.035Z</time></trkpt><trkpt lat="43.4535919" lon="12.4239186"><ele>590.2</ele><time>2026-04-26T14:53:17.038Z</time></trkpt><trkpt lat="43.453522" lon="12.4238853"><ele>591.8</ele><time>2026-04-26T14:53:18.035Z</time></trkpt><trkpt lat="43.4534594" lon="12.4238484"><ele>593.4</ele><time>2026-04-26T14:53:19.031Z</time></trkpt><trkpt lat="43.4533474" lon="12.4237952"><ele>595.0</ele><time>2026-04-26T14:53:21.034Z</time></trkpt><trkpt lat="43.4532326" lon="12.423778"><ele>591.6</ele><time>2026-04-26T14:53:23.037Z</time></trkpt><trkpt lat="43.4531416" lon="12.4237741"><ele>588.2</ele><time>2026-04-26T14:53:25.044Z</time></trkpt><trkpt lat="43.4530549" lon="12.4237732"><ele>584.8</ele><time>2026-04-26T14:53:42.025Z</time></trkpt><trkpt lat="43.4529452" lon="12.4237648"><ele>581.4</ele><time>2026-04-26T14:53:44.025Z</time></trkpt><trkpt lat="43.4528609" lon="12.4237525"><ele>578.0</ele><time>2026-04-26T14:53:45.034Z</time></trkpt><trkpt lat="43.4527528" lon="12.4237161"><ele>578.0</ele><time>2026-04-26T14:53:46.024Z</time></trkpt><trkpt lat="43.452627" lon="12.4236745"><ele>578.0</ele><time>2026-04-26T14:53:47.028Z</time></trkpt><trkpt lat="43.4525084" lon="12.423649"><ele>578.0</ele><time>2026-04-26T14:53:48.02Z</time></trkpt><trkpt lat="43.4523991" lon="12.4236488"><ele>578.0</ele><time>2026-04-26T14:53:49.03Z</time></trkpt><trkpt lat="43.4522903" lon="12.4236534"><ele>578.0</ele><time>2026-04-26T14:53:50.038Z</time></trkpt><trkpt lat="43.4521906" lon="12.4236272"><ele>578.0</ele><time>2026-04-26T14:53:51.043Z</time></trkpt><trkpt lat="43.4521176" lon="12.4235258"><ele>578.0</ele><time>2026-04-26T14:53:52.032Z</time></trkpt><trkpt lat="43.4520579" lon="12.4234144"><ele>578.0</ele><time>2026-04-26T14:53:53.039Z</time></trkpt><trkpt lat="43.4520037" lon="12.4232971"><ele>578.0</ele><time>2026-04-26T14:53:54.031Z</time></trkpt><trkpt lat="43.4519233" lon="12.4232068"><ele>579.1999999999999</ele><time>2026-04-26T14:53:55.055Z</time></trkpt><trkpt lat="43.4518369" lon="12.4231659"><ele>580.4</ele><time>2026-04-26T14:53:56.05Z</time></trkpt><trkpt lat="43.451749" lon="12.4231461"><ele>581.5999999999999</ele><time>2026-04-26T14:53:57.048Z</time></trkpt><trkpt lat="43.4516565" lon="12.423166"><ele>582.8</ele><time>2026-04-26T14:53:58.025Z</time></trkpt><trkpt lat="43.4515687" lon="12.423225"><ele>584.0</ele><time>2026-04-26T14:53:59.025Z</time></trkpt><trkpt lat="43.451481" lon="12.4232955"><ele>584.0</ele><time>2026-04-26T14:54:00.033Z</time></trkpt><trkpt lat="43.4513882" lon="12.4233802"><ele>584.0</ele><time>2026-04-26T14:54:01.031Z</time></trkpt><trkpt lat="43.4512961" lon="12.4234887"><ele>584.0</ele><time>2026-04-26T14:54:02.025Z</time></trkpt><trkpt lat="43.4512028" lon="12.4235937"><ele>584.0</ele><time>2026-04-26T14:54:03.041Z</time></trkpt><trkpt lat="43.4511012" lon="12.4236721"><ele>585.0</ele><time>2026-04-26T14:54:04.03Z</time></trkpt><trkpt lat="43.4509867" lon="12.423698"><ele>586.0</ele><time>2026-04-26T14:54:05.031Z</time></trkpt><trkpt lat="43.4508552" lon="12.4236978"><ele>587.0</ele><time>2026-04-26T14:54:06.031Z</time></trkpt><trkpt lat="43.450717" lon="12.4236777"><ele>588.0</ele><time>2026-04-26T14:54:07.029Z</time></trkpt><trkpt lat="43.4505799" lon="12.4236495"><ele>588.5</ele><time>2026-04-26T14:54:08.04Z</time></trkpt><trkpt lat="43.4504411" lon="12.4236084"><ele>589.0</ele><time>2026-04-26T14:54:09.037Z</time></trkpt><trkpt lat="43.4503149" lon="12.4235497"><ele>589.5</ele><time>2026-04-26T14:54:10.025Z</time></trkpt><trkpt lat="43.4501949" lon="12.4234881"><ele>590.0</ele><time>2026-04-26T14:54:11.031Z</time></trkpt><trkpt lat="43.4500795" lon="12.4234481"><ele>590.0</ele><time>2026-04-26T14:54:12.038Z</time></trkpt><trkpt lat="43.4499697" lon="12.423447"><ele>590.0</ele><time>2026-04-26T14:54:13.056Z</time></trkpt><trkpt lat="43.4498719" lon="12.4234839"><ele>590.0</ele><time>2026-04-26T14:54:14.03Z</time></trkpt><trkpt lat="43.4497755" lon="12.4235548"><ele>590.0</ele><time>2026-04-26T14:54:15.05Z</time></trkpt><trkpt lat="43.4496823" lon="12.4236539"><ele>590.0</ele><time>2026-04-26T14:54:16.048Z</time></trkpt><trkpt lat="43.4495896" lon="12.4237676"><ele>591.75</ele><time>2026-04-26T14:54:17.032Z</time></trkpt><trkpt lat="43.449489" lon="12.4238881"><ele>593.5</ele><time>2026-04-26T14:54:18.038Z</time></trkpt><trkpt lat="43.449377" lon="12.4240062"><ele>595.25</ele><time>2026-04-26T14:54:19.041Z</time></trkpt><trkpt lat="43.4492493" lon="12.4241122"><ele>597.0</ele><time>2026-04-26T14:54:20.025Z</time></trkpt><trkpt lat="43.4491324" lon="12.4242186"><ele>597.0</ele><time>2026-04-26T14:54:21.041Z</time></trkpt><trkpt lat="43.4490364" lon="12.424337"><ele>597.0</ele><time>2026-04-26T14:54:22.037Z</time></trkpt><trkpt lat="43.4489588" lon="12.424472"><ele>597.0</ele><time>2026-04-26T14:54:23.036Z</time></trkpt><trkpt lat="43.4488939" lon="12.4246066"><ele>597.0</ele><time>2026-04-26T14:54:24.04Z</time></trkpt><trkpt lat="43.4488323" lon="12.4247348"><ele>595.5</ele><time>2026-04-26T14:54:25.032Z</time></trkpt><trkpt lat="43.4487585" lon="12.4248461"><ele>594.0</ele><time>2026-04-26T14:54:26.049Z</time></trkpt><trkpt lat="43.448676" lon="12.4249443"><ele>592.5</ele><time>2026-04-26T14:54:27.043Z</time></trkpt><trkpt lat="43.4485735" lon="12.4250353"><ele>591.0</ele><time>2026-04-26T14:54:28.042Z</time></trkpt><trkpt lat="43.4484507" lon="12.4251285"><ele>591.0</ele><time>2026-04-26T14:54:29.051Z</time></trkpt><trkpt lat="43.4483142" lon="12.425223"><ele>591.0</ele><time>2026-04-26T14:54:30.038Z</time></trkpt><trkpt lat="43.448173" lon="12.425322"><ele>591.0</ele><time>2026-04-26T14:54:31.031Z</time></trkpt><trkpt lat="43.448029" lon="12.4254263"><ele>588.6666666666666</ele><time>2026-04-26T14:54:32.027Z</time></trkpt><trkpt lat="43.4478915" lon="12.4255275"><ele>586.3333333333333</ele><time>2026-04-26T14:54:33.035Z</time></trkpt><trkpt lat="43.4477585" lon="12.4256205"><ele>584.0</ele><time>2026-04-26T14:54:34.037Z</time></trkpt><trkpt lat="43.447626" lon="12.4257094"><ele>584.0</ele><time>2026-04-26T14:54:35.037Z</time></trkpt><trkpt lat="43.4475024" lon="12.4257897"><ele>584.0</ele><time>2026-04-26T14:54:36.032Z</time></trkpt><trkpt lat="43.4473761" lon="12.4258665"><ele>584.0</ele><time>2026-04-26T14:54:37.039Z</time></trkpt><trkpt lat="43.4472625" lon="12.4259321"><ele>584.0</ele><time>2026-04-26T14:54:38.035Z</time></trkpt><trkpt lat="43.4471649" lon="12.4259965"><ele>584.0</ele><time>2026-04-26T14:54:39.042Z</time></trkpt><trkpt lat="43.4470861" lon="12.4260566"><ele>584.0</ele><time>2026-04-26T14:54:40.033Z</time></trkpt><trkpt lat="43.447027" lon="12.4261088"><ele>584.0</ele><time>2026-04-26T14:54:41.047Z</time></trkpt><trkpt lat="43.4469714" lon="12.4261795"><ele>584.0</ele><time>2026-04-26T14:54:43.036Z</time></trkpt><trkpt lat="43.4469724" lon="12.4262756"><ele>584.0</ele><time>2026-04-26T14:54:46.041Z</time></trkpt><trkpt lat="43.4470721" lon="12.4263087"><ele>584.0</ele><time>2026-04-26T14:54:48.03Z</time></trkpt><trkpt lat="43.4471381" lon="12.4262726"><ele>584.0</ele><time>2026-04-26T14:54:49.041Z</time></trkpt><trkpt lat="43.4472156" lon="12.4262401"><ele>584.0</ele><time>2026-04-26T14:54:50.04Z</time></trkpt><trkpt lat="43.4473066" lon="12.4262004"><ele>584.0</ele><time>2026-04-26T14:54:51.033Z</time></trkpt><trkpt lat="43.4474019" lon="12.4261539"><ele>584.0</ele><time>2026-04-26T14:54:52.032Z</time></trkpt><trkpt lat="43.4475124" lon="12.4261022"><ele>584.0</ele><time>2026-04-26T14:54:53.034Z</time></trkpt><trkpt lat="43.4476354" lon="12.4260446"><ele>584.0</ele><time>2026-04-26T14:54:54.056Z</time></trkpt><trkpt lat="43.4477647" lon="12.4259835"><ele>584.0</ele><time>2026-04-26T14:54:55.049Z</time></trkpt><trkpt lat="43.4478984" lon="12.4259311"><ele>584.0</ele><time>2026-04-26T14:54:56.035Z</time></trkpt><trkpt lat="43.448029" lon="12.4258974"><ele>584.0</ele><time>2026-04-26T14:54:57.031Z</time></trkpt><trkpt lat="43.4481629" lon="12.4258641"><ele>582.75</ele><time>2026-04-26T14:54:58.062Z</time></trkpt><trkpt lat="43.4483041" lon="12.4258462"><ele>581.5</ele><time>2026-04-26T14:54:59.053Z</time></trkpt><trkpt lat="43.4484515" lon="12.4258526"><ele>580.25</ele><time>2026-04-26T14:55:00.045Z</time></trkpt><trkpt lat="43.448597" lon="12.4258894"><ele>579.0</ele><time>2026-04-26T14:55:01.033Z</time></trkpt><trkpt lat="43.4487435" lon="12.4259439"><ele>579.25</ele><time>2026-04-26T14:55:02.032Z</time></trkpt><trkpt lat="43.4488894" lon="12.425993"><ele>579.5</ele><time>2026-04-26T14:55:03.041Z</time></trkpt><trkpt lat="43.4490326" lon="12.426048"><ele>579.75</ele><time>2026-04-26T14:55:04.035Z</time></trkpt><trkpt lat="43.4491719" lon="12.4260965"><ele>580.0</ele><time>2026-04-26T14:55:05.034Z</time></trkpt><trkpt lat="43.4493133" lon="12.4261416"><ele>580.0</ele><time>2026-04-26T14:55:06.03Z</time></trkpt><trkpt lat="43.4494462" lon="12.4261886"><ele>580.0</ele><time>2026-04-26T14:55:07.038Z</time></trkpt><trkpt lat="43.4495721" lon="12.4262391"><ele>580.0</ele><time>2026-04-26T14:55:08.033Z</time></trkpt><trkpt lat="43.4496904" lon="12.4263019"><ele>580.0</ele><time>2026-04-26T14:55:09.035Z</time></trkpt><trkpt lat="43.4497945" lon="12.4263955"><ele>577.5</ele><time>2026-04-26T14:55:10.034Z</time></trkpt><trkpt lat="43.449888" lon="12.4265117"><ele>575.0</ele><time>2026-04-26T14:55:11.045Z</time></trkpt><trkpt lat="43.4499576" lon="12.4266429"><ele>572.5</ele><time>2026-04-26T14:55:12.026Z</time></trkpt><trkpt lat="43.4499957" lon="12.4267932"><ele>570.0</ele><time>2026-04-26T14:55:13.029Z</time></trkpt><trkpt lat="43.4499953" lon="12.4269577"><ele>570.0</ele><time>2026-04-26T14:55:14.028Z</time></trkpt><trkpt lat="43.4499429" lon="12.4271026"><ele>570.0</ele><time>2026-04-26T14:55:15.04Z</time></trkpt><trkpt lat="43.4498519" lon="12.4272143"><ele>570.0</ele><time>2026-04-26T14:55:16.027Z</time></trkpt><trkpt lat="43.4497456" lon="12.4273178"><ele>570.0</ele><time>2026-04-26T14:55:17.033Z</time></trkpt><trkpt lat="43.4496375" lon="12.4274121"><ele>565.25</ele><time>2026-04-26T14:55:18.03Z</time></trkpt><trkpt lat="43.4495347" lon="12.4275169"><ele>560.5</ele><time>2026-04-26T14:55:19.037Z</time></trkpt><trkpt lat="43.4494305" lon="12.427628"><ele>555.75</ele><time>2026-04-26T14:55:20.025Z</time></trkpt><trkpt lat="43.4493288" lon="12.4277398"><ele>551.0</ele><time>2026-04-26T14:55:21.041Z</time></trkpt><trkpt lat="43.4492336" lon="12.427859"><ele>551.25</ele><time>2026-04-26T14:55:22.03Z</time></trkpt><trkpt lat="43.4491397" lon="12.4279923"><ele>551.5</ele><time>2026-04-26T14:55:23.046Z</time></trkpt><trkpt lat="43.4490555" lon="12.4281369"><ele>551.75</ele><time>2026-04-26T14:55:24.028Z</time></trkpt><trkpt lat="43.4489789" lon="12.4282903"><ele>552.0</ele><time>2026-04-26T14:55:25.037Z</time></trkpt><trkpt lat="43.4489154" lon="12.4284523"><ele>552.0</ele><time>2026-04-26T14:55:26.031Z</time></trkpt><trkpt lat="43.4488604" lon="12.4286113"><ele>552.0</ele><time>2026-04-26T14:55:27.028Z</time></trkpt><trkpt lat="43.4488002" lon="12.4287744"><ele>552.0</ele><time>2026-04-26T14:55:28.013Z</time></trkpt><trkpt lat="43.448741" lon="12.4289342"><ele>552.0</ele><time>2026-04-26T14:55:29.026Z</time></trkpt><trkpt lat="43.4486776" lon="12.4290823"><ele>549.5</ele><time>2026-04-26T14:55:30.015Z</time></trkpt><trkpt lat="43.4486105" lon="12.4292308"><ele>547.0</ele><time>2026-04-26T14:55:31.03Z</time></trkpt><trkpt lat="43.448548" lon="12.4293742"><ele>544.5</ele><time>2026-04-26T14:55:32.02Z</time></trkpt><trkpt lat="43.448485" lon="12.4295282"><ele>542.0</ele><time>2026-04-26T14:55:33.039Z</time></trkpt><trkpt lat="43.4484245" lon="12.4296782"><ele>542.0</ele><time>2026-04-26T14:55:34.024Z</time></trkpt><trkpt lat="43.4483652" lon="12.4298251"><ele>542.0</ele><time>2026-04-26T14:55:35.024Z</time></trkpt><trkpt lat="43.4483079" lon="12.4299678"><ele>542.0</ele><time>2026-04-26T14:55:36.03Z</time></trkpt><trkpt lat="43.4482531" lon="12.4301145"><ele>542.0</ele><time>2026-04-26T14:55:37.02Z</time></trkpt><trkpt lat="43.4481986" lon="12.4302624"><ele>542.0</ele><time>2026-04-26T14:55:38.034Z</time></trkpt><trkpt lat="43.4481463" lon="12.4304063"><ele>542.0</ele><time>2026-04-26T14:55:39.03Z</time></trkpt><trkpt lat="43.4480976" lon="12.4305543"><ele>542.0</ele><time>2026-04-26T14:55:40.007Z</time></trkpt><trkpt lat="43.4480515" lon="12.4307013"><ele>542.0</ele><time>2026-04-26T14:55:41.023Z</time></trkpt><trkpt lat="43.4480082" lon="12.4308511"><ele>541.75</ele><time>2026-04-26T14:55:42.048Z</time></trkpt><trkpt lat="43.4479641" lon="12.4310161"><ele>541.5</ele><time>2026-04-26T14:55:43.026Z</time></trkpt><trkpt lat="43.4479109" lon="12.4311624"><ele>541.25</ele><time>2026-04-26T14:55:44.027Z</time></trkpt><trkpt lat="43.4478589" lon="12.4313079"><ele>541.0</ele><time>2026-04-26T14:55:45.032Z</time></trkpt><trkpt lat="43.4477989" lon="12.4314595"><ele>536.0</ele><time>2026-04-26T14:55:46.023Z</time></trkpt><trkpt lat="43.4477287" lon="12.4316061"><ele>531.0</ele><time>2026-04-26T14:55:47.03Z</time></trkpt><trkpt lat="43.447659" lon="12.4317469"><ele>526.0</ele><time>2026-04-26T14:55:48.042Z</time></trkpt><trkpt lat="43.4475932" lon="12.4318828"><ele>521.0</ele><time>2026-04-26T14:55:49.032Z</time></trkpt><trkpt lat="43.4475282" lon="12.4320105"><ele>520.0</ele><time>2026-04-26T14:55:50.043Z</time></trkpt><trkpt lat="43.4474614" lon="12.4321437"><ele>519.0</ele><time>2026-04-26T14:55:51.038Z</time></trkpt><trkpt lat="43.4473965" lon="12.4322818"><ele>518.0</ele><time>2026-04-26T14:55:52.036Z</time></trkpt><trkpt lat="43.4473267" lon="12.4324203"><ele>517.0</ele><time>2026-04-26T14:55:53.039Z</time></trkpt><trkpt lat="43.4472503" lon="12.4325623"><ele>517.0</ele><time>2026-04-26T14:55:54.033Z</time></trkpt><trkpt lat="43.4471703" lon="12.4327098"><ele>517.0</ele><time>2026-04-26T14:55:55.045Z</time></trkpt><trkpt lat="43.4470882" lon="12.4328668"><ele>517.0</ele><time>2026-04-26T14:55:56.019Z</time></trkpt><trkpt lat="43.4470006" lon="12.4330355"><ele>517.0</ele><time>2026-04-26T14:55:57.047Z</time></trkpt><trkpt lat="43.4469118" lon="12.4332147"><ele>515.3333333333334</ele><time>2026-04-26T14:55:58.042Z</time></trkpt><trkpt lat="43.4468238" lon="12.433393"><ele>513.6666666666666</ele><time>2026-04-26T14:55:59.04Z</time></trkpt><trkpt lat="43.4467388" lon="12.4335708"><ele>512.0</ele><time>2026-04-26T14:56:00.057Z</time></trkpt><trkpt lat="43.4466608" lon="12.4337352"><ele>512.0</ele><time>2026-04-26T14:56:01.058Z</time></trkpt><trkpt lat="43.4465933" lon="12.4339007"><ele>512.0</ele><time>2026-04-26T14:56:02.039Z</time></trkpt><trkpt lat="43.4465435" lon="12.4340709"><ele>512.0</ele><time>2026-04-26T14:56:03.033Z</time></trkpt><trkpt lat="43.446501" lon="12.4342509"><ele>512.0</ele><time>2026-04-26T14:56:04.03Z</time></trkpt><trkpt lat="43.4464675" lon="12.4344485"><ele>512.5</ele><time>2026-04-26T14:56:05.039Z</time></trkpt><trkpt lat="43.4464408" lon="12.4346499"><ele>513.0</ele><time>2026-04-26T14:56:06.046Z</time></trkpt><trkpt lat="43.4464169" lon="12.4348483"><ele>513.5</ele><time>2026-04-26T14:56:07.048Z</time></trkpt><trkpt lat="43.4463938" lon="12.4350343"><ele>514.0</ele><time>2026-04-26T14:56:08.06Z</time></trkpt><trkpt lat="43.4463661" lon="12.4351995"><ele>514.0</ele><time>2026-04-26T14:56:09.055Z</time></trkpt><trkpt lat="43.4463406" lon="12.4353457"><ele>514.0</ele><time>2026-04-26T14:56:10.036Z</time></trkpt><trkpt lat="43.4463093" lon="12.4354665"><ele>514.0</ele><time>2026-04-26T14:56:11.033Z</time></trkpt><trkpt lat="43.4462737" lon="12.4355594"><ele>514.0</ele><time>2026-04-26T14:56:12.041Z</time></trkpt><trkpt lat="43.4461891" lon="12.4356399"><ele>514.0</ele><time>2026-04-26T14:56:14.025Z</time></trkpt><trkpt lat="43.4461246" lon="12.4356435"><ele>514.0</ele><time>2026-04-26T14:56:15.044Z</time></trkpt><trkpt lat="43.4460486" lon="12.4356318"><ele>516.2</ele><time>2026-04-26T14:56:16.032Z</time></trkpt><trkpt lat="43.4459671" lon="12.4356136"><ele>518.4</ele><time>2026-04-26T14:56:17.049Z</time></trkpt><trkpt lat="43.4458677" lon="12.4355933"><ele>520.6</ele><time>2026-04-26T14:56:18.053Z</time></trkpt><trkpt lat="43.445753" lon="12.4355675"><ele>522.8</ele><time>2026-04-26T14:56:19.05Z</time></trkpt><trkpt lat="43.4456277" lon="12.4355398"><ele>525.0</ele><time>2026-04-26T14:56:20.041Z</time></trkpt><trkpt lat="43.4454959" lon="12.4355"><ele>523.5</ele><time>2026-04-26T14:56:21.041Z</time></trkpt><trkpt lat="43.4453617" lon="12.4354564"><ele>522.0</ele><time>2026-04-26T14:56:22.057Z</time></trkpt><trkpt lat="43.4452239" lon="12.4354097"><ele>520.5</ele><time>2026-04-26T14:56:23.039Z</time></trkpt><trkpt lat="43.4450871" lon="12.4353699"><ele>519.0</ele><time>2026-04-26T14:56:24.022Z</time></trkpt><trkpt lat="43.4449485" lon="12.4353272"><ele>519.0</ele><time>2026-04-26T14:56:25.063Z</time></trkpt><trkpt lat="43.4448116" lon="12.435286"><ele>519.0</ele><time>2026-04-26T14:56:26.027Z</time></trkpt><trkpt lat="43.4446721" lon="12.4352434"><ele>519.0</ele><time>2026-04-26T14:56:27.038Z</time></trkpt><trkpt lat="43.4443949" lon="12.4351512"><ele>520.75</ele><time>2026-04-26T14:56:29.027Z</time></trkpt><trkpt lat="43.4442668" lon="12.4351026"><ele>522.5</ele><time>2026-04-26T14:56:30.013Z</time></trkpt><trkpt lat="43.4441348" lon="12.4350535"><ele>524.25</ele><time>2026-04-26T14:56:31.034Z</time></trkpt><trkpt lat="43.4439891" lon="12.4350093"><ele>526.0</ele><time>2026-04-26T14:56:32.041Z</time></trkpt><trkpt lat="43.4438453" lon="12.4349631"><ele>526.3333333333334</ele><time>2026-04-26T14:56:33.043Z</time></trkpt><trkpt lat="43.4436955" lon="12.4349291"><ele>526.6666666666666</ele><time>2026-04-26T14:56:34.02Z</time></trkpt><trkpt lat="43.4435403" lon="12.4348864"><ele>527.0</ele><time>2026-04-26T14:56:35.026Z</time></trkpt><trkpt lat="43.4433787" lon="12.4348393"><ele>527.0</ele><time>2026-04-26T14:56:36.018Z</time></trkpt><trkpt lat="43.443226" lon="12.434786"><ele>527.0</ele><time>2026-04-26T14:56:37.035Z</time></trkpt><trkpt lat="43.4429301" lon="12.4346939"><ele>529.3333333333333</ele><time>2026-04-26T14:56:39.027Z</time></trkpt><trkpt lat="43.4427792" lon="12.4346473"><ele>531.6666666666666</ele><time>2026-04-26T14:56:40.028Z</time></trkpt><trkpt lat="43.442631" lon="12.4345988"><ele>534.0</ele><time>2026-04-26T14:56:41.043Z</time></trkpt><trkpt lat="43.4424898" lon="12.4345508"><ele>528.75</ele><time>2026-04-26T14:56:42.026Z</time></trkpt><trkpt lat="43.4423551" lon="12.434512"><ele>523.5</ele><time>2026-04-26T14:56:43.034Z</time></trkpt><trkpt lat="43.4422198" lon="12.4344723"><ele>518.25</ele><time>2026-04-26T14:56:44.033Z</time></trkpt><trkpt lat="43.4420836" lon="12.434438"><ele>513.0</ele><time>2026-04-26T14:56:45.031Z</time></trkpt><trkpt lat="43.4419358" lon="12.4344265"><ele>512.75</ele><time>2026-04-26T14:56:46.019Z</time></trkpt><trkpt lat="43.441793" lon="12.4344233"><ele>512.5</ele><time>2026-04-26T14:56:47.02Z</time></trkpt><trkpt lat="43.4416547" lon="12.4344204"><ele>512.25</ele><time>2026-04-26T14:56:48.011Z</time></trkpt><trkpt lat="43.4415241" lon="12.4344206"><ele>512.0</ele><time>2026-04-26T14:56:49.042Z</time></trkpt><trkpt lat="43.4413955" lon="12.4344188"><ele>511.0</ele><time>2026-04-26T14:56:50.011Z</time></trkpt><trkpt lat="43.4412628" lon="12.4344075"><ele>510.0</ele><time>2026-04-26T14:56:51.034Z</time></trkpt><trkpt lat="43.4411336" lon="12.4344124"><ele>509.0</ele><time>2026-04-26T14:56:52.015Z</time></trkpt><trkpt lat="43.4410034" lon="12.4344163"><ele>508.0</ele><time>2026-04-26T14:56:53.028Z</time></trkpt><trkpt lat="43.4408733" lon="12.4344237"><ele>508.0</ele><time>2026-04-26T14:56:54.022Z</time></trkpt><trkpt lat="43.4407358" lon="12.4344267"><ele>508.0</ele><time>2026-04-26T14:56:55.025Z</time></trkpt><trkpt lat="43.4405966" lon="12.4344276"><ele>508.0</ele><time>2026-04-26T14:56:56.024Z</time></trkpt><trkpt lat="43.4404611" lon="12.4344291"><ele>508.0</ele><time>2026-04-26T14:56:57.043Z</time></trkpt><trkpt lat="43.4403358" lon="12.4344218"><ele>506.75</ele><time>2026-04-26T14:56:58.019Z</time></trkpt><trkpt lat="43.4402074" lon="12.434422"><ele>505.5</ele><time>2026-04-26T14:56:59.033Z</time></trkpt><trkpt lat="43.4400784" lon="12.4344177"><ele>504.25</ele><time>2026-04-26T14:57:00.038Z</time></trkpt><trkpt lat="43.4399493" lon="12.4344175"><ele>503.0</ele><time>2026-04-26T14:57:01.021Z</time></trkpt><trkpt lat="43.4398153" lon="12.4344209"><ele>503.0</ele><time>2026-04-26T14:57:02.032Z</time></trkpt><trkpt lat="43.4396894" lon="12.4344228"><ele>502.99999999999994</ele><time>2026-04-26T14:57:03.035Z</time></trkpt><trkpt lat="43.4395716" lon="12.4344253"><ele>502.99999999999994</ele><time>2026-04-26T14:57:04.042Z</time></trkpt><trkpt lat="43.4394721" lon="12.4344252"><ele>503.0</ele><time>2026-04-26T14:57:05.025Z</time></trkpt><trkpt lat="43.4394037" lon="12.434426"><ele>503.0</ele><time>2026-04-26T14:57:06.029Z</time></trkpt><trkpt lat="43.4393084" lon="12.4344244"><ele>502.59999999999997</ele><time>2026-04-26T14:57:08.027Z</time></trkpt><trkpt lat="43.4391935" lon="12.4344169"><ele>502.19999999999993</ele><time>2026-04-26T14:57:10.023Z</time></trkpt><trkpt lat="43.4391033" lon="12.4344426"><ele>501.8</ele><time>2026-04-26T14:57:12.021Z</time></trkpt><trkpt lat="43.4391076" lon="12.4345525"><ele>501.4</ele><time>2026-04-26T14:57:14.023Z</time></trkpt><trkpt lat="43.4392063" lon="12.4346058"><ele>501.0</ele><time>2026-04-26T14:57:16.028Z</time></trkpt><trkpt lat="43.4392547" lon="12.4344741"><ele>501.0</ele><time>2026-04-26T14:57:18.03Z</time></trkpt><trkpt lat="43.4391688" lon="12.4344094"><ele>501.0</ele><time>2026-04-26T14:57:20.035Z</time></trkpt><trkpt lat="43.4391002" lon="12.4344157"><ele>501.0</ele><time>2026-04-26T14:57:21.035Z</time></trkpt><trkpt lat="43.4390173" lon="12.434413"><ele>501.0</ele><time>2026-04-26T14:57:22.034Z</time></trkpt><trkpt lat="43.4389317" lon="12.434421"><ele>501.0</ele><time>2026-04-26T14:57:23.04Z</time></trkpt><trkpt lat="43.4388279" lon="12.4344325"><ele>501.0</ele><time>2026-04-26T14:57:24.026Z</time></trkpt><trkpt lat="43.4387187" lon="12.4344244"><ele>501.25</ele><time>2026-04-26T14:57:25.05Z</time></trkpt><trkpt lat="43.4386029" lon="12.4344078"><ele>501.5</ele><time>2026-04-26T14:57:26.028Z</time></trkpt><trkpt lat="43.438478" lon="12.4343829"><ele>501.75</ele><time>2026-04-26T14:57:27.041Z</time></trkpt><trkpt lat="43.4383486" lon="12.4343482"><ele>502.0</ele><time>2026-04-26T14:57:28.035Z</time></trkpt><trkpt lat="43.4382054" lon="12.4343154"><ele>502.0</ele><time>2026-04-26T14:57:29.031Z</time></trkpt><trkpt lat="43.4380584" lon="12.4342785"><ele>502.0</ele><time>2026-04-26T14:57:30.028Z</time></trkpt><trkpt lat="43.4379066" lon="12.4342393"><ele>502.0</ele><time>2026-04-26T14:57:31.039Z</time></trkpt><trkpt lat="43.4377557" lon="12.4342001"><ele>503.5</ele><time>2026-04-26T14:57:32.029Z</time></trkpt><trkpt lat="43.4376096" lon="12.4341661"><ele>505.0</ele><time>2026-04-26T14:57:33.023Z</time></trkpt><trkpt lat="43.4374762" lon="12.4341275"><ele>506.5</ele><time>2026-04-26T14:57:34.02Z</time></trkpt><trkpt lat="43.4373491" lon="12.4340982"><ele>508.0</ele><time>2026-04-26T14:57:35.028Z</time></trkpt><trkpt lat="43.4372206" lon="12.4340667"><ele>509.0</ele><time>2026-04-26T14:57:36.019Z</time></trkpt><trkpt lat="43.4370833" lon="12.4340426"><ele>510.0</ele><time>2026-04-26T14:57:37.04Z</time></trkpt><trkpt lat="43.4369459" lon="12.4340158"><ele>511.0</ele><time>2026-04-26T14:57:38.029Z</time></trkpt><trkpt lat="43.4368111" lon="12.4340019"><ele>512.0</ele><time>2026-04-26T14:57:39.019Z</time></trkpt><trkpt lat="43.4366826" lon="12.4339952"><ele>512.0</ele><time>2026-04-26T14:57:40.017Z</time></trkpt><trkpt lat="43.4365613" lon="12.4339959"><ele>512.0</ele><time>2026-04-26T14:57:41.025Z</time></trkpt><trkpt lat="43.4364433" lon="12.4340001"><ele>512.0</ele><time>2026-04-26T14:57:42.021Z</time></trkpt><trkpt lat="43.436327" lon="12.4340086"><ele>512.0</ele><time>2026-04-26T14:57:43.035Z</time></trkpt><trkpt lat="43.4362099" lon="12.434016"><ele>511.75</ele><time>2026-04-26T14:57:44.018Z</time></trkpt><trkpt lat="43.4360826" lon="12.4340178"><ele>511.5</ele><time>2026-04-26T14:57:45.025Z</time></trkpt><trkpt lat="43.4359503" lon="12.434027"><ele>511.25</ele><time>2026-04-26T14:57:46.038Z</time></trkpt><trkpt lat="43.4358085" lon="12.4340328"><ele>511.0</ele><time>2026-04-26T14:57:47.038Z</time></trkpt><trkpt lat="43.4356627" lon="12.4340413"><ele>511.0</ele><time>2026-04-26T14:57:48.024Z</time></trkpt><trkpt lat="43.4355076" lon="12.4340534"><ele>511.0</ele><time>2026-04-26T14:57:49.039Z</time></trkpt><trkpt lat="43.4353492" lon="12.4340599"><ele>511.0</ele><time>2026-04-26T14:57:50.026Z</time></trkpt><trkpt lat="43.4351846" lon="12.4340632"><ele>509.6666666666667</ele><time>2026-04-26T14:57:51.026Z</time></trkpt><trkpt lat="43.4350168" lon="12.4340626"><ele>508.33333333333337</ele><time>2026-04-26T14:57:52.041Z</time></trkpt><trkpt lat="43.4348523" lon="12.4340491"><ele>507.0</ele><time>2026-04-26T14:57:53.047Z</time></trkpt><trkpt lat="43.4347013" lon="12.4340336"><ele>507.0</ele><time>2026-04-26T14:57:54.122Z</time></trkpt><trkpt lat="43.4345609" lon="12.4340124"><ele>507.0</ele><time>2026-04-26T14:57:55.048Z</time></trkpt><trkpt lat="43.4344258" lon="12.4339927"><ele>507.0</ele><time>2026-04-26T14:57:56.029Z</time></trkpt><trkpt lat="43.4342908" lon="12.4339767"><ele>507.0</ele><time>2026-04-26T14:57:57.034Z</time></trkpt><trkpt lat="43.4341485" lon="12.4339604"><ele>507.0</ele><time>2026-04-26T14:57:58.04Z</time></trkpt><trkpt lat="43.4340062" lon="12.4339412"><ele>507.0</ele><time>2026-04-26T14:57:59.039Z</time></trkpt><trkpt lat="43.4338634" lon="12.4339289"><ele>507.0</ele><time>2026-04-26T14:58:00.043Z</time></trkpt><trkpt lat="43.4337183" lon="12.4339062"><ele>507.0</ele><time>2026-04-26T14:58:01.048Z</time></trkpt><trkpt lat="43.4335673" lon="12.4338876"><ele>508.33333333333337</ele><time>2026-04-26T14:58:02.04Z</time></trkpt><trkpt lat="43.4334087" lon="12.4338634"><ele>509.6666666666667</ele><time>2026-04-26T14:58:03.036Z</time></trkpt><trkpt lat="43.4332463" lon="12.4338418"><ele>511.0</ele><time>2026-04-26T14:58:04.013Z</time></trkpt><trkpt lat="43.433082" lon="12.4338173"><ele>506.6666666666667</ele><time>2026-04-26T14:58:05.045Z</time></trkpt><trkpt lat="43.4329212" lon="12.433795"><ele>502.33333333333337</ele><time>2026-04-26T14:58:06.03Z</time></trkpt><trkpt lat="43.432758" lon="12.4337733"><ele>498.0</ele><time>2026-04-26T14:58:07.049Z</time></trkpt><trkpt lat="43.4325884" lon="12.4337516"><ele>498.0</ele><time>2026-04-26T14:58:08.032Z</time></trkpt><trkpt lat="43.432414" lon="12.4337278"><ele>498.0</ele><time>2026-04-26T14:58:09.03Z</time></trkpt><trkpt lat="43.4322376" lon="12.4337033"><ele>498.0</ele><time>2026-04-26T14:58:10.03Z</time></trkpt><trkpt lat="43.4320669" lon="12.4336893"><ele>497.33333333333337</ele><time>2026-04-26T14:58:11.04Z</time></trkpt><trkpt lat="43.4318951" lon="12.4336944"><ele>496.6666666666667</ele><time>2026-04-26T14:58:12.017Z</time></trkpt><trkpt lat="43.4317286" lon="12.4337181"><ele>496.0</ele><time>2026-04-26T14:58:13.027Z</time></trkpt><trkpt lat="43.4315664" lon="12.4337499"><ele>496.0</ele><time>2026-04-26T14:58:14.016Z</time></trkpt><trkpt lat="43.4314201" lon="12.4337867"><ele>496.0</ele><time>2026-04-26T14:58:15.033Z</time></trkpt><trkpt lat="43.4312701" lon="12.4338267"><ele>496.0</ele><time>2026-04-26T14:58:16.013Z</time></trkpt><trkpt lat="43.4311215" lon="12.433869"><ele>498.6666666666667</ele><time>2026-04-26T14:58:17.037Z</time></trkpt><trkpt lat="43.4309717" lon="12.4339199"><ele>501.33333333333337</ele><time>2026-04-26T14:58:18.037Z</time></trkpt><trkpt lat="43.4308012" lon="12.4339898"><ele>504.0</ele><time>2026-04-26T14:58:19.032Z</time></trkpt><trkpt lat="43.4306152" lon="12.4340604"><ele>502.0</ele><time>2026-04-26T14:58:20.038Z</time></trkpt><trkpt lat="43.4304294" lon="12.4341261"><ele>500.0</ele><time>2026-04-26T14:58:21.035Z</time></trkpt><trkpt lat="43.4302516" lon="12.4341975"><ele>498.0</ele><time>2026-04-26T14:58:22.051Z</time></trkpt><trkpt lat="43.4300818" lon="12.4342672"><ele>498.0</ele><time>2026-04-26T14:58:23.034Z</time></trkpt><trkpt lat="43.4299223" lon="12.4343426"><ele>498.0</ele><time>2026-04-26T14:58:24.043Z</time></trkpt><trkpt lat="43.4297638" lon="12.4344364"><ele>498.0</ele><time>2026-04-26T14:58:25.034Z</time></trkpt><trkpt lat="43.4296181" lon="12.4345627"><ele>497.33333333333337</ele><time>2026-04-26T14:58:26.025Z</time></trkpt><trkpt lat="43.4294783" lon="12.4347264"><ele>496.6666666666667</ele><time>2026-04-26T14:58:27.023Z</time></trkpt><trkpt lat="43.4293407" lon="12.4348918"><ele>496.0</ele><time>2026-04-26T14:58:28.029Z</time></trkpt><trkpt lat="43.4291951" lon="12.4350485"><ele>496.0</ele><time>2026-04-26T14:58:29.038Z</time></trkpt><trkpt lat="43.4290699" lon="12.4351564"><ele>496.0</ele><time>2026-04-26T14:58:30.051Z</time></trkpt><trkpt lat="43.4289715" lon="12.4352377"><ele>496.0</ele><time>2026-04-26T14:58:31.022Z</time></trkpt><trkpt lat="43.4289156" lon="12.4353038"><ele>496.0</ele><time>2026-04-26T14:58:32.034Z</time></trkpt><trkpt lat="43.4289267" lon="12.4354278"><ele>496.0</ele><time>2026-04-26T14:58:34.028Z</time></trkpt><trkpt lat="43.4290047" lon="12.4355962"><ele>496.0</ele><time>2026-04-26T14:58:36.033Z</time></trkpt><trkpt lat="43.4290461" lon="12.4357368"><ele>496.0</ele><time>2026-04-26T14:58:37.037Z</time></trkpt><trkpt lat="43.4290849" lon="12.4358965"><ele>496.0</ele><time>2026-04-26T14:58:38.044Z</time></trkpt><trkpt lat="43.4291298" lon="12.4360714"><ele>496.0</ele><time>2026-04-26T14:58:39.043Z</time></trkpt><trkpt lat="43.4291864" lon="12.4362647"><ele>499.6666666666667</ele><time>2026-04-26T14:58:40.035Z</time></trkpt><trkpt lat="43.4292536" lon="12.4364643"><ele>503.33333333333337</ele><time>2026-04-26T14:58:41.045Z</time></trkpt><trkpt lat="43.4293328" lon="12.4366674"><ele>507.0</ele><time>2026-04-26T14:58:42.035Z</time></trkpt><trkpt lat="43.4294178" lon="12.436872"><ele>507.0</ele><time>2026-04-26T14:58:43.029Z</time></trkpt><trkpt lat="43.429505" lon="12.4370623"><ele>507.0</ele><time>2026-04-26T14:58:44.03Z</time></trkpt><trkpt lat="43.4295797" lon="12.437229"><ele>507.0</ele><time>2026-04-26T14:58:45.049Z</time></trkpt><trkpt lat="43.4296496" lon="12.4373782"><ele>507.0</ele><time>2026-04-26T14:58:46.037Z</time></trkpt><trkpt lat="43.4297141" lon="12.4375086"><ele>507.3333333333333</ele><time>2026-04-26T14:58:47.042Z</time></trkpt><trkpt lat="43.4297673" lon="12.4376216"><ele>507.66666666666663</ele><time>2026-04-26T14:58:48.034Z</time></trkpt><trkpt lat="43.4297781" lon="12.4377235"><ele>508.0</ele><time>2026-04-26T14:58:49.02Z</time></trkpt><trkpt lat="43.4297429" lon="12.4378273"><ele>508.3333333333333</ele><time>2026-04-26T14:58:50.025Z</time></trkpt><trkpt lat="43.4296853" lon="12.4378625"><ele>508.66666666666663</ele><time>2026-04-26T14:58:51.037Z</time></trkpt><trkpt lat="43.4295992" lon="12.437851"><ele>509.0</ele><time>2026-04-26T14:58:52.036Z</time></trkpt><trkpt lat="43.4295204" lon="12.4377817"><ele>512.5</ele><time>2026-04-26T14:58:53.042Z</time></trkpt><trkpt lat="43.4294247" lon="12.4376887"><ele>516.0</ele><time>2026-04-26T14:58:54.05Z</time></trkpt><trkpt lat="43.4293191" lon="12.4376181"><ele>519.5</ele><time>2026-04-26T14:58:55.037Z</time></trkpt><trkpt lat="43.4292064" lon="12.4375488"><ele>523.0</ele><time>2026-04-26T14:58:56.031Z</time></trkpt><trkpt lat="43.4290869" lon="12.4374792"><ele>523.0</ele><time>2026-04-26T14:58:57.046Z</time></trkpt><trkpt lat="43.4289609" lon="12.4374119"><ele>523.0</ele><time>2026-04-26T14:58:58.034Z</time></trkpt><trkpt lat="43.4288274" lon="12.437365"><ele>523.0</ele><time>2026-04-26T14:58:59.042Z</time></trkpt><trkpt lat="43.4286908" lon="12.4373412"><ele>523.0</ele><time>2026-04-26T14:59:00.034Z</time></trkpt><trkpt lat="43.4285438" lon="12.4373573"><ele>526.75</ele><time>2026-04-26T14:59:01.035Z</time></trkpt><trkpt lat="43.428409" lon="12.4373819"><ele>530.5</ele><time>2026-04-26T14:59:02.034Z</time></trkpt><trkpt lat="43.4282947" lon="12.4373992"><ele>534.25</ele><time>2026-04-26T14:59:03.012Z</time></trkpt><trkpt lat="43.4281857" lon="12.4374214"><ele>538.0</ele><time>2026-04-26T14:59:04.026Z</time></trkpt><trkpt lat="43.4280631" lon="12.4374722"><ele>538.75</ele><time>2026-04-26T14:59:05.044Z</time></trkpt><trkpt lat="43.4279311" lon="12.4375462"><ele>539.5</ele><time>2026-04-26T14:59:06.03Z</time></trkpt><trkpt lat="43.4277936" lon="12.4376243"><ele>540.25</ele><time>2026-04-26T14:59:07.03Z</time></trkpt><trkpt lat="43.4276486" lon="12.4376714"><ele>541.0</ele><time>2026-04-26T14:59:08.041Z</time></trkpt><trkpt lat="43.42749" lon="12.4376746"><ele>541.0</ele><time>2026-04-26T14:59:09.033Z</time></trkpt><trkpt lat="43.4273324" lon="12.4376406"><ele>541.0</ele><time>2026-04-26T14:59:10.019Z</time></trkpt><trkpt lat="43.427184" lon="12.4375785"><ele>541.0</ele><time>2026-04-26T14:59:11.045Z</time></trkpt><trkpt lat="43.4270554" lon="12.4374961"><ele>544.75</ele><time>2026-04-26T14:59:12.028Z</time></trkpt><trkpt lat="43.4269334" lon="12.437415"><ele>548.5</ele><time>2026-04-26T14:59:13.041Z</time></trkpt><trkpt lat="43.4268187" lon="12.4373851"><ele>552.25</ele><time>2026-04-26T14:59:14.024Z</time></trkpt><trkpt lat="43.4266964" lon="12.437422"><ele>556.0</ele><time>2026-04-26T14:59:15.031Z</time></trkpt><trkpt lat="43.4265604" lon="12.4374886"><ele>556.0</ele><time>2026-04-26T14:59:16.025Z</time></trkpt><trkpt lat="43.4264266" lon="12.4375464"><ele>556.0</ele><time>2026-04-26T14:59:17.013Z</time></trkpt><trkpt lat="43.4262951" lon="12.4375699"><ele>556.0</ele><time>2026-04-26T14:59:18.03Z</time></trkpt><trkpt lat="43.4261595" lon="12.4376068"><ele>556.0</ele><time>2026-04-26T14:59:19.05Z</time></trkpt><trkpt lat="43.4260176" lon="12.4376832"><ele>553.3333333333334</ele><time>2026-04-26T14:59:20.029Z</time></trkpt><trkpt lat="43.4258941" lon="12.4378065"><ele>550.6666666666666</ele><time>2026-04-26T14:59:21.039Z</time></trkpt><trkpt lat="43.425772" lon="12.4379369"><ele>548.0</ele><time>2026-04-26T14:59:22.04Z</time></trkpt><trkpt lat="43.4256498" lon="12.438072"><ele>550.0</ele><time>2026-04-26T14:59:23.02Z</time></trkpt><trkpt lat="43.4255264" lon="12.4382084"><ele>552.0</ele><time>2026-04-26T14:59:24.033Z</time></trkpt><trkpt lat="43.4254078" lon="12.4383298"><ele>554.0</ele><time>2026-04-26T14:59:25.039Z</time></trkpt><trkpt lat="43.4253049" lon="12.4384479"><ele>556.0</ele><time>2026-04-26T14:59:26.048Z</time></trkpt><trkpt lat="43.4252085" lon="12.4385674"><ele>556.0</ele><time>2026-04-26T14:59:27.028Z</time></trkpt><trkpt lat="43.4251176" lon="12.4387116"><ele>556.0</ele><time>2026-04-26T14:59:28.035Z</time></trkpt><trkpt lat="43.4250326" lon="12.4388813"><ele>556.0</ele><time>2026-04-26T14:59:29.041Z</time></trkpt><trkpt lat="43.4249647" lon="12.4390777"><ele>556.0</ele><time>2026-04-26T14:59:30.031Z</time></trkpt><trkpt lat="43.424915" lon="12.4393027"><ele>560.6666666666667</ele><time>2026-04-26T14:59:31.027Z</time></trkpt><trkpt lat="43.4248759" lon="12.439536"><ele>565.3333333333334</ele><time>2026-04-26T14:59:32.031Z</time></trkpt><trkpt lat="43.4248206" lon="12.4397638"><ele>570.0</ele><time>2026-04-26T14:59:33.041Z</time></trkpt><trkpt lat="43.4247353" lon="12.439942"><ele>572.5</ele><time>2026-04-26T14:59:34.014Z</time></trkpt><trkpt lat="43.4246404" lon="12.4400531"><ele>575.0</ele><time>2026-04-26T14:59:35.018Z</time></trkpt><trkpt lat="43.4245314" lon="12.4401659"><ele>577.5</ele><time>2026-04-26T14:59:36.028Z</time></trkpt><trkpt lat="43.4244205" lon="12.4402557"><ele>580.0</ele><time>2026-04-26T14:59:37.044Z</time></trkpt><trkpt lat="43.4243221" lon="12.4402991"><ele>580.0</ele><time>2026-04-26T14:59:38.03Z</time></trkpt><trkpt lat="43.424227" lon="12.4402734"><ele>580.0</ele><time>2026-04-26T14:59:39.031Z</time></trkpt><trkpt lat="43.4241428" lon="12.44019"><ele>580.0</ele><time>2026-04-26T14:59:40.03Z</time></trkpt><trkpt lat="43.424064" lon="12.4400654"><ele>580.0</ele><time>2026-04-26T14:59:41.042Z</time></trkpt><trkpt lat="43.4239932" lon="12.4399144"><ele>580.0</ele><time>2026-04-26T14:59:42.052Z</time></trkpt><trkpt lat="43.4239264" lon="12.439755"><ele>580.0</ele><time>2026-04-26T14:59:43.036Z</time></trkpt><trkpt lat="43.4238549" lon="12.4396258"><ele>580.0</ele><time>2026-04-26T14:59:44.013Z</time></trkpt><trkpt lat="43.4237819" lon="12.4395402"><ele>580.0</ele><time>2026-04-26T14:59:45.034Z</time></trkpt><trkpt lat="43.4236754" lon="12.4395017"><ele>582.75</ele><time>2026-04-26T14:59:46.03Z</time></trkpt><trkpt lat="43.4235451" lon="12.4394962"><ele>585.5</ele><time>2026-04-26T14:59:47.037Z</time></trkpt><trkpt lat="43.4234306" lon="12.4394742"><ele>588.25</ele><time>2026-04-26T14:59:48.044Z</time></trkpt><trkpt lat="43.4233371" lon="12.4393935"><ele>591.0</ele><time>2026-04-26T14:59:49.042Z</time></trkpt><trkpt lat="43.4232563" lon="12.4392455"><ele>591.0</ele><time>2026-04-26T14:59:50.04Z</time></trkpt><trkpt lat="43.4231818" lon="12.4391016"><ele>591.0</ele><time>2026-04-26T14:59:51.035Z</time></trkpt><trkpt lat="43.4230696" lon="12.4389837"><ele>591.0</ele><time>2026-04-26T14:59:52.04Z</time></trkpt><trkpt lat="43.4229479" lon="12.4388858"><ele>591.0</ele><time>2026-04-26T14:59:53.039Z</time></trkpt><trkpt lat="43.4228411" lon="12.4387687"><ele>591.4</ele><time>2026-04-26T14:59:54.037Z</time></trkpt><trkpt lat="43.4227622" lon="12.4386471"><ele>591.8</ele><time>2026-04-26T14:59:55.031Z</time></trkpt><trkpt lat="43.4226985" lon="12.4385513"><ele>592.1999999999999</ele><time>2026-04-26T14:59:56.039Z</time></trkpt><trkpt lat="43.4226286" lon="12.4384737"><ele>592.6</ele><time>2026-04-26T14:59:57.025Z</time></trkpt><trkpt lat="43.4225441" lon="12.4384545"><ele>593.0</ele><time>2026-04-26T14:59:58.036Z</time></trkpt><trkpt lat="43.4224462" lon="12.4384911"><ele>593.0</ele><time>2026-04-26T14:59:59.039Z</time></trkpt><trkpt lat="43.4223493" lon="12.4385902"><ele>593.0</ele><time>2026-04-26T15:00:00.023Z</time></trkpt><trkpt lat="43.4222706" lon="12.4387368"><ele>593.0</ele><time>2026-04-26T15:00:01.043Z</time></trkpt><trkpt lat="43.4221777" lon="12.4388899"><ele>593.0</ele><time>2026-04-26T15:00:02.038Z</time></trkpt><trkpt lat="43.4220729" lon="12.4390461"><ele>596.3333333333333</ele><time>2026-04-26T15:00:03.035Z</time></trkpt><trkpt lat="43.4219524" lon="12.439202"><ele>599.6666666666666</ele><time>2026-04-26T15:00:04.043Z</time></trkpt><trkpt lat="43.4218288" lon="12.4393432"><ele>603.0</ele><time>2026-04-26T15:00:05.027Z</time></trkpt><trkpt lat="43.4217018" lon="12.439455"><ele>603.0</ele><time>2026-04-26T15:00:06.051Z</time></trkpt><trkpt lat="43.4215883" lon="12.4395506"><ele>603.0</ele><time>2026-04-26T15:00:07.048Z</time></trkpt><trkpt lat="43.4214891" lon="12.4396402"><ele>603.0</ele><time>2026-04-26T15:00:08.04Z</time></trkpt><trkpt lat="43.4214101" lon="12.4397479"><ele>603.0</ele><time>2026-04-26T15:00:09.034Z</time></trkpt><trkpt lat="43.4214006" lon="12.4399057"><ele>607.0</ele><time>2026-04-26T15:00:10.024Z</time></trkpt><trkpt lat="43.421412" lon="12.4400851"><ele>611.0</ele><time>2026-04-26T15:00:11.026Z</time></trkpt><trkpt lat="43.4214638" lon="12.4402766"><ele>615.0</ele><time>2026-04-26T15:00:12.034Z</time></trkpt><trkpt lat="43.4215604" lon="12.440472"><ele>615.0</ele><time>2026-04-26T15:00:13.026Z</time></trkpt><trkpt lat="43.4216701" lon="12.440619"><ele>615.0</ele><time>2026-04-26T15:00:14.037Z</time></trkpt><trkpt lat="43.421759" lon="12.4407816"><ele>615.0</ele><time>2026-04-26T15:00:15.018Z</time></trkpt><trkpt lat="43.421822" lon="12.4409447"><ele>615.0</ele><time>2026-04-26T15:00:16.037Z</time></trkpt><trkpt lat="43.421838" lon="12.4411082"><ele>615.0</ele><time>2026-04-26T15:00:17.028Z</time></trkpt><trkpt lat="43.4217943" lon="12.4412801"><ele>615.0</ele><time>2026-04-26T15:00:18.055Z</time></trkpt><trkpt lat="43.4217395" lon="12.4414614"><ele>615.0</ele><time>2026-04-26T15:00:19.04Z</time></trkpt><trkpt lat="43.4216653" lon="12.4416395"><ele>615.0</ele><time>2026-04-26T15:00:20.04Z</time></trkpt><trkpt lat="43.4215655" lon="12.4418237"><ele>617.0</ele><time>2026-04-26T15:00:21.05Z</time></trkpt><trkpt lat="43.4214512" lon="12.4419959"><ele>619.0</ele><time>2026-04-26T15:00:22.036Z</time></trkpt><trkpt lat="43.4213258" lon="12.4421443"><ele>621.0</ele><time>2026-04-26T15:00:23.033Z</time></trkpt><trkpt lat="43.4211943" lon="12.442261"><ele>622.75</ele><time>2026-04-26T15:00:24.037Z</time></trkpt><trkpt lat="43.4210638" lon="12.4423593"><ele>624.5</ele><time>2026-04-26T15:00:25.052Z</time></trkpt><trkpt lat="43.4209491" lon="12.4424607"><ele>626.25</ele><time>2026-04-26T15:00:26.038Z</time></trkpt><trkpt lat="43.4208405" lon="12.4425969"><ele>628.0</ele><time>2026-04-26T15:00:27.027Z</time></trkpt><trkpt lat="43.4207575" lon="12.4427755"><ele>632.0</ele><time>2026-04-26T15:00:28.041Z</time></trkpt><trkpt lat="43.420681" lon="12.4429722"><ele>636.0</ele><time>2026-04-26T15:00:29.046Z</time></trkpt><trkpt lat="43.420586" lon="12.4431624"><ele>640.0</ele><time>2026-04-26T15:00:30.037Z</time></trkpt><trkpt lat="43.4204683" lon="12.4433051"><ele>640.0</ele><time>2026-04-26T15:00:31.05Z</time></trkpt><trkpt lat="43.4203568" lon="12.4434058"><ele>640.0</ele><time>2026-04-26T15:00:32.035Z</time></trkpt><trkpt lat="43.4202458" lon="12.4434695"><ele>640.0</ele><time>2026-04-26T15:00:33.038Z</time></trkpt><trkpt lat="43.4201417" lon="12.4435796"><ele>640.0</ele><time>2026-04-26T15:00:34.043Z</time></trkpt><trkpt lat="43.420065" lon="12.4437376"><ele>641.6</ele><time>2026-04-26T15:00:35.03Z</time></trkpt><trkpt lat="43.4199927" lon="12.4438952"><ele>643.2</ele><time>2026-04-26T15:00:36.048Z</time></trkpt><trkpt lat="43.4199507" lon="12.4440381"><ele>644.8</ele><time>2026-04-26T15:00:37.058Z</time></trkpt><trkpt lat="43.4199124" lon="12.4441532"><ele>646.4</ele><time>2026-04-26T15:00:38.04Z</time></trkpt><trkpt lat="43.4198831" lon="12.4442325"><ele>648.0</ele><time>2026-04-26T15:00:39.045Z</time></trkpt><trkpt lat="43.4198051" lon="12.4443194"><ele>648.0</ele><time>2026-04-26T15:00:41.042Z</time></trkpt><trkpt lat="43.4197433" lon="12.4443485"><ele>648.0</ele><time>2026-04-26T15:00:42.029Z</time></trkpt><trkpt lat="43.4196653" lon="12.4443653"><ele>648.0</ele><time>2026-04-26T15:00:43.046Z</time></trkpt><trkpt lat="43.4195629" lon="12.4443729"><ele>648.0</ele><time>2026-04-26T15:00:44.051Z</time></trkpt><trkpt lat="43.4194472" lon="12.4443723"><ele>648.0</ele><time>2026-04-26T15:00:45.041Z</time></trkpt><trkpt lat="43.4193167" lon="12.4443591"><ele>648.0</ele><time>2026-04-26T15:00:46.029Z</time></trkpt><trkpt lat="43.4191724" lon="12.4443355"><ele>648.0</ele><time>2026-04-26T15:00:47.038Z</time></trkpt><trkpt lat="43.4190252" lon="12.4443138"><ele>648.0</ele><time>2026-04-26T15:00:48.033Z</time></trkpt><trkpt lat="43.418888" lon="12.4443022"><ele>648.0</ele><time>2026-04-26T15:00:49.031Z</time></trkpt><trkpt lat="43.418756" lon="12.4443038"><ele>649.25</ele><time>2026-04-26T15:00:50.027Z</time></trkpt><trkpt lat="43.4186237" lon="12.4443099"><ele>650.5</ele><time>2026-04-26T15:00:51.045Z</time></trkpt><trkpt lat="43.4184888" lon="12.4443306"><ele>651.75</ele><time>2026-04-26T15:00:52.025Z</time></trkpt><trkpt lat="43.4183525" lon="12.4443541"><ele>653.0</ele><time>2026-04-26T15:00:53.035Z</time></trkpt><trkpt lat="43.4182148" lon="12.4443853"><ele>653.0</ele><time>2026-04-26T15:00:54.026Z</time></trkpt><trkpt lat="43.4180707" lon="12.4444093"><ele>653.0</ele><time>2026-04-26T15:00:55.036Z</time></trkpt><trkpt lat="43.4179254" lon="12.4443956"><ele>653.0</ele><time>2026-04-26T15:00:56.047Z</time></trkpt><trkpt lat="43.4177719" lon="12.44437"><ele>653.0</ele><time>2026-04-26T15:00:57.038Z</time></trkpt><trkpt lat="43.4176061" lon="12.4443508"><ele>656.3333333333333</ele><time>2026-04-26T15:00:58.05Z</time></trkpt><trkpt lat="43.4174402" lon="12.4443418"><ele>659.6666666666666</ele><time>2026-04-26T15:00:59.034Z</time></trkpt><trkpt lat="43.4172633" lon="12.4443442"><ele>663.0</ele><time>2026-04-26T15:01:00.02Z</time></trkpt><trkpt lat="43.4170969" lon="12.4443464"><ele>666.0</ele><time>2026-04-26T15:01:01.039Z</time></trkpt><trkpt lat="43.4169415" lon="12.4443238"><ele>669.0</ele><time>2026-04-26T15:01:02.023Z</time></trkpt><trkpt lat="43.4167954" lon="12.4442763"><ele>672.0</ele><time>2026-04-26T15:01:03.025Z</time></trkpt><trkpt lat="43.4166591" lon="12.4442113"><ele>672.0</ele><time>2026-04-26T15:01:04.034Z</time></trkpt><trkpt lat="43.4165304" lon="12.4441397"><ele>672.0</ele><time>2026-04-26T15:01:05.047Z</time></trkpt><trkpt lat="43.4164139" lon="12.4440874"><ele>672.0</ele><time>2026-04-26T15:01:06.037Z</time></trkpt><trkpt lat="43.4162815" lon="12.4440796"><ele>672.0</ele><time>2026-04-26T15:01:07.043Z</time></trkpt><trkpt lat="43.4161358" lon="12.4441124"><ele>671.5</ele><time>2026-04-26T15:01:08.024Z</time></trkpt><trkpt lat="43.4159863" lon="12.4441464"><ele>671.0</ele><time>2026-04-26T15:01:09.025Z</time></trkpt><trkpt lat="43.4158409" lon="12.4441457"><ele>670.5</ele><time>2026-04-26T15:01:10.043Z</time></trkpt><trkpt lat="43.4157035" lon="12.444128"><ele>670.0</ele><time>2026-04-26T15:01:11.033Z</time></trkpt><trkpt lat="43.4155701" lon="12.4440921"><ele>671.25</ele><time>2026-04-26T15:01:12.043Z</time></trkpt><trkpt lat="43.4154369" lon="12.4440726"><ele>672.5</ele><time>2026-04-26T15:01:13.036Z</time></trkpt><trkpt lat="43.4152938" lon="12.4440786"><ele>673.75</ele><time>2026-04-26T15:01:14.033Z</time></trkpt><trkpt lat="43.4151557" lon="12.4441214"><ele>675.0</ele><time>2026-04-26T15:01:15.04Z</time></trkpt><trkpt lat="43.4150148" lon="12.4442113"><ele>675.0</ele><time>2026-04-26T15:01:16.017Z</time></trkpt><trkpt lat="43.4148845" lon="12.4443158"><ele>675.0</ele><time>2026-04-26T15:01:17.039Z</time></trkpt><trkpt lat="43.4147575" lon="12.4444168"><ele>675.0</ele><time>2026-04-26T15:01:18.03Z</time></trkpt><trkpt lat="43.4146221" lon="12.4444787"><ele>675.0</ele><time>2026-04-26T15:01:19.054Z</time></trkpt><trkpt lat="43.4144763" lon="12.4445116"><ele>676.6666666666666</ele><time>2026-04-26T15:01:20.032Z</time></trkpt><trkpt lat="43.4143253" lon="12.4444971"><ele>678.3333333333333</ele><time>2026-04-26T15:01:21.048Z</time></trkpt><trkpt lat="43.4141655" lon="12.4444542"><ele>680.0</ele><time>2026-04-26T15:01:22.035Z</time></trkpt><trkpt lat="43.4140026" lon="12.4444123"><ele>680.0</ele><time>2026-04-26T15:01:23.042Z</time></trkpt><trkpt lat="43.4138483" lon="12.4443816"><ele>680.0</ele><time>2026-04-26T15:01:24.031Z</time></trkpt><trkpt lat="43.4136978" lon="12.4443809"><ele>680.0</ele><time>2026-04-26T15:01:25.032Z</time></trkpt><trkpt lat="43.4135441" lon="12.4444121"><ele>681.3333333333333</ele><time>2026-04-26T15:01:26.035Z</time></trkpt><trkpt lat="43.4133939" lon="12.444471"><ele>682.6666666666666</ele><time>2026-04-26T15:01:27.027Z</time></trkpt><trkpt lat="43.4132468" lon="12.4445405"><ele>684.0</ele><time>2026-04-26T15:01:28.036Z</time></trkpt><trkpt lat="43.4130977" lon="12.4445971"><ele>683.6666666666666</ele><time>2026-04-26T15:01:29.04Z</time></trkpt><trkpt lat="43.4129428" lon="12.4446294"><ele>683.3333333333333</ele><time>2026-04-26T15:01:30.046Z</time></trkpt><trkpt lat="43.4127834" lon="12.4446251"><ele>683.0</ele><time>2026-04-26T15:01:31.049Z</time></trkpt><trkpt lat="43.4126306" lon="12.4445968"><ele>683.0</ele><time>2026-04-26T15:01:32.025Z</time></trkpt><trkpt lat="43.4124806" lon="12.4445319"><ele>683.0</ele><time>2026-04-26T15:01:33.043Z</time></trkpt><trkpt lat="43.4123379" lon="12.4444244"><ele>683.0</ele><time>2026-04-26T15:01:34.022Z</time></trkpt><trkpt lat="43.4121921" lon="12.4443032"><ele>682.3333333333333</ele><time>2026-04-26T15:01:35.039Z</time></trkpt><trkpt lat="43.4120287" lon="12.4441891"><ele>681.6666666666666</ele><time>2026-04-26T15:01:36.026Z</time></trkpt><trkpt lat="43.4118519" lon="12.4440879"><ele>681.0</ele><time>2026-04-26T15:01:37.051Z</time></trkpt><trkpt lat="43.4116691" lon="12.4439962"><ele>681.0</ele><time>2026-04-26T15:01:38.043Z</time></trkpt><trkpt lat="43.4114869" lon="12.4439223"><ele>681.0</ele><time>2026-04-26T15:01:39.041Z</time></trkpt><trkpt lat="43.4112982" lon="12.4438774"><ele>681.0</ele><time>2026-04-26T15:01:40.04Z</time></trkpt><trkpt lat="43.4111082" lon="12.4438548"><ele>681.0</ele><time>2026-04-26T15:01:41.029Z</time></trkpt><trkpt lat="43.4109172" lon="12.4438568"><ele>681.0</ele><time>2026-04-26T15:01:42.018Z</time></trkpt><trkpt lat="43.4107223" lon="12.4438815"><ele>681.0</ele><time>2026-04-26T15:01:43.048Z</time></trkpt><trkpt lat="43.4105238" lon="12.4439056"><ele>680.3333333333334</ele><time>2026-04-26T15:01:44.031Z</time></trkpt><trkpt lat="43.4103234" lon="12.4439278"><ele>679.6666666666667</ele><time>2026-04-26T15:01:45.022Z</time></trkpt><trkpt lat="43.4101318" lon="12.4439584"><ele>679.0</ele><time>2026-04-26T15:01:46.045Z</time></trkpt><trkpt lat="43.4099499" lon="12.4439985"><ele>679.0</ele><time>2026-04-26T15:01:47.041Z</time></trkpt><trkpt lat="43.4097784" lon="12.4440579"><ele>679.0</ele><time>2026-04-26T15:01:48.031Z</time></trkpt><trkpt lat="43.4096078" lon="12.4441375"><ele>679.0</ele><time>2026-04-26T15:01:49.041Z</time></trkpt><trkpt lat="43.409443" lon="12.4442401"><ele>678.3333333333334</ele><time>2026-04-26T15:01:50.033Z</time></trkpt><trkpt lat="43.4092812" lon="12.4443583"><ele>677.6666666666666</ele><time>2026-04-26T15:01:51.039Z</time></trkpt><trkpt lat="43.4091283" lon="12.4444784"><ele>677.0</ele><time>2026-04-26T15:01:52.035Z</time></trkpt><trkpt lat="43.4089802" lon="12.4445828"><ele>679.0</ele><time>2026-04-26T15:01:53.044Z</time></trkpt><trkpt lat="43.4088417" lon="12.4446931"><ele>681.0</ele><time>2026-04-26T15:01:54.031Z</time></trkpt><trkpt lat="43.4087072" lon="12.4448029"><ele>683.0</ele><time>2026-04-26T15:01:55.04Z</time></trkpt><trkpt lat="43.4085834" lon="12.4449281"><ele>683.0</ele><time>2026-04-26T15:01:56.03Z</time></trkpt><trkpt lat="43.408479" lon="12.4450498"><ele>683.0</ele><time>2026-04-26T15:01:57.032Z</time></trkpt><trkpt lat="43.408389" lon="12.445175"><ele>683.0</ele><time>2026-04-26T15:01:58.025Z</time></trkpt><trkpt lat="43.4083036" lon="12.4453032"><ele>683.0</ele><time>2026-04-26T15:01:59.038Z</time></trkpt><trkpt lat="43.4082421" lon="12.4454358"><ele>682.8333333333333</ele><time>2026-04-26T15:02:00.031Z</time></trkpt><trkpt lat="43.4082111" lon="12.4455684"><ele>682.6666666666666</ele><time>2026-04-26T15:02:01.048Z</time></trkpt><trkpt lat="43.4082053" lon="12.445697"><ele>682.5</ele><time>2026-04-26T15:02:02.039Z</time></trkpt><trkpt lat="43.4082168" lon="12.4458106"><ele>682.3333333333334</ele><time>2026-04-26T15:02:03.049Z</time></trkpt><trkpt lat="43.4082254" lon="12.4459136"><ele>682.1666666666667</ele><time>2026-04-26T15:02:04.04Z</time></trkpt><trkpt lat="43.4082335" lon="12.4460136"><ele>682.0</ele><time>2026-04-26T15:02:05.042Z</time></trkpt><trkpt lat="43.4082289" lon="12.4461095"><ele>682.0</ele><time>2026-04-26T15:02:06.041Z</time></trkpt><trkpt lat="43.4082132" lon="12.4462063"><ele>682.0</ele><time>2026-04-26T15:02:07.044Z</time></trkpt><trkpt lat="43.4081734" lon="12.4462957"><ele>682.0</ele><time>2026-04-26T15:02:08.03Z</time></trkpt><trkpt lat="43.40811" lon="12.4463713"><ele>682.0</ele><time>2026-04-26T15:02:09.053Z</time></trkpt><trkpt lat="43.4080181" lon="12.446436"><ele>682.0</ele><time>2026-04-26T15:02:10.034Z</time></trkpt><trkpt lat="43.407909" lon="12.4464857"><ele>682.75</ele><time>2026-04-26T15:02:11.043Z</time></trkpt><trkpt lat="43.4077956" lon="12.4465322"><ele>683.5</ele><time>2026-04-26T15:02:12.016Z</time></trkpt><trkpt lat="43.407679" lon="12.4465726"><ele>684.25</ele><time>2026-04-26T15:02:13.035Z</time></trkpt><trkpt lat="43.4075639" lon="12.4466076"><ele>685.0</ele><time>2026-04-26T15:02:14.038Z</time></trkpt><trkpt lat="43.4074505" lon="12.4466378"><ele>685.0</ele><time>2026-04-26T15:02:15.041Z</time></trkpt><trkpt lat="43.4073465" lon="12.4466583"><ele>685.0</ele><time>2026-04-26T15:02:16.032Z</time></trkpt><trkpt lat="43.4072491" lon="12.4466791"><ele>685.0</ele><time>2026-04-26T15:02:17.051Z</time></trkpt><trkpt lat="43.4071485" lon="12.4467082"><ele>685.0</ele><time>2026-04-26T15:02:18.04Z</time></trkpt><trkpt lat="43.4070361" lon="12.4467493"><ele>685.0</ele><time>2026-04-26T15:02:19.033Z</time></trkpt><trkpt lat="43.4069022" lon="12.4468046"><ele>688.3333333333334</ele><time>2026-04-26T15:02:20.032Z</time></trkpt><trkpt lat="43.4067591" lon="12.4468843"><ele>691.6666666666666</ele><time>2026-04-26T15:02:21.034Z</time></trkpt><trkpt lat="43.4066223" lon="12.4469806"><ele>695.0</ele><time>2026-04-26T15:02:22.025Z</time></trkpt><trkpt lat="43.406493" lon="12.447079"><ele>694.2</ele><time>2026-04-26T15:02:23.024Z</time></trkpt><trkpt lat="43.4063757" lon="12.4471638"><ele>693.4</ele><time>2026-04-26T15:02:24.028Z</time></trkpt><trkpt lat="43.4062684" lon="12.4472327"><ele>692.5999999999999</ele><time>2026-04-26T15:02:25.036Z</time></trkpt><trkpt lat="43.4061715" lon="12.4472851"><ele>691.8</ele><time>2026-04-26T15:02:26.03Z</time></trkpt><trkpt lat="43.4060809" lon="12.4473177"><ele>691.0</ele><time>2026-04-26T15:02:27.023Z</time></trkpt><trkpt lat="43.4059925" lon="12.4473336"><ele>691.0</ele><time>2026-04-26T15:02:28.035Z</time></trkpt><trkpt lat="43.4059053" lon="12.4473556"><ele>691.0</ele><time>2026-04-26T15:02:29.045Z</time></trkpt><trkpt lat="43.4058213" lon="12.447396"><ele>691.0</ele><time>2026-04-26T15:02:30.045Z</time></trkpt><trkpt lat="43.4057505" lon="12.447493"><ele>691.0</ele><time>2026-04-26T15:02:31.048Z</time></trkpt><trkpt lat="43.4056874" lon="12.4476438"><ele>691.0</ele><time>2026-04-26T15:02:32.036Z</time></trkpt><trkpt lat="43.4056185" lon="12.4478323"><ele>690.25</ele><time>2026-04-26T15:02:33.034Z</time></trkpt><trkpt lat="43.4055391" lon="12.448002"><ele>689.5</ele><time>2026-04-26T15:02:34.03Z</time></trkpt><trkpt lat="43.405447" lon="12.4481531"><ele>688.75</ele><time>2026-04-26T15:02:35.046Z</time></trkpt><trkpt lat="43.4053361" lon="12.448242"><ele>688.0</ele><time>2026-04-26T15:02:36.032Z</time></trkpt><trkpt lat="43.4052052" lon="12.448248"><ele>688.0</ele><time>2026-04-26T15:02:37.038Z</time></trkpt><trkpt lat="43.4050738" lon="12.4482178"><ele>688.0</ele><time>2026-04-26T15:02:38.045Z</time></trkpt><trkpt lat="43.4049629" lon="12.4482155"><ele>688.0</ele><time>2026-04-26T15:02:39.036Z</time></trkpt><trkpt lat="43.4048816" lon="12.448239"><ele>688.0</ele><time>2026-04-26T15:02:40.026Z</time></trkpt><trkpt lat="43.4048352" lon="12.4483148"><ele>688.0</ele><time>2026-04-26T15:02:41.028Z</time></trkpt><trkpt lat="43.404815" lon="12.4484498"><ele>688.0</ele><time>2026-04-26T15:02:42.017Z</time></trkpt><trkpt lat="43.4048268" lon="12.4486199"><ele>688.0</ele><time>2026-04-26T15:02:43.019Z</time></trkpt><trkpt lat="43.4048317" lon="12.4487991"><ele>688.0</ele><time>2026-04-26T15:02:44.024Z</time></trkpt><trkpt lat="43.4048135" lon="12.4489448"><ele>688.0</ele><time>2026-04-26T15:02:45.034Z</time></trkpt><trkpt lat="43.4047605" lon="12.4490641"><ele>684.0</ele><time>2026-04-26T15:02:46.026Z</time></trkpt><trkpt lat="43.4046707" lon="12.4491383"><ele>680.0</ele><time>2026-04-26T15:02:47.034Z</time></trkpt><trkpt lat="43.4045454" lon="12.4491348"><ele>676.0</ele><time>2026-04-26T15:02:48.027Z</time></trkpt><trkpt lat="43.4044038" lon="12.4490921"><ele>672.0</ele><time>2026-04-26T15:02:49.014Z</time></trkpt><trkpt lat="43.4042522" lon="12.4490369"><ele>672.0</ele><time>2026-04-26T15:02:50.029Z</time></trkpt><trkpt lat="43.4040865" lon="12.4489813"><ele>672.0</ele><time>2026-04-26T15:02:51.025Z</time></trkpt><trkpt lat="43.4039114" lon="12.4489327"><ele>672.0</ele><time>2026-04-26T15:02:52.034Z</time></trkpt><trkpt lat="43.4037427" lon="12.4489006"><ele>670.5</ele><time>2026-04-26T15:02:53.034Z</time></trkpt><trkpt lat="43.4035818" lon="12.4488727"><ele>669.0</ele><time>2026-04-26T15:02:54.03Z</time></trkpt><trkpt lat="43.4034344" lon="12.4488596"><ele>667.5</ele><time>2026-04-26T15:02:55.038Z</time></trkpt><trkpt lat="43.4033068" lon="12.4488748"><ele>666.0</ele><time>2026-04-26T15:02:56.038Z</time></trkpt><trkpt lat="43.4031967" lon="12.4489423"><ele>666.0</ele><time>2026-04-26T15:02:57.03Z</time></trkpt><trkpt lat="43.4031185" lon="12.449085"><ele>666.0</ele><time>2026-04-26T15:02:58.017Z</time></trkpt><trkpt lat="43.4030464" lon="12.4492405"><ele>666.0</ele><time>2026-04-26T15:02:59.033Z</time></trkpt><trkpt lat="43.4029888" lon="12.4494149"><ele>666.0</ele><time>2026-04-26T15:03:00.042Z</time></trkpt><trkpt lat="43.4029623" lon="12.4495899"><ele>662.6666666666666</ele><time>2026-04-26T15:03:01.044Z</time></trkpt><trkpt lat="43.4029792" lon="12.4497849"><ele>659.3333333333333</ele><time>2026-04-26T15:03:02.029Z</time></trkpt><trkpt lat="43.4030517" lon="12.4499895"><ele>656.0</ele><time>2026-04-26T15:03:03.042Z</time></trkpt><trkpt lat="43.4031473" lon="12.4501738"><ele>655.75</ele><time>2026-04-26T15:03:04.039Z</time></trkpt><trkpt lat="43.4032368" lon="12.4503375"><ele>655.5</ele><time>2026-04-26T15:03:05.034Z</time></trkpt><trkpt lat="43.4033126" lon="12.4504871"><ele>655.25</ele><time>2026-04-26T15:03:06.036Z</time></trkpt><trkpt lat="43.4033688" lon="12.4506403"><ele>655.0</ele><time>2026-04-26T15:03:07.039Z</time></trkpt><trkpt lat="43.4033916" lon="12.4507733"><ele>653.6</ele><time>2026-04-26T15:03:08.039Z</time></trkpt><trkpt lat="43.4033695" lon="12.4509021"><ele>652.2</ele><time>2026-04-26T15:03:09.04Z</time></trkpt><trkpt lat="43.4033015" lon="12.450981"><ele>650.8</ele><time>2026-04-26T15:03:10.029Z</time></trkpt><trkpt lat="43.4032112" lon="12.4510051"><ele>649.4</ele><time>2026-04-26T15:03:11.043Z</time></trkpt><trkpt lat="43.4031193" lon="12.4509442"><ele>648.0</ele><time>2026-04-26T15:03:12.017Z</time></trkpt><trkpt lat="43.403019" lon="12.4508349"><ele>646.0</ele><time>2026-04-26T15:03:13.04Z</time></trkpt><trkpt lat="43.4028994" lon="12.4507279"><ele>644.0</ele><time>2026-04-26T15:03:14.051Z</time></trkpt><trkpt lat="43.402757" lon="12.4506338"><ele>642.0</ele><time>2026-04-26T15:03:15.03Z</time></trkpt><trkpt lat="43.4025944" lon="12.4505524"><ele>642.0</ele><time>2026-04-26T15:03:16.04Z</time></trkpt><trkpt lat="43.4024155" lon="12.4504814"><ele>642.0</ele><time>2026-04-26T15:03:17.034Z</time></trkpt><trkpt lat="43.4022241" lon="12.4504275"><ele>642.0</ele><time>2026-04-26T15:03:18.049Z</time></trkpt><trkpt lat="43.4020397" lon="12.4504021"><ele>643.3333333333334</ele><time>2026-04-26T15:03:19.037Z</time></trkpt><trkpt lat="43.4018644" lon="12.4503962"><ele>644.6666666666667</ele><time>2026-04-26T15:03:20.034Z</time></trkpt><trkpt lat="43.4016946" lon="12.4503954"><ele>646.0</ele><time>2026-04-26T15:03:21.035Z</time></trkpt><trkpt lat="43.4015309" lon="12.4503843"><ele>646.0</ele><time>2026-04-26T15:03:22.025Z</time></trkpt><trkpt lat="43.4013639" lon="12.450361"><ele>646.0</ele><time>2026-04-26T15:03:23.055Z</time></trkpt><trkpt lat="43.4012012" lon="12.4503042"><ele>646.0</ele><time>2026-04-26T15:03:24.038Z</time></trkpt><trkpt lat="43.4010458" lon="12.4502266"><ele>643.0</ele><time>2026-04-26T15:03:25.049Z</time></trkpt><trkpt lat="43.4009045" lon="12.4501325"><ele>640.0</ele><time>2026-04-26T15:03:26.034Z</time></trkpt><trkpt lat="43.4007698" lon="12.4500517"><ele>637.0</ele><time>2026-04-26T15:03:27.023Z</time></trkpt><trkpt lat="43.4006334" lon="12.4500063"><ele>634.0</ele><time>2026-04-26T15:03:28.019Z</time></trkpt><trkpt lat="43.4004942" lon="12.4500156"><ele>632.5</ele><time>2026-04-26T15:03:29.042Z</time></trkpt><trkpt lat="43.4003589" lon="12.4500765"><ele>631.0</ele><time>2026-04-26T15:03:30.023Z</time></trkpt><trkpt lat="43.4002435" lon="12.4501437"><ele>629.5</ele><time>2026-04-26T15:03:31.035Z</time></trkpt><trkpt lat="43.400128" lon="12.4501724"><ele>628.0</ele><time>2026-04-26T15:03:32.027Z</time></trkpt><trkpt lat="43.4000058" lon="12.4501549"><ele>628.0</ele><time>2026-04-26T15:03:33.041Z</time></trkpt><trkpt lat="43.3998821" lon="12.4501092"><ele>628.0</ele><time>2026-04-26T15:03:34.042Z</time></trkpt><trkpt lat="43.3997543" lon="12.4500452"><ele>628.0</ele><time>2026-04-26T15:03:35.041Z</time></trkpt><trkpt lat="43.399636" lon="12.4499875"><ele>628.0</ele><time>2026-04-26T15:03:36.046Z</time></trkpt><trkpt lat="43.3995311" lon="12.4499165"><ele>626.1999999999999</ele><time>2026-04-26T15:03:37.041Z</time></trkpt><trkpt lat="43.3994524" lon="12.449829"><ele>624.4</ele><time>2026-04-26T15:03:38.037Z</time></trkpt><trkpt lat="43.3994157" lon="12.4496998"><ele>622.5999999999999</ele><time>2026-04-26T15:03:39.035Z</time></trkpt><trkpt lat="43.3994313" lon="12.4495719"><ele>620.8</ele><time>2026-04-26T15:03:40.03Z</time></trkpt><trkpt lat="43.3994834" lon="12.4494384"><ele>619.0</ele><time>2026-04-26T15:03:41.04Z</time></trkpt><trkpt lat="43.3995616" lon="12.4493228"><ele>619.0</ele><time>2026-04-26T15:03:42.032Z</time></trkpt><trkpt lat="43.3996494" lon="12.4492271"><ele>619.0</ele><time>2026-04-26T15:03:43.029Z</time></trkpt><trkpt lat="43.3997283" lon="12.4491456"><ele>619.0</ele><time>2026-04-26T15:03:44.042Z</time></trkpt><trkpt lat="43.3997569" lon="12.4490219"><ele>619.0</ele><time>2026-04-26T15:03:45.029Z</time></trkpt><trkpt lat="43.3997069" lon="12.4489026"><ele>619.0</ele><time>2026-04-26T15:03:46.037Z</time></trkpt><trkpt lat="43.3996025" lon="12.4488114"><ele>615.0</ele><time>2026-04-26T15:03:47.051Z</time></trkpt><trkpt lat="43.3994726" lon="12.4487512"><ele>611.0</ele><time>2026-04-26T15:03:48.038Z</time></trkpt><trkpt lat="43.3993266" lon="12.4486971"><ele>607.0</ele><time>2026-04-26T15:03:49.042Z</time></trkpt><trkpt lat="43.3991747" lon="12.4486252"><ele>603.0</ele><time>2026-04-26T15:03:50.034Z</time></trkpt><trkpt lat="43.399016" lon="12.4485428"><ele>603.0</ele><time>2026-04-26T15:03:51.041Z</time></trkpt><trkpt lat="43.3988442" lon="12.4484619"><ele>603.0</ele><time>2026-04-26T15:03:52.036Z</time></trkpt><trkpt lat="43.3986665" lon="12.4483795"><ele>603.0</ele><time>2026-04-26T15:03:53.036Z</time></trkpt><trkpt lat="43.3984914" lon="12.4483112"><ele>603.3333333333334</ele><time>2026-04-26T15:03:54.019Z</time></trkpt><trkpt lat="43.3983275" lon="12.448236"><ele>603.6666666666667</ele><time>2026-04-26T15:03:55.044Z</time></trkpt><trkpt lat="43.3981668" lon="12.4481629"><ele>604.0</ele><time>2026-04-26T15:03:56.021Z</time></trkpt><trkpt lat="43.3980059" lon="12.4480897"><ele>602.0</ele><time>2026-04-26T15:03:57.026Z</time></trkpt><trkpt lat="43.3978497" lon="12.4480175"><ele>600.0</ele><time>2026-04-26T15:03:58.05Z</time></trkpt><trkpt lat="43.3977042" lon="12.4479586"><ele>598.0</ele><time>2026-04-26T15:03:59.032Z</time></trkpt><trkpt lat="43.3975599" lon="12.4479126"><ele>598.0</ele><time>2026-04-26T15:04:00.026Z</time></trkpt><trkpt lat="43.3974158" lon="12.447913"><ele>598.0</ele><time>2026-04-26T15:04:01.046Z</time></trkpt><trkpt lat="43.3972744" lon="12.4479742"><ele>598.0</ele><time>2026-04-26T15:04:02.039Z</time></trkpt><trkpt lat="43.3971371" lon="12.448072"><ele>598.0</ele><time>2026-04-26T15:04:03.012Z</time></trkpt><trkpt lat="43.3970119" lon="12.4481948"><ele>593.5</ele><time>2026-04-26T15:04:04.036Z</time></trkpt><trkpt lat="43.3969083" lon="12.4483097"><ele>589.0</ele><time>2026-04-26T15:04:05.041Z</time></trkpt><trkpt lat="43.3968205" lon="12.4484392"><ele>584.5</ele><time>2026-04-26T15:04:06.039Z</time></trkpt><trkpt lat="43.3967707" lon="12.4485865"><ele>580.0</ele><time>2026-04-26T15:04:07.035Z</time></trkpt><trkpt lat="43.3967542" lon="12.4487836"><ele>579.75</ele><time>2026-04-26T15:04:08.036Z</time></trkpt><trkpt lat="43.3967785" lon="12.4489924"><ele>579.5</ele><time>2026-04-26T15:04:09.028Z</time></trkpt><trkpt lat="43.3968268" lon="12.4491775"><ele>579.25</ele><time>2026-04-26T15:04:10.034Z</time></trkpt><trkpt lat="43.3968943" lon="12.4493527"><ele>579.0</ele><time>2026-04-26T15:04:11.037Z</time></trkpt><trkpt lat="43.3969654" lon="12.4495304"><ele>577.0</ele><time>2026-04-26T15:04:12.043Z</time></trkpt><trkpt lat="43.3970171" lon="12.4497166"><ele>575.0</ele><time>2026-04-26T15:04:13.035Z</time></trkpt><trkpt lat="43.3970396" lon="12.4499168"><ele>573.0</ele><time>2026-04-26T15:04:14.028Z</time></trkpt><trkpt lat="43.39703" lon="12.4501081"><ele>571.0</ele><time>2026-04-26T15:04:15.04Z</time></trkpt><trkpt lat="43.3969926" lon="12.4502973"><ele>571.0</ele><time>2026-04-26T15:04:16.024Z</time></trkpt><trkpt lat="43.3969397" lon="12.450477"><ele>571.0</ele><time>2026-04-26T15:04:17.035Z</time></trkpt><trkpt lat="43.3968715" lon="12.4506402"><ele>571.0</ele><time>2026-04-26T15:04:18.03Z</time></trkpt><trkpt lat="43.3967856" lon="12.4507796"><ele>571.0</ele><time>2026-04-26T15:04:19.047Z</time></trkpt><trkpt lat="43.3966736" lon="12.4508892"><ele>571.0</ele><time>2026-04-26T15:04:20.032Z</time></trkpt><trkpt lat="43.3965459" lon="12.4509619"><ele>571.0</ele><time>2026-04-26T15:04:21.048Z</time></trkpt><trkpt lat="43.3964075" lon="12.4510041"><ele>571.0</ele><time>2026-04-26T15:04:22.041Z</time></trkpt><trkpt lat="43.3962613" lon="12.451044"><ele>571.0</ele><time>2026-04-26T15:04:23.033Z</time></trkpt><trkpt lat="43.3961096" lon="12.451088"><ele>570.5</ele><time>2026-04-26T15:04:24.032Z</time></trkpt><trkpt lat="43.3959652" lon="12.451139"><ele>570.0</ele><time>2026-04-26T15:04:25.04Z</time></trkpt><trkpt lat="43.3958243" lon="12.4511945"><ele>569.5</ele><time>2026-04-26T15:04:26.025Z</time></trkpt><trkpt lat="43.395686" lon="12.4512655"><ele>569.0</ele><time>2026-04-26T15:04:27.025Z</time></trkpt><trkpt lat="43.3955558" lon="12.4513478"><ele>565.25</ele><time>2026-04-26T15:04:28.027Z</time></trkpt><trkpt lat="43.3954326" lon="12.4514607"><ele>561.5</ele><time>2026-04-26T15:04:29.037Z</time></trkpt><trkpt lat="43.3953153" lon="12.451587"><ele>557.75</ele><time>2026-04-26T15:04:30.034Z</time></trkpt><trkpt lat="43.3952084" lon="12.4517179"><ele>554.0</ele><time>2026-04-26T15:04:31.04Z</time></trkpt><trkpt lat="43.3951139" lon="12.4518675"><ele>554.0</ele><time>2026-04-26T15:04:32.025Z</time></trkpt><trkpt lat="43.3950505" lon="12.4520327"><ele>554.0</ele><time>2026-04-26T15:04:33.04Z</time></trkpt><trkpt lat="43.3950135" lon="12.452202"><ele>554.0</ele><time>2026-04-26T15:04:34.043Z</time></trkpt><trkpt lat="43.3949772" lon="12.452374"><ele>554.0</ele><time>2026-04-26T15:04:35.046Z</time></trkpt><trkpt lat="43.3949286" lon="12.4525401"><ele>554.25</ele><time>2026-04-26T15:04:36.035Z</time></trkpt><trkpt lat="43.3948545" lon="12.4526976"><ele>554.5</ele><time>2026-04-26T15:04:37.041Z</time></trkpt><trkpt lat="43.3947547" lon="12.4528379"><ele>554.75</ele><time>2026-04-26T15:04:38.031Z</time></trkpt><trkpt lat="43.3946412" lon="12.45297"><ele>555.0</ele><time>2026-04-26T15:04:39.048Z</time></trkpt><trkpt lat="43.3945226" lon="12.4531068"><ele>553.0</ele><time>2026-04-26T15:04:40.035Z</time></trkpt><trkpt lat="43.3944004" lon="12.4532519"><ele>551.0</ele><time>2026-04-26T15:04:41.038Z</time></trkpt><trkpt lat="43.3942783" lon="12.4533983"><ele>549.0</ele><time>2026-04-26T15:04:42.036Z</time></trkpt><trkpt lat="43.3941636" lon="12.4535405"><ele>549.0</ele><time>2026-04-26T15:04:43.033Z</time></trkpt><trkpt lat="43.3940525" lon="12.4536923"><ele>549.0</ele><time>2026-04-26T15:04:44.013Z</time></trkpt><trkpt lat="43.3939412" lon="12.4538306"><ele>549.0</ele><time>2026-04-26T15:04:45.033Z</time></trkpt><trkpt lat="43.3938245" lon="12.4539627"><ele>545.75</ele><time>2026-04-26T15:04:46.03Z</time></trkpt><trkpt lat="43.3937033" lon="12.454085"><ele>542.5</ele><time>2026-04-26T15:04:47.039Z</time></trkpt><trkpt lat="43.3935858" lon="12.4542055"><ele>539.25</ele><time>2026-04-26T15:04:48.036Z</time></trkpt><trkpt lat="43.3934781" lon="12.4543301"><ele>536.0</ele><time>2026-04-26T15:04:49.027Z</time></trkpt><trkpt lat="43.3933932" lon="12.4544607"><ele>536.0</ele><time>2026-04-26T15:04:50.036Z</time></trkpt><trkpt lat="43.3933275" lon="12.454604"><ele>536.0</ele><time>2026-04-26T15:04:51.038Z</time></trkpt><trkpt lat="43.393291" lon="12.45476"><ele>536.0</ele><time>2026-04-26T15:04:52.034Z</time></trkpt><trkpt lat="43.39329" lon="12.4549215"><ele>536.0</ele><time>2026-04-26T15:04:53.052Z</time></trkpt><trkpt lat="43.3933052" lon="12.4550857"><ele>536.0</ele><time>2026-04-26T15:04:54.034Z</time></trkpt><trkpt lat="43.3933218" lon="12.4552639"><ele>536.0</ele><time>2026-04-26T15:04:55.035Z</time></trkpt><trkpt lat="43.3933099" lon="12.4554333"><ele>536.0</ele><time>2026-04-26T15:04:56.027Z</time></trkpt><trkpt lat="43.3932489" lon="12.455603"><ele>536.0</ele><time>2026-04-26T15:04:57.044Z</time></trkpt><trkpt lat="43.3931481" lon="12.4557189"><ele>536.25</ele><time>2026-04-26T15:04:58.039Z</time></trkpt><trkpt lat="43.3930264" lon="12.4557695"><ele>536.5</ele><time>2026-04-26T15:04:59.039Z</time></trkpt><trkpt lat="43.3928977" lon="12.4557917"><ele>536.75</ele><time>2026-04-26T15:05:00.041Z</time></trkpt><trkpt lat="43.3927571" lon="12.4558148"><ele>537.0</ele><time>2026-04-26T15:05:01.044Z</time></trkpt><trkpt lat="43.3926001" lon="12.4558502"><ele>534.0</ele><time>2026-04-26T15:05:02.033Z</time></trkpt><trkpt lat="43.3924372" lon="12.4558845"><ele>531.0</ele><time>2026-04-26T15:05:03.035Z</time></trkpt><trkpt lat="43.3922702" lon="12.4559211"><ele>528.0</ele><time>2026-04-26T15:05:04.032Z</time></trkpt><trkpt lat="43.3921053" lon="12.4559555"><ele>525.0</ele><time>2026-04-26T15:05:05.021Z</time></trkpt><trkpt lat="43.3919365" lon="12.4559755"><ele>522.0</ele><time>2026-04-26T15:05:06.037Z</time></trkpt><trkpt lat="43.3917743" lon="12.4559991"><ele>519.0</ele><time>2026-04-26T15:05:07.04Z</time></trkpt><trkpt lat="43.3916153" lon="12.4560232"><ele>519.0</ele><time>2026-04-26T15:05:08.013Z</time></trkpt><trkpt lat="43.3914668" lon="12.4560543"><ele>519.0</ele><time>2026-04-26T15:05:09.023Z</time></trkpt><trkpt lat="43.3913223" lon="12.4560828"><ele>519.0</ele><time>2026-04-26T15:05:10.035Z</time></trkpt><trkpt lat="43.3911828" lon="12.456113"><ele>519.0</ele><time>2026-04-26T15:05:11.041Z</time></trkpt><trkpt lat="43.3910442" lon="12.4561424"><ele>521.0</ele><time>2026-04-26T15:05:12.052Z</time></trkpt><trkpt lat="43.3909072" lon="12.4561741"><ele>523.0</ele><time>2026-04-26T15:05:13.04Z</time></trkpt><trkpt lat="43.3907729" lon="12.4562106"><ele>525.0</ele><time>2026-04-26T15:05:14.035Z</time></trkpt><trkpt lat="43.3906501" lon="12.4562623"><ele>527.0</ele><time>2026-04-26T15:05:15.038Z</time></trkpt><trkpt lat="43.3905343" lon="12.4563487"><ele>522.0</ele><time>2026-04-26T15:05:16.033Z</time></trkpt><trkpt lat="43.3904215" lon="12.4564491"><ele>517.0</ele><time>2026-04-26T15:05:17.04Z</time></trkpt><trkpt lat="43.3903132" lon="12.4565624"><ele>512.0</ele><time>2026-04-26T15:05:18.039Z</time></trkpt><trkpt lat="43.3902057" lon="12.4566708"><ele>507.0</ele><time>2026-04-26T15:05:19.019Z</time></trkpt><trkpt lat="43.3900951" lon="12.4567686"><ele>507.0</ele><time>2026-04-26T15:05:20.034Z</time></trkpt><trkpt lat="43.3899786" lon="12.4568551"><ele>507.0</ele><time>2026-04-26T15:05:21.05Z</time></trkpt><trkpt lat="43.3898633" lon="12.4569328"><ele>507.0</ele><time>2026-04-26T15:05:22.033Z</time></trkpt><trkpt lat="43.3897524" lon="12.4570039"><ele>507.0</ele><time>2026-04-26T15:05:23.048Z</time></trkpt><trkpt lat="43.3896413" lon="12.4570713"><ele>506.6</ele><time>2026-04-26T15:05:24.033Z</time></trkpt><trkpt lat="43.389537" lon="12.4571381"><ele>506.20000000000005</ele><time>2026-04-26T15:05:25.041Z</time></trkpt><trkpt lat="43.3894415" lon="12.4572038"><ele>505.8</ele><time>2026-04-26T15:05:26.053Z</time></trkpt><trkpt lat="43.3893511" lon="12.4572602"><ele>505.4</ele><time>2026-04-26T15:05:27.022Z</time></trkpt><trkpt lat="43.3892669" lon="12.4573146"><ele>505.0</ele><time>2026-04-26T15:05:28.015Z</time></trkpt><trkpt lat="43.3891909" lon="12.4573598"><ele>505.00000000000006</ele><time>2026-04-26T15:05:29.042Z</time></trkpt><trkpt lat="43.3891179" lon="12.4573965"><ele>505.0</ele><time>2026-04-26T15:05:30.038Z</time></trkpt><trkpt lat="43.3890425" lon="12.4574173"><ele>505.0</ele><time>2026-04-26T15:05:31.045Z</time></trkpt><trkpt lat="43.3889646" lon="12.4574302"><ele>505.0</ele><time>2026-04-26T15:05:32.043Z</time></trkpt><trkpt lat="43.3888862" lon="12.4574241"><ele>505.00000000000006</ele><time>2026-04-26T15:05:33.045Z</time></trkpt><trkpt lat="43.388814" lon="12.4574116"><ele>505.0</ele><time>2026-04-26T15:05:34.046Z</time></trkpt><trkpt lat="43.3887463" lon="12.4573931"><ele>505.50000000000006</ele><time>2026-04-26T15:05:35.05Z</time></trkpt><trkpt lat="43.3886813" lon="12.457367"><ele>506.0</ele><time>2026-04-26T15:05:36.042Z</time></trkpt><trkpt lat="43.3886129" lon="12.4573352"><ele>506.5</ele><time>2026-04-26T15:05:37.037Z</time></trkpt><trkpt lat="43.3885406" lon="12.4572911"><ele>507.0</ele><time>2026-04-26T15:05:38.036Z</time></trkpt><trkpt lat="43.3884651" lon="12.4572415"><ele>507.50000000000006</ele><time>2026-04-26T15:05:39.042Z</time></trkpt><trkpt lat="43.3883867" lon="12.4571783"><ele>508.0</ele><time>2026-04-26T15:05:40.036Z</time></trkpt><trkpt lat="43.3883078" lon="12.4571083"><ele>505.33333333333337</ele><time>2026-04-26T15:05:41.028Z</time></trkpt><trkpt lat="43.3882275" lon="12.4570298"><ele>502.6666666666667</ele><time>2026-04-26T15:05:42.026Z</time></trkpt><trkpt lat="43.3881466" lon="12.4569582"><ele>500.0</ele><time>2026-04-26T15:05:43.034Z</time></trkpt><trkpt lat="43.3880829" lon="12.4569122"><ele>497.33333333333337</ele><time>2026-04-26T15:05:44.032Z</time></trkpt><trkpt lat="43.3880165" lon="12.4568916"><ele>494.6666666666667</ele><time>2026-04-26T15:05:46.029Z</time></trkpt><trkpt lat="43.3879506" lon="12.4568457"><ele>492.0</ele><time>2026-04-26T15:05:48.03Z</time></trkpt><trkpt lat="43.3878328" lon="12.4567929"><ele>492.0</ele><time>2026-04-26T15:05:50.041Z</time></trkpt><trkpt lat="43.3877621" lon="12.4567856"><ele>492.00000000000006</ele><time>2026-04-26T15:05:51.032Z</time></trkpt><trkpt lat="43.3876814" lon="12.45679"><ele>492.00000000000006</ele><time>2026-04-26T15:05:52.028Z</time></trkpt><trkpt lat="43.3875816" lon="12.4568015"><ele>492.0</ele><time>2026-04-26T15:05:53.04Z</time></trkpt><trkpt lat="43.3874674" lon="12.4568184"><ele>492.0</ele><time>2026-04-26T15:05:54.03Z</time></trkpt><trkpt lat="43.3873375" lon="12.4568351"><ele>492.0</ele><time>2026-04-26T15:05:55.042Z</time></trkpt><trkpt lat="43.3871984" lon="12.45685"><ele>492.0</ele><time>2026-04-26T15:05:56.044Z</time></trkpt><trkpt lat="43.3870538" lon="12.4568646"><ele>492.0</ele><time>2026-04-26T15:05:57.023Z</time></trkpt><trkpt lat="43.3869056" lon="12.4568748"><ele>492.0</ele><time>2026-04-26T15:05:58.03Z</time></trkpt><trkpt lat="43.3867584" lon="12.4568876"><ele>488.5</ele><time>2026-04-26T15:05:59.037Z</time></trkpt><trkpt lat="43.3866082" lon="12.4568962"><ele>485.0</ele><time>2026-04-26T15:06:00.026Z</time></trkpt><trkpt lat="43.3864636" lon="12.4569167"><ele>481.5</ele><time>2026-04-26T15:06:01.05Z</time></trkpt><trkpt lat="43.3863263" lon="12.4569545"><ele>478.0</ele><time>2026-04-26T15:06:02.031Z</time></trkpt><trkpt lat="43.3861873" lon="12.4570091"><ele>480.0</ele><time>2026-04-26T15:06:03.033Z</time></trkpt><trkpt lat="43.386059" lon="12.4570745"><ele>482.0</ele><time>2026-04-26T15:06:04.035Z</time></trkpt><trkpt lat="43.3859301" lon="12.4571293"><ele>484.0</ele><time>2026-04-26T15:06:05.037Z</time></trkpt><trkpt lat="43.3858033" lon="12.4571782"><ele>486.0</ele><time>2026-04-26T15:06:06.034Z</time></trkpt><trkpt lat="43.3856896" lon="12.4572502"><ele>486.0</ele><time>2026-04-26T15:06:07.041Z</time></trkpt><trkpt lat="43.3855762" lon="12.4573397"><ele>486.0</ele><time>2026-04-26T15:06:08.028Z</time></trkpt><trkpt lat="43.3854716" lon="12.4574332"><ele>486.0</ele><time>2026-04-26T15:06:09.037Z</time></trkpt><trkpt lat="43.385374" lon="12.4575406"><ele>486.0</ele><time>2026-04-26T15:06:10.038Z</time></trkpt><trkpt lat="43.3852787" lon="12.4576472"><ele>483.20000000000005</ele><time>2026-04-26T15:06:11.036Z</time></trkpt><trkpt lat="43.3851931" lon="12.457768"><ele>480.40000000000003</ele><time>2026-04-26T15:06:12.026Z</time></trkpt><trkpt lat="43.3851237" lon="12.4579048"><ele>477.6</ele><time>2026-04-26T15:06:13.042Z</time></trkpt><trkpt lat="43.385082" lon="12.4580314"><ele>474.8</ele><time>2026-04-26T15:06:14.028Z</time></trkpt><trkpt lat="43.385049" lon="12.4581564"><ele>472.0</ele><time>2026-04-26T15:06:15.04Z</time></trkpt><trkpt lat="43.3850055" lon="12.4582622"><ele>472.0</ele><time>2026-04-26T15:06:16.049Z</time></trkpt><trkpt lat="43.3849464" lon="12.4583626"><ele>472.00000000000006</ele><time>2026-04-26T15:06:17.032Z</time></trkpt><trkpt lat="43.3848772" lon="12.4584411"><ele>472.00000000000006</ele><time>2026-04-26T15:06:18.036Z</time></trkpt><trkpt lat="43.3847845" lon="12.4585127"><ele>472.0</ele><time>2026-04-26T15:06:19.043Z</time></trkpt><trkpt lat="43.384675" lon="12.4585611"><ele>472.0</ele><time>2026-04-26T15:06:20.043Z</time></trkpt><trkpt lat="43.3845483" lon="12.4586068"><ele>468.0</ele><time>2026-04-26T15:06:21.042Z</time></trkpt><trkpt lat="43.3844088" lon="12.45866"><ele>464.0</ele><time>2026-04-26T15:06:22.042Z</time></trkpt><trkpt lat="43.3842603" lon="12.4587123"><ele>460.0</ele><time>2026-04-26T15:06:23.046Z</time></trkpt><trkpt lat="43.3840944" lon="12.4587498"><ele>459.33333333333337</ele><time>2026-04-26T15:06:24.042Z</time></trkpt><trkpt lat="43.3839008" lon="12.4588098"><ele>458.66666666666663</ele><time>2026-04-26T15:06:25.038Z</time></trkpt><trkpt lat="43.3836875" lon="12.4588594"><ele>458.0</ele><time>2026-04-26T15:06:26.051Z</time></trkpt><trkpt lat="43.3834783" lon="12.4589071"><ele>458.0</ele><time>2026-04-26T15:06:27.028Z</time></trkpt><trkpt lat="43.3832786" lon="12.4589562"><ele>458.0</ele><time>2026-04-26T15:06:28.024Z</time></trkpt><trkpt lat="43.383094" lon="12.4590188"><ele>458.0</ele><time>2026-04-26T15:06:29.04Z</time></trkpt><trkpt lat="43.3829218" lon="12.4590928"><ele>462.0</ele><time>2026-04-26T15:06:30.037Z</time></trkpt><trkpt lat="43.3827674" lon="12.459192"><ele>466.0</ele><time>2026-04-26T15:06:31.043Z</time></trkpt><trkpt lat="43.3826462" lon="12.4593291"><ele>470.0</ele><time>2026-04-26T15:06:32.037Z</time></trkpt><trkpt lat="43.3825503" lon="12.4595116"><ele>466.66666666666663</ele><time>2026-04-26T15:06:33.033Z</time></trkpt><trkpt lat="43.3824747" lon="12.4597297"><ele>463.33333333333337</ele><time>2026-04-26T15:06:34.022Z</time></trkpt><trkpt lat="43.3823776" lon="12.4599346"><ele>460.0</ele><time>2026-04-26T15:06:35.036Z</time></trkpt><trkpt lat="43.3822349" lon="12.4601054"><ele>461.6666666666667</ele><time>2026-04-26T15:06:36.041Z</time></trkpt><trkpt lat="43.382058" lon="12.4602608"><ele>463.33333333333337</ele><time>2026-04-26T15:06:37.038Z</time></trkpt><trkpt lat="43.3818906" lon="12.4604273"><ele>465.0</ele><time>2026-04-26T15:06:38.029Z</time></trkpt><trkpt lat="43.3817589" lon="12.4606051"><ele>465.0</ele><time>2026-04-26T15:06:39.033Z</time></trkpt><trkpt lat="43.3816588" lon="12.4607788"><ele>465.0</ele><time>2026-04-26T15:06:40.034Z</time></trkpt><trkpt lat="43.3815646" lon="12.460918"><ele>465.0</ele><time>2026-04-26T15:06:41.035Z</time></trkpt><trkpt lat="43.3814544" lon="12.4610173"><ele>465.0</ele><time>2026-04-26T15:06:42.042Z</time></trkpt><trkpt lat="43.3813294" lon="12.4610437"><ele>466.0</ele><time>2026-04-26T15:06:43.036Z</time></trkpt><trkpt lat="43.3811779" lon="12.4610015"><ele>467.0</ele><time>2026-04-26T15:06:44.037Z</time></trkpt><trkpt lat="43.3810087" lon="12.4609505"><ele>468.0</ele><time>2026-04-26T15:06:45.036Z</time></trkpt><trkpt lat="43.3808514" lon="12.4609271"><ele>468.0</ele><time>2026-04-26T15:06:46.024Z</time></trkpt><trkpt lat="43.3807085" lon="12.460945"><ele>468.0</ele><time>2026-04-26T15:06:47.03Z</time></trkpt><trkpt lat="43.3805585" lon="12.4610281"><ele>468.0</ele><time>2026-04-26T15:06:48.014Z</time></trkpt><trkpt lat="43.3804141" lon="12.4611533"><ele>464.33333333333337</ele><time>2026-04-26T15:06:49.031Z</time></trkpt><trkpt lat="43.3802628" lon="12.4613101"><ele>460.6666666666667</ele><time>2026-04-26T15:06:50.034Z</time></trkpt><trkpt lat="43.3801048" lon="12.4614535"><ele>457.0</ele><time>2026-04-26T15:06:51.024Z</time></trkpt><trkpt lat="43.3799401" lon="12.4615751"><ele>457.0</ele><time>2026-04-26T15:06:52.037Z</time></trkpt><trkpt lat="43.3797764" lon="12.4616598"><ele>457.0</ele><time>2026-04-26T15:06:53.038Z</time></trkpt><trkpt lat="43.3796165" lon="12.4617108"><ele>457.0</ele><time>2026-04-26T15:06:54.029Z</time></trkpt><trkpt lat="43.379456" lon="12.4617458"><ele>457.33333333333337</ele><time>2026-04-26T15:06:55.039Z</time></trkpt><trkpt lat="43.3793009" lon="12.4617584"><ele>457.66666666666663</ele><time>2026-04-26T15:06:56.031Z</time></trkpt><trkpt lat="43.379147" lon="12.4617481"><ele>458.0</ele><time>2026-04-26T15:06:57.043Z</time></trkpt><trkpt lat="43.378996" lon="12.4617025"><ele>454.3333333333333</ele><time>2026-04-26T15:06:58.031Z</time></trkpt><trkpt lat="43.3788399" lon="12.4616358"><ele>450.66666666666663</ele><time>2026-04-26T15:06:59.038Z</time></trkpt><trkpt lat="43.378675" lon="12.4615604"><ele>447.0</ele><time>2026-04-26T15:07:00.047Z</time></trkpt><trkpt lat="43.3785163" lon="12.4614852"><ele>447.0</ele><time>2026-04-26T15:07:01.036Z</time></trkpt><trkpt lat="43.3783672" lon="12.4614094"><ele>447.0</ele><time>2026-04-26T15:07:02.034Z</time></trkpt><trkpt lat="43.3782537" lon="12.4613208"><ele>447.0</ele><time>2026-04-26T15:07:03.02Z</time></trkpt><trkpt lat="43.3781822" lon="12.4611974"><ele>447.0</ele><time>2026-04-26T15:07:04.04Z</time></trkpt><trkpt lat="43.3781435" lon="12.4610277"><ele>447.75</ele><time>2026-04-26T15:07:05.03Z</time></trkpt><trkpt lat="43.3781115" lon="12.4608633"><ele>448.5</ele><time>2026-04-26T15:07:06.034Z</time></trkpt><trkpt lat="43.3780401" lon="12.4607194"><ele>449.25</ele><time>2026-04-26T15:07:07.034Z</time></trkpt><trkpt lat="43.3779296" lon="12.4605747"><ele>450.0</ele><time>2026-04-26T15:07:08.041Z</time></trkpt><trkpt lat="43.3778221" lon="12.4604494"><ele>446.75</ele><time>2026-04-26T15:07:09.029Z</time></trkpt><trkpt lat="43.3777084" lon="12.4603627"><ele>443.5</ele><time>2026-04-26T15:07:10.029Z</time></trkpt><trkpt lat="43.3775661" lon="12.4603042"><ele>440.25</ele><time>2026-04-26T15:07:11.043Z</time></trkpt><trkpt lat="43.3774085" lon="12.4602964"><ele>437.0</ele><time>2026-04-26T15:07:12.029Z</time></trkpt><trkpt lat="43.3772451" lon="12.4603162"><ele>437.0</ele><time>2026-04-26T15:07:13.031Z</time></trkpt><trkpt lat="43.3770753" lon="12.4603675"><ele>437.0</ele><time>2026-04-26T15:07:14.03Z</time></trkpt><trkpt lat="43.3769108" lon="12.4604176"><ele>437.0</ele><time>2026-04-26T15:07:15.027Z</time></trkpt><trkpt lat="43.3767266" lon="12.4604155"><ele>437.0</ele><time>2026-04-26T15:07:16.039Z</time></trkpt><trkpt lat="43.3765294" lon="12.4603781"><ele>437.0</ele><time>2026-04-26T15:07:17.035Z</time></trkpt><trkpt lat="43.3763354" lon="12.4603273"><ele>437.0</ele><time>2026-04-26T15:07:18.033Z</time></trkpt><trkpt lat="43.376133" lon="12.4602879"><ele>435.0</ele><time>2026-04-26T15:07:19.042Z</time></trkpt><trkpt lat="43.3759302" lon="12.4602397"><ele>433.0</ele><time>2026-04-26T15:07:20.031Z</time></trkpt><trkpt lat="43.375731" lon="12.4601971"><ele>431.0</ele><time>2026-04-26T15:07:21.04Z</time></trkpt><trkpt lat="43.3755427" lon="12.4601665"><ele>432.66666666666663</ele><time>2026-04-26T15:07:22.027Z</time></trkpt><trkpt lat="43.3753753" lon="12.4601164"><ele>434.33333333333337</ele><time>2026-04-26T15:07:23.031Z</time></trkpt><trkpt lat="43.3752163" lon="12.4600387"><ele>436.0</ele><time>2026-04-26T15:07:24.03Z</time></trkpt><trkpt lat="43.3750822" lon="12.4599113"><ele>436.0</ele><time>2026-04-26T15:07:25.015Z</time></trkpt><trkpt lat="43.3749694" lon="12.4597624"><ele>436.0</ele><time>2026-04-26T15:07:26.033Z</time></trkpt><trkpt lat="43.3748475" lon="12.4596597"><ele>436.0</ele><time>2026-04-26T15:07:27.039Z</time></trkpt><trkpt lat="43.3746984" lon="12.4596001"><ele>431.6666666666667</ele><time>2026-04-26T15:07:28.023Z</time></trkpt><trkpt lat="43.3745429" lon="12.4595302"><ele>427.33333333333337</ele><time>2026-04-26T15:07:29.039Z</time></trkpt><trkpt lat="43.3743906" lon="12.4594148"><ele>423.0</ele><time>2026-04-26T15:07:30.035Z</time></trkpt><trkpt lat="43.3742421" lon="12.4592583"><ele>423.0</ele><time>2026-04-26T15:07:31.037Z</time></trkpt><trkpt lat="43.3741156" lon="12.4590889"><ele>423.0</ele><time>2026-04-26T15:07:32.029Z</time></trkpt><trkpt lat="43.3739856" lon="12.4589236"><ele>423.0</ele><time>2026-04-26T15:07:33.037Z</time></trkpt><trkpt lat="43.3738461" lon="12.4588059"><ele>416.33333333333337</ele><time>2026-04-26T15:07:34.035Z</time></trkpt><trkpt lat="43.3736961" lon="12.4587056"><ele>409.6666666666667</ele><time>2026-04-26T15:07:35.031Z</time></trkpt><trkpt lat="43.3735396" lon="12.4586244"><ele>403.0</ele><time>2026-04-26T15:07:36.018Z</time></trkpt><trkpt lat="43.3733756" lon="12.458577"><ele>403.0</ele><time>2026-04-26T15:07:37.03Z</time></trkpt><trkpt lat="43.373215" lon="12.4585556"><ele>403.0</ele><time>2026-04-26T15:07:38.038Z</time></trkpt><trkpt lat="43.3730769" lon="12.458535"><ele>403.0</ele><time>2026-04-26T15:07:39.033Z</time></trkpt><trkpt lat="43.3729494" lon="12.4585229"><ele>403.0</ele><time>2026-04-26T15:07:40.024Z</time></trkpt><trkpt lat="43.3728449" lon="12.4585452"><ele>401.79999999999995</ele><time>2026-04-26T15:07:41.037Z</time></trkpt><trkpt lat="43.3727721" lon="12.4586133"><ele>400.6</ele><time>2026-04-26T15:07:42.035Z</time></trkpt><trkpt lat="43.3727416" lon="12.4587347"><ele>399.4</ele><time>2026-04-26T15:07:43.015Z</time></trkpt><trkpt lat="43.3727471" lon="12.4588816"><ele>398.20000000000005</ele><time>2026-04-26T15:07:44.049Z</time></trkpt><trkpt lat="43.3727647" lon="12.4590481"><ele>397.0</ele><time>2026-04-26T15:07:45.043Z</time></trkpt><trkpt lat="43.3727824" lon="12.4592406"><ele>397.0</ele><time>2026-04-26T15:07:46.02Z</time></trkpt><trkpt lat="43.3727806" lon="12.4594485"><ele>397.0</ele><time>2026-04-26T15:07:47.028Z</time></trkpt><trkpt lat="43.3727672" lon="12.4596691"><ele>397.0</ele><time>2026-04-26T15:07:48.03Z</time></trkpt><trkpt lat="43.3727555" lon="12.4598841"><ele>396.0</ele><time>2026-04-26T15:07:49.02Z</time></trkpt><trkpt lat="43.3727394" lon="12.4601028"><ele>395.0</ele><time>2026-04-26T15:07:50.043Z</time></trkpt><trkpt lat="43.3727194" lon="12.4603312"><ele>394.0</ele><time>2026-04-26T15:07:51.038Z</time></trkpt><trkpt lat="43.3727005" lon="12.4605555"><ele>393.6666666666667</ele><time>2026-04-26T15:07:52.038Z</time></trkpt><trkpt lat="43.3726819" lon="12.4607684"><ele>393.33333333333337</ele><time>2026-04-26T15:07:53.035Z</time></trkpt><trkpt lat="43.3726634" lon="12.4609724"><ele>393.0</ele><time>2026-04-26T15:07:54.024Z</time></trkpt><trkpt lat="43.3726475" lon="12.4611708"><ele>391.33333333333337</ele><time>2026-04-26T15:07:55.033Z</time></trkpt><trkpt lat="43.3726365" lon="12.4613644"><ele>389.6666666666667</ele><time>2026-04-26T15:07:56.031Z</time></trkpt><trkpt lat="43.3726409" lon="12.4615806"><ele>388.0</ele><time>2026-04-26T15:07:57.025Z</time></trkpt><trkpt lat="43.3726664" lon="12.4618158"><ele>388.0</ele><time>2026-04-26T15:07:58.02Z</time></trkpt><trkpt lat="43.372708" lon="12.4620481"><ele>388.0</ele><time>2026-04-26T15:07:59.026Z</time></trkpt><trkpt lat="43.3727529" lon="12.4622634"><ele>388.0</ele><time>2026-04-26T15:08:00.023Z</time></trkpt><trkpt lat="43.3728039" lon="12.4624494"><ele>386.5</ele><time>2026-04-26T15:08:01.037Z</time></trkpt><trkpt lat="43.3728717" lon="12.4626078"><ele>385.0</ele><time>2026-04-26T15:08:02.034Z</time></trkpt><trkpt lat="43.3729663" lon="12.4627309"><ele>383.5</ele><time>2026-04-26T15:08:03.024Z</time></trkpt><trkpt lat="43.3730847" lon="12.4628238"><ele>382.0</ele><time>2026-04-26T15:08:04.034Z</time></trkpt><trkpt lat="43.3732177" lon="12.462915"><ele>382.3333333333333</ele><time>2026-04-26T15:08:05.033Z</time></trkpt><trkpt lat="43.3733581" lon="12.4630187"><ele>382.6666666666667</ele><time>2026-04-26T15:08:06.033Z</time></trkpt><trkpt lat="43.3735047" lon="12.4631207"><ele>383.0</ele><time>2026-04-26T15:08:07.036Z</time></trkpt><trkpt lat="43.3736415" lon="12.463218"><ele>383.0</ele><time>2026-04-26T15:08:08.019Z</time></trkpt><trkpt lat="43.3737699" lon="12.4633087"><ele>383.0</ele><time>2026-04-26T15:08:09.037Z</time></trkpt><trkpt lat="43.3738977" lon="12.463402"><ele>383.0</ele><time>2026-04-26T15:08:10.035Z</time></trkpt><trkpt lat="43.3740209" lon="12.4634926"><ele>383.0</ele><time>2026-04-26T15:08:11.038Z</time></trkpt><trkpt lat="43.3741376" lon="12.4635911"><ele>384.2</ele><time>2026-04-26T15:08:12.017Z</time></trkpt><trkpt lat="43.3742433" lon="12.4636896"><ele>385.4</ele><time>2026-04-26T15:08:13.03Z</time></trkpt><trkpt lat="43.3743219" lon="12.4637846"><ele>386.59999999999997</ele><time>2026-04-26T15:08:14.029Z</time></trkpt><trkpt lat="43.3743684" lon="12.463878"><ele>387.79999999999995</ele><time>2026-04-26T15:08:15.039Z</time></trkpt><trkpt lat="43.3744027" lon="12.4640263"><ele>389.0</ele><time>2026-04-26T15:08:17.027Z</time></trkpt><trkpt lat="43.3744176" lon="12.4641168"><ele>386.2</ele><time>2026-04-26T15:08:19.044Z</time></trkpt><trkpt lat="43.3744436" lon="12.4642799"><ele>383.4</ele><time>2026-04-26T15:08:21.039Z</time></trkpt><trkpt lat="43.374468" lon="12.4644076"><ele>380.6</ele><time>2026-04-26T15:08:22.03Z</time></trkpt><trkpt lat="43.3744912" lon="12.4645505"><ele>377.8</ele><time>2026-04-26T15:08:23.03Z</time></trkpt><trkpt lat="43.3745162" lon="12.4647152"><ele>375.0</ele><time>2026-04-26T15:08:24.016Z</time></trkpt><trkpt lat="43.3745447" lon="12.4648985"><ele>374.0</ele><time>2026-04-26T15:08:25.036Z</time></trkpt><trkpt lat="43.3745761" lon="12.46509"><ele>373.0</ele><time>2026-04-26T15:08:26.036Z</time></trkpt><trkpt lat="43.3746077" lon="12.4652945"><ele>372.0</ele><time>2026-04-26T15:08:27.028Z</time></trkpt><trkpt lat="43.3746391" lon="12.4655148"><ele>372.0</ele><time>2026-04-26T15:08:28.02Z</time></trkpt><trkpt lat="43.3746711" lon="12.4657447"><ele>372.0</ele><time>2026-04-26T15:08:29.03Z</time></trkpt><trkpt lat="43.3747038" lon="12.4659836"><ele>372.0</ele><time>2026-04-26T15:08:30.038Z</time></trkpt><trkpt lat="43.374744" lon="12.4662262"><ele>378.0</ele><time>2026-04-26T15:08:31.032Z</time></trkpt><trkpt lat="43.3747887" lon="12.4664576"><ele>384.0</ele><time>2026-04-26T15:08:32.032Z</time></trkpt><trkpt lat="43.3748236" lon="12.4666789"><ele>390.0</ele><time>2026-04-26T15:08:33.038Z</time></trkpt><trkpt lat="43.37486" lon="12.4668835"><ele>390.0</ele><time>2026-04-26T15:08:34.03Z</time></trkpt><trkpt lat="43.3748976" lon="12.4670885"><ele>390.0</ele><time>2026-04-26T15:08:35.021Z</time></trkpt><trkpt lat="43.3749288" lon="12.4672995"><ele>390.0</ele><time>2026-04-26T15:08:36.034Z</time></trkpt><trkpt lat="43.3749586" lon="12.467507"><ele>390.0</ele><time>2026-04-26T15:08:37.028Z</time></trkpt><trkpt lat="43.3749832" lon="12.4677059"><ele>390.0</ele><time>2026-04-26T15:08:38.038Z</time></trkpt><trkpt lat="43.3749999" lon="12.4679049"><ele>390.0</ele><time>2026-04-26T15:08:39.041Z</time></trkpt><trkpt lat="43.3750017" lon="12.4681048"><ele>390.0</ele><time>2026-04-26T15:08:40.047Z</time></trkpt><trkpt lat="43.3749842" lon="12.468309"><ele>390.75</ele><time>2026-04-26T15:08:41.045Z</time></trkpt><trkpt lat="43.3749487" lon="12.4685121"><ele>391.5</ele><time>2026-04-26T15:08:42.035Z</time></trkpt><trkpt lat="43.3749099" lon="12.4687101"><ele>392.25</ele><time>2026-04-26T15:08:43.039Z</time></trkpt><trkpt lat="43.3748793" lon="12.468895"><ele>393.0</ele><time>2026-04-26T15:08:44.037Z</time></trkpt><trkpt lat="43.3748703" lon="12.4690816"><ele>393.0</ele><time>2026-04-26T15:08:45.039Z</time></trkpt><trkpt lat="43.374882" lon="12.4692825"><ele>393.0</ele><time>2026-04-26T15:08:46.037Z</time></trkpt><trkpt lat="43.3749206" lon="12.4694868"><ele>393.0</ele><time>2026-04-26T15:08:47.048Z</time></trkpt><trkpt lat="43.3749834" lon="12.4696846"><ele>391.0</ele><time>2026-04-26T15:08:48.013Z</time></trkpt><trkpt lat="43.3750551" lon="12.4698651"><ele>389.0</ele><time>2026-04-26T15:08:49.04Z</time></trkpt><trkpt lat="43.3751434" lon="12.4700139"><ele>387.0</ele><time>2026-04-26T15:08:50.045Z</time></trkpt><trkpt lat="43.3752334" lon="12.4701386"><ele>385.0</ele><time>2026-04-26T15:08:51.055Z</time></trkpt><trkpt lat="43.3753248" lon="12.4702394"><ele>385.0</ele><time>2026-04-26T15:08:52.031Z</time></trkpt><trkpt lat="43.3754144" lon="12.4703388"><ele>385.0</ele><time>2026-04-26T15:08:53.039Z</time></trkpt><trkpt lat="43.3755001" lon="12.4704359"><ele>385.0</ele><time>2026-04-26T15:08:54.043Z</time></trkpt><trkpt lat="43.3755854" lon="12.4705479"><ele>385.0</ele><time>2026-04-26T15:08:55.043Z</time></trkpt><trkpt lat="43.3756632" lon="12.4706807"><ele>386.5</ele><time>2026-04-26T15:08:56.045Z</time></trkpt><trkpt lat="43.3757233" lon="12.4708312"><ele>388.0</ele><time>2026-04-26T15:08:57.049Z</time></trkpt><trkpt lat="43.3757637" lon="12.4710031"><ele>389.5</ele><time>2026-04-26T15:08:58.027Z</time></trkpt><trkpt lat="43.3757794" lon="12.4711951"><ele>391.0</ele><time>2026-04-26T15:08:59.036Z</time></trkpt><trkpt lat="43.3757716" lon="12.4714002"><ele>391.0</ele><time>2026-04-26T15:09:00.032Z</time></trkpt><trkpt lat="43.3757585" lon="12.4716207"><ele>391.0</ele><time>2026-04-26T15:09:01.036Z</time></trkpt><trkpt lat="43.3757359" lon="12.4718445"><ele>391.0</ele><time>2026-04-26T15:09:02.023Z</time></trkpt><trkpt lat="43.3757183" lon="12.4720835"><ele>393.33333333333337</ele><time>2026-04-26T15:09:03.038Z</time></trkpt><trkpt lat="43.3757008" lon="12.4723386"><ele>395.66666666666663</ele><time>2026-04-26T15:09:04.03Z</time></trkpt><trkpt lat="43.3756854" lon="12.4726042"><ele>398.0</ele><time>2026-04-26T15:09:05.038Z</time></trkpt><trkpt lat="43.3756689" lon="12.4728769"><ele>399.3333333333333</ele><time>2026-04-26T15:09:06.037Z</time></trkpt><trkpt lat="43.375652" lon="12.4731551"><ele>400.66666666666663</ele><time>2026-04-26T15:09:07.039Z</time></trkpt><trkpt lat="43.3756354" lon="12.4734445"><ele>402.0</ele><time>2026-04-26T15:09:08.028Z</time></trkpt><trkpt lat="43.3756141" lon="12.4737349"><ele>403.66666666666663</ele><time>2026-04-26T15:09:09.025Z</time></trkpt><trkpt lat="43.3755922" lon="12.4740191"><ele>405.3333333333333</ele><time>2026-04-26T15:09:10.033Z</time></trkpt><trkpt lat="43.3755771" lon="12.4742961"><ele>407.0</ele><time>2026-04-26T15:09:11.034Z</time></trkpt><trkpt lat="43.3755628" lon="12.4745829"><ele>409.0</ele><time>2026-04-26T15:09:12.019Z</time></trkpt><trkpt lat="43.375549" lon="12.4748495"><ele>411.0</ele><time>2026-04-26T15:09:13.029Z</time></trkpt><trkpt lat="43.3755304" lon="12.4751232"><ele>413.0</ele><time>2026-04-26T15:09:14.018Z</time></trkpt><trkpt lat="43.3755088" lon="12.4753812"><ele>403.3333333333333</ele><time>2026-04-26T15:09:15.018Z</time></trkpt><trkpt lat="43.3754945" lon="12.4756286"><ele>393.66666666666663</ele><time>2026-04-26T15:09:16.023Z</time></trkpt><trkpt lat="43.3754778" lon="12.4758728"><ele>384.0</ele><time>2026-04-26T15:09:17.022Z</time></trkpt><trkpt lat="43.3754587" lon="12.476118"><ele>384.0</ele><time>2026-04-26T15:09:18.031Z</time></trkpt><trkpt lat="43.3754311" lon="12.4763521"><ele>384.0</ele><time>2026-04-26T15:09:19.057Z</time></trkpt><trkpt lat="43.37539" lon="12.4765841"><ele>384.0</ele><time>2026-04-26T15:09:20.022Z</time></trkpt><trkpt lat="43.3753272" lon="12.4768147"><ele>384.0</ele><time>2026-04-26T15:09:21.026Z</time></trkpt><trkpt lat="43.3752493" lon="12.4770411"><ele>384.0</ele><time>2026-04-26T15:09:22.035Z</time></trkpt><trkpt lat="43.3751585" lon="12.4772486"><ele>384.0</ele><time>2026-04-26T15:09:23.029Z</time></trkpt><trkpt lat="43.3750647" lon="12.4774419"><ele>388.66666666666663</ele><time>2026-04-26T15:09:24.028Z</time></trkpt><trkpt lat="43.374958" lon="12.477632"><ele>393.3333333333333</ele><time>2026-04-26T15:09:25.043Z</time></trkpt><trkpt lat="43.3748471" lon="12.4778139"><ele>398.0</ele><time>2026-04-26T15:09:26.035Z</time></trkpt><trkpt lat="43.3747249" lon="12.4779753"><ele>396.66666666666663</ele><time>2026-04-26T15:09:27.026Z</time></trkpt><trkpt lat="43.3746054" lon="12.4781191"><ele>395.33333333333337</ele><time>2026-04-26T15:09:28.016Z</time></trkpt><trkpt lat="43.3744841" lon="12.4782629"><ele>394.0</ele><time>2026-04-26T15:09:29.035Z</time></trkpt><trkpt lat="43.3743588" lon="12.4784062"><ele>394.0</ele><time>2026-04-26T15:09:30.029Z</time></trkpt><trkpt lat="43.3742327" lon="12.4785531"><ele>394.0</ele><time>2026-04-26T15:09:31.033Z</time></trkpt><trkpt lat="43.374105" lon="12.4787036"><ele>394.0</ele><time>2026-04-26T15:09:32.03Z</time></trkpt><trkpt lat="43.3739773" lon="12.4788509"><ele>393.0</ele><time>2026-04-26T15:09:33.031Z</time></trkpt><trkpt lat="43.3738463" lon="12.4789993"><ele>392.0</ele><time>2026-04-26T15:09:34.027Z</time></trkpt><trkpt lat="43.3737228" lon="12.4791548"><ele>391.0</ele><time>2026-04-26T15:09:35.032Z</time></trkpt><trkpt lat="43.3736103" lon="12.47931"><ele>391.0</ele><time>2026-04-26T15:09:36.038Z</time></trkpt><trkpt lat="43.3735079" lon="12.4794641"><ele>391.0</ele><time>2026-04-26T15:09:37.017Z</time></trkpt><trkpt lat="43.3734124" lon="12.4796151"><ele>391.0</ele><time>2026-04-26T15:09:38.032Z</time></trkpt><trkpt lat="43.3733282" lon="12.4797678"><ele>391.0</ele><time>2026-04-26T15:09:39.037Z</time></trkpt><trkpt lat="43.3732652" lon="12.4799194"><ele>393.75</ele><time>2026-04-26T15:09:40.039Z</time></trkpt><trkpt lat="43.3732112" lon="12.4800863"><ele>396.5</ele><time>2026-04-26T15:09:41.03Z</time></trkpt><trkpt lat="43.3731777" lon="12.4802664"><ele>399.25</ele><time>2026-04-26T15:09:42.04Z</time></trkpt><trkpt lat="43.3731591" lon="12.4804514"><ele>402.0</ele><time>2026-04-26T15:09:43.033Z</time></trkpt><trkpt lat="43.3731591" lon="12.4806455"><ele>402.0</ele><time>2026-04-26T15:09:44.038Z</time></trkpt><trkpt lat="43.3731811" lon="12.4808365"><ele>402.0</ele><time>2026-04-26T15:09:45.048Z</time></trkpt><trkpt lat="43.3732324" lon="12.481011"><ele>402.0</ele><time>2026-04-26T15:09:46.03Z</time></trkpt><trkpt lat="43.3733022" lon="12.4811691"><ele>402.0</ele><time>2026-04-26T15:09:47.038Z</time></trkpt><trkpt lat="43.373388" lon="12.4813217"><ele>400.5</ele><time>2026-04-26T15:09:48.04Z</time></trkpt><trkpt lat="43.3734888" lon="12.4814498"><ele>399.0</ele><time>2026-04-26T15:09:49.054Z</time></trkpt><trkpt lat="43.3735987" lon="12.4815634"><ele>397.5</ele><time>2026-04-26T15:09:50.049Z</time></trkpt><trkpt lat="43.3737118" lon="12.4816726"><ele>396.0</ele><time>2026-04-26T15:09:51.027Z</time></trkpt><trkpt lat="43.3738293" lon="12.4817796"><ele>396.5</ele><time>2026-04-26T15:09:52.029Z</time></trkpt><trkpt lat="43.3739493" lon="12.4818836"><ele>397.0</ele><time>2026-04-26T15:09:53.039Z</time></trkpt><trkpt lat="43.3740698" lon="12.4820031"><ele>397.5</ele><time>2026-04-26T15:09:54.019Z</time></trkpt><trkpt lat="43.3741914" lon="12.4821246"><ele>398.0</ele><time>2026-04-26T15:09:55.045Z</time></trkpt><trkpt lat="43.3743148" lon="12.48226"><ele>398.0</ele><time>2026-04-26T15:09:56.038Z</time></trkpt><trkpt lat="43.3744403" lon="12.482418"><ele>398.0</ele><time>2026-04-26T15:09:57.043Z</time></trkpt><trkpt lat="43.3745659" lon="12.4825921"><ele>398.0</ele><time>2026-04-26T15:09:58.037Z</time></trkpt><trkpt lat="43.374686" lon="12.4827797"><ele>399.3333333333333</ele><time>2026-04-26T15:09:59.029Z</time></trkpt><trkpt lat="43.3748075" lon="12.482977"><ele>400.66666666666663</ele><time>2026-04-26T15:10:00.025Z</time></trkpt><trkpt lat="43.3749314" lon="12.4831815"><ele>402.0</ele><time>2026-04-26T15:10:01.039Z</time></trkpt><trkpt lat="43.3750579" lon="12.4833866"><ele>402.0</ele><time>2026-04-26T15:10:02.032Z</time></trkpt><trkpt lat="43.3751797" lon="12.4835899"><ele>402.0</ele><time>2026-04-26T15:10:03.039Z</time></trkpt><trkpt lat="43.3752948" lon="12.4837814"><ele>402.0</ele><time>2026-04-26T15:10:04.033Z</time></trkpt><trkpt lat="43.3754076" lon="12.4839658"><ele>403.0</ele><time>2026-04-26T15:10:05.036Z</time></trkpt><trkpt lat="43.3755168" lon="12.4841482"><ele>404.0</ele><time>2026-04-26T15:10:06.028Z</time></trkpt><trkpt lat="43.3756293" lon="12.4843334"><ele>405.0</ele><time>2026-04-26T15:10:07.035Z</time></trkpt><trkpt lat="43.3757439" lon="12.4845258"><ele>402.66666666666663</ele><time>2026-04-26T15:10:08.037Z</time></trkpt><trkpt lat="43.3758585" lon="12.4847169"><ele>400.3333333333333</ele><time>2026-04-26T15:10:09.043Z</time></trkpt><trkpt lat="43.3759718" lon="12.4849081"><ele>398.0</ele><time>2026-04-26T15:10:10.037Z</time></trkpt><trkpt lat="43.3760928" lon="12.4851117"><ele>398.0</ele><time>2026-04-26T15:10:11.051Z</time></trkpt><trkpt lat="43.3762221" lon="12.4853184"><ele>398.0</ele><time>2026-04-26T15:10:12.037Z</time></trkpt><trkpt lat="43.3763608" lon="12.4855394"><ele>398.0</ele><time>2026-04-26T15:10:13.034Z</time></trkpt><trkpt lat="43.3765047" lon="12.4857777"><ele>399.0</ele><time>2026-04-26T15:10:14.009Z</time></trkpt><trkpt lat="43.3766519" lon="12.4860303"><ele>400.0</ele><time>2026-04-26T15:10:15.038Z</time></trkpt><trkpt lat="43.3767977" lon="12.4862812"><ele>400.0</ele><time>2026-04-26T15:10:16.032Z</time></trkpt><trkpt lat="43.3769354" lon="12.4865091"><ele>400.0</ele><time>2026-04-26T15:10:17.04Z</time></trkpt><trkpt lat="43.3770604" lon="12.4867299"><ele>400.0</ele><time>2026-04-26T15:10:18.03Z</time></trkpt><trkpt lat="43.377181" lon="12.4869321"><ele>400.6666666666667</ele><time>2026-04-26T15:10:19.027Z</time></trkpt><trkpt lat="43.3772907" lon="12.4871252"><ele>401.33333333333337</ele><time>2026-04-26T15:10:20.036Z</time></trkpt><trkpt lat="43.3773945" lon="12.4873083"><ele>402.0</ele><time>2026-04-26T15:10:21.026Z</time></trkpt><trkpt lat="43.3774828" lon="12.4874882"><ele>402.0</ele><time>2026-04-26T15:10:22.035Z</time></trkpt><trkpt lat="43.3775541" lon="12.4876846"><ele>402.0</ele><time>2026-04-26T15:10:23.028Z</time></trkpt><trkpt lat="43.3776083" lon="12.4878913"><ele>402.0</ele><time>2026-04-26T15:10:24.037Z</time></trkpt><trkpt lat="43.3776253" lon="12.4881007"><ele>402.0</ele><time>2026-04-26T15:10:25.035Z</time></trkpt><trkpt lat="43.3776079" lon="12.4883284"><ele>402.0</ele><time>2026-04-26T15:10:26.042Z</time></trkpt><trkpt lat="43.3775782" lon="12.4885555"><ele>402.0</ele><time>2026-04-26T15:10:27.041Z</time></trkpt><trkpt lat="43.377534" lon="12.4887836"><ele>402.66666666666663</ele><time>2026-04-26T15:10:28.022Z</time></trkpt><trkpt lat="43.3774893" lon="12.4890247"><ele>403.3333333333333</ele><time>2026-04-26T15:10:29.04Z</time></trkpt><trkpt lat="43.3774463" lon="12.4892573"><ele>404.0</ele><time>2026-04-26T15:10:30.041Z</time></trkpt><trkpt lat="43.3774077" lon="12.4894753"><ele>405.0</ele><time>2026-04-26T15:10:31.032Z</time></trkpt><trkpt lat="43.3773696" lon="12.489671"><ele>406.0</ele><time>2026-04-26T15:10:32.043Z</time></trkpt><trkpt lat="43.3773389" lon="12.4898536"><ele>407.0</ele><time>2026-04-26T15:10:33.023Z</time></trkpt><trkpt lat="43.3773049" lon="12.4900307"><ele>408.0</ele><time>2026-04-26T15:10:34.054Z</time></trkpt><trkpt lat="43.3772687" lon="12.4901989"><ele>408.0</ele><time>2026-04-26T15:10:35.044Z</time></trkpt><trkpt lat="43.3772385" lon="12.4903555"><ele>408.0</ele><time>2026-04-26T15:10:36.038Z</time></trkpt><trkpt lat="43.3772126" lon="12.4905137"><ele>408.0</ele><time>2026-04-26T15:10:37.023Z</time></trkpt><trkpt lat="43.3771915" lon="12.4906777"><ele>408.0</ele><time>2026-04-26T15:10:38.047Z</time></trkpt><trkpt lat="43.3771804" lon="12.4908524"><ele>408.25</ele><time>2026-04-26T15:10:39.039Z</time></trkpt><trkpt lat="43.3771816" lon="12.4910312"><ele>408.5</ele><time>2026-04-26T15:10:40.013Z</time></trkpt><trkpt lat="43.3772013" lon="12.4912071"><ele>408.75</ele><time>2026-04-26T15:10:41.043Z</time></trkpt><trkpt lat="43.377238" lon="12.4913848"><ele>409.0</ele><time>2026-04-26T15:10:42.033Z</time></trkpt><trkpt lat="43.3772915" lon="12.4915504"><ele>409.25</ele><time>2026-04-26T15:10:43.043Z</time></trkpt><trkpt lat="43.3773457" lon="12.4916986"><ele>409.5</ele><time>2026-04-26T15:10:44.025Z</time></trkpt><trkpt lat="43.3774026" lon="12.4918458"><ele>409.75</ele><time>2026-04-26T15:10:45.044Z</time></trkpt><trkpt lat="43.3774499" lon="12.49198"><ele>410.0</ele><time>2026-04-26T15:10:46.146Z</time></trkpt><trkpt lat="43.3774982" lon="12.4921117"><ele>410.0</ele><time>2026-04-26T15:10:47.049Z</time></trkpt><trkpt lat="43.3775443" lon="12.492239"><ele>410.0</ele><time>2026-04-26T15:10:48.042Z</time></trkpt><trkpt lat="43.377589" lon="12.4923575"><ele>410.0</ele><time>2026-04-26T15:10:49.057Z</time></trkpt><trkpt lat="43.3776299" lon="12.492469"><ele>410.0</ele><time>2026-04-26T15:10:50.043Z</time></trkpt><trkpt lat="43.3776707" lon="12.4925803"><ele>410.0</ele><time>2026-04-26T15:10:51.048Z</time></trkpt><trkpt lat="43.3777072" lon="12.4926939"><ele>409.99999999999994</ele><time>2026-04-26T15:10:52.042Z</time></trkpt><trkpt lat="43.377742" lon="12.4928138"><ele>410.0</ele><time>2026-04-26T15:10:53.037Z</time></trkpt><trkpt lat="43.3777623" lon="12.4929329"><ele>410.0</ele><time>2026-04-26T15:10:54.042Z</time></trkpt><trkpt lat="43.3777559" lon="12.4930388"><ele>410.0</ele><time>2026-04-26T15:10:55.051Z</time></trkpt><trkpt lat="43.3777157" lon="12.4931254"><ele>409.99999999999994</ele><time>2026-04-26T15:10:56.032Z</time></trkpt><trkpt lat="43.3776578" lon="12.4931838"><ele>410.0</ele><time>2026-04-26T15:10:57.054Z</time></trkpt><trkpt lat="43.3775794" lon="12.4932166"><ele>410.2</ele><time>2026-04-26T15:10:58.034Z</time></trkpt><trkpt lat="43.3774947" lon="12.4932183"><ele>410.4</ele><time>2026-04-26T15:10:59.034Z</time></trkpt><trkpt lat="43.3774" lon="12.4932034"><ele>410.6</ele><time>2026-04-26T15:11:00.034Z</time></trkpt><trkpt lat="43.3772961" lon="12.4931874"><ele>410.8</ele><time>2026-04-26T15:11:01.039Z</time></trkpt><trkpt lat="43.3771816" lon="12.4931671"><ele>411.0</ele><time>2026-04-26T15:11:02.029Z</time></trkpt><trkpt lat="43.3770709" lon="12.4931446"><ele>411.0</ele><time>2026-04-26T15:11:03.037Z</time></trkpt><trkpt lat="43.3769581" lon="12.493131"><ele>411.0</ele><time>2026-04-26T15:11:04.011Z</time></trkpt><trkpt lat="43.3768446" lon="12.4931128"><ele>411.0</ele><time>2026-04-26T15:11:05.04Z</time></trkpt><trkpt lat="43.3767428" lon="12.4930895"><ele>411.0</ele><time>2026-04-26T15:11:06.034Z</time></trkpt><trkpt lat="43.3766489" lon="12.4930591"><ele>411.0</ele><time>2026-04-26T15:11:07.046Z</time></trkpt><trkpt lat="43.3765585" lon="12.493049"><ele>411.0</ele><time>2026-04-26T15:11:08.034Z</time></trkpt><trkpt lat="43.3764663" lon="12.4930499"><ele>411.0</ele><time>2026-04-26T15:11:09.042Z</time></trkpt><trkpt lat="43.3763684" lon="12.4930861"><ele>411.0</ele><time>2026-04-26T15:11:10.034Z</time></trkpt><trkpt lat="43.3762728" lon="12.4931537"><ele>411.0</ele><time>2026-04-26T15:11:11.037Z</time></trkpt><trkpt lat="43.376194" lon="12.493267"><ele>411.0</ele><time>2026-04-26T15:11:12.047Z</time></trkpt><trkpt lat="43.3761364" lon="12.4934088"><ele>411.4</ele><time>2026-04-26T15:11:13.051Z</time></trkpt><trkpt lat="43.3761091" lon="12.4935579"><ele>411.8</ele><time>2026-04-26T15:11:14.035Z</time></trkpt><trkpt lat="43.376123" lon="12.4936915"><ele>412.2</ele><time>2026-04-26T15:11:15.026Z</time></trkpt><trkpt lat="43.3761636" lon="12.4938363"><ele>412.59999999999997</ele><time>2026-04-26T15:11:16.04Z</time></trkpt><trkpt lat="43.3762276" lon="12.4939639"><ele>413.0</ele><time>2026-04-26T15:11:17.035Z</time></trkpt><trkpt lat="43.3763109" lon="12.494088"><ele>412.75</ele><time>2026-04-26T15:11:18.028Z</time></trkpt><trkpt lat="43.3764079" lon="12.4941928"><ele>412.5</ele><time>2026-04-26T15:11:19.036Z</time></trkpt><trkpt lat="43.3765085" lon="12.4943029"><ele>412.25</ele><time>2026-04-26T15:11:20.043Z</time></trkpt><trkpt lat="43.3766039" lon="12.4944397"><ele>412.0</ele><time>2026-04-26T15:11:21.037Z</time></trkpt><trkpt lat="43.3766814" lon="12.4946009"><ele>412.0</ele><time>2026-04-26T15:11:22.021Z</time></trkpt><trkpt lat="43.3767301" lon="12.494785"><ele>412.0</ele><time>2026-04-26T15:11:23.052Z</time></trkpt><trkpt lat="43.3767456" lon="12.4949882"><ele>412.0</ele><time>2026-04-26T15:11:24.04Z</time></trkpt><trkpt lat="43.3767439" lon="12.4952163"><ele>412.0</ele><time>2026-04-26T15:11:25.049Z</time></trkpt><trkpt lat="43.3767298" lon="12.4954486"><ele>412.0</ele><time>2026-04-26T15:11:26.042Z</time></trkpt><trkpt lat="43.3767075" lon="12.4957012"><ele>412.0</ele><time>2026-04-26T15:11:27.023Z</time></trkpt><trkpt lat="43.3766824" lon="12.4959634"><ele>412.0</ele><time>2026-04-26T15:11:28.026Z</time></trkpt><trkpt lat="43.3766559" lon="12.4962352"><ele>412.0</ele><time>2026-04-26T15:11:29.039Z</time></trkpt><trkpt lat="43.3766271" lon="12.4965012"><ele>412.0</ele><time>2026-04-26T15:11:30.024Z</time></trkpt><trkpt lat="43.3765988" lon="12.4967725"><ele>411.6666666666667</ele><time>2026-04-26T15:11:31.043Z</time></trkpt><trkpt lat="43.3765651" lon="12.4970438"><ele>411.33333333333337</ele><time>2026-04-26T15:11:32.04Z</time></trkpt><trkpt lat="43.3765336" lon="12.497309"><ele>411.0</ele><time>2026-04-26T15:11:33.042Z</time></trkpt><trkpt lat="43.3764951" lon="12.4975763"><ele>410.66666666666663</ele><time>2026-04-26T15:11:34.037Z</time></trkpt><trkpt lat="43.3764528" lon="12.4978449"><ele>410.3333333333333</ele><time>2026-04-26T15:11:35.046Z</time></trkpt><trkpt lat="43.3764035" lon="12.4981173"><ele>410.0</ele><time>2026-04-26T15:11:36.034Z</time></trkpt><trkpt lat="43.3763456" lon="12.4983914"><ele>410.66666666666663</ele><time>2026-04-26T15:11:37.045Z</time></trkpt><trkpt lat="43.3762811" lon="12.4986631"><ele>411.33333333333337</ele><time>2026-04-26T15:11:38.03Z</time></trkpt><trkpt lat="43.3762065" lon="12.4989291"><ele>412.0</ele><time>2026-04-26T15:11:39.046Z</time></trkpt><trkpt lat="43.3761214" lon="12.4991951"><ele>412.0</ele><time>2026-04-26T15:11:40.05Z</time></trkpt><trkpt lat="43.3760217" lon="12.4994568"><ele>412.0</ele><time>2026-04-26T15:11:41.047Z</time></trkpt><trkpt lat="43.3759124" lon="12.4997144"><ele>412.0</ele><time>2026-04-26T15:11:42.043Z</time></trkpt><trkpt lat="43.3757971" lon="12.4999727"><ele>411.5</ele><time>2026-04-26T15:11:43.041Z</time></trkpt><trkpt lat="43.3756788" lon="12.5002365"><ele>411.0</ele><time>2026-04-26T15:11:44.04Z</time></trkpt><trkpt lat="43.3755525" lon="12.5004959"><ele>411.0</ele><time>2026-04-26T15:11:45.042Z</time></trkpt><trkpt lat="43.3754145" lon="12.5007649"><ele>411.0</ele><time>2026-04-26T15:11:46.047Z</time></trkpt><trkpt lat="43.3752706" lon="12.5010334"><ele>411.0</ele><time>2026-04-26T15:11:47.047Z</time></trkpt><trkpt lat="43.3751251" lon="12.5013083"><ele>411.0</ele><time>2026-04-26T15:11:48.033Z</time></trkpt><trkpt lat="43.3749765" lon="12.5015901"><ele>411.0</ele><time>2026-04-26T15:11:49.032Z</time></trkpt><trkpt lat="43.3748274" lon="12.501874"><ele>411.0</ele><time>2026-04-26T15:11:50.021Z</time></trkpt><trkpt lat="43.374675" lon="12.5021635"><ele>408.5</ele><time>2026-04-26T15:11:51.027Z</time></trkpt><trkpt lat="43.3745188" lon="12.5024594"><ele>406.0</ele><time>2026-04-26T15:11:52.031Z</time></trkpt><trkpt lat="43.3743671" lon="12.5027553"><ele>405.5</ele><time>2026-04-26T15:11:53.046Z</time></trkpt><trkpt lat="43.3742082" lon="12.5030519"><ele>405.0</ele><time>2026-04-26T15:11:54.039Z</time></trkpt><trkpt lat="43.3740418" lon="12.5033565"><ele>405.0</ele><time>2026-04-26T15:11:55.045Z</time></trkpt><trkpt lat="43.3738807" lon="12.5036671"><ele>405.0</ele><time>2026-04-26T15:11:56.029Z</time></trkpt><trkpt lat="43.3737191" lon="12.5039713"><ele>404.5</ele><time>2026-04-26T15:11:57.034Z</time></trkpt><trkpt lat="43.3735588" lon="12.5042826"><ele>404.0</ele><time>2026-04-26T15:11:58.023Z</time></trkpt><trkpt lat="43.373396" lon="12.504594"><ele>404.0</ele><time>2026-04-26T15:11:59.024Z</time></trkpt><trkpt lat="43.3732244" lon="12.5049095"><ele>404.0</ele><time>2026-04-26T15:12:00.033Z</time></trkpt><trkpt lat="43.3730625" lon="12.5052247"><ele>402.0</ele><time>2026-04-26T15:12:01.022Z</time></trkpt><trkpt lat="43.372895" lon="12.5055451"><ele>400.0</ele><time>2026-04-26T15:12:02.013Z</time></trkpt><trkpt lat="43.3727299" lon="12.5058604"><ele>400.0</ele><time>2026-04-26T15:12:03.026Z</time></trkpt><trkpt lat="43.3725652" lon="12.506177"><ele>400.0</ele><time>2026-04-26T15:12:04.017Z</time></trkpt><trkpt lat="43.3723998" lon="12.5064873"><ele>399.5</ele><time>2026-04-26T15:12:05.032Z</time></trkpt><trkpt lat="43.3722328" lon="12.5067946"><ele>399.0</ele><time>2026-04-26T15:12:06.032Z</time></trkpt><trkpt lat="43.3720634" lon="12.5070993"><ele>398.5</ele><time>2026-04-26T15:12:07.05Z</time></trkpt><trkpt lat="43.3718995" lon="12.5073958"><ele>398.0</ele><time>2026-04-26T15:12:08.04Z</time></trkpt><trkpt lat="43.3717361" lon="12.5076876"><ele>398.5</ele><time>2026-04-26T15:12:09.047Z</time></trkpt><trkpt lat="43.3715724" lon="12.507979"><ele>399.0</ele><time>2026-04-26T15:12:10.044Z</time></trkpt><trkpt lat="43.3714088" lon="12.5082655"><ele>399.0</ele><time>2026-04-26T15:12:11.051Z</time></trkpt><trkpt lat="43.3712458" lon="12.5085478"><ele>399.0</ele><time>2026-04-26T15:12:12.023Z</time></trkpt><trkpt lat="43.371082" lon="12.5088297"><ele>400.0</ele><time>2026-04-26T15:12:13.038Z</time></trkpt><trkpt lat="43.3709151" lon="12.5091114"><ele>401.0</ele><time>2026-04-26T15:12:14.033Z</time></trkpt><trkpt lat="43.3707493" lon="12.5093888"><ele>400.0</ele><time>2026-04-26T15:12:15.026Z</time></trkpt><trkpt lat="43.370584" lon="12.5096651"><ele>399.0</ele><time>2026-04-26T15:12:16.029Z</time></trkpt><trkpt lat="43.3704164" lon="12.5099446"><ele>398.5</ele><time>2026-04-26T15:12:17.044Z</time></trkpt><trkpt lat="43.3702447" lon="12.5102238"><ele>398.0</ele><time>2026-04-26T15:12:18.029Z</time></trkpt><trkpt lat="43.3700756" lon="12.5105042"><ele>399.5</ele><time>2026-04-26T15:12:19.042Z</time></trkpt><trkpt lat="43.3699031" lon="12.5107903"><ele>401.0</ele><time>2026-04-26T15:12:20.027Z</time></trkpt><trkpt lat="43.3697275" lon="12.5110738"><ele>401.0</ele><time>2026-04-26T15:12:21.046Z</time></trkpt><trkpt lat="43.3695521" lon="12.5113644"><ele>401.0</ele><time>2026-04-26T15:12:22.035Z</time></trkpt><trkpt lat="43.3693745" lon="12.5116676"><ele>401.0</ele><time>2026-04-26T15:12:23.034Z</time></trkpt><trkpt lat="43.3692007" lon="12.5119731"><ele>401.0</ele><time>2026-04-26T15:12:24.039Z</time></trkpt><trkpt lat="43.3690284" lon="12.5122788"><ele>401.5</ele><time>2026-04-26T15:12:25.046Z</time></trkpt><trkpt lat="43.3688508" lon="12.5125881"><ele>402.0</ele><time>2026-04-26T15:12:26.029Z</time></trkpt><trkpt lat="43.3686736" lon="12.5129059"><ele>402.5</ele><time>2026-04-26T15:12:27.042Z</time></trkpt><trkpt lat="43.3684996" lon="12.5132229"><ele>403.0</ele><time>2026-04-26T15:12:28.02Z</time></trkpt><trkpt lat="43.3683219" lon="12.5135463"><ele>403.5</ele><time>2026-04-26T15:12:29.04Z</time></trkpt><trkpt lat="43.3681497" lon="12.5138674"><ele>404.0</ele><time>2026-04-26T15:12:30.048Z</time></trkpt><trkpt lat="43.3679742" lon="12.5141938"><ele>404.0</ele><time>2026-04-26T15:12:31.04Z</time></trkpt><trkpt lat="43.3677992" lon="12.5145272"><ele>404.0</ele><time>2026-04-26T15:12:32.013Z</time></trkpt><trkpt lat="43.3676253" lon="12.5148614"><ele>404.0</ele><time>2026-04-26T15:12:33.042Z</time></trkpt><trkpt lat="43.3674545" lon="12.5151917"><ele>404.0</ele><time>2026-04-26T15:12:34.048Z</time></trkpt><trkpt lat="43.3672901" lon="12.5155079"><ele>404.5</ele><time>2026-04-26T15:12:35.036Z</time></trkpt><trkpt lat="43.3671333" lon="12.5158185"><ele>405.0</ele><time>2026-04-26T15:12:36.032Z</time></trkpt><trkpt lat="43.3669838" lon="12.516126"><ele>406.5</ele><time>2026-04-26T15:12:37.041Z</time></trkpt><trkpt lat="43.3668391" lon="12.5164232"><ele>408.0</ele><time>2026-04-26T15:12:38.035Z</time></trkpt><trkpt lat="43.3666986" lon="12.5167142"><ele>408.0</ele><time>2026-04-26T15:12:39.034Z</time></trkpt><trkpt lat="43.3665623" lon="12.5169973"><ele>408.0</ele><time>2026-04-26T15:12:40.034Z</time></trkpt><trkpt lat="43.3664265" lon="12.5172754"><ele>409.0</ele><time>2026-04-26T15:12:41.035Z</time></trkpt><trkpt lat="43.3662861" lon="12.5175637"><ele>410.0</ele><time>2026-04-26T15:12:42.032Z</time></trkpt><trkpt lat="43.3661423" lon="12.5178535"><ele>410.0</ele><time>2026-04-26T15:12:43.043Z</time></trkpt><trkpt lat="43.3659933" lon="12.5181515"><ele>410.0</ele><time>2026-04-26T15:12:44.038Z</time></trkpt><trkpt lat="43.3658387" lon="12.5184629"><ele>410.5</ele><time>2026-04-26T15:12:45.031Z</time></trkpt><trkpt lat="43.3656816" lon="12.5187794"><ele>411.0</ele><time>2026-04-26T15:12:46.042Z</time></trkpt><trkpt lat="43.3655196" lon="12.5190989"><ele>411.0</ele><time>2026-04-26T15:12:47.036Z</time></trkpt><trkpt lat="43.3653566" lon="12.5194223"><ele>411.0</ele><time>2026-04-26T15:12:48.039Z</time></trkpt><trkpt lat="43.3651856" lon="12.5197469"><ele>412.5</ele><time>2026-04-26T15:12:49.04Z</time></trkpt><trkpt lat="43.3650154" lon="12.5200645"><ele>414.0</ele><time>2026-04-26T15:12:50.046Z</time></trkpt><trkpt lat="43.364843" lon="12.5203883"><ele>414.0</ele><time>2026-04-26T15:12:51.046Z</time></trkpt><trkpt lat="43.3646677" lon="12.5207062"><ele>414.0</ele><time>2026-04-26T15:12:52.039Z</time></trkpt><trkpt lat="43.3644901" lon="12.521027"><ele>414.5</ele><time>2026-04-26T15:12:53.03Z</time></trkpt><trkpt lat="43.3643074" lon="12.5213486"><ele>415.0</ele><time>2026-04-26T15:12:54.04Z</time></trkpt><trkpt lat="43.3641232" lon="12.5216759"><ele>415.0</ele><time>2026-04-26T15:12:55.051Z</time></trkpt><trkpt lat="43.3639359" lon="12.5220012"><ele>415.0</ele><time>2026-04-26T15:12:56.029Z</time></trkpt><trkpt lat="43.3637497" lon="12.5223264"><ele>415.0</ele><time>2026-04-26T15:12:57.032Z</time></trkpt><trkpt lat="43.3635637" lon="12.5226534"><ele>415.0</ele><time>2026-04-26T15:12:58.018Z</time></trkpt><trkpt lat="43.3633805" lon="12.5229746"><ele>416.5</ele><time>2026-04-26T15:12:59.049Z</time></trkpt><trkpt lat="43.3632029" lon="12.5232901"><ele>418.0</ele><time>2026-04-26T15:13:00.023Z</time></trkpt><trkpt lat="43.3630314" lon="12.523591"><ele>420.0</ele><time>2026-04-26T15:13:01.039Z</time></trkpt><trkpt lat="43.3628624" lon="12.5238808"><ele>422.0</ele><time>2026-04-26T15:13:02.036Z</time></trkpt><trkpt lat="43.3626952" lon="12.5241702"><ele>422.0</ele><time>2026-04-26T15:13:03.044Z</time></trkpt><trkpt lat="43.3625337" lon="12.5244567"><ele>422.0</ele><time>2026-04-26T15:13:04.029Z</time></trkpt><trkpt lat="43.3623769" lon="12.5247379"><ele>421.5</ele><time>2026-04-26T15:13:05.041Z</time></trkpt><trkpt lat="43.3622203" lon="12.5250181"><ele>421.0</ele><time>2026-04-26T15:13:06.049Z</time></trkpt><trkpt lat="43.362064" lon="12.5252931"><ele>421.5</ele><time>2026-04-26T15:13:07.039Z</time></trkpt><trkpt lat="43.3619101" lon="12.525563"><ele>422.0</ele><time>2026-04-26T15:13:08.033Z</time></trkpt><trkpt lat="43.3617549" lon="12.5258351"><ele>422.0</ele><time>2026-04-26T15:13:09.043Z</time></trkpt><trkpt lat="43.3615996" lon="12.5261068"><ele>422.0</ele><time>2026-04-26T15:13:10.045Z</time></trkpt><trkpt lat="43.3614451" lon="12.5263816"><ele>423.5</ele><time>2026-04-26T15:13:11.041Z</time></trkpt><trkpt lat="43.3612871" lon="12.5266517"><ele>425.0</ele><time>2026-04-26T15:13:12.036Z</time></trkpt><trkpt lat="43.3611315" lon="12.5269255"><ele>425.5</ele><time>2026-04-26T15:13:13.05Z</time></trkpt><trkpt lat="43.3609731" lon="12.5272057"><ele>426.0</ele><time>2026-04-26T15:13:14.041Z</time></trkpt><trkpt lat="43.3608115" lon="12.5274881"><ele>426.0</ele><time>2026-04-26T15:13:15.046Z</time></trkpt><trkpt lat="43.3606505" lon="12.5277707"><ele>426.0</ele><time>2026-04-26T15:13:16.03Z</time></trkpt><trkpt lat="43.3604927" lon="12.5280512"><ele>426.5</ele><time>2026-04-26T15:13:17.038Z</time></trkpt><trkpt lat="43.3603297" lon="12.5283366"><ele>427.0</ele><time>2026-04-26T15:13:18.03Z</time></trkpt><trkpt lat="43.3601689" lon="12.5286231"><ele>428.5</ele><time>2026-04-26T15:13:19.046Z</time></trkpt><trkpt lat="43.360009" lon="12.5289163"><ele>430.0</ele><time>2026-04-26T15:13:20.06Z</time></trkpt><trkpt lat="43.3598443" lon="12.5292198"><ele>430.0</ele><time>2026-04-26T15:13:21.045Z</time></trkpt><trkpt lat="43.3596791" lon="12.529529"><ele>430.0</ele><time>2026-04-26T15:13:22.052Z</time></trkpt><trkpt lat="43.3595" lon="12.5298402"><ele>430.0</ele><time>2026-04-26T15:13:23.033Z</time></trkpt><trkpt lat="43.3593169" lon="12.5301441"><ele>430.0</ele><time>2026-04-26T15:13:24.038Z</time></trkpt><trkpt lat="43.3591267" lon="12.5304641"><ele>429.5</ele><time>2026-04-26T15:13:25.047Z</time></trkpt><trkpt lat="43.3589363" lon="12.5307877"><ele>429.0</ele><time>2026-04-26T15:13:26.051Z</time></trkpt><trkpt lat="43.3587496" lon="12.5311121"><ele>430.0</ele><time>2026-04-26T15:13:27.042Z</time></trkpt><trkpt lat="43.358571" lon="12.5314398"><ele>431.0</ele><time>2026-04-26T15:13:28.033Z</time></trkpt><trkpt lat="43.3584045" lon="12.53177"><ele>433.0</ele><time>2026-04-26T15:13:29.035Z</time></trkpt><trkpt lat="43.3582548" lon="12.5320978"><ele>435.0</ele><time>2026-04-26T15:13:30.043Z</time></trkpt><trkpt lat="43.3581235" lon="12.5324272"><ele>435.0</ele><time>2026-04-26T15:13:31.039Z</time></trkpt><trkpt lat="43.3580066" lon="12.532767"><ele>435.0</ele><time>2026-04-26T15:13:32.031Z</time></trkpt><trkpt lat="43.3579108" lon="12.5331091"><ele>435.0</ele><time>2026-04-26T15:13:33.041Z</time></trkpt><trkpt lat="43.3578241" lon="12.5334502"><ele>435.0</ele><time>2026-04-26T15:13:34.035Z</time></trkpt><trkpt lat="43.3577581" lon="12.5337982"><ele>436.0</ele><time>2026-04-26T15:13:35.041Z</time></trkpt><trkpt lat="43.3577022" lon="12.5341531"><ele>437.0</ele><time>2026-04-26T15:13:36.015Z</time></trkpt><trkpt lat="43.3576509" lon="12.5345088"><ele>437.0</ele><time>2026-04-26T15:13:37.05Z</time></trkpt><trkpt lat="43.3576038" lon="12.5348667"><ele>437.0</ele><time>2026-04-26T15:13:38.042Z</time></trkpt><trkpt lat="43.3575604" lon="12.5352271"><ele>438.5</ele><time>2026-04-26T15:13:39.037Z</time></trkpt><trkpt lat="43.3575167" lon="12.5355871"><ele>440.0</ele><time>2026-04-26T15:13:40.035Z</time></trkpt><trkpt lat="43.3574738" lon="12.5359453"><ele>440.5</ele><time>2026-04-26T15:13:41.028Z</time></trkpt><trkpt lat="43.3574292" lon="12.5362841"><ele>441.0</ele><time>2026-04-26T15:13:42.031Z</time></trkpt><trkpt lat="43.3573839" lon="12.5365921"><ele>441.0</ele><time>2026-04-26T15:13:43.041Z</time></trkpt><trkpt lat="43.3573465" lon="12.53689"><ele>441.0</ele><time>2026-04-26T15:13:44.036Z</time></trkpt><trkpt lat="43.3573085" lon="12.5371857"><ele>441.0</ele><time>2026-04-26T15:13:45.048Z</time></trkpt><trkpt lat="43.3572706" lon="12.5374733"><ele>441.66666666666663</ele><time>2026-04-26T15:13:46.022Z</time></trkpt><trkpt lat="43.3572338" lon="12.537756"><ele>442.3333333333333</ele><time>2026-04-26T15:13:47.027Z</time></trkpt><trkpt lat="43.3571986" lon="12.5380343"><ele>443.0</ele><time>2026-04-26T15:13:48.028Z</time></trkpt><trkpt lat="43.3571642" lon="12.5383009"><ele>443.66666666666663</ele><time>2026-04-26T15:13:49.021Z</time></trkpt><trkpt lat="43.3571339" lon="12.5385698"><ele>444.33333333333337</ele><time>2026-04-26T15:13:50.014Z</time></trkpt><trkpt lat="43.357095" lon="12.538813"><ele>445.0</ele><time>2026-04-26T15:13:51.033Z</time></trkpt><trkpt lat="43.3570613" lon="12.5390437"><ele>445.33333333333337</ele><time>2026-04-26T15:13:52.017Z</time></trkpt><trkpt lat="43.3570318" lon="12.5392698"><ele>445.66666666666663</ele><time>2026-04-26T15:13:53.052Z</time></trkpt><trkpt lat="43.3570013" lon="12.539487"><ele>446.0</ele><time>2026-04-26T15:13:54.036Z</time></trkpt><trkpt lat="43.3569742" lon="12.5396965"><ele>446.0</ele><time>2026-04-26T15:13:55.033Z</time></trkpt><trkpt lat="43.3569474" lon="12.5399157"><ele>446.0</ele><time>2026-04-26T15:13:56.021Z</time></trkpt><trkpt lat="43.3569231" lon="12.5401306"><ele>446.0</ele><time>2026-04-26T15:13:57.032Z</time></trkpt><trkpt lat="43.3568952" lon="12.5403514"><ele>447.0</ele><time>2026-04-26T15:13:58.023Z</time></trkpt><trkpt lat="43.3568696" lon="12.5405756"><ele>448.0</ele><time>2026-04-26T15:13:59.023Z</time></trkpt><trkpt lat="43.3568477" lon="12.5407963"><ele>449.0</ele><time>2026-04-26T15:14:00.03Z</time></trkpt><trkpt lat="43.3568229" lon="12.5410274"><ele>449.3333333333333</ele><time>2026-04-26T15:14:01.029Z</time></trkpt><trkpt lat="43.3567948" lon="12.5412673"><ele>449.66666666666663</ele><time>2026-04-26T15:14:02.03Z</time></trkpt><trkpt lat="43.3567659" lon="12.5415229"><ele>450.0</ele><time>2026-04-26T15:14:03.044Z</time></trkpt><trkpt lat="43.3567397" lon="12.5417865"><ele>450.0</ele><time>2026-04-26T15:14:04.017Z</time></trkpt><trkpt lat="43.3567048" lon="12.5420467"><ele>450.0</ele><time>2026-04-26T15:14:05.031Z</time></trkpt><trkpt lat="43.3566713" lon="12.5423086"><ele>450.0</ele><time>2026-04-26T15:14:06.024Z</time></trkpt><trkpt lat="43.3566378" lon="12.5425769"><ele>450.66666666666663</ele><time>2026-04-26T15:14:07.042Z</time></trkpt><trkpt lat="43.3566047" lon="12.5428572"><ele>451.3333333333333</ele><time>2026-04-26T15:14:08.028Z</time></trkpt><trkpt lat="43.3565689" lon="12.5431562"><ele>452.0</ele><time>2026-04-26T15:14:09.04Z</time></trkpt><trkpt lat="43.3565272" lon="12.5434734"><ele>454.0</ele><time>2026-04-26T15:14:10.053Z</time></trkpt><trkpt lat="43.3564861" lon="12.5437954"><ele>456.0</ele><time>2026-04-26T15:14:11.047Z</time></trkpt><trkpt lat="43.3564431" lon="12.5441328"><ele>456.0</ele><time>2026-04-26T15:14:12.027Z</time></trkpt><trkpt lat="43.3563959" lon="12.5444748"><ele>456.0</ele><time>2026-04-26T15:14:13.027Z</time></trkpt><trkpt lat="43.3563523" lon="12.5448258"><ele>456.0</ele><time>2026-04-26T15:14:14.038Z</time></trkpt><trkpt lat="43.3563068" lon="12.5451768"><ele>456.0</ele><time>2026-04-26T15:14:15.021Z</time></trkpt><trkpt lat="43.3562602" lon="12.545503"><ele>456.0</ele><time>2026-04-26T15:14:16.04Z</time></trkpt><trkpt lat="43.3562178" lon="12.5458088"><ele>456.0</ele><time>2026-04-26T15:14:17.046Z</time></trkpt><trkpt lat="43.3561799" lon="12.5460981"><ele>456.0</ele><time>2026-04-26T15:14:18.026Z</time></trkpt><trkpt lat="43.3561458" lon="12.5463794"><ele>456.0</ele><time>2026-04-26T15:14:19.027Z</time></trkpt><trkpt lat="43.3561143" lon="12.546661"><ele>456.0</ele><time>2026-04-26T15:14:20.033Z</time></trkpt><trkpt lat="43.3560746" lon="12.5469433"><ele>456.0</ele><time>2026-04-26T15:14:21.027Z</time></trkpt><trkpt lat="43.3560379" lon="12.5472211"><ele>456.33333333333337</ele><time>2026-04-26T15:14:22.028Z</time></trkpt><trkpt lat="43.3560025" lon="12.5475011"><ele>456.6666666666667</ele><time>2026-04-26T15:14:23.025Z</time></trkpt><trkpt lat="43.3559665" lon="12.547781"><ele>457.0</ele><time>2026-04-26T15:14:24.023Z</time></trkpt><trkpt lat="43.3559233" lon="12.5480688"><ele>458.33333333333337</ele><time>2026-04-26T15:14:25.037Z</time></trkpt><trkpt lat="43.3558723" lon="12.5483651"><ele>459.66666666666663</ele><time>2026-04-26T15:14:26.045Z</time></trkpt><trkpt lat="43.3558109" lon="12.5486646"><ele>461.0</ele><time>2026-04-26T15:14:27.042Z</time></trkpt><trkpt lat="43.3557343" lon="12.5489657"><ele>461.5</ele><time>2026-04-26T15:14:28.02Z</time></trkpt><trkpt lat="43.3556477" lon="12.5492714"><ele>462.0</ele><time>2026-04-26T15:14:29.025Z</time></trkpt><trkpt lat="43.3555532" lon="12.5495787"><ele>460.5</ele><time>2026-04-26T15:14:30.047Z</time></trkpt><trkpt lat="43.3554587" lon="12.5498892"><ele>459.0</ele><time>2026-04-26T15:14:31.015Z</time></trkpt><trkpt lat="43.3553494" lon="12.5501966"><ele>458.5</ele><time>2026-04-26T15:14:32.037Z</time></trkpt><trkpt lat="43.3552319" lon="12.5505037"><ele>458.0</ele><time>2026-04-26T15:14:33.028Z</time></trkpt><trkpt lat="43.3551116" lon="12.550802"><ele>458.0</ele><time>2026-04-26T15:14:34.03Z</time></trkpt><trkpt lat="43.3549895" lon="12.5510789"><ele>458.0</ele><time>2026-04-26T15:14:35.045Z</time></trkpt><trkpt lat="43.354868" lon="12.5513418"><ele>458.3333333333333</ele><time>2026-04-26T15:14:36.027Z</time></trkpt><trkpt lat="43.3547469" lon="12.5515964"><ele>458.66666666666663</ele><time>2026-04-26T15:14:37.035Z</time></trkpt><trkpt lat="43.3546173" lon="12.5518498"><ele>459.0</ele><time>2026-04-26T15:14:38.042Z</time></trkpt><trkpt lat="43.3544801" lon="12.5521034"><ele>459.5</ele><time>2026-04-26T15:14:39.037Z</time></trkpt><trkpt lat="43.3543444" lon="12.5523622"><ele>460.0</ele><time>2026-04-26T15:14:40.036Z</time></trkpt><trkpt lat="43.3542021" lon="12.5526192"><ele>459.5</ele><time>2026-04-26T15:14:41.038Z</time></trkpt><trkpt lat="43.3540589" lon="12.5528731"><ele>459.0</ele><time>2026-04-26T15:14:42.023Z</time></trkpt><trkpt lat="43.3539115" lon="12.5531387"><ele>458.5</ele><time>2026-04-26T15:14:43.035Z</time></trkpt><trkpt lat="43.3537598" lon="12.5534137"><ele>458.0</ele><time>2026-04-26T15:14:44.044Z</time></trkpt><trkpt lat="43.3536056" lon="12.5536918"><ele>458.0</ele><time>2026-04-26T15:14:45.028Z</time></trkpt><trkpt lat="43.3534518" lon="12.5539747"><ele>458.0</ele><time>2026-04-26T15:14:46.025Z</time></trkpt><trkpt lat="43.3532999" lon="12.5542499"><ele>458.0</ele><time>2026-04-26T15:14:47.059Z</time></trkpt><trkpt lat="43.3531538" lon="12.5545188"><ele>458.0</ele><time>2026-04-26T15:14:48.027Z</time></trkpt><trkpt lat="43.3530149" lon="12.554772"><ele>458.3333333333333</ele><time>2026-04-26T15:14:49.069Z</time></trkpt><trkpt lat="43.3528864" lon="12.5550135"><ele>458.66666666666663</ele><time>2026-04-26T15:14:50.032Z</time></trkpt><trkpt lat="43.3527653" lon="12.5552443"><ele>459.0</ele><time>2026-04-26T15:14:51.022Z</time></trkpt><trkpt lat="43.3526391" lon="12.555472"><ele>459.33333333333337</ele><time>2026-04-26T15:14:52.032Z</time></trkpt><trkpt lat="43.3525086" lon="12.5557014"><ele>459.6666666666667</ele><time>2026-04-26T15:14:53.037Z</time></trkpt><trkpt lat="43.3523834" lon="12.5559252"><ele>460.0</ele><time>2026-04-26T15:14:54.039Z</time></trkpt><trkpt lat="43.3522558" lon="12.5561535"><ele>458.6666666666667</ele><time>2026-04-26T15:14:55.032Z</time></trkpt><trkpt lat="43.3521352" lon="12.5563775"><ele>457.33333333333337</ele><time>2026-04-26T15:14:56.024Z</time></trkpt><trkpt lat="43.3520105" lon="12.5566033"><ele>456.0</ele><time>2026-04-26T15:14:57.033Z</time></trkpt><trkpt lat="43.3518843" lon="12.5568263"><ele>456.66666666666663</ele><time>2026-04-26T15:14:58.028Z</time></trkpt><trkpt lat="43.351757" lon="12.5570467"><ele>457.3333333333333</ele><time>2026-04-26T15:14:59.025Z</time></trkpt><trkpt lat="43.351625" lon="12.5572599"><ele>458.0</ele><time>2026-04-26T15:15:00.046Z</time></trkpt><trkpt lat="43.351494" lon="12.5574779"><ele>458.66666666666663</ele><time>2026-04-26T15:15:01.035Z</time></trkpt><trkpt lat="43.3513589" lon="12.5576953"><ele>459.33333333333337</ele><time>2026-04-26T15:15:02.037Z</time></trkpt><trkpt lat="43.3512216" lon="12.5579142"><ele>460.0</ele><time>2026-04-26T15:15:03.031Z</time></trkpt><trkpt lat="43.3510755" lon="12.5581372"><ele>460.0</ele><time>2026-04-26T15:15:04.037Z</time></trkpt><trkpt lat="43.3509286" lon="12.5583508"><ele>460.0</ele><time>2026-04-26T15:15:05.042Z</time></trkpt><trkpt lat="43.3507921" lon="12.5585514"><ele>460.0</ele><time>2026-04-26T15:15:06.034Z</time></trkpt><trkpt lat="43.3506574" lon="12.5587427"><ele>461.0</ele><time>2026-04-26T15:15:07.025Z</time></trkpt><trkpt lat="43.3505237" lon="12.55892"><ele>462.0</ele><time>2026-04-26T15:15:08.03Z</time></trkpt><trkpt lat="43.3503945" lon="12.5590957"><ele>463.0</ele><time>2026-04-26T15:15:09.025Z</time></trkpt><trkpt lat="43.3502692" lon="12.5592659"><ele>463.0</ele><time>2026-04-26T15:15:10.026Z</time></trkpt><trkpt lat="43.3501407" lon="12.5594334"><ele>463.0</ele><time>2026-04-26T15:15:11.047Z</time></trkpt><trkpt lat="43.3500107" lon="12.5596005"><ele>463.0</ele><time>2026-04-26T15:15:12.03Z</time></trkpt><trkpt lat="43.3498765" lon="12.5597703"><ele>462.33333333333337</ele><time>2026-04-26T15:15:13.028Z</time></trkpt><trkpt lat="43.3497383" lon="12.5599309"><ele>461.66666666666663</ele><time>2026-04-26T15:15:14.039Z</time></trkpt><trkpt lat="43.3496007" lon="12.5600931"><ele>461.0</ele><time>2026-04-26T15:15:15.045Z</time></trkpt><trkpt lat="43.3494594" lon="12.5602594"><ele>461.3333333333333</ele><time>2026-04-26T15:15:16.029Z</time></trkpt><trkpt lat="43.3493187" lon="12.5604181"><ele>461.66666666666663</ele><time>2026-04-26T15:15:17.045Z</time></trkpt><trkpt lat="43.3491832" lon="12.5605741"><ele>462.0</ele><time>2026-04-26T15:15:18.031Z</time></trkpt><trkpt lat="43.3490491" lon="12.5607239"><ele>462.0</ele><time>2026-04-26T15:15:19.029Z</time></trkpt><trkpt lat="43.3489167" lon="12.5608716"><ele>462.0</ele><time>2026-04-26T15:15:20.036Z</time></trkpt><trkpt lat="43.3487844" lon="12.5610155"><ele>462.0</ele><time>2026-04-26T15:15:21.039Z</time></trkpt><trkpt lat="43.3486514" lon="12.5611589"><ele>463.33333333333337</ele><time>2026-04-26T15:15:22.033Z</time></trkpt><trkpt lat="43.3485224" lon="12.5612979"><ele>464.6666666666667</ele><time>2026-04-26T15:15:23.032Z</time></trkpt><trkpt lat="43.3483987" lon="12.5614337"><ele>466.0</ele><time>2026-04-26T15:15:24.023Z</time></trkpt><trkpt lat="43.3482743" lon="12.5615665"><ele>466.0</ele><time>2026-04-26T15:15:25.04Z</time></trkpt><trkpt lat="43.3481508" lon="12.5617026"><ele>466.0</ele><time>2026-04-26T15:15:26.036Z</time></trkpt><trkpt lat="43.348026" lon="12.561838"><ele>466.0</ele><time>2026-04-26T15:15:27.042Z</time></trkpt><trkpt lat="43.3478997" lon="12.5619704"><ele>465.75</ele><time>2026-04-26T15:15:28.035Z</time></trkpt><trkpt lat="43.3477783" lon="12.5620979"><ele>465.5</ele><time>2026-04-26T15:15:29.028Z</time></trkpt><trkpt lat="43.3476633" lon="12.5622189"><ele>465.25</ele><time>2026-04-26T15:15:30.05Z</time></trkpt><trkpt lat="43.3475552" lon="12.562338"><ele>465.0</ele><time>2026-04-26T15:15:31.034Z</time></trkpt><trkpt lat="43.3474492" lon="12.5624473"><ele>465.0</ele><time>2026-04-26T15:15:32.032Z</time></trkpt><trkpt lat="43.3473421" lon="12.5625566"><ele>465.0</ele><time>2026-04-26T15:15:33.041Z</time></trkpt><trkpt lat="43.347234" lon="12.5626704"><ele>465.0</ele><time>2026-04-26T15:15:34.032Z</time></trkpt><trkpt lat="43.3471194" lon="12.5627904"><ele>465.0</ele><time>2026-04-26T15:15:35.03Z</time></trkpt><trkpt lat="43.3470009" lon="12.5629123"><ele>465.0</ele><time>2026-04-26T15:15:36.025Z</time></trkpt><trkpt lat="43.3468804" lon="12.5630364"><ele>465.0</ele><time>2026-04-26T15:15:37.041Z</time></trkpt><trkpt lat="43.3467539" lon="12.5631692"><ele>465.0</ele><time>2026-04-26T15:15:38.026Z</time></trkpt><trkpt lat="43.3466263" lon="12.5633104"><ele>465.0</ele><time>2026-04-26T15:15:39.035Z</time></trkpt><trkpt lat="43.3465006" lon="12.5634492"><ele>465.0</ele><time>2026-04-26T15:15:40.025Z</time></trkpt><trkpt lat="43.3463755" lon="12.563585"><ele>465.0</ele><time>2026-04-26T15:15:41.041Z</time></trkpt><trkpt lat="43.3462536" lon="12.5637166"><ele>464.75</ele><time>2026-04-26T15:15:42.032Z</time></trkpt><trkpt lat="43.3461378" lon="12.5638415"><ele>464.5</ele><time>2026-04-26T15:15:43.043Z</time></trkpt><trkpt lat="43.3460275" lon="12.5639543"><ele>464.25</ele><time>2026-04-26T15:15:44.036Z</time></trkpt><trkpt lat="43.3459191" lon="12.5640705"><ele>464.0</ele><time>2026-04-26T15:15:45.044Z</time></trkpt><trkpt lat="43.3458058" lon="12.564192"><ele>464.0</ele><time>2026-04-26T15:15:46.033Z</time></trkpt><trkpt lat="43.3456887" lon="12.5643146"><ele>464.0</ele><time>2026-04-26T15:15:47.055Z</time></trkpt><trkpt lat="43.3455698" lon="12.5644451"><ele>464.0</ele><time>2026-04-26T15:15:48.032Z</time></trkpt><trkpt lat="43.3454463" lon="12.564579"><ele>464.0</ele><time>2026-04-26T15:15:49.04Z</time></trkpt><trkpt lat="43.3453193" lon="12.5647188"><ele>464.0</ele><time>2026-04-26T15:15:50.023Z</time></trkpt><trkpt lat="43.3451863" lon="12.564862"><ele>464.0</ele><time>2026-04-26T15:15:51.034Z</time></trkpt><trkpt lat="43.345051" lon="12.5650079"><ele>464.0</ele><time>2026-04-26T15:15:52.032Z</time></trkpt><trkpt lat="43.3449146" lon="12.5651543"><ele>464.0</ele><time>2026-04-26T15:15:53.036Z</time></trkpt><trkpt lat="43.3447765" lon="12.5652979"><ele>464.0</ele><time>2026-04-26T15:15:54.03Z</time></trkpt><trkpt lat="43.3446421" lon="12.5654376"><ele>463.3333333333333</ele><time>2026-04-26T15:15:55.025Z</time></trkpt><trkpt lat="43.3445124" lon="12.565573"><ele>462.66666666666663</ele><time>2026-04-26T15:15:56.034Z</time></trkpt><trkpt lat="43.3443877" lon="12.565701"><ele>462.0</ele><time>2026-04-26T15:15:57.032Z</time></trkpt><trkpt lat="43.3442642" lon="12.565829"><ele>462.0</ele><time>2026-04-26T15:15:58.021Z</time></trkpt><trkpt lat="43.3441424" lon="12.5659528"><ele>462.0</ele><time>2026-04-26T15:15:59.023Z</time></trkpt><trkpt lat="43.3440225" lon="12.5660813"><ele>462.0</ele><time>2026-04-26T15:16:00.019Z</time></trkpt><trkpt lat="43.3439035" lon="12.5662092"><ele>461.66666666666663</ele><time>2026-04-26T15:16:01.023Z</time></trkpt><trkpt lat="43.3437867" lon="12.5663466"><ele>461.3333333333333</ele><time>2026-04-26T15:16:02.017Z</time></trkpt><trkpt lat="43.3436697" lon="12.5664857"><ele>461.0</ele><time>2026-04-26T15:16:03.031Z</time></trkpt><trkpt lat="43.3435528" lon="12.5666291"><ele>461.0</ele><time>2026-04-26T15:16:04.022Z</time></trkpt><trkpt lat="43.3434401" lon="12.5667671"><ele>461.0</ele><time>2026-04-26T15:16:05.02Z</time></trkpt><trkpt lat="43.3433299" lon="12.5669084"><ele>461.0</ele><time>2026-04-26T15:16:06.016Z</time></trkpt><trkpt lat="43.3432204" lon="12.5670475"><ele>461.0</ele><time>2026-04-26T15:16:07.019Z</time></trkpt><trkpt lat="43.3431159" lon="12.5671872"><ele>461.0</ele><time>2026-04-26T15:16:08.023Z</time></trkpt><trkpt lat="43.3430098" lon="12.5673323"><ele>461.0</ele><time>2026-04-26T15:16:09.026Z</time></trkpt><trkpt lat="43.3429042" lon="12.5674784"><ele>461.0</ele><time>2026-04-26T15:16:10.023Z</time></trkpt><trkpt lat="43.342798" lon="12.5676237"><ele>461.0</ele><time>2026-04-26T15:16:11.039Z</time></trkpt><trkpt lat="43.3426937" lon="12.5677792"><ele>461.0</ele><time>2026-04-26T15:16:12.039Z</time></trkpt><trkpt lat="43.3425851" lon="12.5679391"><ele>461.0</ele><time>2026-04-26T15:16:13.028Z</time></trkpt><trkpt lat="43.3424748" lon="12.5681099"><ele>460.66666666666663</ele><time>2026-04-26T15:16:14.017Z</time></trkpt><trkpt lat="43.3423662" lon="12.5682795"><ele>460.33333333333337</ele><time>2026-04-26T15:16:15.033Z</time></trkpt><trkpt lat="43.3422539" lon="12.56846"><ele>460.0</ele><time>2026-04-26T15:16:16.038Z</time></trkpt><trkpt lat="43.3421433" lon="12.5686417"><ele>459.6666666666667</ele><time>2026-04-26T15:16:17.041Z</time></trkpt><trkpt lat="43.3420336" lon="12.5688259"><ele>459.33333333333337</ele><time>2026-04-26T15:16:18.015Z</time></trkpt><trkpt lat="43.3419218" lon="12.5690102"><ele>459.0</ele><time>2026-04-26T15:16:19.03Z</time></trkpt><trkpt lat="43.3418127" lon="12.5692045"><ele>459.0</ele><time>2026-04-26T15:16:20.022Z</time></trkpt><trkpt lat="43.3417076" lon="12.5693987"><ele>459.0</ele><time>2026-04-26T15:16:21.033Z</time></trkpt><trkpt lat="43.3416024" lon="12.5696002"><ele>459.0</ele><time>2026-04-26T15:16:22.022Z</time></trkpt><trkpt lat="43.3415015" lon="12.5698049"><ele>458.0</ele><time>2026-04-26T15:16:23.036Z</time></trkpt><trkpt lat="43.3414074" lon="12.5699959"><ele>457.0</ele><time>2026-04-26T15:16:24.015Z</time></trkpt><trkpt lat="43.3413155" lon="12.5701759"><ele>456.0</ele><time>2026-04-26T15:16:25.04Z</time></trkpt><trkpt lat="43.3412321" lon="12.5703486"><ele>456.75</ele><time>2026-04-26T15:16:26.04Z</time></trkpt><trkpt lat="43.3411512" lon="12.5705226"><ele>457.5</ele><time>2026-04-26T15:16:27.043Z</time></trkpt><trkpt lat="43.3410753" lon="12.5706958"><ele>458.25</ele><time>2026-04-26T15:16:28.036Z</time></trkpt><trkpt lat="43.3410002" lon="12.570875"><ele>459.0</ele><time>2026-04-26T15:16:29.058Z</time></trkpt><trkpt lat="43.34092" lon="12.5710645"><ele>459.33333333333337</ele><time>2026-04-26T15:16:30.052Z</time></trkpt><trkpt lat="43.3408416" lon="12.571256"><ele>459.6666666666667</ele><time>2026-04-26T15:16:31.04Z</time></trkpt><trkpt lat="43.340761" lon="12.5714532"><ele>460.0</ele><time>2026-04-26T15:16:32.04Z</time></trkpt><trkpt lat="43.3406852" lon="12.5716473"><ele>460.0</ele><time>2026-04-26T15:16:33.046Z</time></trkpt><trkpt lat="43.340609" lon="12.5718464"><ele>460.0</ele><time>2026-04-26T15:16:34.023Z</time></trkpt><trkpt lat="43.3405337" lon="12.5720476"><ele>460.0</ele><time>2026-04-26T15:16:35.027Z</time></trkpt><trkpt lat="43.3404603" lon="12.5722561"><ele>460.0</ele><time>2026-04-26T15:16:36.05Z</time></trkpt><trkpt lat="43.3403885" lon="12.5724592"><ele>460.0</ele><time>2026-04-26T15:16:37.03Z</time></trkpt><trkpt lat="43.3403204" lon="12.5726606"><ele>460.0</ele><time>2026-04-26T15:16:38.018Z</time></trkpt><trkpt lat="43.3402534" lon="12.5728613"><ele>459.6666666666667</ele><time>2026-04-26T15:16:39.033Z</time></trkpt><trkpt lat="43.3401871" lon="12.5730679"><ele>459.33333333333337</ele><time>2026-04-26T15:16:40.029Z</time></trkpt><trkpt lat="43.3401202" lon="12.5732774"><ele>459.0</ele><time>2026-04-26T15:16:41.031Z</time></trkpt><trkpt lat="43.3400528" lon="12.5734878"><ele>459.33333333333337</ele><time>2026-04-26T15:16:42.036Z</time></trkpt><trkpt lat="43.3399891" lon="12.5737038"><ele>459.6666666666667</ele><time>2026-04-26T15:16:43.044Z</time></trkpt><trkpt lat="43.3399297" lon="12.573926"><ele>460.0</ele><time>2026-04-26T15:16:44.037Z</time></trkpt><trkpt lat="43.3398681" lon="12.5741513"><ele>460.0</ele><time>2026-04-26T15:16:45.023Z</time></trkpt><trkpt lat="43.3398092" lon="12.5743744"><ele>460.0</ele><time>2026-04-26T15:16:46.029Z</time></trkpt><trkpt lat="43.3397513" lon="12.5746036"><ele>460.0</ele><time>2026-04-26T15:16:47.032Z</time></trkpt><trkpt lat="43.3396929" lon="12.5748383"><ele>459.33333333333337</ele><time>2026-04-26T15:16:48.039Z</time></trkpt><trkpt lat="43.339636" lon="12.5750804"><ele>458.66666666666663</ele><time>2026-04-26T15:16:49.045Z</time></trkpt><trkpt lat="43.3395835" lon="12.5753103"><ele>458.0</ele><time>2026-04-26T15:16:50.037Z</time></trkpt><trkpt lat="43.339537" lon="12.5755352"><ele>457.66666666666663</ele><time>2026-04-26T15:16:51.045Z</time></trkpt><trkpt lat="43.339494" lon="12.5757474"><ele>457.33333333333337</ele><time>2026-04-26T15:16:52.048Z</time></trkpt><trkpt lat="43.3394481" lon="12.5759606"><ele>457.0</ele><time>2026-04-26T15:16:53.038Z</time></trkpt><trkpt lat="43.3394011" lon="12.5761866"><ele>457.0</ele><time>2026-04-26T15:16:54.034Z</time></trkpt><trkpt lat="43.339358" lon="12.5764243"><ele>457.0</ele><time>2026-04-26T15:16:55.042Z</time></trkpt><trkpt lat="43.3393149" lon="12.5766653"><ele>457.0</ele><time>2026-04-26T15:16:56.039Z</time></trkpt><trkpt lat="43.3392777" lon="12.576903"><ele>458.0</ele><time>2026-04-26T15:16:57.038Z</time></trkpt><trkpt lat="43.3392433" lon="12.577136"><ele>459.0</ele><time>2026-04-26T15:16:58.052Z</time></trkpt><trkpt lat="43.3392103" lon="12.5773711"><ele>460.0</ele><time>2026-04-26T15:16:59.043Z</time></trkpt><trkpt lat="43.3391789" lon="12.5775951"><ele>460.0</ele><time>2026-04-26T15:17:00.036Z</time></trkpt><trkpt lat="43.3391559" lon="12.5778138"><ele>460.0</ele><time>2026-04-26T15:17:01.042Z</time></trkpt><trkpt lat="43.3391323" lon="12.5780337"><ele>460.0</ele><time>2026-04-26T15:17:02.035Z</time></trkpt><trkpt lat="43.3391125" lon="12.5782523"><ele>460.0</ele><time>2026-04-26T15:17:03.03Z</time></trkpt><trkpt lat="43.3390908" lon="12.5784735"><ele>460.0</ele><time>2026-04-26T15:17:04.023Z</time></trkpt><trkpt lat="43.3390676" lon="12.578696"><ele>460.0</ele><time>2026-04-26T15:17:05.036Z</time></trkpt><trkpt lat="43.339045" lon="12.5789235"><ele>459.33333333333337</ele><time>2026-04-26T15:17:06.041Z</time></trkpt><trkpt lat="43.3390183" lon="12.5791532"><ele>458.66666666666663</ele><time>2026-04-26T15:17:07.042Z</time></trkpt><trkpt lat="43.338995" lon="12.5793876"><ele>458.0</ele><time>2026-04-26T15:17:08.039Z</time></trkpt><trkpt lat="43.3389709" lon="12.5796232"><ele>458.0</ele><time>2026-04-26T15:17:09.043Z</time></trkpt><trkpt lat="43.3389479" lon="12.579861"><ele>458.0</ele><time>2026-04-26T15:17:10.036Z</time></trkpt><trkpt lat="43.3389246" lon="12.5801012"><ele>458.0</ele><time>2026-04-26T15:17:11.043Z</time></trkpt><trkpt lat="43.3389007" lon="12.5803468"><ele>457.3333333333333</ele><time>2026-04-26T15:17:12.042Z</time></trkpt><trkpt lat="43.3388761" lon="12.5805958"><ele>456.66666666666663</ele><time>2026-04-26T15:17:13.039Z</time></trkpt><trkpt lat="43.338854" lon="12.5808543"><ele>456.0</ele><time>2026-04-26T15:17:14.046Z</time></trkpt><trkpt lat="43.3388323" lon="12.5811114"><ele>456.33333333333337</ele><time>2026-04-26T15:17:15.031Z</time></trkpt><trkpt lat="43.3388085" lon="12.5813729"><ele>456.6666666666667</ele><time>2026-04-26T15:17:16.042Z</time></trkpt><trkpt lat="43.3387833" lon="12.5816398"><ele>457.0</ele><time>2026-04-26T15:17:17.034Z</time></trkpt><trkpt lat="43.3387585" lon="12.5819034"><ele>457.33333333333337</ele><time>2026-04-26T15:17:18.042Z</time></trkpt><trkpt lat="43.3387355" lon="12.5821664"><ele>457.66666666666663</ele><time>2026-04-26T15:17:19.04Z</time></trkpt><trkpt lat="43.3387116" lon="12.5824185"><ele>458.0</ele><time>2026-04-26T15:17:20.026Z</time></trkpt><trkpt lat="43.3386857" lon="12.5826649"><ele>458.66666666666663</ele><time>2026-04-26T15:17:21.028Z</time></trkpt><trkpt lat="43.3386606" lon="12.5829141"><ele>459.33333333333337</ele><time>2026-04-26T15:17:22.033Z</time></trkpt><trkpt lat="43.3386344" lon="12.5831584"><ele>460.0</ele><time>2026-04-26T15:17:23.047Z</time></trkpt><trkpt lat="43.3386074" lon="12.5834"><ele>460.0</ele><time>2026-04-26T15:17:24.047Z</time></trkpt><trkpt lat="43.3385811" lon="12.5836326"><ele>460.0</ele><time>2026-04-26T15:17:25.054Z</time></trkpt><trkpt lat="43.3385567" lon="12.5838611"><ele>460.0</ele><time>2026-04-26T15:17:26.026Z</time></trkpt><trkpt lat="43.3385339" lon="12.5840789"><ele>462.0</ele><time>2026-04-26T15:17:27.038Z</time></trkpt><trkpt lat="43.3385089" lon="12.5842854"><ele>464.0</ele><time>2026-04-26T15:17:28.024Z</time></trkpt><trkpt lat="43.3384805" lon="12.5844924"><ele>466.0</ele><time>2026-04-26T15:17:29.025Z</time></trkpt><trkpt lat="43.3384402" lon="12.5847058"><ele>466.6666666666667</ele><time>2026-04-26T15:17:30.043Z</time></trkpt><trkpt lat="43.3383922" lon="12.5849208"><ele>467.33333333333337</ele><time>2026-04-26T15:17:31.042Z</time></trkpt><trkpt lat="43.3383434" lon="12.585137"><ele>468.0</ele><time>2026-04-26T15:17:32.045Z</time></trkpt><trkpt lat="43.3382918" lon="12.5853577"><ele>468.0</ele><time>2026-04-26T15:17:33.056Z</time></trkpt><trkpt lat="43.3382273" lon="12.58557"><ele>468.0</ele><time>2026-04-26T15:17:34.041Z</time></trkpt><trkpt lat="43.3381559" lon="12.5857843"><ele>468.0</ele><time>2026-04-26T15:17:35.03Z</time></trkpt><trkpt lat="43.3380778" lon="12.5859953"><ele>467.0</ele><time>2026-04-26T15:17:36.038Z</time></trkpt><trkpt lat="43.3379971" lon="12.5861933"><ele>466.0</ele><time>2026-04-26T15:17:37.031Z</time></trkpt><trkpt lat="43.3379121" lon="12.5863961"><ele>465.0</ele><time>2026-04-26T15:17:38.048Z</time></trkpt><trkpt lat="43.3378218" lon="12.5865915"><ele>465.0</ele><time>2026-04-26T15:17:39.037Z</time></trkpt><trkpt lat="43.3377242" lon="12.5867822"><ele>465.0</ele><time>2026-04-26T15:17:40.034Z</time></trkpt><trkpt lat="43.3376217" lon="12.5869662"><ele>465.0</ele><time>2026-04-26T15:17:41.058Z</time></trkpt><trkpt lat="43.3375156" lon="12.5871443"><ele>465.0</ele><time>2026-04-26T15:17:42.034Z</time></trkpt><trkpt lat="43.3374018" lon="12.5873213"><ele>465.0</ele><time>2026-04-26T15:17:43.044Z</time></trkpt><trkpt lat="43.3372813" lon="12.5874925"><ele>465.0</ele><time>2026-04-26T15:17:44.031Z</time></trkpt><trkpt lat="43.3371531" lon="12.5876656"><ele>465.0</ele><time>2026-04-26T15:17:45.035Z</time></trkpt><trkpt lat="43.3370159" lon="12.5878387"><ele>465.0</ele><time>2026-04-26T15:17:46.033Z</time></trkpt><trkpt lat="43.3368692" lon="12.5880026"><ele>465.0</ele><time>2026-04-26T15:17:47.039Z</time></trkpt><trkpt lat="43.3367159" lon="12.5881656"><ele>465.0</ele><time>2026-04-26T15:17:48.046Z</time></trkpt><trkpt lat="43.3365628" lon="12.5883402"><ele>465.0</ele><time>2026-04-26T15:17:49.032Z</time></trkpt><trkpt lat="43.3364112" lon="12.5885178"><ele>465.0</ele><time>2026-04-26T15:17:50.035Z</time></trkpt><trkpt lat="43.3362493" lon="12.5886992"><ele>464.66666666666663</ele><time>2026-04-26T15:17:51.042Z</time></trkpt><trkpt lat="43.3360876" lon="12.5888765"><ele>464.3333333333333</ele><time>2026-04-26T15:17:52.017Z</time></trkpt><trkpt lat="43.3359292" lon="12.5890483"><ele>464.0</ele><time>2026-04-26T15:17:53.043Z</time></trkpt><trkpt lat="43.3357752" lon="12.5892198"><ele>464.0</ele><time>2026-04-26T15:17:54.052Z</time></trkpt><trkpt lat="43.335623" lon="12.589386"><ele>464.0</ele><time>2026-04-26T15:17:55.056Z</time></trkpt><trkpt lat="43.3354721" lon="12.5895573"><ele>464.0</ele><time>2026-04-26T15:17:56.036Z</time></trkpt><trkpt lat="43.3353239" lon="12.5897188"><ele>463.0</ele><time>2026-04-26T15:17:57.046Z</time></trkpt><trkpt lat="43.3351819" lon="12.5898797"><ele>462.0</ele><time>2026-04-26T15:17:58.032Z</time></trkpt><trkpt lat="43.3350369" lon="12.5900429"><ele>461.0</ele><time>2026-04-26T15:17:59.03Z</time></trkpt><trkpt lat="43.3348913" lon="12.5902046"><ele>461.0</ele><time>2026-04-26T15:18:00.056Z</time></trkpt><trkpt lat="43.3347471" lon="12.5903697"><ele>461.0</ele><time>2026-04-26T15:18:01.046Z</time></trkpt><trkpt lat="43.3345997" lon="12.5905363"><ele>461.0</ele><time>2026-04-26T15:18:02.024Z</time></trkpt><trkpt lat="43.3344548" lon="12.5907008"><ele>461.0</ele><time>2026-04-26T15:18:03.04Z</time></trkpt><trkpt lat="43.3343086" lon="12.5908669"><ele>461.0</ele><time>2026-04-26T15:18:04.047Z</time></trkpt><trkpt lat="43.334161" lon="12.5910347"><ele>461.0</ele><time>2026-04-26T15:18:05.04Z</time></trkpt><trkpt lat="43.3340145" lon="12.5912013"><ele>461.0</ele><time>2026-04-26T15:18:06.035Z</time></trkpt><trkpt lat="43.3338666" lon="12.5913657"><ele>461.0</ele><time>2026-04-26T15:18:07.046Z</time></trkpt><trkpt lat="43.333714" lon="12.5915365"><ele>461.0</ele><time>2026-04-26T15:18:08.038Z</time></trkpt><trkpt lat="43.3335589" lon="12.5917112"><ele>461.0</ele><time>2026-04-26T15:18:09.048Z</time></trkpt><trkpt lat="43.3334077" lon="12.5918813"><ele>461.0</ele><time>2026-04-26T15:18:10.027Z</time></trkpt><trkpt lat="43.3332642" lon="12.5920512"><ele>461.0</ele><time>2026-04-26T15:18:11.025Z</time></trkpt><trkpt lat="43.333118" lon="12.5922146"><ele>460.0</ele><time>2026-04-26T15:18:12.039Z</time></trkpt><trkpt lat="43.3329716" lon="12.5923793"><ele>459.0</ele><time>2026-04-26T15:18:13.043Z</time></trkpt><trkpt lat="43.3328197" lon="12.5925454"><ele>458.0</ele><time>2026-04-26T15:18:14.03Z</time></trkpt><trkpt lat="43.332672" lon="12.5927149"><ele>457.66666666666663</ele><time>2026-04-26T15:18:15.052Z</time></trkpt><trkpt lat="43.3325226" lon="12.5928836"><ele>457.33333333333337</ele><time>2026-04-26T15:18:16.042Z</time></trkpt><trkpt lat="43.3323757" lon="12.5930497"><ele>457.0</ele><time>2026-04-26T15:18:17.046Z</time></trkpt><trkpt lat="43.3322345" lon="12.5932148"><ele>455.6666666666667</ele><time>2026-04-26T15:18:18.035Z</time></trkpt><trkpt lat="43.3320956" lon="12.593367"><ele>454.33333333333337</ele><time>2026-04-26T15:18:19.038Z</time></trkpt><trkpt lat="43.3319639" lon="12.5935167"><ele>453.0</ele><time>2026-04-26T15:18:20.028Z</time></trkpt><trkpt lat="43.3318355" lon="12.5936543"><ele>453.0</ele><time>2026-04-26T15:18:21.033Z</time></trkpt><trkpt lat="43.3317073" lon="12.5937956"><ele>453.0</ele><time>2026-04-26T15:18:22.033Z</time></trkpt><trkpt lat="43.3315787" lon="12.5939394"><ele>453.0</ele><time>2026-04-26T15:18:23.057Z</time></trkpt><trkpt lat="43.3314464" lon="12.5940854"><ele>451.66666666666663</ele><time>2026-04-26T15:18:24.041Z</time></trkpt><trkpt lat="43.3313124" lon="12.5942357"><ele>450.3333333333333</ele><time>2026-04-26T15:18:25.047Z</time></trkpt><trkpt lat="43.3311755" lon="12.5943903"><ele>449.0</ele><time>2026-04-26T15:18:26.049Z</time></trkpt><trkpt lat="43.3310337" lon="12.5945422"><ele>449.0</ele><time>2026-04-26T15:18:27.024Z</time></trkpt><trkpt lat="43.3308929" lon="12.5946964"><ele>449.0</ele><time>2026-04-26T15:18:28.025Z</time></trkpt><trkpt lat="43.3307527" lon="12.5948509"><ele>449.0</ele><time>2026-04-26T15:18:29.026Z</time></trkpt><trkpt lat="43.3306092" lon="12.5950122"><ele>448.66666666666663</ele><time>2026-04-26T15:18:30.042Z</time></trkpt><trkpt lat="43.3304619" lon="12.59518"><ele>448.33333333333337</ele><time>2026-04-26T15:18:31.043Z</time></trkpt><trkpt lat="43.3303103" lon="12.5953478"><ele>448.0</ele><time>2026-04-26T15:18:32.043Z</time></trkpt><trkpt lat="43.3301597" lon="12.5955146"><ele>448.0</ele><time>2026-04-26T15:18:33.04Z</time></trkpt><trkpt lat="43.3300072" lon="12.5956897"><ele>448.0</ele><time>2026-04-26T15:18:34.037Z</time></trkpt><trkpt lat="43.3298509" lon="12.5958662"><ele>448.0</ele><time>2026-04-26T15:18:35.029Z</time></trkpt><trkpt lat="43.3296917" lon="12.5960478"><ele>447.33333333333337</ele><time>2026-04-26T15:18:36.045Z</time></trkpt><trkpt lat="43.32953" lon="12.5962268"><ele>446.66666666666663</ele><time>2026-04-26T15:18:37.036Z</time></trkpt><trkpt lat="43.3293644" lon="12.5964065"><ele>446.0</ele><time>2026-04-26T15:18:38.045Z</time></trkpt><trkpt lat="43.3291959" lon="12.5965993"><ele>446.0</ele><time>2026-04-26T15:18:39.042Z</time></trkpt><trkpt lat="43.3290229" lon="12.5967975"><ele>446.0</ele><time>2026-04-26T15:18:40.027Z</time></trkpt><trkpt lat="43.3288494" lon="12.5969938"><ele>444.5</ele><time>2026-04-26T15:18:41.04Z</time></trkpt><trkpt lat="43.3286741" lon="12.5971968"><ele>443.0</ele><time>2026-04-26T15:18:42.036Z</time></trkpt><trkpt lat="43.3284965" lon="12.5974034"><ele>443.0</ele><time>2026-04-26T15:18:43.043Z</time></trkpt><trkpt lat="43.3283223" lon="12.5976121"><ele>443.0</ele><time>2026-04-26T15:18:44.033Z</time></trkpt><trkpt lat="43.3281507" lon="12.5978229"><ele>443.0</ele><time>2026-04-26T15:18:45.048Z</time></trkpt><trkpt lat="43.3279855" lon="12.5980367"><ele>443.0</ele><time>2026-04-26T15:18:46.04Z</time></trkpt><trkpt lat="43.3278213" lon="12.5982471"><ele>443.0</ele><time>2026-04-26T15:18:47.047Z</time></trkpt><trkpt lat="43.3276618" lon="12.5984592"><ele>443.0</ele><time>2026-04-26T15:18:48.037Z</time></trkpt><trkpt lat="43.3275079" lon="12.5986656"><ele>443.0</ele><time>2026-04-26T15:18:49.039Z</time></trkpt><trkpt lat="43.327359" lon="12.5988701"><ele>442.0</ele><time>2026-04-26T15:18:50.05Z</time></trkpt><trkpt lat="43.3272116" lon="12.5990841"><ele>441.0</ele><time>2026-04-26T15:18:51.036Z</time></trkpt><trkpt lat="43.3270656" lon="12.5992937"><ele>440.0</ele><time>2026-04-26T15:18:52.042Z</time></trkpt><trkpt lat="43.3269204" lon="12.5995059"><ele>440.0</ele><time>2026-04-26T15:18:53.043Z</time></trkpt><trkpt lat="43.3267758" lon="12.5997254"><ele>440.0</ele><time>2026-04-26T15:18:54.026Z</time></trkpt><trkpt lat="43.3266327" lon="12.5999462"><ele>440.0</ele><time>2026-04-26T15:18:55.047Z</time></trkpt><trkpt lat="43.32649" lon="12.6001653"><ele>439.66666666666663</ele><time>2026-04-26T15:18:56.024Z</time></trkpt><trkpt lat="43.3263494" lon="12.6003838"><ele>439.33333333333337</ele><time>2026-04-26T15:18:57.037Z</time></trkpt><trkpt lat="43.3262124" lon="12.6005915"><ele>439.0</ele><time>2026-04-26T15:18:58.03Z</time></trkpt><trkpt lat="43.3260791" lon="12.6007975"><ele>439.0</ele><time>2026-04-26T15:18:59.043Z</time></trkpt><trkpt lat="43.3259458" lon="12.6009986"><ele>439.0</ele><time>2026-04-26T15:19:00.018Z</time></trkpt><trkpt lat="43.3258116" lon="12.6012039"><ele>439.0</ele><time>2026-04-26T15:19:01.038Z</time></trkpt><trkpt lat="43.3256776" lon="12.6014075"><ele>438.0</ele><time>2026-04-26T15:19:02.03Z</time></trkpt><trkpt lat="43.3255452" lon="12.6016049"><ele>437.0</ele><time>2026-04-26T15:19:03.042Z</time></trkpt><trkpt lat="43.3254123" lon="12.6017996"><ele>436.0</ele><time>2026-04-26T15:19:04.032Z</time></trkpt><trkpt lat="43.3252796" lon="12.6019978"><ele>435.6666666666667</ele><time>2026-04-26T15:19:05.047Z</time></trkpt><trkpt lat="43.3251486" lon="12.6021905"><ele>435.33333333333337</ele><time>2026-04-26T15:19:06.034Z</time></trkpt><trkpt lat="43.3250208" lon="12.6023893"><ele>435.0</ele><time>2026-04-26T15:19:07.047Z</time></trkpt><trkpt lat="43.3248923" lon="12.602584"><ele>435.0</ele><time>2026-04-26T15:19:08.033Z</time></trkpt><trkpt lat="43.3247652" lon="12.6027828"><ele>435.0</ele><time>2026-04-26T15:19:09.041Z</time></trkpt><trkpt lat="43.3246368" lon="12.6029841"><ele>435.0</ele><time>2026-04-26T15:19:10.037Z</time></trkpt><trkpt lat="43.3245058" lon="12.6031832"><ele>434.0</ele><time>2026-04-26T15:19:11.025Z</time></trkpt><trkpt lat="43.3243761" lon="12.6033806"><ele>433.0</ele><time>2026-04-26T15:19:12.024Z</time></trkpt><trkpt lat="43.3242435" lon="12.6035847"><ele>432.0</ele><time>2026-04-26T15:19:13.05Z</time></trkpt><trkpt lat="43.3241078" lon="12.6037924"><ele>432.0</ele><time>2026-04-26T15:19:14.012Z</time></trkpt><trkpt lat="43.3239692" lon="12.6040038"><ele>432.0</ele><time>2026-04-26T15:19:15.023Z</time></trkpt><trkpt lat="43.3238268" lon="12.6042152"><ele>432.0</ele><time>2026-04-26T15:19:16.042Z</time></trkpt><trkpt lat="43.3236836" lon="12.6044324"><ele>431.0</ele><time>2026-04-26T15:19:17.05Z</time></trkpt><trkpt lat="43.3235433" lon="12.6046487"><ele>430.0</ele><time>2026-04-26T15:19:18.038Z</time></trkpt><trkpt lat="43.3234" lon="12.6048679"><ele>429.0</ele><time>2026-04-26T15:19:19.046Z</time></trkpt><trkpt lat="43.3232603" lon="12.6050781"><ele>429.0</ele><time>2026-04-26T15:19:20.044Z</time></trkpt><trkpt lat="43.3231219" lon="12.6052856"><ele>429.0</ele><time>2026-04-26T15:19:21.035Z</time></trkpt><trkpt lat="43.3229839" lon="12.6054884"><ele>429.0</ele><time>2026-04-26T15:19:22.032Z</time></trkpt><trkpt lat="43.3228458" lon="12.6056842"><ele>429.0</ele><time>2026-04-26T15:19:23.036Z</time></trkpt><trkpt lat="43.3227059" lon="12.6058831"><ele>429.0</ele><time>2026-04-26T15:19:24.035Z</time></trkpt><trkpt lat="43.3225615" lon="12.6060775"><ele>429.0</ele><time>2026-04-26T15:19:25.038Z</time></trkpt><trkpt lat="43.3224239" lon="12.60626"><ele>429.33333333333337</ele><time>2026-04-26T15:19:26.052Z</time></trkpt><trkpt lat="43.3222903" lon="12.6064393"><ele>429.6666666666667</ele><time>2026-04-26T15:19:27.033Z</time></trkpt><trkpt lat="43.3221549" lon="12.6066144"><ele>430.0</ele><time>2026-04-26T15:19:28.015Z</time></trkpt><trkpt lat="43.3220166" lon="12.6067879"><ele>428.6666666666667</ele><time>2026-04-26T15:19:29.026Z</time></trkpt><trkpt lat="43.3218779" lon="12.60696"><ele>427.33333333333337</ele><time>2026-04-26T15:19:30.03Z</time></trkpt><trkpt lat="43.321739" lon="12.6071247"><ele>426.0</ele><time>2026-04-26T15:19:31.046Z</time></trkpt><trkpt lat="43.3215994" lon="12.607291"><ele>426.0</ele><time>2026-04-26T15:19:32.048Z</time></trkpt><trkpt lat="43.32146" lon="12.6074549"><ele>426.0</ele><time>2026-04-26T15:19:33.033Z</time></trkpt><trkpt lat="43.3213215" lon="12.6076187"><ele>426.0</ele><time>2026-04-26T15:19:34.042Z</time></trkpt><trkpt lat="43.3211817" lon="12.6077826"><ele>424.33333333333337</ele><time>2026-04-26T15:19:35.033Z</time></trkpt><trkpt lat="43.3210425" lon="12.6079422"><ele>422.6666666666667</ele><time>2026-04-26T15:19:36.035Z</time></trkpt><trkpt lat="43.3208986" lon="12.6081026"><ele>421.0</ele><time>2026-04-26T15:19:37.043Z</time></trkpt><trkpt lat="43.3207598" lon="12.6082652"><ele>421.0</ele><time>2026-04-26T15:19:38.047Z</time></trkpt><trkpt lat="43.3206217" lon="12.6084253"><ele>421.0</ele><time>2026-04-26T15:19:39.048Z</time></trkpt><trkpt lat="43.3204813" lon="12.6085879"><ele>421.0</ele><time>2026-04-26T15:19:40.027Z</time></trkpt><trkpt lat="43.3203402" lon="12.608752"><ele>422.33333333333337</ele><time>2026-04-26T15:19:41.021Z</time></trkpt><trkpt lat="43.3201959" lon="12.6089067"><ele>423.66666666666663</ele><time>2026-04-26T15:19:42.028Z</time></trkpt><trkpt lat="43.3200532" lon="12.6090789"><ele>425.0</ele><time>2026-04-26T15:19:43.036Z</time></trkpt><trkpt lat="43.3199141" lon="12.6092466"><ele>425.0</ele><time>2026-04-26T15:19:44.03Z</time></trkpt><trkpt lat="43.319771" lon="12.6094153"><ele>425.0</ele><time>2026-04-26T15:19:45.046Z</time></trkpt><trkpt lat="43.319624" lon="12.6095848"><ele>425.0</ele><time>2026-04-26T15:19:46.028Z</time></trkpt><trkpt lat="43.3194768" lon="12.6097574"><ele>424.66666666666663</ele><time>2026-04-26T15:19:47.046Z</time></trkpt><trkpt lat="43.3193303" lon="12.6099278"><ele>424.33333333333337</ele><time>2026-04-26T15:19:48.038Z</time></trkpt><trkpt lat="43.3191827" lon="12.6101044"><ele>424.0</ele><time>2026-04-26T15:19:49.036Z</time></trkpt><trkpt lat="43.3190335" lon="12.6102821"><ele>422.6666666666667</ele><time>2026-04-26T15:19:50.031Z</time></trkpt><trkpt lat="43.3188849" lon="12.6104587"><ele>421.33333333333337</ele><time>2026-04-26T15:19:51.03Z</time></trkpt><trkpt lat="43.3187307" lon="12.6106168"><ele>420.0</ele><time>2026-04-26T15:19:52.025Z</time></trkpt><trkpt lat="43.31858" lon="12.6107843"><ele>420.0</ele><time>2026-04-26T15:19:53.03Z</time></trkpt><trkpt lat="43.3184252" lon="12.610964"><ele>420.0</ele><time>2026-04-26T15:19:54.031Z</time></trkpt><trkpt lat="43.3182734" lon="12.611134"><ele>420.0</ele><time>2026-04-26T15:19:55.037Z</time></trkpt><trkpt lat="43.3181209" lon="12.6113029"><ele>420.33333333333337</ele><time>2026-04-26T15:19:56.041Z</time></trkpt><trkpt lat="43.3179687" lon="12.6114882"><ele>420.6666666666667</ele><time>2026-04-26T15:19:57.041Z</time></trkpt><trkpt lat="43.3178181" lon="12.6116693"><ele>421.0</ele><time>2026-04-26T15:19:58.02Z</time></trkpt><trkpt lat="43.3176698" lon="12.6118473"><ele>422.0</ele><time>2026-04-26T15:19:59.022Z</time></trkpt><trkpt lat="43.3175297" lon="12.6120238"><ele>423.0</ele><time>2026-04-26T15:20:00.012Z</time></trkpt><trkpt lat="43.3173917" lon="12.6122019"><ele>424.0</ele><time>2026-04-26T15:20:01.027Z</time></trkpt><trkpt lat="43.3172552" lon="12.6123823"><ele>424.0</ele><time>2026-04-26T15:20:02.012Z</time></trkpt><trkpt lat="43.3171212" lon="12.6125657"><ele>424.0</ele><time>2026-04-26T15:20:03.018Z</time></trkpt><trkpt lat="43.3169889" lon="12.6127488"><ele>424.0</ele><time>2026-04-26T15:20:04.037Z</time></trkpt><trkpt lat="43.3168585" lon="12.6129332"><ele>424.0</ele><time>2026-04-26T15:20:05.032Z</time></trkpt><trkpt lat="43.3167322" lon="12.6131218"><ele>424.0</ele><time>2026-04-26T15:20:06.026Z</time></trkpt><trkpt lat="43.3166022" lon="12.6133094"><ele>424.0</ele><time>2026-04-26T15:20:07.054Z</time></trkpt><trkpt lat="43.3164764" lon="12.6134929"><ele>423.6666666666667</ele><time>2026-04-26T15:20:08.024Z</time></trkpt><trkpt lat="43.3163549" lon="12.6136802"><ele>423.33333333333337</ele><time>2026-04-26T15:20:09.047Z</time></trkpt><trkpt lat="43.3162353" lon="12.6138636"><ele>423.0</ele><time>2026-04-26T15:20:10.046Z</time></trkpt><trkpt lat="43.3161143" lon="12.6140455"><ele>423.0</ele><time>2026-04-26T15:20:11.043Z</time></trkpt><trkpt lat="43.315999" lon="12.6142283"><ele>423.0</ele><time>2026-04-26T15:20:12.024Z</time></trkpt><trkpt lat="43.3158802" lon="12.6144089"><ele>423.0</ele><time>2026-04-26T15:20:13.034Z</time></trkpt><trkpt lat="43.3157634" lon="12.6145883"><ele>423.0</ele><time>2026-04-26T15:20:14.021Z</time></trkpt><trkpt lat="43.3156443" lon="12.6147686"><ele>423.0</ele><time>2026-04-26T15:20:15.023Z</time></trkpt><trkpt lat="43.3155226" lon="12.6149527"><ele>423.0</ele><time>2026-04-26T15:20:16.027Z</time></trkpt><trkpt lat="43.3154019" lon="12.6151407"><ele>423.33333333333337</ele><time>2026-04-26T15:20:17.042Z</time></trkpt><trkpt lat="43.3152788" lon="12.6153289"><ele>423.6666666666667</ele><time>2026-04-26T15:20:18.03Z</time></trkpt><trkpt lat="43.3151532" lon="12.6155221"><ele>424.0</ele><time>2026-04-26T15:20:19.026Z</time></trkpt><trkpt lat="43.3150262" lon="12.6157201"><ele>424.0</ele><time>2026-04-26T15:20:20.044Z</time></trkpt><trkpt lat="43.3148927" lon="12.6159233"><ele>424.0</ele><time>2026-04-26T15:20:21.026Z</time></trkpt><trkpt lat="43.3147597" lon="12.6161314"><ele>424.0</ele><time>2026-04-26T15:20:22.036Z</time></trkpt><trkpt lat="43.3146227" lon="12.6163389"><ele>425.0</ele><time>2026-04-26T15:20:23.029Z</time></trkpt><trkpt lat="43.3144823" lon="12.6165489"><ele>426.0</ele><time>2026-04-26T15:20:24.035Z</time></trkpt><trkpt lat="43.3143412" lon="12.6167648"><ele>427.0</ele><time>2026-04-26T15:20:25.044Z</time></trkpt><trkpt lat="43.3142006" lon="12.6169784"><ele>427.33333333333337</ele><time>2026-04-26T15:20:26.039Z</time></trkpt><trkpt lat="43.3140597" lon="12.617199"><ele>427.66666666666663</ele><time>2026-04-26T15:20:27.034Z</time></trkpt><trkpt lat="43.3139204" lon="12.6174238"><ele>428.0</ele><time>2026-04-26T15:20:28.031Z</time></trkpt><trkpt lat="43.3137855" lon="12.6176488"><ele>427.3333333333333</ele><time>2026-04-26T15:20:29.027Z</time></trkpt><trkpt lat="43.3136521" lon="12.6178675"><ele>426.66666666666663</ele><time>2026-04-26T15:20:30.04Z</time></trkpt><trkpt lat="43.3135251" lon="12.6180833"><ele>426.0</ele><time>2026-04-26T15:20:31.049Z</time></trkpt><trkpt lat="43.3133977" lon="12.6182985"><ele>426.0</ele><time>2026-04-26T15:20:32.04Z</time></trkpt><trkpt lat="43.3132735" lon="12.6185134"><ele>426.0</ele><time>2026-04-26T15:20:33.049Z</time></trkpt><trkpt lat="43.3131529" lon="12.6187256"><ele>426.0</ele><time>2026-04-26T15:20:34.02Z</time></trkpt><trkpt lat="43.3130373" lon="12.6189326"><ele>425.66666666666663</ele><time>2026-04-26T15:20:35.029Z</time></trkpt><trkpt lat="43.3129228" lon="12.6191442"><ele>425.3333333333333</ele><time>2026-04-26T15:20:36.038Z</time></trkpt><trkpt lat="43.3128079" lon="12.6193666"><ele>425.0</ele><time>2026-04-26T15:20:37.043Z</time></trkpt><trkpt lat="43.3126963" lon="12.6195923"><ele>425.66666666666663</ele><time>2026-04-26T15:20:38.043Z</time></trkpt><trkpt lat="43.3125816" lon="12.6198123"><ele>426.33333333333337</ele><time>2026-04-26T15:20:39.037Z</time></trkpt><trkpt lat="43.3124729" lon="12.6200293"><ele>427.0</ele><time>2026-04-26T15:20:40.037Z</time></trkpt><trkpt lat="43.3123654" lon="12.6202568"><ele>427.0</ele><time>2026-04-26T15:20:41.034Z</time></trkpt><trkpt lat="43.3122604" lon="12.6204851"><ele>427.0</ele><time>2026-04-26T15:20:42.045Z</time></trkpt><trkpt lat="43.3121576" lon="12.6207121"><ele>427.0</ele><time>2026-04-26T15:20:43.03Z</time></trkpt><trkpt lat="43.3120534" lon="12.6209338"><ele>427.0</ele><time>2026-04-26T15:20:44.032Z</time></trkpt><trkpt lat="43.3119487" lon="12.6211633"><ele>427.0</ele><time>2026-04-26T15:20:45.033Z</time></trkpt><trkpt lat="43.3118419" lon="12.6213912"><ele>427.0</ele><time>2026-04-26T15:20:46.039Z</time></trkpt><trkpt lat="43.3117314" lon="12.6216218"><ele>427.0</ele><time>2026-04-26T15:20:47.032Z</time></trkpt><trkpt lat="43.3116181" lon="12.6218528"><ele>427.0</ele><time>2026-04-26T15:20:48.024Z</time></trkpt><trkpt lat="43.3115073" lon="12.6220819"><ele>427.0</ele><time>2026-04-26T15:20:49.041Z</time></trkpt><trkpt lat="43.3113989" lon="12.6223112"><ele>426.0</ele><time>2026-04-26T15:20:50.032Z</time></trkpt><trkpt lat="43.3112939" lon="12.6225508"><ele>425.0</ele><time>2026-04-26T15:20:51.027Z</time></trkpt><trkpt lat="43.3111895" lon="12.6228032"><ele>424.0</ele><time>2026-04-26T15:20:52.03Z</time></trkpt><trkpt lat="43.3110786" lon="12.623067"><ele>424.0</ele><time>2026-04-26T15:20:53.032Z</time></trkpt><trkpt lat="43.3109536" lon="12.6233473"><ele>424.0</ele><time>2026-04-26T15:20:54.029Z</time></trkpt><trkpt lat="43.3108206" lon="12.6236395"><ele>423.5</ele><time>2026-04-26T15:20:55.044Z</time></trkpt><trkpt lat="43.3106769" lon="12.6239454"><ele>423.0</ele><time>2026-04-26T15:20:56.029Z</time></trkpt><trkpt lat="43.3105302" lon="12.6242469"><ele>421.5</ele><time>2026-04-26T15:20:57.042Z</time></trkpt><trkpt lat="43.3103786" lon="12.6245474"><ele>420.0</ele><time>2026-04-26T15:20:58.039Z</time></trkpt><trkpt lat="43.3102295" lon="12.624857"><ele>420.0</ele><time>2026-04-26T15:20:59.038Z</time></trkpt><trkpt lat="43.3100814" lon="12.6251717"><ele>420.0</ele><time>2026-04-26T15:21:00.023Z</time></trkpt><trkpt lat="43.3099258" lon="12.6254984"><ele>420.5</ele><time>2026-04-26T15:21:01.023Z</time></trkpt><trkpt lat="43.309769" lon="12.6258306"><ele>421.0</ele><time>2026-04-26T15:21:02.058Z</time></trkpt><trkpt lat="43.3096099" lon="12.6261725"><ele>420.0</ele><time>2026-04-26T15:21:03.037Z</time></trkpt><trkpt lat="43.3094472" lon="12.6265183"><ele>419.0</ele><time>2026-04-26T15:21:04.039Z</time></trkpt><trkpt lat="43.3092808" lon="12.6268716"><ele>417.5</ele><time>2026-04-26T15:21:05.031Z</time></trkpt><trkpt lat="43.3091144" lon="12.627232"><ele>416.0</ele><time>2026-04-26T15:21:06.035Z</time></trkpt><trkpt lat="43.3089468" lon="12.6275939"><ele>415.0</ele><time>2026-04-26T15:21:07.038Z</time></trkpt><trkpt lat="43.3087773" lon="12.6279627"><ele>414.0</ele><time>2026-04-26T15:21:08.037Z</time></trkpt><trkpt lat="43.3086077" lon="12.6283249"><ele>415.0</ele><time>2026-04-26T15:21:09.038Z</time></trkpt><trkpt lat="43.3084408" lon="12.6286857"><ele>416.0</ele><time>2026-04-26T15:21:10.038Z</time></trkpt><trkpt lat="43.3082724" lon="12.6290535"><ele>416.0</ele><time>2026-04-26T15:21:11.036Z</time></trkpt><trkpt lat="43.3081035" lon="12.6294234"><ele>416.0</ele><time>2026-04-26T15:21:12.03Z</time></trkpt><trkpt lat="43.3079306" lon="12.6297936"><ele>418.0</ele><time>2026-04-26T15:21:13.036Z</time></trkpt><trkpt lat="43.3077571" lon="12.6301667"><ele>420.0</ele><time>2026-04-26T15:21:14.024Z</time></trkpt><trkpt lat="43.3075839" lon="12.6305421"><ele>421.0</ele><time>2026-04-26T15:21:15.037Z</time></trkpt><trkpt lat="43.3074113" lon="12.630917"><ele>422.0</ele><time>2026-04-26T15:21:16.039Z</time></trkpt><trkpt lat="43.307236" lon="12.6312925"><ele>421.5</ele><time>2026-04-26T15:21:17.043Z</time></trkpt><trkpt lat="43.3070593" lon="12.6316713"><ele>421.0</ele><time>2026-04-26T15:21:18.028Z</time></trkpt><trkpt lat="43.3068816" lon="12.6320498"><ele>421.0</ele><time>2026-04-26T15:21:19.049Z</time></trkpt><trkpt lat="43.3067074" lon="12.6324293"><ele>421.0</ele><time>2026-04-26T15:21:20.044Z</time></trkpt><trkpt lat="43.306535" lon="12.632803"><ele>421.5</ele><time>2026-04-26T15:21:21.034Z</time></trkpt><trkpt lat="43.3063671" lon="12.6331635"><ele>422.0</ele><time>2026-04-26T15:21:22.033Z</time></trkpt><trkpt lat="43.3062044" lon="12.6335153"><ele>420.5</ele><time>2026-04-26T15:21:23.037Z</time></trkpt><trkpt lat="43.3060418" lon="12.6338653"><ele>419.0</ele><time>2026-04-26T15:21:24.037Z</time></trkpt><trkpt lat="43.3058833" lon="12.6342144"><ele>419.0</ele><time>2026-04-26T15:21:25.037Z</time></trkpt><trkpt lat="43.3057222" lon="12.6345619"><ele>419.0</ele><time>2026-04-26T15:21:26.021Z</time></trkpt><trkpt lat="43.3055576" lon="12.6349131"><ele>418.0</ele><time>2026-04-26T15:21:27.022Z</time></trkpt><trkpt lat="43.3053927" lon="12.6352687"><ele>417.0</ele><time>2026-04-26T15:21:28.032Z</time></trkpt><trkpt lat="43.3052243" lon="12.6356288"><ele>417.0</ele><time>2026-04-26T15:21:29.025Z</time></trkpt><trkpt lat="43.3050552" lon="12.6359945"><ele>417.0</ele><time>2026-04-26T15:21:30.039Z</time></trkpt><trkpt lat="43.304884" lon="12.6363608"><ele>416.5</ele><time>2026-04-26T15:21:31.035Z</time></trkpt><trkpt lat="43.30471" lon="12.6367306"><ele>416.0</ele><time>2026-04-26T15:21:32.024Z</time></trkpt><trkpt lat="43.3045369" lon="12.6371026"><ele>416.0</ele><time>2026-04-26T15:21:33.045Z</time></trkpt><trkpt lat="43.3043622" lon="12.6374795"><ele>416.0</ele><time>2026-04-26T15:21:34.04Z</time></trkpt><trkpt lat="43.3041901" lon="12.6378508"><ele>416.0</ele><time>2026-04-26T15:21:35.023Z</time></trkpt><trkpt lat="43.3040151" lon="12.6382223"><ele>416.0</ele><time>2026-04-26T15:21:36.042Z</time></trkpt><trkpt lat="43.3038444" lon="12.6385955"><ele>414.5</ele><time>2026-04-26T15:21:37.036Z</time></trkpt><trkpt lat="43.3036769" lon="12.6389538"><ele>413.0</ele><time>2026-04-26T15:21:38.038Z</time></trkpt><trkpt lat="43.3035157" lon="12.6393015"><ele>413.0</ele><time>2026-04-26T15:21:39.049Z</time></trkpt><trkpt lat="43.3033607" lon="12.6396395"><ele>413.0</ele><time>2026-04-26T15:21:40.033Z</time></trkpt><trkpt lat="43.3032051" lon="12.6399794"><ele>411.5</ele><time>2026-04-26T15:21:41.039Z</time></trkpt><trkpt lat="43.3030494" lon="12.6403207"><ele>410.0</ele><time>2026-04-26T15:21:42.033Z</time></trkpt><trkpt lat="43.3028939" lon="12.6406618"><ele>410.0</ele><time>2026-04-26T15:21:43.03Z</time></trkpt><trkpt lat="43.3027371" lon="12.6410025"><ele>410.0</ele><time>2026-04-26T15:21:44.036Z</time></trkpt><trkpt lat="43.3025803" lon="12.641345"><ele>409.5</ele><time>2026-04-26T15:21:45.054Z</time></trkpt><trkpt lat="43.3024226" lon="12.6416892"><ele>409.0</ele><time>2026-04-26T15:21:46.052Z</time></trkpt><trkpt lat="43.3022622" lon="12.6420371"><ele>408.0</ele><time>2026-04-26T15:21:47.027Z</time></trkpt><trkpt lat="43.3020977" lon="12.6423893"><ele>407.0</ele><time>2026-04-26T15:21:48.035Z</time></trkpt><trkpt lat="43.3019299" lon="12.64274"><ele>407.5</ele><time>2026-04-26T15:21:49.026Z</time></trkpt><trkpt lat="43.3017621" lon="12.6430958"><ele>408.0</ele><time>2026-04-26T15:21:50.019Z</time></trkpt><trkpt lat="43.3015915" lon="12.643457"><ele>409.5</ele><time>2026-04-26T15:21:51.042Z</time></trkpt><trkpt lat="43.3014177" lon="12.6438177"><ele>411.0</ele><time>2026-04-26T15:21:52.032Z</time></trkpt><trkpt lat="43.3012377" lon="12.644176"><ele>414.5</ele><time>2026-04-26T15:21:53.034Z</time></trkpt><trkpt lat="43.301051" lon="12.6445236"><ele>418.0</ele><time>2026-04-26T15:21:54.021Z</time></trkpt><trkpt lat="43.3008571" lon="12.6448685"><ele>418.0</ele><time>2026-04-26T15:21:55.039Z</time></trkpt><trkpt lat="43.3006619" lon="12.6452118"><ele>418.0</ele><time>2026-04-26T15:21:56.029Z</time></trkpt><trkpt lat="43.3004591" lon="12.6455496"><ele>418.0</ele><time>2026-04-26T15:21:57.04Z</time></trkpt><trkpt lat="43.300259" lon="12.6458738"><ele>418.0</ele><time>2026-04-26T15:21:58.024Z</time></trkpt><trkpt lat="43.3000493" lon="12.6461871"><ele>420.5</ele><time>2026-04-26T15:21:59.047Z</time></trkpt><trkpt lat="43.2998406" lon="12.6464968"><ele>423.0</ele><time>2026-04-26T15:22:00.029Z</time></trkpt><trkpt lat="43.2996304" lon="12.6468057"><ele>422.5</ele><time>2026-04-26T15:22:01.033Z</time></trkpt><trkpt lat="43.2994099" lon="12.6471069"><ele>422.0</ele><time>2026-04-26T15:22:02.023Z</time></trkpt><trkpt lat="43.2991859" lon="12.6474084"><ele>422.0</ele><time>2026-04-26T15:22:03.031Z</time></trkpt><trkpt lat="43.2989527" lon="12.647701"><ele>422.0</ele><time>2026-04-26T15:22:04.028Z</time></trkpt><trkpt lat="43.2987093" lon="12.6479906"><ele>422.5</ele><time>2026-04-26T15:22:05.033Z</time></trkpt><trkpt lat="43.2984558" lon="12.6482748"><ele>423.0</ele><time>2026-04-26T15:22:06.026Z</time></trkpt><trkpt lat="43.2981982" lon="12.6485551"><ele>420.0</ele><time>2026-04-26T15:22:07.037Z</time></trkpt><trkpt lat="43.2979349" lon="12.6488277"><ele>417.0</ele><time>2026-04-26T15:22:08.036Z</time></trkpt><trkpt lat="43.2976713" lon="12.6490991"><ele>417.0</ele><time>2026-04-26T15:22:09.036Z</time></trkpt><trkpt lat="43.2974076" lon="12.6493745"><ele>417.0</ele><time>2026-04-26T15:22:10.037Z</time></trkpt><trkpt lat="43.2971424" lon="12.6496503"><ele>413.5</ele><time>2026-04-26T15:22:11.051Z</time></trkpt><trkpt lat="43.29688" lon="12.6499186"><ele>410.0</ele><time>2026-04-26T15:22:12.036Z</time></trkpt><trkpt lat="43.2966237" lon="12.6501862"><ele>409.0</ele><time>2026-04-26T15:22:13.037Z</time></trkpt><trkpt lat="43.2963756" lon="12.6504387"><ele>408.0</ele><time>2026-04-26T15:22:14.03Z</time></trkpt><trkpt lat="43.2961423" lon="12.6506801"><ele>408.0</ele><time>2026-04-26T15:22:15.034Z</time></trkpt><trkpt lat="43.2959219" lon="12.650906"><ele>408.0</ele><time>2026-04-26T15:22:16.008Z</time></trkpt><trkpt lat="43.2957086" lon="12.6511199"><ele>408.5</ele><time>2026-04-26T15:22:17.031Z</time></trkpt><trkpt lat="43.2955042" lon="12.6513229"><ele>409.0</ele><time>2026-04-26T15:22:18.035Z</time></trkpt><trkpt lat="43.295303" lon="12.6515319"><ele>409.0</ele><time>2026-04-26T15:22:19.03Z</time></trkpt><trkpt lat="43.2951085" lon="12.6517381"><ele>409.0</ele><time>2026-04-26T15:22:20.044Z</time></trkpt><trkpt lat="43.2949109" lon="12.6519482"><ele>407.5</ele><time>2026-04-26T15:22:21.023Z</time></trkpt><trkpt lat="43.294717" lon="12.6521641"><ele>406.0</ele><time>2026-04-26T15:22:22.027Z</time></trkpt><trkpt lat="43.2945228" lon="12.6523828"><ele>406.0</ele><time>2026-04-26T15:22:23.025Z</time></trkpt><trkpt lat="43.2943282" lon="12.6525984"><ele>406.0</ele><time>2026-04-26T15:22:24.042Z</time></trkpt><trkpt lat="43.294135" lon="12.6528153"><ele>403.5</ele><time>2026-04-26T15:22:25.041Z</time></trkpt><trkpt lat="43.293946" lon="12.6530425"><ele>401.0</ele><time>2026-04-26T15:22:26.036Z</time></trkpt><trkpt lat="43.293761" lon="12.6532743"><ele>399.5</ele><time>2026-04-26T15:22:27.041Z</time></trkpt><trkpt lat="43.2935772" lon="12.6535167"><ele>398.0</ele><time>2026-04-26T15:22:28.031Z</time></trkpt><trkpt lat="43.2933977" lon="12.6537629"><ele>397.5</ele><time>2026-04-26T15:22:29.019Z</time></trkpt><trkpt lat="43.2932187" lon="12.6540052"><ele>397.0</ele><time>2026-04-26T15:22:30.045Z</time></trkpt><trkpt lat="43.2930409" lon="12.6542535"><ele>396.5</ele><time>2026-04-26T15:22:31.035Z</time></trkpt><trkpt lat="43.2928617" lon="12.654496"><ele>396.0</ele><time>2026-04-26T15:22:32.044Z</time></trkpt><trkpt lat="43.2926844" lon="12.6547415"><ele>396.0</ele><time>2026-04-26T15:22:33.048Z</time></trkpt><trkpt lat="43.2925087" lon="12.6549791"><ele>396.0</ele><time>2026-04-26T15:22:34.041Z</time></trkpt><trkpt lat="43.2923338" lon="12.655221"><ele>397.5</ele><time>2026-04-26T15:22:35.036Z</time></trkpt><trkpt lat="43.2921635" lon="12.6554595"><ele>399.0</ele><time>2026-04-26T15:22:36.043Z</time></trkpt><trkpt lat="43.291994" lon="12.6556963"><ele>399.0</ele><time>2026-04-26T15:22:37.053Z</time></trkpt><trkpt lat="43.2918281" lon="12.6559321"><ele>399.0</ele><time>2026-04-26T15:22:38.035Z</time></trkpt><trkpt lat="43.2916641" lon="12.6561626"><ele>399.0</ele><time>2026-04-26T15:22:39.023Z</time></trkpt><trkpt lat="43.2914998" lon="12.6563969"><ele>399.0</ele><time>2026-04-26T15:22:40.032Z</time></trkpt><trkpt lat="43.2913385" lon="12.6566249"><ele>399.0</ele><time>2026-04-26T15:22:41.034Z</time></trkpt><trkpt lat="43.2911776" lon="12.6568494"><ele>399.0</ele><time>2026-04-26T15:22:42.017Z</time></trkpt><trkpt lat="43.2910134" lon="12.6570682"><ele>400.0</ele><time>2026-04-26T15:22:43.039Z</time></trkpt><trkpt lat="43.2908472" lon="12.6572846"><ele>401.0</ele><time>2026-04-26T15:22:44.043Z</time></trkpt><trkpt lat="43.2906799" lon="12.6575028"><ele>400.0</ele><time>2026-04-26T15:22:45.05Z</time></trkpt><trkpt lat="43.2905116" lon="12.6577186"><ele>399.0</ele><time>2026-04-26T15:22:46.031Z</time></trkpt><trkpt lat="43.2903431" lon="12.6579311"><ele>398.5</ele><time>2026-04-26T15:22:47.036Z</time></trkpt><trkpt lat="43.2901674" lon="12.6581378"><ele>398.0</ele><time>2026-04-26T15:22:48.039Z</time></trkpt><trkpt lat="43.2899888" lon="12.6583465"><ele>398.0</ele><time>2026-04-26T15:22:49.046Z</time></trkpt><trkpt lat="43.2898028" lon="12.6585528"><ele>398.0</ele><time>2026-04-26T15:22:50.041Z</time></trkpt><trkpt lat="43.2896144" lon="12.6587621"><ele>396.5</ele><time>2026-04-26T15:22:51.037Z</time></trkpt><trkpt lat="43.2894208" lon="12.6589665"><ele>395.0</ele><time>2026-04-26T15:22:52.031Z</time></trkpt><trkpt lat="43.2892234" lon="12.6591732"><ele>395.0</ele><time>2026-04-26T15:22:53.039Z</time></trkpt><trkpt lat="43.289022" lon="12.6593779"><ele>395.0</ele><time>2026-04-26T15:22:54.036Z</time></trkpt><trkpt lat="43.2888179" lon="12.6595773"><ele>393.0</ele><time>2026-04-26T15:22:55.038Z</time></trkpt><trkpt lat="43.2886087" lon="12.659772"><ele>391.0</ele><time>2026-04-26T15:22:56.036Z</time></trkpt><trkpt lat="43.2884001" lon="12.659954"><ele>391.0</ele><time>2026-04-26T15:22:57.042Z</time></trkpt><trkpt lat="43.2881926" lon="12.6601316"><ele>391.0</ele><time>2026-04-26T15:22:58.045Z</time></trkpt><trkpt lat="43.2879883" lon="12.6603048"><ele>391.0</ele><time>2026-04-26T15:22:59.047Z</time></trkpt><trkpt lat="43.2877809" lon="12.6604728"><ele>391.0</ele><time>2026-04-26T15:23:00.046Z</time></trkpt><trkpt lat="43.2875738" lon="12.6606335"><ele>391.0</ele><time>2026-04-26T15:23:01.036Z</time></trkpt><trkpt lat="43.2873642" lon="12.6607937"><ele>391.0</ele><time>2026-04-26T15:23:02.042Z</time></trkpt><trkpt lat="43.2871528" lon="12.6609461"><ele>390.5</ele><time>2026-04-26T15:23:03.052Z</time></trkpt><trkpt lat="43.2869364" lon="12.6610973"><ele>390.0</ele><time>2026-04-26T15:23:04.038Z</time></trkpt><trkpt lat="43.2867146" lon="12.6612479"><ele>390.0</ele><time>2026-04-26T15:23:05.04Z</time></trkpt><trkpt lat="43.2864888" lon="12.6613931"><ele>390.0</ele><time>2026-04-26T15:23:06.023Z</time></trkpt><trkpt lat="43.2862585" lon="12.6615424"><ele>390.0</ele><time>2026-04-26T15:23:07.035Z</time></trkpt><trkpt lat="43.286025" lon="12.6616898"><ele>390.0</ele><time>2026-04-26T15:23:08.023Z</time></trkpt><trkpt lat="43.2857896" lon="12.6618328"><ele>389.0</ele><time>2026-04-26T15:23:09.046Z</time></trkpt><trkpt lat="43.285549" lon="12.6619692"><ele>388.0</ele><time>2026-04-26T15:23:10.037Z</time></trkpt><trkpt lat="43.2853103" lon="12.6621098"><ele>388.0</ele><time>2026-04-26T15:23:11.035Z</time></trkpt><trkpt lat="43.2850731" lon="12.6622486"><ele>388.0</ele><time>2026-04-26T15:23:12.025Z</time></trkpt><trkpt lat="43.2848405" lon="12.6623798"><ele>388.0</ele><time>2026-04-26T15:23:13.028Z</time></trkpt><trkpt lat="43.2846137" lon="12.6625095"><ele>388.0</ele><time>2026-04-26T15:23:14.028Z</time></trkpt><trkpt lat="43.2843877" lon="12.6626437"><ele>388.0</ele><time>2026-04-26T15:23:15.031Z</time></trkpt><trkpt lat="43.2841655" lon="12.6627731"><ele>388.0</ele><time>2026-04-26T15:23:16.021Z</time></trkpt><trkpt lat="43.2839492" lon="12.6628954"><ele>386.5</ele><time>2026-04-26T15:23:17.039Z</time></trkpt><trkpt lat="43.2837343" lon="12.6630199"><ele>385.0</ele><time>2026-04-26T15:23:18.033Z</time></trkpt><trkpt lat="43.2835169" lon="12.6631403"><ele>385.0</ele><time>2026-04-26T15:23:19.047Z</time></trkpt><trkpt lat="43.2833028" lon="12.6632631"><ele>385.0</ele><time>2026-04-26T15:23:20.042Z</time></trkpt><trkpt lat="43.2830846" lon="12.6633888"><ele>384.5</ele><time>2026-04-26T15:23:21.038Z</time></trkpt><trkpt lat="43.2828589" lon="12.663515"><ele>384.0</ele><time>2026-04-26T15:23:22.044Z</time></trkpt><trkpt lat="43.2826318" lon="12.6636453"><ele>384.0</ele><time>2026-04-26T15:23:23.039Z</time></trkpt><trkpt lat="43.2824006" lon="12.663779"><ele>384.0</ele><time>2026-04-26T15:23:24.043Z</time></trkpt><trkpt lat="43.2821684" lon="12.6639193"><ele>383.0</ele><time>2026-04-26T15:23:25.027Z</time></trkpt><trkpt lat="43.2819329" lon="12.6640616"><ele>382.0</ele><time>2026-04-26T15:23:26.033Z</time></trkpt><trkpt lat="43.2816979" lon="12.6642038"><ele>382.0</ele><time>2026-04-26T15:23:27.042Z</time></trkpt><trkpt lat="43.2814644" lon="12.6643421"><ele>382.0</ele><time>2026-04-26T15:23:28.024Z</time></trkpt><trkpt lat="43.2812328" lon="12.6644801"><ele>381.5</ele><time>2026-04-26T15:23:29.023Z</time></trkpt><trkpt lat="43.2810015" lon="12.6646156"><ele>381.0</ele><time>2026-04-26T15:23:30.044Z</time></trkpt><trkpt lat="43.2807598" lon="12.6647595"><ele>380.5</ele><time>2026-04-26T15:23:31.041Z</time></trkpt><trkpt lat="43.2805096" lon="12.6649024"><ele>380.0</ele><time>2026-04-26T15:23:32.034Z</time></trkpt><trkpt lat="43.2802551" lon="12.6650493"><ele>380.0</ele><time>2026-04-26T15:23:33.052Z</time></trkpt><trkpt lat="43.2799906" lon="12.6651978"><ele>380.0</ele><time>2026-04-26T15:23:34.021Z</time></trkpt><trkpt lat="43.2797248" lon="12.6653493"><ele>377.5</ele><time>2026-04-26T15:23:35.024Z</time></trkpt><trkpt lat="43.2794561" lon="12.6654978"><ele>375.0</ele><time>2026-04-26T15:23:36.034Z</time></trkpt><trkpt lat="43.2791926" lon="12.6656411"><ele>373.5</ele><time>2026-04-26T15:23:37.04Z</time></trkpt><trkpt lat="43.2789328" lon="12.6657848"><ele>372.0</ele><time>2026-04-26T15:23:38.054Z</time></trkpt><trkpt lat="43.2786785" lon="12.6659298"><ele>372.0</ele><time>2026-04-26T15:23:39.038Z</time></trkpt><trkpt lat="43.2784251" lon="12.6660744"><ele>372.0</ele><time>2026-04-26T15:23:40.034Z</time></trkpt><trkpt lat="43.2781729" lon="12.6662214"><ele>371.5</ele><time>2026-04-26T15:23:41.034Z</time></trkpt><trkpt lat="43.2779241" lon="12.6663622"><ele>371.0</ele><time>2026-04-26T15:23:42.032Z</time></trkpt><trkpt lat="43.2776798" lon="12.6664998"><ele>371.0</ele><time>2026-04-26T15:23:43.049Z</time></trkpt><trkpt lat="43.2774332" lon="12.6666317"><ele>371.0</ele><time>2026-04-26T15:23:44.045Z</time></trkpt><trkpt lat="43.277185" lon="12.666761"><ele>371.0</ele><time>2026-04-26T15:23:45.05Z</time></trkpt><trkpt lat="43.2769342" lon="12.6668962"><ele>371.0</ele><time>2026-04-26T15:23:46.041Z</time></trkpt><trkpt lat="43.2766789" lon="12.6670297"><ele>370.0</ele><time>2026-04-26T15:23:47.034Z</time></trkpt><trkpt lat="43.2764204" lon="12.6671589"><ele>369.0</ele><time>2026-04-26T15:23:48.031Z</time></trkpt><trkpt lat="43.2761586" lon="12.6672922"><ele>369.0</ele><time>2026-04-26T15:23:49.037Z</time></trkpt><trkpt lat="43.2758929" lon="12.6674211"><ele>369.0</ele><time>2026-04-26T15:23:50.04Z</time></trkpt><trkpt lat="43.2756285" lon="12.6675505"><ele>367.5</ele><time>2026-04-26T15:23:51.044Z</time></trkpt><trkpt lat="43.2753634" lon="12.6676851"><ele>366.0</ele><time>2026-04-26T15:23:52.054Z</time></trkpt><trkpt lat="43.2750938" lon="12.6678202"><ele>366.0</ele><time>2026-04-26T15:23:53.027Z</time></trkpt><trkpt lat="43.2748203" lon="12.6679596"><ele>366.0</ele><time>2026-04-26T15:23:54.031Z</time></trkpt><trkpt lat="43.2745491" lon="12.6680982"><ele>364.5</ele><time>2026-04-26T15:23:55.034Z</time></trkpt><trkpt lat="43.2742811" lon="12.6682397"><ele>363.0</ele><time>2026-04-26T15:23:56.027Z</time></trkpt><trkpt lat="43.2740219" lon="12.6683717"><ele>362.5</ele><time>2026-04-26T15:23:57.038Z</time></trkpt><trkpt lat="43.2737688" lon="12.6685012"><ele>362.0</ele><time>2026-04-26T15:23:58.033Z</time></trkpt><trkpt lat="43.2735162" lon="12.6686274"><ele>362.0</ele><time>2026-04-26T15:23:59.023Z</time></trkpt><trkpt lat="43.2732661" lon="12.6687526"><ele>362.0</ele><time>2026-04-26T15:24:00.032Z</time></trkpt><trkpt lat="43.2730199" lon="12.668878"><ele>361.5</ele><time>2026-04-26T15:24:01.046Z</time></trkpt><trkpt lat="43.272776" lon="12.6690055"><ele>361.0</ele><time>2026-04-26T15:24:02.03Z</time></trkpt><trkpt lat="43.2725399" lon="12.6691295"><ele>361.0</ele><time>2026-04-26T15:24:03.04Z</time></trkpt><trkpt lat="43.2723067" lon="12.6692586"><ele>361.0</ele><time>2026-04-26T15:24:04.049Z</time></trkpt><trkpt lat="43.2720762" lon="12.6693901"><ele>361.0</ele><time>2026-04-26T15:24:05.042Z</time></trkpt><trkpt lat="43.2718491" lon="12.6695242"><ele>361.0</ele><time>2026-04-26T15:24:06.049Z</time></trkpt><trkpt lat="43.2716203" lon="12.6696584"><ele>360.0</ele><time>2026-04-26T15:24:07.045Z</time></trkpt><trkpt lat="43.2713955" lon="12.6697974"><ele>359.0</ele><time>2026-04-26T15:24:08.037Z</time></trkpt><trkpt lat="43.2711676" lon="12.6699433"><ele>359.0</ele><time>2026-04-26T15:24:09.029Z</time></trkpt><trkpt lat="43.2709378" lon="12.6700976"><ele>359.0</ele><time>2026-04-26T15:24:10.032Z</time></trkpt><trkpt lat="43.2707073" lon="12.670265"><ele>358.0</ele><time>2026-04-26T15:24:11.043Z</time></trkpt><trkpt lat="43.2704693" lon="12.6704408"><ele>357.0</ele><time>2026-04-26T15:24:12.031Z</time></trkpt><trkpt lat="43.2702349" lon="12.6706172"><ele>357.0</ele><time>2026-04-26T15:24:13.056Z</time></trkpt><trkpt lat="43.2699941" lon="12.6708053"><ele>357.0</ele><time>2026-04-26T15:24:14.04Z</time></trkpt><trkpt lat="43.2697505" lon="12.6710071"><ele>357.0</ele><time>2026-04-26T15:24:15.046Z</time></trkpt><trkpt lat="43.2695086" lon="12.6712122"><ele>357.0</ele><time>2026-04-26T15:24:16.044Z</time></trkpt><trkpt lat="43.2692688" lon="12.6714233"><ele>357.0</ele><time>2026-04-26T15:24:17.032Z</time></trkpt><trkpt lat="43.2690289" lon="12.6716414"><ele>357.0</ele><time>2026-04-26T15:24:18.036Z</time></trkpt><trkpt lat="43.2687921" lon="12.6718653"><ele>356.5</ele><time>2026-04-26T15:24:19.024Z</time></trkpt><trkpt lat="43.2685581" lon="12.6720864"><ele>356.0</ele><time>2026-04-26T15:24:20.036Z</time></trkpt><trkpt lat="43.2683352" lon="12.672304"><ele>356.0</ele><time>2026-04-26T15:24:21.038Z</time></trkpt><trkpt lat="43.2681217" lon="12.672526"><ele>356.0</ele><time>2026-04-26T15:24:22.027Z</time></trkpt><trkpt lat="43.2679117" lon="12.6727481"><ele>355.5</ele><time>2026-04-26T15:24:23.037Z</time></trkpt><trkpt lat="43.2677036" lon="12.6729781"><ele>355.0</ele><time>2026-04-26T15:24:24.049Z</time></trkpt><trkpt lat="43.2674954" lon="12.6732039"><ele>355.0</ele><time>2026-04-26T15:24:25.04Z</time></trkpt><trkpt lat="43.2672843" lon="12.6734294"><ele>355.0</ele><time>2026-04-26T15:24:26.04Z</time></trkpt><trkpt lat="43.2670676" lon="12.6736587"><ele>354.0</ele><time>2026-04-26T15:24:27.038Z</time></trkpt><trkpt lat="43.2668529" lon="12.6738914"><ele>353.0</ele><time>2026-04-26T15:24:28.036Z</time></trkpt><trkpt lat="43.2666389" lon="12.6741233"><ele>353.5</ele><time>2026-04-26T15:24:29.022Z</time></trkpt><trkpt lat="43.2664226" lon="12.6743636"><ele>354.0</ele><time>2026-04-26T15:24:30.021Z</time></trkpt><trkpt lat="43.2662043" lon="12.6746071"><ele>353.0</ele><time>2026-04-26T15:24:31.04Z</time></trkpt><trkpt lat="43.2659858" lon="12.6748481"><ele>352.0</ele><time>2026-04-26T15:24:32.038Z</time></trkpt><trkpt lat="43.2657642" lon="12.6750901"><ele>352.0</ele><time>2026-04-26T15:24:33.03Z</time></trkpt><trkpt lat="43.2655421" lon="12.6753343"><ele>352.0</ele><time>2026-04-26T15:24:34.043Z</time></trkpt><trkpt lat="43.2653223" lon="12.6755787"><ele>352.0</ele><time>2026-04-26T15:24:35.041Z</time></trkpt><trkpt lat="43.2651123" lon="12.675815"><ele>352.0</ele><time>2026-04-26T15:24:36.034Z</time></trkpt><trkpt lat="43.2649075" lon="12.676046"><ele>353.0</ele><time>2026-04-26T15:24:37.033Z</time></trkpt><trkpt lat="43.2647078" lon="12.6762724"><ele>354.0</ele><time>2026-04-26T15:24:38.042Z</time></trkpt><trkpt lat="43.2645107" lon="12.6764982"><ele>354.0</ele><time>2026-04-26T15:24:39.038Z</time></trkpt><trkpt lat="43.2643124" lon="12.6767205"><ele>354.0</ele><time>2026-04-26T15:24:40.024Z</time></trkpt><trkpt lat="43.2641125" lon="12.6769454"><ele>351.5</ele><time>2026-04-26T15:24:41.038Z</time></trkpt><trkpt lat="43.2639114" lon="12.677165"><ele>349.0</ele><time>2026-04-26T15:24:42.037Z</time></trkpt><trkpt lat="43.263709" lon="12.6773799"><ele>349.0</ele><time>2026-04-26T15:24:43.061Z</time></trkpt><trkpt lat="43.2635086" lon="12.6775946"><ele>349.0</ele><time>2026-04-26T15:24:44.036Z</time></trkpt><trkpt lat="43.2633158" lon="12.6778047"><ele>348.5</ele><time>2026-04-26T15:24:45.045Z</time></trkpt><trkpt lat="43.2631311" lon="12.6780084"><ele>348.0</ele><time>2026-04-26T15:24:46.05Z</time></trkpt><trkpt lat="43.2629499" lon="12.6782042"><ele>348.0</ele><time>2026-04-26T15:24:47.039Z</time></trkpt><trkpt lat="43.2627675" lon="12.6784019"><ele>348.0</ele><time>2026-04-26T15:24:48.038Z</time></trkpt><trkpt lat="43.262583" lon="12.6786001"><ele>348.5</ele><time>2026-04-26T15:24:49.053Z</time></trkpt><trkpt lat="43.2623995" lon="12.6788034"><ele>349.0</ele><time>2026-04-26T15:24:50.039Z</time></trkpt><trkpt lat="43.262216" lon="12.6790079"><ele>348.0</ele><time>2026-04-26T15:24:51.035Z</time></trkpt><trkpt lat="43.262029" lon="12.6792124"><ele>347.0</ele><time>2026-04-26T15:24:52.028Z</time></trkpt><trkpt lat="43.2618424" lon="12.6794292"><ele>348.0</ele><time>2026-04-26T15:24:53.032Z</time></trkpt><trkpt lat="43.2616526" lon="12.6796374"><ele>349.0</ele><time>2026-04-26T15:24:54.037Z</time></trkpt><trkpt lat="43.2614626" lon="12.6798443"><ele>349.0</ele><time>2026-04-26T15:24:55.023Z</time></trkpt><trkpt lat="43.26127" lon="12.6800536"><ele>349.0</ele><time>2026-04-26T15:24:56.042Z</time></trkpt><trkpt lat="43.2610776" lon="12.6802688"><ele>349.0</ele><time>2026-04-26T15:24:57.032Z</time></trkpt><trkpt lat="43.2608787" lon="12.6804921"><ele>349.0</ele><time>2026-04-26T15:24:58.04Z</time></trkpt><trkpt lat="43.2606734" lon="12.6807183"><ele>349.0</ele><time>2026-04-26T15:24:59.05Z</time></trkpt><trkpt lat="43.2604631" lon="12.6809479"><ele>349.0</ele><time>2026-04-26T15:25:00.037Z</time></trkpt><trkpt lat="43.2602516" lon="12.6811821"><ele>350.0</ele><time>2026-04-26T15:25:01.034Z</time></trkpt><trkpt lat="43.2600446" lon="12.6814141"><ele>351.0</ele><time>2026-04-26T15:25:02.044Z</time></trkpt><trkpt lat="43.2598475" lon="12.681632"><ele>351.5</ele><time>2026-04-26T15:25:03.043Z</time></trkpt><trkpt lat="43.2596638" lon="12.6818332"><ele>352.0</ele><time>2026-04-26T15:25:04.031Z</time></trkpt><trkpt lat="43.2594953" lon="12.6820167"><ele>352.0</ele><time>2026-04-26T15:25:05.048Z</time></trkpt><trkpt lat="43.2593293" lon="12.6821937"><ele>352.0</ele><time>2026-04-26T15:25:06.054Z</time></trkpt><trkpt lat="43.2591709" lon="12.6823682"><ele>352.0</ele><time>2026-04-26T15:25:07.034Z</time></trkpt><trkpt lat="43.2590143" lon="12.682545"><ele>355.0</ele><time>2026-04-26T15:25:08.038Z</time></trkpt><trkpt lat="43.2588673" lon="12.6827088"><ele>358.0</ele><time>2026-04-26T15:25:09.048Z</time></trkpt><trkpt lat="43.25873" lon="12.6828617"><ele>361.0</ele><time>2026-04-26T15:25:10.036Z</time></trkpt><trkpt lat="43.2586025" lon="12.683007"><ele>361.0</ele><time>2026-04-26T15:25:11.045Z</time></trkpt><trkpt lat="43.2584855" lon="12.6831494"><ele>361.0</ele><time>2026-04-26T15:25:12.038Z</time></trkpt><trkpt lat="43.2583797" lon="12.6833192"><ele>361.0</ele><time>2026-04-26T15:25:13.032Z</time></trkpt><trkpt lat="43.2582906" lon="12.6835081"><ele>363.0</ele><time>2026-04-26T15:25:14.048Z</time></trkpt><trkpt lat="43.2582315" lon="12.6837132"><ele>365.0</ele><time>2026-04-26T15:25:15.015Z</time></trkpt><trkpt lat="43.258202" lon="12.6839474"><ele>367.0</ele><time>2026-04-26T15:25:16.032Z</time></trkpt><trkpt lat="43.2582178" lon="12.6841895"><ele>370.66666666666663</ele><time>2026-04-26T15:25:17.026Z</time></trkpt><trkpt lat="43.2582673" lon="12.6844317"><ele>374.3333333333333</ele><time>2026-04-26T15:25:18.037Z</time></trkpt><trkpt lat="43.2583559" lon="12.6846806"><ele>378.0</ele><time>2026-04-26T15:25:19.033Z</time></trkpt><trkpt lat="43.2584654" lon="12.6848872"><ele>378.0</ele><time>2026-04-26T15:25:20.036Z</time></trkpt><trkpt lat="43.2586124" lon="12.6850516"><ele>378.0</ele><time>2026-04-26T15:25:21.045Z</time></trkpt><trkpt lat="43.2587801" lon="12.6851737"><ele>378.0</ele><time>2026-04-26T15:25:22.035Z</time></trkpt><trkpt lat="43.2589662" lon="12.6852325"><ele>377.0</ele><time>2026-04-26T15:25:23.034Z</time></trkpt><trkpt lat="43.2591703" lon="12.6852786"><ele>376.0</ele><time>2026-04-26T15:25:24.021Z</time></trkpt><trkpt lat="43.2593787" lon="12.6853084"><ele>375.0</ele><time>2026-04-26T15:25:25.032Z</time></trkpt><trkpt lat="43.2595913" lon="12.6853589"><ele>369.0</ele><time>2026-04-26T15:25:26.025Z</time></trkpt><trkpt lat="43.2597949" lon="12.6854537"><ele>363.0</ele><time>2026-04-26T15:25:27.033Z</time></trkpt><trkpt lat="43.259982" lon="12.685619"><ele>357.0</ele><time>2026-04-26T15:25:28.024Z</time></trkpt><trkpt lat="43.2601409" lon="12.6858118"><ele>357.0</ele><time>2026-04-26T15:25:29.029Z</time></trkpt><trkpt lat="43.2602747" lon="12.6860617"><ele>357.0</ele><time>2026-04-26T15:25:30.032Z</time></trkpt><trkpt lat="43.2603932" lon="12.6863207"><ele>357.0</ele><time>2026-04-26T15:25:31.046Z</time></trkpt><trkpt lat="43.260508" lon="12.6865966"><ele>358.0</ele><time>2026-04-26T15:25:32.047Z</time></trkpt><trkpt lat="43.2606341" lon="12.6868839"><ele>359.0</ele><time>2026-04-26T15:25:33.035Z</time></trkpt><trkpt lat="43.2607639" lon="12.6871845"><ele>359.0</ele><time>2026-04-26T15:25:34.035Z</time></trkpt><trkpt lat="43.2608921" lon="12.6874889"><ele>359.0</ele><time>2026-04-26T15:25:35.035Z</time></trkpt><trkpt lat="43.261022" lon="12.6878"><ele>364.0</ele><time>2026-04-26T15:25:36.007Z</time></trkpt><trkpt lat="43.2611506" lon="12.6881259"><ele>369.0</ele><time>2026-04-26T15:25:37.033Z</time></trkpt><trkpt lat="43.261278" lon="12.6884599"><ele>362.0</ele><time>2026-04-26T15:25:38.049Z</time></trkpt><trkpt lat="43.2614059" lon="12.6888048"><ele>355.0</ele><time>2026-04-26T15:25:39.039Z</time></trkpt><trkpt lat="43.2615361" lon="12.6891577"><ele>357.5</ele><time>2026-04-26T15:25:40.028Z</time></trkpt><trkpt lat="43.2616709" lon="12.6895174"><ele>360.0</ele><time>2026-04-26T15:25:41.03Z</time></trkpt><trkpt lat="43.2618058" lon="12.689882"><ele>360.0</ele><time>2026-04-26T15:25:42.035Z</time></trkpt><trkpt lat="43.2619405" lon="12.6902473"><ele>360.0</ele><time>2026-04-26T15:25:43.035Z</time></trkpt><trkpt lat="43.2620786" lon="12.6906149"><ele>360.5</ele><time>2026-04-26T15:25:44.047Z</time></trkpt><trkpt lat="43.2622145" lon="12.6909843"><ele>361.0</ele><time>2026-04-26T15:25:45.039Z</time></trkpt><trkpt lat="43.2623445" lon="12.6913549"><ele>358.5</ele><time>2026-04-26T15:25:46.04Z</time></trkpt><trkpt lat="43.2624793" lon="12.691726"><ele>356.0</ele><time>2026-04-26T15:25:47.044Z</time></trkpt><trkpt lat="43.2626152" lon="12.6921029"><ele>356.0</ele><time>2026-04-26T15:25:48.042Z</time></trkpt><trkpt lat="43.2627513" lon="12.6924745"><ele>356.0</ele><time>2026-04-26T15:25:49.018Z</time></trkpt><trkpt lat="43.2628937" lon="12.6928412"><ele>357.0</ele><time>2026-04-26T15:25:50.034Z</time></trkpt><trkpt lat="43.2630471" lon="12.6932058"><ele>358.0</ele><time>2026-04-26T15:25:51.048Z</time></trkpt><trkpt lat="43.2632077" lon="12.6935647"><ele>360.0</ele><time>2026-04-26T15:25:52.019Z</time></trkpt><trkpt lat="43.2633839" lon="12.6939107"><ele>362.0</ele><time>2026-04-26T15:25:53.02Z</time></trkpt><trkpt lat="43.2635651" lon="12.6942416"><ele>361.0</ele><time>2026-04-26T15:25:54.027Z</time></trkpt><trkpt lat="43.2637687" lon="12.6945647"><ele>360.0</ele><time>2026-04-26T15:25:55.026Z</time></trkpt><trkpt lat="43.2639883" lon="12.6948658"><ele>360.0</ele><time>2026-04-26T15:25:56.023Z</time></trkpt><trkpt lat="43.2642219" lon="12.6951554"><ele>360.0</ele><time>2026-04-26T15:25:57.024Z</time></trkpt><trkpt lat="43.2644656" lon="12.6954246"><ele>363.5</ele><time>2026-04-26T15:25:58.03Z</time></trkpt><trkpt lat="43.2647212" lon="12.695682"><ele>367.0</ele><time>2026-04-26T15:25:59.045Z</time></trkpt><trkpt lat="43.2649854" lon="12.695913"><ele>371.5</ele><time>2026-04-26T15:26:00.022Z</time></trkpt><trkpt lat="43.2652456" lon="12.6961328"><ele>376.0</ele><time>2026-04-26T15:26:01.039Z</time></trkpt><trkpt lat="43.265509" lon="12.6963371"><ele>370.5</ele><time>2026-04-26T15:26:02.026Z</time></trkpt><trkpt lat="43.2657695" lon="12.6965338"><ele>365.0</ele><time>2026-04-26T15:26:03.043Z</time></trkpt><trkpt lat="43.2660254" lon="12.6967299"><ele>365.0</ele><time>2026-04-26T15:26:04.031Z</time></trkpt><trkpt lat="43.2662851" lon="12.6969209"><ele>365.0</ele><time>2026-04-26T15:26:05.025Z</time></trkpt><trkpt lat="43.2665411" lon="12.6971181"><ele>365.0</ele><time>2026-04-26T15:26:06.018Z</time></trkpt><trkpt lat="43.2667878" lon="12.6973096"><ele>365.0</ele><time>2026-04-26T15:26:07.039Z</time></trkpt><trkpt lat="43.2670249" lon="12.697495"><ele>365.0</ele><time>2026-04-26T15:26:08.034Z</time></trkpt><trkpt lat="43.2672559" lon="12.6976961"><ele>365.0</ele><time>2026-04-26T15:26:09.028Z</time></trkpt><trkpt lat="43.2674817" lon="12.6979146"><ele>363.5</ele><time>2026-04-26T15:26:10.04Z</time></trkpt><trkpt lat="43.2677059" lon="12.698145"><ele>362.0</ele><time>2026-04-26T15:26:11.041Z</time></trkpt><trkpt lat="43.2679226" lon="12.6983976"><ele>362.0</ele><time>2026-04-26T15:26:12.035Z</time></trkpt><trkpt lat="43.2681273" lon="12.6986608"><ele>362.0</ele><time>2026-04-26T15:26:13.031Z</time></trkpt><trkpt lat="43.2683254" lon="12.6989425"><ele>362.0</ele><time>2026-04-26T15:26:14.041Z</time></trkpt><trkpt lat="43.26851" lon="12.6992351"><ele>362.0</ele><time>2026-04-26T15:26:15.036Z</time></trkpt><trkpt lat="43.2686875" lon="12.6995472"><ele>362.0</ele><time>2026-04-26T15:26:16.023Z</time></trkpt><trkpt lat="43.2688527" lon="12.6998819"><ele>362.0</ele><time>2026-04-26T15:26:17.024Z</time></trkpt><trkpt lat="43.2690028" lon="12.7002208"><ele>364.5</ele><time>2026-04-26T15:26:18.027Z</time></trkpt><trkpt lat="43.2691432" lon="12.700572"><ele>367.0</ele><time>2026-04-26T15:26:19.047Z</time></trkpt><trkpt lat="43.2692657" lon="12.7009268"><ele>369.0</ele><time>2026-04-26T15:26:20.023Z</time></trkpt><trkpt lat="43.2693827" lon="12.7012884"><ele>371.0</ele><time>2026-04-26T15:26:21.038Z</time></trkpt><trkpt lat="43.2694923" lon="12.7016507"><ele>373.5</ele><time>2026-04-26T15:26:22.017Z</time></trkpt><trkpt lat="43.2695937" lon="12.7020218"><ele>376.0</ele><time>2026-04-26T15:26:23.037Z</time></trkpt><trkpt lat="43.2696969" lon="12.7023915"><ele>371.0</ele><time>2026-04-26T15:26:24.034Z</time></trkpt><trkpt lat="43.2698046" lon="12.7027621"><ele>366.0</ele><time>2026-04-26T15:26:25.046Z</time></trkpt><trkpt lat="43.269916" lon="12.7031341"><ele>366.0</ele><time>2026-04-26T15:26:26.023Z</time></trkpt><trkpt lat="43.2700287" lon="12.7035032"><ele>366.0</ele><time>2026-04-26T15:26:27.029Z</time></trkpt><trkpt lat="43.2701406" lon="12.7038771"><ele>367.5</ele><time>2026-04-26T15:26:28.028Z</time></trkpt><trkpt lat="43.2702476" lon="12.7042591"><ele>369.0</ele><time>2026-04-26T15:26:29.024Z</time></trkpt><trkpt lat="43.2703535" lon="12.7046463"><ele>373.5</ele><time>2026-04-26T15:26:30.015Z</time></trkpt><trkpt lat="43.2704593" lon="12.7050403"><ele>378.0</ele><time>2026-04-26T15:26:31.036Z</time></trkpt><trkpt lat="43.2705661" lon="12.7054379"><ele>373.5</ele><time>2026-04-26T15:26:32.031Z</time></trkpt><trkpt lat="43.27068" lon="12.7058354"><ele>369.0</ele><time>2026-04-26T15:26:33.042Z</time></trkpt><trkpt lat="43.2708008" lon="12.7062301"><ele>369.0</ele><time>2026-04-26T15:26:34.029Z</time></trkpt><trkpt lat="43.2709358" lon="12.7066115"><ele>369.0</ele><time>2026-04-26T15:26:35.036Z</time></trkpt><trkpt lat="43.2710856" lon="12.7069821"><ele>369.5</ele><time>2026-04-26T15:26:36.031Z</time></trkpt><trkpt lat="43.2712608" lon="12.7073442"><ele>370.0</ele><time>2026-04-26T15:26:37.03Z</time></trkpt><trkpt lat="43.2714419" lon="12.7076975"><ele>372.0</ele><time>2026-04-26T15:26:38.028Z</time></trkpt><trkpt lat="43.2716263" lon="12.7080112"><ele>374.0</ele><time>2026-04-26T15:26:39.019Z</time></trkpt><trkpt lat="43.2718077" lon="12.7082875"><ele>374.0</ele><time>2026-04-26T15:26:40.034Z</time></trkpt><trkpt lat="43.2719865" lon="12.7085389"><ele>374.0</ele><time>2026-04-26T15:26:41.036Z</time></trkpt><trkpt lat="43.272164" lon="12.7087554"><ele>373.33333333333337</ele><time>2026-04-26T15:26:42.025Z</time></trkpt><trkpt lat="43.2723341" lon="12.7089571"><ele>372.6666666666667</ele><time>2026-04-26T15:26:43.035Z</time></trkpt><trkpt lat="43.2724929" lon="12.7091287"><ele>372.0</ele><time>2026-04-26T15:26:44.026Z</time></trkpt><trkpt lat="43.2726484" lon="12.7092856"><ele>374.6666666666667</ele><time>2026-04-26T15:26:45.031Z</time></trkpt><trkpt lat="43.2727892" lon="12.7094229"><ele>377.33333333333337</ele><time>2026-04-26T15:26:46.03Z</time></trkpt><trkpt lat="43.2729234" lon="12.7095473"><ele>380.0</ele><time>2026-04-26T15:26:47.042Z</time></trkpt><trkpt lat="43.273047" lon="12.7096619"><ele>378.4</ele><time>2026-04-26T15:26:48.047Z</time></trkpt><trkpt lat="43.273158" lon="12.7097605"><ele>376.8</ele><time>2026-04-26T15:26:49.037Z</time></trkpt><trkpt lat="43.2732603" lon="12.7098514"><ele>375.20000000000005</ele><time>2026-04-26T15:26:50.015Z</time></trkpt><trkpt lat="43.2733424" lon="12.7099277"><ele>373.6</ele><time>2026-04-26T15:26:51.028Z</time></trkpt><trkpt lat="43.2734204" lon="12.709992"><ele>372.0</ele><time>2026-04-26T15:26:52.039Z</time></trkpt><trkpt lat="43.2734958" lon="12.7100499"><ele>372.0</ele><time>2026-04-26T15:26:53.031Z</time></trkpt><trkpt lat="43.273572" lon="12.7101014"><ele>372.0</ele><time>2026-04-26T15:26:54.039Z</time></trkpt><trkpt lat="43.2736505" lon="12.7101492"><ele>372.0</ele><time>2026-04-26T15:26:55.034Z</time></trkpt><trkpt lat="43.2737293" lon="12.7102094"><ele>372.0</ele><time>2026-04-26T15:26:56.029Z</time></trkpt><trkpt lat="43.2738125" lon="12.7102834"><ele>372.0</ele><time>2026-04-26T15:26:57.032Z</time></trkpt><trkpt lat="43.2739024" lon="12.7103694"><ele>373.25</ele><time>2026-04-26T15:26:58.038Z</time></trkpt><trkpt lat="43.2739954" lon="12.7104621"><ele>374.5</ele><time>2026-04-26T15:26:59.041Z</time></trkpt><trkpt lat="43.2740987" lon="12.710561"><ele>375.75</ele><time>2026-04-26T15:27:00.026Z</time></trkpt><trkpt lat="43.2742065" lon="12.710669"><ele>377.0</ele><time>2026-04-26T15:27:01.034Z</time></trkpt><trkpt lat="43.2743135" lon="12.7107888"><ele>377.0</ele><time>2026-04-26T15:27:02.055Z</time></trkpt><trkpt lat="43.2744194" lon="12.7109065"><ele>377.0</ele><time>2026-04-26T15:27:03.035Z</time></trkpt><trkpt lat="43.274526" lon="12.7110298"><ele>377.0</ele><time>2026-04-26T15:27:04.029Z</time></trkpt><trkpt lat="43.2746335" lon="12.7111622"><ele>377.0</ele><time>2026-04-26T15:27:05.024Z</time></trkpt><trkpt lat="43.2747388" lon="12.711302"><ele>377.33333333333337</ele><time>2026-04-26T15:27:06.04Z</time></trkpt><trkpt lat="43.2748422" lon="12.7114477"><ele>377.6666666666667</ele><time>2026-04-26T15:27:07.038Z</time></trkpt><trkpt lat="43.2749445" lon="12.7116048"><ele>378.0</ele><time>2026-04-26T15:27:08.013Z</time></trkpt><trkpt lat="43.2750485" lon="12.711769"><ele>382.66666666666663</ele><time>2026-04-26T15:27:09.036Z</time></trkpt><trkpt lat="43.2751457" lon="12.7119273"><ele>387.3333333333333</ele><time>2026-04-26T15:27:10.01Z</time></trkpt><trkpt lat="43.275239" lon="12.7121034"><ele>392.0</ele><time>2026-04-26T15:27:11.028Z</time></trkpt><trkpt lat="43.2753417" lon="12.7122717"><ele>392.0</ele><time>2026-04-26T15:27:12.001Z</time></trkpt><trkpt lat="43.2754285" lon="12.7124347"><ele>392.0</ele><time>2026-04-26T15:27:13.005Z</time></trkpt><trkpt lat="43.2757534" lon="12.7132692"><ele>390.0</ele><time>2026-04-26T15:27:20.006Z</time></trkpt><trkpt lat="43.275904" lon="12.7138198"><ele>388.0</ele><time>2026-04-26T15:27:21.011Z</time></trkpt><trkpt lat="43.2759937" lon="12.7140313"><ele>388.0</ele><time>2026-04-26T15:27:22.01Z</time></trkpt><trkpt lat="43.2760633" lon="12.7142296"><ele>388.0</ele><time>2026-04-26T15:27:23.009Z</time></trkpt><trkpt lat="43.2761147" lon="12.7144172"><ele>388.0</ele><time>2026-04-26T15:27:24.023Z</time></trkpt><trkpt lat="43.2761601" lon="12.7146137"><ele>387.33333333333337</ele><time>2026-04-26T15:27:25.012Z</time></trkpt><trkpt lat="43.2762162" lon="12.7148142"><ele>386.66666666666663</ele><time>2026-04-26T15:27:26.01Z</time></trkpt><trkpt lat="43.2762685" lon="12.7150094"><ele>386.0</ele><time>2026-04-26T15:27:27.018Z</time></trkpt><trkpt lat="43.2763135" lon="12.7152083"><ele>385.66666666666663</ele><time>2026-04-26T15:27:28.01Z</time></trkpt><trkpt lat="43.2763576" lon="12.7154025"><ele>385.33333333333337</ele><time>2026-04-26T15:27:29.018Z</time></trkpt><trkpt lat="43.2764015" lon="12.7155994"><ele>385.0</ele><time>2026-04-26T15:27:30.016Z</time></trkpt><trkpt lat="43.2764482" lon="12.7158031"><ele>384.33333333333337</ele><time>2026-04-26T15:27:31.039Z</time></trkpt><trkpt lat="43.2765018" lon="12.7160082"><ele>383.6666666666667</ele><time>2026-04-26T15:27:32.024Z</time></trkpt><trkpt lat="43.2765544" lon="12.7162194"><ele>383.0</ele><time>2026-04-26T15:27:33.045Z</time></trkpt><trkpt lat="43.2766079" lon="12.7164328"><ele>384.33333333333337</ele><time>2026-04-26T15:27:34.038Z</time></trkpt><trkpt lat="43.2766624" lon="12.7166523"><ele>385.6666666666667</ele><time>2026-04-26T15:27:35.032Z</time></trkpt><trkpt lat="43.2767162" lon="12.7168745"><ele>387.0</ele><time>2026-04-26T15:27:36.013Z</time></trkpt><trkpt lat="43.2767691" lon="12.7170989"><ele>388.0</ele><time>2026-04-26T15:27:37.033Z</time></trkpt><trkpt lat="43.2768226" lon="12.7173212"><ele>389.0</ele><time>2026-04-26T15:27:38.016Z</time></trkpt><trkpt lat="43.2768761" lon="12.7175451"><ele>390.0</ele><time>2026-04-26T15:27:39.032Z</time></trkpt><trkpt lat="43.2769325" lon="12.7177675"><ele>391.66666666666663</ele><time>2026-04-26T15:27:40.026Z</time></trkpt><trkpt lat="43.2769891" lon="12.7179819"><ele>393.3333333333333</ele><time>2026-04-26T15:27:41.017Z</time></trkpt><trkpt lat="43.277047" lon="12.7181947"><ele>395.0</ele><time>2026-04-26T15:27:42.031Z</time></trkpt><trkpt lat="43.2771085" lon="12.7184099"><ele>396.66666666666663</ele><time>2026-04-26T15:27:43.029Z</time></trkpt><trkpt lat="43.2771726" lon="12.7186155"><ele>398.33333333333337</ele><time>2026-04-26T15:27:44.04Z</time></trkpt><trkpt lat="43.2772398" lon="12.7188173"><ele>400.0</ele><time>2026-04-26T15:27:45.02Z</time></trkpt><trkpt lat="43.2773086" lon="12.7190261"><ele>402.0</ele><time>2026-04-26T15:27:46.007Z</time></trkpt><trkpt lat="43.2773938" lon="12.7192176"><ele>404.0</ele><time>2026-04-26T15:27:47.039Z</time></trkpt><trkpt lat="43.2774832" lon="12.7194088"><ele>406.0</ele><time>2026-04-26T15:27:48.034Z</time></trkpt><trkpt lat="43.2775697" lon="12.7196066"><ele>406.0</ele><time>2026-04-26T15:27:49.031Z</time></trkpt><trkpt lat="43.2776733" lon="12.7198044"><ele>406.0</ele><time>2026-04-26T15:27:50.02Z</time></trkpt><trkpt lat="43.2777776" lon="12.7200121"><ele>406.0</ele><time>2026-04-26T15:27:51.028Z</time></trkpt><trkpt lat="43.2778853" lon="12.7202259"><ele>405.0</ele><time>2026-04-26T15:27:52.027Z</time></trkpt><trkpt lat="43.2779992" lon="12.7204323"><ele>404.0</ele><time>2026-04-26T15:27:53.014Z</time></trkpt><trkpt lat="43.2781229" lon="12.7206392"><ele>403.0</ele><time>2026-04-26T15:27:54.01Z</time></trkpt><trkpt lat="43.2782591" lon="12.72084"><ele>403.0</ele><time>2026-04-26T15:27:55.009Z</time></trkpt><trkpt lat="43.2784027" lon="12.7210363"><ele>403.0</ele><time>2026-04-26T15:27:56.022Z</time></trkpt><trkpt lat="43.2785574" lon="12.7212281"><ele>403.0</ele><time>2026-04-26T15:27:57.035Z</time></trkpt><trkpt lat="43.2787176" lon="12.7214149"><ele>402.33333333333337</ele><time>2026-04-26T15:27:58.025Z</time></trkpt><trkpt lat="43.2788831" lon="12.7215978"><ele>401.66666666666663</ele><time>2026-04-26T15:27:59.035Z</time></trkpt><trkpt lat="43.2790559" lon="12.7217734"><ele>401.0</ele><time>2026-04-26T15:28:00.028Z</time></trkpt><trkpt lat="43.2792349" lon="12.7219335"><ele>399.0</ele><time>2026-04-26T15:28:01.037Z</time></trkpt><trkpt lat="43.2794166" lon="12.7220847"><ele>397.0</ele><time>2026-04-26T15:28:02.038Z</time></trkpt><trkpt lat="43.2796039" lon="12.7222375"><ele>395.0</ele><time>2026-04-26T15:28:03.038Z</time></trkpt><trkpt lat="43.279794" lon="12.7223816"><ele>394.66666666666663</ele><time>2026-04-26T15:28:04.031Z</time></trkpt><trkpt lat="43.2799831" lon="12.7225229"><ele>394.33333333333337</ele><time>2026-04-26T15:28:05.045Z</time></trkpt><trkpt lat="43.2801641" lon="12.7226453"><ele>394.0</ele><time>2026-04-26T15:28:06.036Z</time></trkpt><trkpt lat="43.2803335" lon="12.7227604"><ele>393.0</ele><time>2026-04-26T15:28:07.024Z</time></trkpt><trkpt lat="43.2804989" lon="12.7228674"><ele>392.0</ele><time>2026-04-26T15:28:08.039Z</time></trkpt><trkpt lat="43.2806626" lon="12.7229743"><ele>391.0</ele><time>2026-04-26T15:28:09.033Z</time></trkpt><trkpt lat="43.2808263" lon="12.7230781"><ele>390.0</ele><time>2026-04-26T15:28:10.023Z</time></trkpt><trkpt lat="43.2809945" lon="12.7231837"><ele>389.0</ele><time>2026-04-26T15:28:11.033Z</time></trkpt><trkpt lat="43.2811619" lon="12.7232917"><ele>388.0</ele><time>2026-04-26T15:28:12.025Z</time></trkpt><trkpt lat="43.281331" lon="12.7234065"><ele>386.33333333333337</ele><time>2026-04-26T15:28:13.04Z</time></trkpt><trkpt lat="43.2815049" lon="12.7235254"><ele>384.6666666666667</ele><time>2026-04-26T15:28:14.03Z</time></trkpt><trkpt lat="43.281678" lon="12.7236409"><ele>383.0</ele><time>2026-04-26T15:28:15.025Z</time></trkpt><trkpt lat="43.2818588" lon="12.7237568"><ele>382.6666666666667</ele><time>2026-04-26T15:28:16.021Z</time></trkpt><trkpt lat="43.2820432" lon="12.7238754"><ele>382.3333333333333</ele><time>2026-04-26T15:28:17.03Z</time></trkpt><trkpt lat="43.2822273" lon="12.7239977"><ele>382.0</ele><time>2026-04-26T15:28:18.034Z</time></trkpt><trkpt lat="43.282413" lon="12.7241232"><ele>382.0</ele><time>2026-04-26T15:28:19.041Z</time></trkpt><trkpt lat="43.282601" lon="12.724245"><ele>382.0</ele><time>2026-04-26T15:28:20.046Z</time></trkpt><trkpt lat="43.2827878" lon="12.7243649"><ele>382.0</ele><time>2026-04-26T15:28:21.047Z</time></trkpt><trkpt lat="43.2829782" lon="12.7244885"><ele>381.66666666666663</ele><time>2026-04-26T15:28:22.036Z</time></trkpt><trkpt lat="43.2831689" lon="12.7246167"><ele>381.3333333333333</ele><time>2026-04-26T15:28:23.039Z</time></trkpt><trkpt lat="43.2833582" lon="12.7247459"><ele>381.0</ele><time>2026-04-26T15:28:24.033Z</time></trkpt><trkpt lat="43.2835481" lon="12.7248739"><ele>381.0</ele><time>2026-04-26T15:28:25.034Z</time></trkpt><trkpt lat="43.2837366" lon="12.7249995"><ele>381.0</ele><time>2026-04-26T15:28:26.034Z</time></trkpt><trkpt lat="43.2839267" lon="12.7251275"><ele>381.0</ele><time>2026-04-26T15:28:27.043Z</time></trkpt><trkpt lat="43.2841121" lon="12.7252592"><ele>383.0</ele><time>2026-04-26T15:28:28.029Z</time></trkpt><trkpt lat="43.2842896" lon="12.7253942"><ele>385.0</ele><time>2026-04-26T15:28:29.023Z</time></trkpt><trkpt lat="43.284472" lon="12.7255413"><ele>387.0</ele><time>2026-04-26T15:28:30.018Z</time></trkpt><trkpt lat="43.284653" lon="12.7256828"><ele>387.33333333333337</ele><time>2026-04-26T15:28:31.025Z</time></trkpt><trkpt lat="43.2848297" lon="12.7258449"><ele>387.6666666666667</ele><time>2026-04-26T15:28:32.016Z</time></trkpt><trkpt lat="43.2850032" lon="12.7260168"><ele>388.0</ele><time>2026-04-26T15:28:33.029Z</time></trkpt><trkpt lat="43.2851741" lon="12.7261924"><ele>388.0</ele><time>2026-04-26T15:28:34.027Z</time></trkpt><trkpt lat="43.2853397" lon="12.72637"><ele>388.0</ele><time>2026-04-26T15:28:35.021Z</time></trkpt><trkpt lat="43.2855021" lon="12.7265478"><ele>388.0</ele><time>2026-04-26T15:28:36.03Z</time></trkpt><trkpt lat="43.2856593" lon="12.7267317"><ele>387.6666666666667</ele><time>2026-04-26T15:28:37.034Z</time></trkpt><trkpt lat="43.2858054" lon="12.7269202"><ele>387.33333333333337</ele><time>2026-04-26T15:28:38.029Z</time></trkpt><trkpt lat="43.2859505" lon="12.7271124"><ele>387.0</ele><time>2026-04-26T15:28:39.036Z</time></trkpt><trkpt lat="43.286084" lon="12.7273112"><ele>387.0</ele><time>2026-04-26T15:28:40.023Z</time></trkpt><trkpt lat="43.2862147" lon="12.72752"><ele>387.0</ele><time>2026-04-26T15:28:41.038Z</time></trkpt><trkpt lat="43.28634" lon="12.7277257"><ele>387.0</ele><time>2026-04-26T15:28:42.026Z</time></trkpt><trkpt lat="43.2864596" lon="12.727937"><ele>388.33333333333337</ele><time>2026-04-26T15:28:43.031Z</time></trkpt><trkpt lat="43.2865816" lon="12.7281513"><ele>389.6666666666667</ele><time>2026-04-26T15:28:44.033Z</time></trkpt><trkpt lat="43.2866925" lon="12.7283668"><ele>391.0</ele><time>2026-04-26T15:28:45.04Z</time></trkpt><trkpt lat="43.2867988" lon="12.7285857"><ele>391.6666666666667</ele><time>2026-04-26T15:28:46.031Z</time></trkpt><trkpt lat="43.2869025" lon="12.7288079"><ele>392.33333333333337</ele><time>2026-04-26T15:28:47.034Z</time></trkpt><trkpt lat="43.2870037" lon="12.7290278"><ele>393.0</ele><time>2026-04-26T15:28:48.034Z</time></trkpt><trkpt lat="43.2870995" lon="12.7292517"><ele>393.0</ele><time>2026-04-26T15:28:49.02Z</time></trkpt><trkpt lat="43.2871966" lon="12.7294769"><ele>393.0</ele><time>2026-04-26T15:28:50.028Z</time></trkpt><trkpt lat="43.2872922" lon="12.7297047"><ele>393.0</ele><time>2026-04-26T15:28:51.033Z</time></trkpt><trkpt lat="43.2873878" lon="12.7299387"><ele>393.0</ele><time>2026-04-26T15:28:52.032Z</time></trkpt><trkpt lat="43.2874777" lon="12.7301729"><ele>393.0</ele><time>2026-04-26T15:28:53.04Z</time></trkpt><trkpt lat="43.2875713" lon="12.7304096"><ele>393.0</ele><time>2026-04-26T15:28:54.045Z</time></trkpt><trkpt lat="43.2876641" lon="12.7306425"><ele>393.0</ele><time>2026-04-26T15:28:55.045Z</time></trkpt><trkpt lat="43.2877563" lon="12.7308762"><ele>393.0</ele><time>2026-04-26T15:28:56.023Z</time></trkpt><trkpt lat="43.2878454" lon="12.7311048"><ele>393.0</ele><time>2026-04-26T15:28:57.031Z</time></trkpt><trkpt lat="43.2879357" lon="12.7313357"><ele>393.33333333333337</ele><time>2026-04-26T15:28:58.036Z</time></trkpt><trkpt lat="43.2880259" lon="12.7315629"><ele>393.6666666666667</ele><time>2026-04-26T15:28:59.032Z</time></trkpt><trkpt lat="43.2881202" lon="12.7317935"><ele>394.0</ele><time>2026-04-26T15:29:00.035Z</time></trkpt><trkpt lat="43.2882148" lon="12.732022"><ele>395.33333333333337</ele><time>2026-04-26T15:29:01.038Z</time></trkpt><trkpt lat="43.2883027" lon="12.7322414"><ele>396.66666666666663</ele><time>2026-04-26T15:29:02.038Z</time></trkpt><trkpt lat="43.2883877" lon="12.7324551"><ele>398.0</ele><time>2026-04-26T15:29:03.04Z</time></trkpt><trkpt lat="43.2884685" lon="12.7326645"><ele>398.0</ele><time>2026-04-26T15:29:04.021Z</time></trkpt><trkpt lat="43.2885467" lon="12.7328664"><ele>398.0</ele><time>2026-04-26T15:29:05.035Z</time></trkpt><trkpt lat="43.2886222" lon="12.7330673"><ele>398.0</ele><time>2026-04-26T15:29:06.047Z</time></trkpt><trkpt lat="43.2886961" lon="12.7332747"><ele>398.0</ele><time>2026-04-26T15:29:07.032Z</time></trkpt><trkpt lat="43.2887683" lon="12.7334855"><ele>398.0</ele><time>2026-04-26T15:29:08.034Z</time></trkpt><trkpt lat="43.2888395" lon="12.7337041"><ele>398.0</ele><time>2026-04-26T15:29:09.04Z</time></trkpt><trkpt lat="43.2889177" lon="12.7339337"><ele>398.0</ele><time>2026-04-26T15:29:10.039Z</time></trkpt><trkpt lat="43.2890084" lon="12.7341658"><ele>398.0</ele><time>2026-04-26T15:29:11.049Z</time></trkpt><trkpt lat="43.2891083" lon="12.7344125"><ele>398.0</ele><time>2026-04-26T15:29:12.035Z</time></trkpt><trkpt lat="43.289215" lon="12.7346807"><ele>398.0</ele><time>2026-04-26T15:29:13.039Z</time></trkpt><trkpt lat="43.2893311" lon="12.7349548"><ele>398.0</ele><time>2026-04-26T15:29:14.02Z</time></trkpt><trkpt lat="43.2894551" lon="12.7352328"><ele>398.0</ele><time>2026-04-26T15:29:15.036Z</time></trkpt><trkpt lat="43.2895913" lon="12.7355175"><ele>398.0</ele><time>2026-04-26T15:29:16.031Z</time></trkpt><trkpt lat="43.2897397" lon="12.735804"><ele>400.0</ele><time>2026-04-26T15:29:17.04Z</time></trkpt><trkpt lat="43.2898971" lon="12.7360848"><ele>402.0</ele><time>2026-04-26T15:29:18.043Z</time></trkpt><trkpt lat="43.2900647" lon="12.736356"><ele>402.0</ele><time>2026-04-26T15:29:19.04Z</time></trkpt><trkpt lat="43.2902488" lon="12.736626"><ele>402.0</ele><time>2026-04-26T15:29:20.013Z</time></trkpt><trkpt lat="43.2904435" lon="12.7368869"><ele>404.0</ele><time>2026-04-26T15:29:21.036Z</time></trkpt><trkpt lat="43.2906557" lon="12.7371459"><ele>406.0</ele><time>2026-04-26T15:29:22.037Z</time></trkpt><trkpt lat="43.2908757" lon="12.7373926"><ele>406.0</ele><time>2026-04-26T15:29:23.035Z</time></trkpt><trkpt lat="43.2910966" lon="12.7376469"><ele>406.0</ele><time>2026-04-26T15:29:24.03Z</time></trkpt><trkpt lat="43.2913248" lon="12.7378906"><ele>409.0</ele><time>2026-04-26T15:29:25.027Z</time></trkpt><trkpt lat="43.2915583" lon="12.7381228"><ele>412.0</ele><time>2026-04-26T15:29:26.059Z</time></trkpt><trkpt lat="43.2917933" lon="12.7383585"><ele>413.0</ele><time>2026-04-26T15:29:27.035Z</time></trkpt><trkpt lat="43.2920322" lon="12.7385946"><ele>414.0</ele><time>2026-04-26T15:29:28.019Z</time></trkpt><trkpt lat="43.2922666" lon="12.7388337"><ele>416.0</ele><time>2026-04-26T15:29:29.023Z</time></trkpt><trkpt lat="43.2924967" lon="12.7390735"><ele>418.0</ele><time>2026-04-26T15:29:30.022Z</time></trkpt><trkpt lat="43.2927302" lon="12.7393126"><ele>418.5</ele><time>2026-04-26T15:29:31.029Z</time></trkpt><trkpt lat="43.2929651" lon="12.73955"><ele>419.0</ele><time>2026-04-26T15:29:32.032Z</time></trkpt><trkpt lat="43.2932037" lon="12.7397872"><ele>422.5</ele><time>2026-04-26T15:29:33.039Z</time></trkpt><trkpt lat="43.2934431" lon="12.7400213"><ele>426.0</ele><time>2026-04-26T15:29:34.039Z</time></trkpt><trkpt lat="43.2936812" lon="12.7402607"><ele>433.0</ele><time>2026-04-26T15:29:35.029Z</time></trkpt><trkpt lat="43.2939219" lon="12.7404958"><ele>440.0</ele><time>2026-04-26T15:29:36.035Z</time></trkpt><trkpt lat="43.2941566" lon="12.740731"><ele>440.0</ele><time>2026-04-26T15:29:37.018Z</time></trkpt><trkpt lat="43.2953486" lon="12.7419645"><ele>440.0</ele><time>2026-04-26T15:29:42.026Z</time></trkpt><trkpt lat="43.2955847" lon="12.7422493"><ele>440.0</ele><time>2026-04-26T15:29:43.012Z</time></trkpt><trkpt lat="43.2957896" lon="12.742551"><ele>441.0</ele><time>2026-04-26T15:29:44.019Z</time></trkpt><trkpt lat="43.2959874" lon="12.7428627"><ele>442.0</ele><time>2026-04-26T15:29:45.03Z</time></trkpt><trkpt lat="43.2961678" lon="12.7431863"><ele>442.0</ele><time>2026-04-26T15:29:46.033Z</time></trkpt><trkpt lat="43.2963436" lon="12.7435157"><ele>442.0</ele><time>2026-04-26T15:29:47.027Z</time></trkpt><trkpt lat="43.2965158" lon="12.7438542"><ele>441.5</ele><time>2026-04-26T15:29:48.03Z</time></trkpt><trkpt lat="43.2966856" lon="12.7442029"><ele>441.0</ele><time>2026-04-26T15:29:49.042Z</time></trkpt><trkpt lat="43.296851" lon="12.7445524"><ele>444.0</ele><time>2026-04-26T15:29:50.036Z</time></trkpt><trkpt lat="43.2970152" lon="12.7449055"><ele>447.0</ele><time>2026-04-26T15:29:51.039Z</time></trkpt><trkpt lat="43.2971793" lon="12.7452569"><ele>447.0</ele><time>2026-04-26T15:29:52.029Z</time></trkpt><trkpt lat="43.2973447" lon="12.7456127"><ele>447.0</ele><time>2026-04-26T15:29:53.029Z</time></trkpt><trkpt lat="43.297513" lon="12.7459684"><ele>451.5</ele><time>2026-04-26T15:29:54.025Z</time></trkpt><trkpt lat="43.2976788" lon="12.7463288"><ele>456.0</ele><time>2026-04-26T15:29:55.041Z</time></trkpt><trkpt lat="43.2978462" lon="12.7466896"><ele>456.5</ele><time>2026-04-26T15:29:56.041Z</time></trkpt><trkpt lat="43.2980169" lon="12.7470532"><ele>457.0</ele><time>2026-04-26T15:29:57.038Z</time></trkpt><trkpt lat="43.2981896" lon="12.7474185"><ele>458.5</ele><time>2026-04-26T15:29:58.035Z</time></trkpt><trkpt lat="43.2983599" lon="12.747783"><ele>460.0</ele><time>2026-04-26T15:29:59.03Z</time></trkpt><trkpt lat="43.298534" lon="12.7481572"><ele>460.0</ele><time>2026-04-26T15:30:00.04Z</time></trkpt><trkpt lat="43.2987122" lon="12.7485314"><ele>460.0</ele><time>2026-04-26T15:30:01.033Z</time></trkpt><trkpt lat="43.2988889" lon="12.7489029"><ele>459.0</ele><time>2026-04-26T15:30:02.03Z</time></trkpt><trkpt lat="43.2990612" lon="12.7492728"><ele>458.0</ele><time>2026-04-26T15:30:03.037Z</time></trkpt><trkpt lat="43.2992274" lon="12.7496427"><ele>461.0</ele><time>2026-04-26T15:30:04.041Z</time></trkpt><trkpt lat="43.2993808" lon="12.7500104"><ele>464.0</ele><time>2026-04-26T15:30:05.037Z</time></trkpt><trkpt lat="43.2995286" lon="12.7503781"><ele>462.0</ele><time>2026-04-26T15:30:06.023Z</time></trkpt><trkpt lat="43.299663" lon="12.7507489"><ele>460.0</ele><time>2026-04-26T15:30:07.03Z</time></trkpt><trkpt lat="43.299778" lon="12.7511256"><ele>460.0</ele><time>2026-04-26T15:30:08.041Z</time></trkpt><trkpt lat="43.299876" lon="12.7515128"><ele>460.0</ele><time>2026-04-26T15:30:09.026Z</time></trkpt><trkpt lat="43.2999602" lon="12.7519064"><ele>462.0</ele><time>2026-04-26T15:30:10.032Z</time></trkpt><trkpt lat="43.3000249" lon="12.7523079"><ele>464.0</ele><time>2026-04-26T15:30:11.03Z</time></trkpt><trkpt lat="43.3000746" lon="12.7527157"><ele>465.0</ele><time>2026-04-26T15:30:12.022Z</time></trkpt><trkpt lat="43.3001095" lon="12.7531342"><ele>466.0</ele><time>2026-04-26T15:30:13.033Z</time></trkpt><trkpt lat="43.3001319" lon="12.7535626"><ele>469.0</ele><time>2026-04-26T15:30:14.028Z</time></trkpt><trkpt lat="43.3001402" lon="12.7539956"><ele>472.0</ele><time>2026-04-26T15:30:15.041Z</time></trkpt><trkpt lat="43.300137" lon="12.7544339"><ele>472.0</ele><time>2026-04-26T15:30:16.031Z</time></trkpt><trkpt lat="43.3001283" lon="12.7548788"><ele>472.0</ele><time>2026-04-26T15:30:17.037Z</time></trkpt><trkpt lat="43.3001223" lon="12.7553217"><ele>469.0</ele><time>2026-04-26T15:30:18.031Z</time></trkpt><trkpt lat="43.3001233" lon="12.7557632"><ele>466.0</ele><time>2026-04-26T15:30:19.032Z</time></trkpt><trkpt lat="43.3001316" lon="12.756207"><ele>465.0</ele><time>2026-04-26T15:30:20.037Z</time></trkpt><trkpt lat="43.3001458" lon="12.7566538"><ele>464.0</ele><time>2026-04-26T15:30:21.035Z</time></trkpt><trkpt lat="43.300165" lon="12.7571063"><ele>462.0</ele><time>2026-04-26T15:30:22.032Z</time></trkpt><trkpt lat="43.3001902" lon="12.7575606"><ele>460.0</ele><time>2026-04-26T15:30:23.041Z</time></trkpt><trkpt lat="43.3002109" lon="12.7580211"><ele>459.5</ele><time>2026-04-26T15:30:24.044Z</time></trkpt><trkpt lat="43.3002282" lon="12.7584791"><ele>459.0</ele><time>2026-04-26T15:30:25.037Z</time></trkpt><trkpt lat="43.3002481" lon="12.7589344"><ele>469.5</ele><time>2026-04-26T15:30:26.045Z</time></trkpt><trkpt lat="43.3002678" lon="12.7593921"><ele>480.0</ele><time>2026-04-26T15:30:27.038Z</time></trkpt><trkpt lat="43.3002815" lon="12.7598461"><ele>483.0</ele><time>2026-04-26T15:30:28.034Z</time></trkpt><trkpt lat="43.3003005" lon="12.7602952"><ele>486.0</ele><time>2026-04-26T15:30:29.016Z</time></trkpt><trkpt lat="43.3003196" lon="12.7607366"><ele>487.0</ele><time>2026-04-26T15:30:30.015Z</time></trkpt><trkpt lat="43.3003401" lon="12.7611646"><ele>488.0</ele><time>2026-04-26T15:30:31.038Z</time></trkpt><trkpt lat="43.3003588" lon="12.761587"><ele>487.5</ele><time>2026-04-26T15:30:32.034Z</time></trkpt><trkpt lat="43.3003787" lon="12.7620022"><ele>487.0</ele><time>2026-04-26T15:30:33.038Z</time></trkpt><trkpt lat="43.3003955" lon="12.7624054"><ele>486.5</ele><time>2026-04-26T15:30:34.03Z</time></trkpt><trkpt lat="43.3004117" lon="12.7627998"><ele>486.0</ele><time>2026-04-26T15:30:35.014Z</time></trkpt><trkpt lat="43.3004284" lon="12.7631902"><ele>485.5</ele><time>2026-04-26T15:30:36.03Z</time></trkpt><trkpt lat="43.3004418" lon="12.7635783"><ele>485.0</ele><time>2026-04-26T15:30:37.04Z</time></trkpt><trkpt lat="43.3004575" lon="12.7639635"><ele>485.0</ele><time>2026-04-26T15:30:38.027Z</time></trkpt><trkpt lat="43.3004847" lon="12.7643494"><ele>485.0</ele><time>2026-04-26T15:30:39.053Z</time></trkpt><trkpt lat="43.3005316" lon="12.7647287"><ele>490.5</ele><time>2026-04-26T15:30:40.036Z</time></trkpt><trkpt lat="43.3006014" lon="12.7651018"><ele>496.0</ele><time>2026-04-26T15:30:41.035Z</time></trkpt><trkpt lat="43.3006986" lon="12.7654757"><ele>496.0</ele><time>2026-04-26T15:30:42.023Z</time></trkpt><trkpt lat="43.3008285" lon="12.7658267"><ele>496.0</ele><time>2026-04-26T15:30:43.026Z</time></trkpt><trkpt lat="43.3009883" lon="12.7661598"><ele>493.0</ele><time>2026-04-26T15:30:44.03Z</time></trkpt><trkpt lat="43.301165" lon="12.7664755"><ele>490.0</ele><time>2026-04-26T15:30:45.041Z</time></trkpt><trkpt lat="43.3013569" lon="12.7667848"><ele>488.5</ele><time>2026-04-26T15:30:46.019Z</time></trkpt><trkpt lat="43.3015561" lon="12.7670865"><ele>487.0</ele><time>2026-04-26T15:30:47.031Z</time></trkpt><trkpt lat="43.3017546" lon="12.7674015"><ele>488.0</ele><time>2026-04-26T15:30:48.029Z</time></trkpt><trkpt lat="43.3019412" lon="12.767734"><ele>489.0</ele><time>2026-04-26T15:30:49.027Z</time></trkpt><trkpt lat="43.3021122" lon="12.768091"><ele>493.5</ele><time>2026-04-26T15:30:50.03Z</time></trkpt><trkpt lat="43.3022606" lon="12.768471"><ele>498.0</ele><time>2026-04-26T15:30:51.033Z</time></trkpt><trkpt lat="43.3023904" lon="12.7688657"><ele>498.0</ele><time>2026-04-26T15:30:52.022Z</time></trkpt><trkpt lat="43.3024976" lon="12.7692842"><ele>498.0</ele><time>2026-04-26T15:30:53.032Z</time></trkpt><trkpt lat="43.3025822" lon="12.7697146"><ele>498.0</ele><time>2026-04-26T15:30:54.026Z</time></trkpt><trkpt lat="43.3026433" lon="12.7701419"><ele>498.0</ele><time>2026-04-26T15:30:55.03Z</time></trkpt><trkpt lat="43.302692" lon="12.7705839"><ele>498.5</ele><time>2026-04-26T15:30:56.019Z</time></trkpt><trkpt lat="43.3027345" lon="12.7710295"><ele>499.0</ele><time>2026-04-26T15:30:57.03Z</time></trkpt><trkpt lat="43.3027792" lon="12.771493"><ele>501.0</ele><time>2026-04-26T15:30:58.028Z</time></trkpt><trkpt lat="43.3028152" lon="12.7719585"><ele>503.0</ele><time>2026-04-26T15:30:59.023Z</time></trkpt><trkpt lat="43.302836" lon="12.7724282"><ele>505.5</ele><time>2026-04-26T15:31:00.033Z</time></trkpt><trkpt lat="43.3028293" lon="12.7728832"><ele>508.0</ele><time>2026-04-26T15:31:01.048Z</time></trkpt><trkpt lat="43.3027936" lon="12.7733352"><ele>513.0</ele><time>2026-04-26T15:31:02.002Z</time></trkpt><trkpt lat="43.3027257" lon="12.77378"><ele>518.0</ele><time>2026-04-26T15:31:03.025Z</time></trkpt><trkpt lat="43.3026286" lon="12.7742115"><ele>520.5</ele><time>2026-04-26T15:31:04.032Z</time></trkpt><trkpt lat="43.3025166" lon="12.7746596"><ele>523.0</ele><time>2026-04-26T15:31:05.03Z</time></trkpt><trkpt lat="43.3024026" lon="12.7751065"><ele>524.5</ele><time>2026-04-26T15:31:06.023Z</time></trkpt><trkpt lat="43.3022904" lon="12.7755594"><ele>526.0</ele><time>2026-04-26T15:31:07.022Z</time></trkpt><trkpt lat="43.3021869" lon="12.7759969"><ele>526.0</ele><time>2026-04-26T15:31:08.026Z</time></trkpt><trkpt lat="43.3020985" lon="12.7764058"><ele>526.0</ele><time>2026-04-26T15:31:09.023Z</time></trkpt><trkpt lat="43.3020333" lon="12.7768216"><ele>526.0</ele><time>2026-04-26T15:31:10.029Z</time></trkpt><trkpt lat="43.3019858" lon="12.7772356"><ele>526.0</ele><time>2026-04-26T15:31:11.036Z</time></trkpt><trkpt lat="43.3019519" lon="12.7776524"><ele>528.5</ele><time>2026-04-26T15:31:12.014Z</time></trkpt><trkpt lat="43.3019312" lon="12.778073"><ele>531.0</ele><time>2026-04-26T15:31:13.022Z</time></trkpt><trkpt lat="43.3019342" lon="12.7784879"><ele>581.0</ele><time>2026-04-26T15:31:14.016Z</time></trkpt><trkpt lat="43.3023669" lon="12.7804873"><ele>581.0</ele><time>2026-04-26T15:31:19.012Z</time></trkpt><trkpt lat="43.3023971" lon="12.7809425"><ele>581.0</ele><time>2026-04-26T15:31:19.999Z</time></trkpt><trkpt lat="43.3013951" lon="12.78822"><ele>599.5</ele><time>2026-04-26T15:31:39.013Z</time></trkpt><trkpt lat="43.3011649" lon="12.7887163"><ele>618.0</ele><time>2026-04-26T15:31:40.004Z</time></trkpt><trkpt lat="43.3010448" lon="12.78913"><ele>592.0</ele><time>2026-04-26T15:31:41Z</time></trkpt><trkpt lat="43.299664" lon="12.794735"><ele>592.0</ele><time>2026-04-26T15:31:57.005Z</time></trkpt><trkpt lat="43.2996249" lon="12.7950224"><ele>592.0</ele><time>2026-04-26T15:31:58Z</time></trkpt><trkpt lat="43.2996344" lon="12.7954043"><ele>602.0</ele><time>2026-04-26T15:31:59.013Z</time></trkpt><trkpt lat="43.2996146" lon="12.7957987"><ele>612.0</ele><time>2026-04-26T15:32:00.006Z</time></trkpt><trkpt lat="43.2991694" lon="12.807149"><ele>592.0</ele><time>2026-04-26T15:32:28.01Z</time></trkpt><trkpt lat="43.2991715" lon="12.807528"><ele>572.0</ele><time>2026-04-26T15:32:29.01Z</time></trkpt><trkpt lat="43.2991587" lon="12.807934"><ele>571.5</ele><time>2026-04-26T15:32:30.001Z</time></trkpt><trkpt lat="43.2991547" lon="12.8083446"><ele>571.0</ele><time>2026-04-26T15:32:31.01Z</time></trkpt><trkpt lat="43.2991608" lon="12.8087522"><ele>574.0</ele><time>2026-04-26T15:32:32.003Z</time></trkpt><trkpt lat="43.2991737" lon="12.8091566"><ele>577.0</ele><time>2026-04-26T15:32:33.032Z</time></trkpt><trkpt lat="43.2991706" lon="12.809556"><ele>591.5</ele><time>2026-04-26T15:32:34.006Z</time></trkpt><trkpt lat="43.299183" lon="12.809966"><ele>606.0</ele><time>2026-04-26T15:32:35.015Z</time></trkpt><trkpt lat="43.3031286" lon="12.8232597"><ele>553.5</ele><time>2026-04-26T15:33:11.033Z</time></trkpt><trkpt lat="43.3032627" lon="12.8236021"><ele>501.0</ele><time>2026-04-26T15:33:12Z</time></trkpt><trkpt lat="43.3033632" lon="12.8239606"><ele>501.0</ele><time>2026-04-26T15:33:13.022Z</time></trkpt><trkpt lat="43.3033932" lon="12.8242363"><ele>501.0</ele><time>2026-04-26T15:33:14.018Z</time></trkpt><trkpt lat="43.3034764" lon="12.8246338"><ele>496.0</ele><time>2026-04-26T15:33:15.022Z</time></trkpt><trkpt lat="43.3035247" lon="12.8249951"><ele>491.0</ele><time>2026-04-26T15:33:16.029Z</time></trkpt><trkpt lat="43.3035555" lon="12.8253503"><ele>491.0</ele><time>2026-04-26T15:33:17.034Z</time></trkpt><trkpt lat="43.3035673" lon="12.825712"><ele>491.0</ele><time>2026-04-26T15:33:18.023Z</time></trkpt><trkpt lat="43.3035564" lon="12.8260767"><ele>493.5</ele><time>2026-04-26T15:33:19.038Z</time></trkpt><trkpt lat="43.3035317" lon="12.8264411"><ele>496.0</ele><time>2026-04-26T15:33:20.022Z</time></trkpt><trkpt lat="43.3034973" lon="12.8268144"><ele>501.5</ele><time>2026-04-26T15:33:21.023Z</time></trkpt><trkpt lat="43.3034573" lon="12.8271915"><ele>507.0</ele><time>2026-04-26T15:33:22.001Z</time></trkpt><trkpt lat="43.3030049" lon="12.8317029"><ele>483.5</ele><time>2026-04-26T15:33:33.024Z</time></trkpt><trkpt lat="43.3029795" lon="12.8321315"><ele>460.0</ele><time>2026-04-26T15:33:34.013Z</time></trkpt><trkpt lat="43.3029542" lon="12.832542"><ele>456.5</ele><time>2026-04-26T15:33:35.011Z</time></trkpt><trkpt lat="43.3029163" lon="12.8329441"><ele>453.0</ele><time>2026-04-26T15:33:36.026Z</time></trkpt><trkpt lat="43.3028791" lon="12.8333295"><ele>450.5</ele><time>2026-04-26T15:33:37.031Z</time></trkpt><trkpt lat="43.3028391" lon="12.8336959"><ele>448.0</ele><time>2026-04-26T15:33:38.049Z</time></trkpt><trkpt lat="43.3027982" lon="12.834052"><ele>447.0</ele><time>2026-04-26T15:33:39.017Z</time></trkpt><trkpt lat="43.3027604" lon="12.8344002"><ele>446.0</ele><time>2026-04-26T15:33:40.044Z</time></trkpt><trkpt lat="43.3027251" lon="12.8347498"><ele>446.0</ele><time>2026-04-26T15:33:41.03Z</time></trkpt><trkpt lat="43.3026952" lon="12.8350844"><ele>446.0</ele><time>2026-04-26T15:33:42.03Z</time></trkpt><trkpt lat="43.3026643" lon="12.8354092"><ele>444.5</ele><time>2026-04-26T15:33:43.027Z</time></trkpt><trkpt lat="43.3026345" lon="12.8357257"><ele>443.0</ele><time>2026-04-26T15:33:44.029Z</time></trkpt><trkpt lat="43.3026053" lon="12.8360405"><ele>441.0</ele><time>2026-04-26T15:33:45.047Z</time></trkpt><trkpt lat="43.3025742" lon="12.8363474"><ele>439.0</ele><time>2026-04-26T15:33:46.017Z</time></trkpt><trkpt lat="43.3025533" lon="12.8366559"><ele>437.5</ele><time>2026-04-26T15:33:47.034Z</time></trkpt><trkpt lat="43.3025427" lon="12.8369701"><ele>436.0</ele><time>2026-04-26T15:33:48.029Z</time></trkpt><trkpt lat="43.3025393" lon="12.8372903"><ele>436.0</ele><time>2026-04-26T15:33:49.032Z</time></trkpt><trkpt lat="43.302548" lon="12.8376117"><ele>436.0</ele><time>2026-04-26T15:33:50.007Z</time></trkpt><trkpt lat="43.3025729" lon="12.83794"><ele>434.0</ele><time>2026-04-26T15:33:51.035Z</time></trkpt><trkpt lat="43.3026141" lon="12.8382709"><ele>432.0</ele><time>2026-04-26T15:33:52.041Z</time></trkpt><trkpt lat="43.302673" lon="12.838598"><ele>429.0</ele><time>2026-04-26T15:33:53.019Z</time></trkpt><trkpt lat="43.3027456" lon="12.838927"><ele>426.0</ele><time>2026-04-26T15:33:54.036Z</time></trkpt><trkpt lat="43.3028404" lon="12.8392581"><ele>427.5</ele><time>2026-04-26T15:33:55.032Z</time></trkpt><trkpt lat="43.3029576" lon="12.8395856"><ele>429.0</ele><time>2026-04-26T15:33:56.023Z</time></trkpt><trkpt lat="43.303092" lon="12.8399125"><ele>425.5</ele><time>2026-04-26T15:33:57.03Z</time></trkpt><trkpt lat="43.3032439" lon="12.8402313"><ele>422.0</ele><time>2026-04-26T15:33:58.033Z</time></trkpt><trkpt lat="43.3034187" lon="12.8405393"><ele>422.0</ele><time>2026-04-26T15:33:59.034Z</time></trkpt><trkpt lat="43.3036167" lon="12.8408264"><ele>422.0</ele><time>2026-04-26T15:34:00.033Z</time></trkpt><trkpt lat="43.3038315" lon="12.841099"><ele>421.5</ele><time>2026-04-26T15:34:01.023Z</time></trkpt><trkpt lat="43.3040607" lon="12.8413514"><ele>421.0</ele><time>2026-04-26T15:34:02.023Z</time></trkpt><trkpt lat="43.3042997" lon="12.8416056"><ele>420.0</ele><time>2026-04-26T15:34:03.028Z</time></trkpt><trkpt lat="43.3045362" lon="12.8418603"><ele>419.0</ele><time>2026-04-26T15:34:04.031Z</time></trkpt><trkpt lat="43.3047658" lon="12.8421291"><ele>419.0</ele><time>2026-04-26T15:34:05.035Z</time></trkpt><trkpt lat="43.3049887" lon="12.8424085"><ele>419.0</ele><time>2026-04-26T15:34:06.017Z</time></trkpt><trkpt lat="43.3052108" lon="12.8426973"><ele>418.0</ele><time>2026-04-26T15:34:07.022Z</time></trkpt><trkpt lat="43.3054352" lon="12.8430013"><ele>417.0</ele><time>2026-04-26T15:34:08.018Z</time></trkpt><trkpt lat="43.3056597" lon="12.8433088"><ele>410.0</ele><time>2026-04-26T15:34:09.026Z</time></trkpt><trkpt lat="43.3058846" lon="12.8436193"><ele>403.0</ele><time>2026-04-26T15:34:10.032Z</time></trkpt><trkpt lat="43.3061095" lon="12.8439281"><ele>403.0</ele><time>2026-04-26T15:34:11.015Z</time></trkpt><trkpt lat="43.306329" lon="12.8442392"><ele>403.0</ele><time>2026-04-26T15:34:12.027Z</time></trkpt><trkpt lat="43.3065434" lon="12.8445506"><ele>402.0</ele><time>2026-04-26T15:34:13.028Z</time></trkpt><trkpt lat="43.306754" lon="12.844861"><ele>401.0</ele><time>2026-04-26T15:34:14.017Z</time></trkpt><trkpt lat="43.3069588" lon="12.8451794"><ele>401.0</ele><time>2026-04-26T15:34:15.023Z</time></trkpt><trkpt lat="43.3071522" lon="12.8455026"><ele>401.0</ele><time>2026-04-26T15:34:16.029Z</time></trkpt><trkpt lat="43.3073416" lon="12.8458323"><ele>401.5</ele><time>2026-04-26T15:34:17.03Z</time></trkpt><trkpt lat="43.3075267" lon="12.8461648"><ele>402.0</ele><time>2026-04-26T15:34:18.031Z</time></trkpt><trkpt lat="43.3077041" lon="12.8464983"><ele>399.5</ele><time>2026-04-26T15:34:19.026Z</time></trkpt><trkpt lat="43.3078883" lon="12.8468381"><ele>397.0</ele><time>2026-04-26T15:34:20.025Z</time></trkpt><trkpt lat="43.3080765" lon="12.8471788"><ele>398.5</ele><time>2026-04-26T15:34:21.035Z</time></trkpt><trkpt lat="43.3082641" lon="12.8475222"><ele>400.0</ele><time>2026-04-26T15:34:22.021Z</time></trkpt><trkpt lat="43.3084436" lon="12.8478793"><ele>400.0</ele><time>2026-04-26T15:34:23.033Z</time></trkpt><trkpt lat="43.3086182" lon="12.8482429"><ele>400.0</ele><time>2026-04-26T15:34:24.021Z</time></trkpt><trkpt lat="43.3087865" lon="12.8486183"><ele>399.5</ele><time>2026-04-26T15:34:25.033Z</time></trkpt><trkpt lat="43.3089384" lon="12.8490064"><ele>399.0</ele><time>2026-04-26T15:34:26.028Z</time></trkpt><trkpt lat="43.3090714" lon="12.8494055"><ele>399.0</ele><time>2026-04-26T15:34:27.032Z</time></trkpt><trkpt lat="43.3091883" lon="12.8498137"><ele>399.0</ele><time>2026-04-26T15:34:28.04Z</time></trkpt><trkpt lat="43.3093012" lon="12.850227"><ele>396.0</ele><time>2026-04-26T15:34:29.03Z</time></trkpt><trkpt lat="43.3094091" lon="12.8506518"><ele>393.0</ele><time>2026-04-26T15:34:30.003Z</time></trkpt><trkpt lat="43.3095139" lon="12.8510817"><ele>392.0</ele><time>2026-04-26T15:34:31.026Z</time></trkpt><trkpt lat="43.3096096" lon="12.8515073"><ele>391.0</ele><time>2026-04-26T15:34:32.022Z</time></trkpt><trkpt lat="43.3096996" lon="12.8519196"><ele>393.0</ele><time>2026-04-26T15:34:33.034Z</time></trkpt><trkpt lat="43.3097804" lon="12.8523229"><ele>395.0</ele><time>2026-04-26T15:34:34.022Z</time></trkpt><trkpt lat="43.309859" lon="12.8527218"><ele>395.0</ele><time>2026-04-26T15:34:35.035Z</time></trkpt><trkpt lat="43.3099362" lon="12.8531176"><ele>395.0</ele><time>2026-04-26T15:34:36.033Z</time></trkpt><trkpt lat="43.3100166" lon="12.8535144"><ele>393.5</ele><time>2026-04-26T15:34:37.027Z</time></trkpt><trkpt lat="43.3100966" lon="12.8539119"><ele>392.0</ele><time>2026-04-26T15:34:38.018Z</time></trkpt><trkpt lat="43.3101772" lon="12.8543081"><ele>390.5</ele><time>2026-04-26T15:34:39.033Z</time></trkpt><trkpt lat="43.3102565" lon="12.8547019"><ele>389.0</ele><time>2026-04-26T15:34:40.025Z</time></trkpt><trkpt lat="43.3103313" lon="12.8550967"><ele>389.5</ele><time>2026-04-26T15:34:41.032Z</time></trkpt><trkpt lat="43.3104077" lon="12.8554714"><ele>390.0</ele><time>2026-04-26T15:34:42.035Z</time></trkpt><trkpt lat="43.3104797" lon="12.8558244"><ele>388.5</ele><time>2026-04-26T15:34:43.039Z</time></trkpt><trkpt lat="43.3105481" lon="12.8561637"><ele>387.0</ele><time>2026-04-26T15:34:44.029Z</time></trkpt><trkpt lat="43.3106166" lon="12.8564973"><ele>384.5</ele><time>2026-04-26T15:34:45.041Z</time></trkpt><trkpt lat="43.3106849" lon="12.8568381"><ele>382.0</ele><time>2026-04-26T15:34:46.017Z</time></trkpt><trkpt lat="43.3107535" lon="12.8571872"><ele>382.0</ele><time>2026-04-26T15:34:47.029Z</time></trkpt><trkpt lat="43.3108237" lon="12.8575433"><ele>382.0</ele><time>2026-04-26T15:34:48.024Z</time></trkpt><trkpt lat="43.3108999" lon="12.8579009"><ele>380.5</ele><time>2026-04-26T15:34:49.039Z</time></trkpt><trkpt lat="43.3109832" lon="12.8582685"><ele>379.0</ele><time>2026-04-26T15:34:50.014Z</time></trkpt><trkpt lat="43.311074" lon="12.8586293"><ele>379.0</ele><time>2026-04-26T15:34:51.035Z</time></trkpt><trkpt lat="43.3111812" lon="12.8589915"><ele>379.0</ele><time>2026-04-26T15:34:52.011Z</time></trkpt><trkpt lat="43.3113001" lon="12.8593515"><ele>378.0</ele><time>2026-04-26T15:34:53.021Z</time></trkpt><trkpt lat="43.3114308" lon="12.8597046"><ele>377.0</ele><time>2026-04-26T15:34:54.022Z</time></trkpt><trkpt lat="43.311577" lon="12.8600524"><ele>379.5</ele><time>2026-04-26T15:34:55.033Z</time></trkpt><trkpt lat="43.3117345" lon="12.8604022"><ele>382.0</ele><time>2026-04-26T15:34:56.019Z</time></trkpt><trkpt lat="43.3119018" lon="12.860735"><ele>383.0</ele><time>2026-04-26T15:34:57.017Z</time></trkpt><trkpt lat="43.3120794" lon="12.8610543"><ele>384.0</ele><time>2026-04-26T15:34:58.01Z</time></trkpt><trkpt lat="43.3122694" lon="12.8613615"><ele>384.0</ele><time>2026-04-26T15:34:59.011Z</time></trkpt><trkpt lat="43.3124638" lon="12.8616658"><ele>384.0</ele><time>2026-04-26T15:35:00.023Z</time></trkpt><trkpt lat="43.3126541" lon="12.8619633"><ele>385.5</ele><time>2026-04-26T15:35:01.017Z</time></trkpt><trkpt lat="43.3128434" lon="12.862256"><ele>387.0</ele><time>2026-04-26T15:35:02.023Z</time></trkpt><trkpt lat="43.3130275" lon="12.8625436"><ele>387.0</ele><time>2026-04-26T15:35:03.019Z</time></trkpt><trkpt lat="43.3132074" lon="12.862834"><ele>387.0</ele><time>2026-04-26T15:35:04.015Z</time></trkpt><trkpt lat="43.3133821" lon="12.8631259"><ele>387.0</ele><time>2026-04-26T15:35:05.021Z</time></trkpt><trkpt lat="43.3135495" lon="12.863419"><ele>387.0</ele><time>2026-04-26T15:35:06.021Z</time></trkpt><trkpt lat="43.3137113" lon="12.8637229"><ele>390.0</ele><time>2026-04-26T15:35:07.021Z</time></trkpt><trkpt lat="43.3138595" lon="12.8640346"><ele>393.0</ele><time>2026-04-26T15:35:08.026Z</time></trkpt><trkpt lat="43.3140023" lon="12.8643557"><ele>393.0</ele><time>2026-04-26T15:35:09.022Z</time></trkpt><trkpt lat="43.3141311" lon="12.8646612"><ele>393.0</ele><time>2026-04-26T15:35:10.009Z</time></trkpt><trkpt lat="43.3142511" lon="12.8649912"><ele>391.5</ele><time>2026-04-26T15:35:11.017Z</time></trkpt><trkpt lat="43.3143313" lon="12.8653354"><ele>390.0</ele><time>2026-04-26T15:35:12.014Z</time></trkpt><trkpt lat="43.3151783" lon="12.8717346"><ele>394.5</ele><time>2026-04-26T15:35:29.013Z</time></trkpt><trkpt lat="43.3152072" lon="12.8720759"><ele>399.0</ele><time>2026-04-26T15:35:30.011Z</time></trkpt><trkpt lat="43.3152272" lon="12.8725003"><ele>405.5</ele><time>2026-04-26T15:35:31.01Z</time></trkpt><trkpt lat="43.3152735" lon="12.8728797"><ele>412.0</ele><time>2026-04-26T15:35:31.996Z</time></trkpt><trkpt lat="43.3186082" lon="12.8872039"><ele>405.5</ele><time>2026-04-26T15:36:12.006Z</time></trkpt><trkpt lat="43.3187624" lon="12.8875849"><ele>399.0</ele><time>2026-04-26T15:36:13.008Z</time></trkpt><trkpt lat="43.3188657" lon="12.8878867"><ele>364.0</ele><time>2026-04-26T15:36:14.001Z</time></trkpt><trkpt lat="43.3199233" lon="12.8910919"><ele>364.0</ele><time>2026-04-26T15:36:23.014Z</time></trkpt><trkpt lat="43.3199529" lon="12.8914172"><ele>364.0</ele><time>2026-04-26T15:36:24.016Z</time></trkpt><trkpt lat="43.3200554" lon="12.8917904"><ele>372.0</ele><time>2026-04-26T15:36:25.014Z</time></trkpt><trkpt lat="43.320172" lon="12.8921712"><ele>380.0</ele><time>2026-04-26T15:36:26.013Z</time></trkpt><trkpt lat="43.3202965" lon="12.8925504"><ele>385.0</ele><time>2026-04-26T15:36:27.012Z</time></trkpt><trkpt lat="43.3204161" lon="12.8929353"><ele>390.0</ele><time>2026-04-26T15:36:28.012Z</time></trkpt><trkpt lat="43.3243364" lon="12.9052063"><ele>390.0</ele><time>2026-04-26T15:37:02.028Z</time></trkpt><trkpt lat="43.3244003" lon="12.9055373"><ele>390.0</ele><time>2026-04-26T15:37:03.005Z</time></trkpt><trkpt lat="43.3244713" lon="12.9059001"><ele>393.5</ele><time>2026-04-26T15:37:04.034Z</time></trkpt><trkpt lat="43.3245358" lon="12.9062706"><ele>397.0</ele><time>2026-04-26T15:37:05.021Z</time></trkpt><trkpt lat="43.3245947" lon="12.9066404"><ele>401.0</ele><time>2026-04-26T15:37:06.02Z</time></trkpt><trkpt lat="43.3246581" lon="12.9070044"><ele>405.0</ele><time>2026-04-26T15:37:07.03Z</time></trkpt><trkpt lat="43.3247141" lon="12.9073801"><ele>395.0</ele><time>2026-04-26T15:37:08.025Z</time></trkpt><trkpt lat="43.3247693" lon="12.907758"><ele>385.0</ele><time>2026-04-26T15:37:09.029Z</time></trkpt><trkpt lat="43.3248217" lon="12.9081374"><ele>386.5</ele><time>2026-04-26T15:37:10.03Z</time></trkpt><trkpt lat="43.3248734" lon="12.9085166"><ele>388.0</ele><time>2026-04-26T15:37:11.027Z</time></trkpt><trkpt lat="43.3249273" lon="12.9088983"><ele>390.0</ele><time>2026-04-26T15:37:12.018Z</time></trkpt><trkpt lat="43.3249764" lon="12.9092804"><ele>392.0</ele><time>2026-04-26T15:37:13.042Z</time></trkpt><trkpt lat="43.3250349" lon="12.9096696"><ele>392.0</ele><time>2026-04-26T15:37:14.01Z</time></trkpt><trkpt lat="43.3250839" lon="12.9100591"><ele>392.0</ele><time>2026-04-26T15:37:15.013Z</time></trkpt><trkpt lat="43.3259673" lon="12.9169624"><ele>382.0</ele><time>2026-04-26T15:37:34.022Z</time></trkpt><trkpt lat="43.326027" lon="12.9172387"><ele>372.0</ele><time>2026-04-26T15:37:35.022Z</time></trkpt><trkpt lat="43.3260504" lon="12.9175023"><ele>362.0</ele><time>2026-04-26T15:37:36.013Z</time></trkpt><trkpt lat="43.3260813" lon="12.9177412"><ele>360.33333333333337</ele><time>2026-04-26T15:37:37.018Z</time></trkpt><trkpt lat="43.3261189" lon="12.9179693"><ele>358.6666666666667</ele><time>2026-04-26T15:37:38.021Z</time></trkpt><trkpt lat="43.3261572" lon="12.9182032"><ele>357.0</ele><time>2026-04-26T15:37:39.018Z</time></trkpt><trkpt lat="43.3262031" lon="12.918451"><ele>355.0</ele><time>2026-04-26T15:37:40.021Z</time></trkpt><trkpt lat="43.3262536" lon="12.9187083"><ele>353.0</ele><time>2026-04-26T15:37:41.031Z</time></trkpt><trkpt lat="43.3263075" lon="12.9189751"><ele>351.0</ele><time>2026-04-26T15:37:42.016Z</time></trkpt><trkpt lat="43.3263688" lon="12.9192623"><ele>353.0</ele><time>2026-04-26T15:37:43.028Z</time></trkpt><trkpt lat="43.3264355" lon="12.9195589"><ele>355.0</ele><time>2026-04-26T15:37:44.019Z</time></trkpt><trkpt lat="43.3265099" lon="12.9198606"><ele>353.0</ele><time>2026-04-26T15:37:45.034Z</time></trkpt><trkpt lat="43.3265914" lon="12.9201729"><ele>351.0</ele><time>2026-04-26T15:37:46.021Z</time></trkpt><trkpt lat="43.3266821" lon="12.9204887"><ele>351.0</ele><time>2026-04-26T15:37:47.019Z</time></trkpt><trkpt lat="43.3267821" lon="12.920813"><ele>351.0</ele><time>2026-04-26T15:37:48.027Z</time></trkpt><trkpt lat="43.3268922" lon="12.9211388"><ele>348.0</ele><time>2026-04-26T15:37:49.021Z</time></trkpt><trkpt lat="43.3270077" lon="12.9214651"><ele>345.0</ele><time>2026-04-26T15:37:50.022Z</time></trkpt><trkpt lat="43.3271356" lon="12.9217898"><ele>347.5</ele><time>2026-04-26T15:37:51.049Z</time></trkpt><trkpt lat="43.3272713" lon="12.9221084"><ele>350.0</ele><time>2026-04-26T15:37:52.034Z</time></trkpt><trkpt lat="43.3274193" lon="12.9224271"><ele>347.0</ele><time>2026-04-26T15:37:53.028Z</time></trkpt><trkpt lat="43.3275752" lon="12.9227497"><ele>344.0</ele><time>2026-04-26T15:37:54.025Z</time></trkpt><trkpt lat="43.3277382" lon="12.9230604"><ele>344.0</ele><time>2026-04-26T15:37:55.016Z</time></trkpt><trkpt lat="43.3279127" lon="12.9233675"><ele>344.0</ele><time>2026-04-26T15:37:56.026Z</time></trkpt><trkpt lat="43.3280899" lon="12.9236673"><ele>341.0</ele><time>2026-04-26T15:37:57.032Z</time></trkpt><trkpt lat="43.3282798" lon="12.9239534"><ele>338.0</ele><time>2026-04-26T15:37:58.024Z</time></trkpt><trkpt lat="43.3284735" lon="12.9242407"><ele>334.5</ele><time>2026-04-26T15:37:59.03Z</time></trkpt><trkpt lat="43.3286753" lon="12.9245215"><ele>331.0</ele><time>2026-04-26T15:38:00.023Z</time></trkpt><trkpt lat="43.3288832" lon="12.9247885"><ele>331.0</ele><time>2026-04-26T15:38:01.033Z</time></trkpt><trkpt lat="43.3290954" lon="12.9250486"><ele>331.0</ele><time>2026-04-26T15:38:02.019Z</time></trkpt><trkpt lat="43.3293123" lon="12.9253059"><ele>328.5</ele><time>2026-04-26T15:38:03.029Z</time></trkpt><trkpt lat="43.3295391" lon="12.9255611"><ele>326.0</ele><time>2026-04-26T15:38:04.04Z</time></trkpt><trkpt lat="43.3297678" lon="12.925815"><ele>322.5</ele><time>2026-04-26T15:38:05.033Z</time></trkpt><trkpt lat="43.3300003" lon="12.9260656"><ele>319.0</ele><time>2026-04-26T15:38:06.026Z</time></trkpt><trkpt lat="43.3302348" lon="12.9263125"><ele>319.0</ele><time>2026-04-26T15:38:07.044Z</time></trkpt><trkpt lat="43.3304717" lon="12.9265603"><ele>319.0</ele><time>2026-04-26T15:38:08.029Z</time></trkpt><trkpt lat="43.3307091" lon="12.9268048"><ele>320.5</ele><time>2026-04-26T15:38:09.04Z</time></trkpt><trkpt lat="43.3309489" lon="12.9270461"><ele>322.0</ele><time>2026-04-26T15:38:10.034Z</time></trkpt><trkpt lat="43.3311882" lon="12.9272887"><ele>320.0</ele><time>2026-04-26T15:38:11.035Z</time></trkpt><trkpt lat="43.3314259" lon="12.927532"><ele>318.0</ele><time>2026-04-26T15:38:12.029Z</time></trkpt><trkpt lat="43.3316586" lon="12.9277701"><ele>323.0</ele><time>2026-04-26T15:38:13.03Z</time></trkpt><trkpt lat="43.3318914" lon="12.9280123"><ele>328.0</ele><time>2026-04-26T15:38:14.03Z</time></trkpt><trkpt lat="43.3321311" lon="12.9282545"><ele>325.5</ele><time>2026-04-26T15:38:15.033Z</time></trkpt><trkpt lat="43.3323642" lon="12.9285016"><ele>323.0</ele><time>2026-04-26T15:38:16.011Z</time></trkpt><trkpt lat="43.3361595" lon="12.9328875"><ele>323.0</ele><time>2026-04-26T15:38:33.015Z</time></trkpt><trkpt lat="43.3362797" lon="12.933141"><ele>323.0</ele><time>2026-04-26T15:38:34.018Z</time></trkpt><trkpt lat="43.3364503" lon="12.9334226"><ele>318.0</ele><time>2026-04-26T15:38:35.022Z</time></trkpt><trkpt lat="43.3366109" lon="12.9337125"><ele>313.0</ele><time>2026-04-26T15:38:36.02Z</time></trkpt><trkpt lat="43.3367742" lon="12.9340125"><ele>313.5</ele><time>2026-04-26T15:38:37.031Z</time></trkpt><trkpt lat="43.3369295" lon="12.934323"><ele>314.0</ele><time>2026-04-26T15:38:38.021Z</time></trkpt><trkpt lat="43.3370763" lon="12.9346336"><ele>314.0</ele><time>2026-04-26T15:38:39.035Z</time></trkpt><trkpt lat="43.337218" lon="12.9349465"><ele>314.0</ele><time>2026-04-26T15:38:40.022Z</time></trkpt><trkpt lat="43.3373611" lon="12.9352719"><ele>313.5</ele><time>2026-04-26T15:38:41.03Z</time></trkpt><trkpt lat="43.3374996" lon="12.9355963"><ele>313.0</ele><time>2026-04-26T15:38:42.024Z</time></trkpt><trkpt lat="43.3376283" lon="12.9359231"><ele>311.0</ele><time>2026-04-26T15:38:43.015Z</time></trkpt><trkpt lat="43.3377495" lon="12.9362471"><ele>309.0</ele><time>2026-04-26T15:38:44.031Z</time></trkpt><trkpt lat="43.3378664" lon="12.9365683"><ele>308.5</ele><time>2026-04-26T15:38:45.018Z</time></trkpt><trkpt lat="43.3379797" lon="12.9368937"><ele>308.0</ele><time>2026-04-26T15:38:46.03Z</time></trkpt><trkpt lat="43.3381005" lon="12.9372178"><ele>308.0</ele><time>2026-04-26T15:38:47.029Z</time></trkpt><trkpt lat="43.3382214" lon="12.9375479"><ele>308.0</ele><time>2026-04-26T15:38:48.025Z</time></trkpt><trkpt lat="43.3383432" lon="12.9378781"><ele>311.5</ele><time>2026-04-26T15:38:49.031Z</time></trkpt><trkpt lat="43.3384692" lon="12.9382097"><ele>315.0</ele><time>2026-04-26T15:38:50.029Z</time></trkpt><trkpt lat="43.3385962" lon="12.9385406"><ele>320.5</ele><time>2026-04-26T15:38:51.03Z</time></trkpt><trkpt lat="43.3387212" lon="12.9388724"><ele>326.0</ele><time>2026-04-26T15:38:52.03Z</time></trkpt><trkpt lat="43.3407923" lon="12.9443174"><ele>316.5</ele><time>2026-04-26T15:39:07.025Z</time></trkpt><trkpt lat="43.3409045" lon="12.944683"><ele>307.0</ele><time>2026-04-26T15:39:08.014Z</time></trkpt><trkpt lat="43.3410348" lon="12.9450501"><ele>307.0</ele><time>2026-04-26T15:39:09.014Z</time></trkpt><trkpt lat="43.341171" lon="12.9454475"><ele>307.0</ele><time>2026-04-26T15:39:10.003Z</time></trkpt><trkpt lat="43.3413159" lon="12.9458522"><ele>294.5</ele><time>2026-04-26T15:39:11.021Z</time></trkpt><trkpt lat="43.3414587" lon="12.9462638"><ele>282.0</ele><time>2026-04-26T15:39:12.003Z</time></trkpt><trkpt lat="43.3415832" lon="12.9466572"><ele>279.0</ele><time>2026-04-26T15:39:13.02Z</time></trkpt><trkpt lat="43.3416682" lon="12.9470239"><ele>276.0</ele><time>2026-04-26T15:39:14.032Z</time></trkpt><trkpt lat="43.3417725" lon="12.9473981"><ele>275.5</ele><time>2026-04-26T15:39:15.013Z</time></trkpt><trkpt lat="43.3418715" lon="12.9477858"><ele>275.0</ele><time>2026-04-26T15:39:16.008Z</time></trkpt><trkpt lat="43.3419708" lon="12.9481719"><ele>274.5</ele><time>2026-04-26T15:39:17.026Z</time></trkpt><trkpt lat="43.3420766" lon="12.9485569"><ele>274.0</ele><time>2026-04-26T15:39:18.033Z</time></trkpt><trkpt lat="43.3421783" lon="12.9489321"><ele>272.0</ele><time>2026-04-26T15:39:19.03Z</time></trkpt><trkpt lat="43.3422769" lon="12.9492952"><ele>270.0</ele><time>2026-04-26T15:39:20.027Z</time></trkpt><trkpt lat="43.3423738" lon="12.9496444"><ele>270.0</ele><time>2026-04-26T15:39:21.036Z</time></trkpt><trkpt lat="43.3424715" lon="12.9499964"><ele>270.0</ele><time>2026-04-26T15:39:22.016Z</time></trkpt><trkpt lat="43.3425679" lon="12.9503524"><ele>270.0</ele><time>2026-04-26T15:39:23.041Z</time></trkpt><trkpt lat="43.3426594" lon="12.9507068"><ele>270.0</ele><time>2026-04-26T15:39:24.033Z</time></trkpt><trkpt lat="43.3427519" lon="12.9510596"><ele>268.5</ele><time>2026-04-26T15:39:25.032Z</time></trkpt><trkpt lat="43.3428385" lon="12.9514093"><ele>267.0</ele><time>2026-04-26T15:39:26.025Z</time></trkpt><trkpt lat="43.3429229" lon="12.9517633"><ele>267.0</ele><time>2026-04-26T15:39:27.022Z</time></trkpt><trkpt lat="43.3430055" lon="12.9521172"><ele>267.0</ele><time>2026-04-26T15:39:28.014Z</time></trkpt><trkpt lat="43.3430869" lon="12.9524687"><ele>266.0</ele><time>2026-04-26T15:39:29.025Z</time></trkpt><trkpt lat="43.3431722" lon="12.9528229"><ele>265.0</ele><time>2026-04-26T15:39:30.015Z</time></trkpt><trkpt lat="43.3432592" lon="12.9531782"><ele>264.0</ele><time>2026-04-26T15:39:31.011Z</time></trkpt><trkpt lat="43.3433464" lon="12.9535377"><ele>263.0</ele><time>2026-04-26T15:39:32.027Z</time></trkpt><trkpt lat="43.3434367" lon="12.9539044"><ele>260.0</ele><time>2026-04-26T15:39:33.031Z</time></trkpt><trkpt lat="43.3435296" lon="12.9542751"><ele>257.0</ele><time>2026-04-26T15:39:34.034Z</time></trkpt><trkpt lat="43.3436247" lon="12.9546503"><ele>257.0</ele><time>2026-04-26T15:39:35.023Z</time></trkpt><trkpt lat="43.3437113" lon="12.9550301"><ele>257.0</ele><time>2026-04-26T15:39:36.014Z</time></trkpt><trkpt lat="43.3438024" lon="12.9554145"><ele>255.0</ele><time>2026-04-26T15:39:37.032Z</time></trkpt><trkpt lat="43.3438984" lon="12.9557982"><ele>253.0</ele><time>2026-04-26T15:39:38.042Z</time></trkpt><trkpt lat="43.3439891" lon="12.9561879"><ele>252.0</ele><time>2026-04-26T15:39:39.037Z</time></trkpt><trkpt lat="43.3440806" lon="12.9565741"><ele>251.0</ele><time>2026-04-26T15:39:40.032Z</time></trkpt><trkpt lat="43.3441715" lon="12.9569595"><ele>250.5</ele><time>2026-04-26T15:39:41.027Z</time></trkpt><trkpt lat="43.3442631" lon="12.9573466"><ele>250.0</ele><time>2026-04-26T15:39:42.019Z</time></trkpt><trkpt lat="43.3443578" lon="12.9577381"><ele>251.0</ele><time>2026-04-26T15:39:43.033Z</time></trkpt><trkpt lat="43.3444504" lon="12.9581253"><ele>252.0</ele><time>2026-04-26T15:39:44.042Z</time></trkpt><trkpt lat="43.3445376" lon="12.9585201"><ele>253.5</ele><time>2026-04-26T15:39:45.047Z</time></trkpt><trkpt lat="43.3446197" lon="12.9589138"><ele>255.0</ele><time>2026-04-26T15:39:46.029Z</time></trkpt><trkpt lat="43.3446926" lon="12.9593085"><ele>260.0</ele><time>2026-04-26T15:39:47.024Z</time></trkpt><trkpt lat="43.3447512" lon="12.9597058"><ele>265.0</ele><time>2026-04-26T15:39:48.039Z</time></trkpt><trkpt lat="43.3448009" lon="12.9601035"><ele>266.0</ele><time>2026-04-26T15:39:49.034Z</time></trkpt><trkpt lat="43.3448419" lon="12.9605034"><ele>267.0</ele><time>2026-04-26T15:39:50.034Z</time></trkpt><trkpt lat="43.3448793" lon="12.9609049"><ele>268.5</ele><time>2026-04-26T15:39:51.029Z</time></trkpt><trkpt lat="43.3449046" lon="12.9613142"><ele>270.0</ele><time>2026-04-26T15:39:52.035Z</time></trkpt><trkpt lat="43.344919" lon="12.9617192"><ele>270.0</ele><time>2026-04-26T15:39:53.021Z</time></trkpt><trkpt lat="43.3449255" lon="12.9621202"><ele>270.0</ele><time>2026-04-26T15:39:54.024Z</time></trkpt><trkpt lat="43.3449216" lon="12.9625133"><ele>270.5</ele><time>2026-04-26T15:39:55.032Z</time></trkpt><trkpt lat="43.3449116" lon="12.9628941"><ele>271.0</ele><time>2026-04-26T15:39:56.027Z</time></trkpt><trkpt lat="43.3448959" lon="12.9632704"><ele>270.5</ele><time>2026-04-26T15:39:57.028Z</time></trkpt><trkpt lat="43.3448752" lon="12.9636495"><ele>270.0</ele><time>2026-04-26T15:39:58.033Z</time></trkpt><trkpt lat="43.3448418" lon="12.9640218"><ele>270.5</ele><time>2026-04-26T15:39:59.021Z</time></trkpt><trkpt lat="43.344811" lon="12.9643921"><ele>271.0</ele><time>2026-04-26T15:40:00.022Z</time></trkpt><trkpt lat="43.3447769" lon="12.9647608"><ele>272.0</ele><time>2026-04-26T15:40:01.03Z</time></trkpt><trkpt lat="43.3447428" lon="12.9651316"><ele>273.0</ele><time>2026-04-26T15:40:02.021Z</time></trkpt><trkpt lat="43.3447127" lon="12.9655052"><ele>270.5</ele><time>2026-04-26T15:40:03.033Z</time></trkpt><trkpt lat="43.3446768" lon="12.9658783"><ele>268.0</ele><time>2026-04-26T15:40:04.014Z</time></trkpt><trkpt lat="43.3446469" lon="12.9662539"><ele>268.0</ele><time>2026-04-26T15:40:05.034Z</time></trkpt><trkpt lat="43.3446164" lon="12.966627"><ele>268.0</ele><time>2026-04-26T15:40:06.03Z</time></trkpt><trkpt lat="43.3445858" lon="12.9670023"><ele>268.0</ele><time>2026-04-26T15:40:07.03Z</time></trkpt><trkpt lat="43.3445536" lon="12.9673817"><ele>268.0</ele><time>2026-04-26T15:40:08.031Z</time></trkpt><trkpt lat="43.3445183" lon="12.9677641"><ele>268.5</ele><time>2026-04-26T15:40:09.03Z</time></trkpt><trkpt lat="43.3444834" lon="12.9681475"><ele>269.0</ele><time>2026-04-26T15:40:10.032Z</time></trkpt><trkpt lat="43.3444486" lon="12.968535"><ele>269.5</ele><time>2026-04-26T15:40:11.035Z</time></trkpt><trkpt lat="43.3444126" lon="12.9689235"><ele>270.0</ele><time>2026-04-26T15:40:12.034Z</time></trkpt><trkpt lat="43.3443769" lon="12.9693102"><ele>267.5</ele><time>2026-04-26T15:40:13.034Z</time></trkpt><trkpt lat="43.3443408" lon="12.9697021"><ele>265.0</ele><time>2026-04-26T15:40:14.031Z</time></trkpt><trkpt lat="43.3443042" lon="12.9701027"><ele>263.5</ele><time>2026-04-26T15:40:15.039Z</time></trkpt><trkpt lat="43.3442655" lon="12.9705088"><ele>262.0</ele><time>2026-04-26T15:40:16.031Z</time></trkpt><trkpt lat="43.34423" lon="12.970917"><ele>261.0</ele><time>2026-04-26T15:40:17.031Z</time></trkpt><trkpt lat="43.3441937" lon="12.9713324"><ele>260.0</ele><time>2026-04-26T15:40:18.035Z</time></trkpt><trkpt lat="43.3441588" lon="12.9717475"><ele>260.0</ele><time>2026-04-26T15:40:19.028Z</time></trkpt><trkpt lat="43.3441211" lon="12.9721618"><ele>260.0</ele><time>2026-04-26T15:40:20.026Z</time></trkpt><trkpt lat="43.3440815" lon="12.9725824"><ele>260.5</ele><time>2026-04-26T15:40:21.026Z</time></trkpt><trkpt lat="43.3440417" lon="12.9730037"><ele>261.0</ele><time>2026-04-26T15:40:22.033Z</time></trkpt><trkpt lat="43.3440038" lon="12.9734245"><ele>260.0</ele><time>2026-04-26T15:40:23.041Z</time></trkpt><trkpt lat="43.3439698" lon="12.9738448"><ele>259.0</ele><time>2026-04-26T15:40:24.045Z</time></trkpt><trkpt lat="43.3439412" lon="12.974267"><ele>258.0</ele><time>2026-04-26T15:40:25.041Z</time></trkpt><trkpt lat="43.3439211" lon="12.9746921"><ele>257.0</ele><time>2026-04-26T15:40:26.039Z</time></trkpt><trkpt lat="43.3439115" lon="12.9751181"><ele>257.0</ele><time>2026-04-26T15:40:27.038Z</time></trkpt><trkpt lat="43.3439112" lon="12.9755453"><ele>257.0</ele><time>2026-04-26T15:40:28.02Z</time></trkpt><trkpt lat="43.3439187" lon="12.9759753"><ele>257.0</ele><time>2026-04-26T15:40:29.034Z</time></trkpt><trkpt lat="43.3439364" lon="12.9764031"><ele>257.0</ele><time>2026-04-26T15:40:30.01Z</time></trkpt><trkpt lat="43.3439615" lon="12.9768299"><ele>257.0</ele><time>2026-04-26T15:40:31.016Z</time></trkpt><trkpt lat="43.3439919" lon="12.9772441"><ele>257.0</ele><time>2026-04-26T15:40:32.025Z</time></trkpt><trkpt lat="43.3440357" lon="12.9776467"><ele>256.5</ele><time>2026-04-26T15:40:33.046Z</time></trkpt><trkpt lat="43.3440886" lon="12.9780434"><ele>256.0</ele><time>2026-04-26T15:40:34.025Z</time></trkpt><trkpt lat="43.3441417" lon="12.9784271"><ele>255.5</ele><time>2026-04-26T15:40:35.024Z</time></trkpt><trkpt lat="43.3442073" lon="12.978813"><ele>255.0</ele><time>2026-04-26T15:40:36.024Z</time></trkpt><trkpt lat="43.3442862" lon="12.9791992"><ele>256.0</ele><time>2026-04-26T15:40:37.038Z</time></trkpt><trkpt lat="43.3443793" lon="12.9795872"><ele>257.0</ele><time>2026-04-26T15:40:38.022Z</time></trkpt><trkpt lat="43.3444809" lon="12.9799692"><ele>254.0</ele><time>2026-04-26T15:40:39.036Z</time></trkpt><trkpt lat="43.3445872" lon="12.9803529"><ele>251.0</ele><time>2026-04-26T15:40:40.022Z</time></trkpt><trkpt lat="43.3446937" lon="12.9807374"><ele>256.0</ele><time>2026-04-26T15:40:41.024Z</time></trkpt><trkpt lat="43.3448029" lon="12.9811233"><ele>261.0</ele><time>2026-04-26T15:40:42.037Z</time></trkpt><trkpt lat="43.3449105" lon="12.9815124"><ele>254.0</ele><time>2026-04-26T15:40:43.031Z</time></trkpt><trkpt lat="43.3450163" lon="12.9819027"><ele>247.0</ele><time>2026-04-26T15:40:44.03Z</time></trkpt><trkpt lat="43.3451181" lon="12.9822909"><ele>243.5</ele><time>2026-04-26T15:40:45.033Z</time></trkpt><trkpt lat="43.3452181" lon="12.982681"><ele>240.0</ele><time>2026-04-26T15:40:46.032Z</time></trkpt><trkpt lat="43.3453224" lon="12.9830748"><ele>237.0</ele><time>2026-04-26T15:40:47.023Z</time></trkpt><trkpt lat="43.3454274" lon="12.9834628"><ele>234.0</ele><time>2026-04-26T15:40:48.035Z</time></trkpt><trkpt lat="43.3455312" lon="12.9838458"><ele>233.0</ele><time>2026-04-26T15:40:49.032Z</time></trkpt><trkpt lat="43.3456321" lon="12.9842213"><ele>232.0</ele><time>2026-04-26T15:40:50.031Z</time></trkpt><trkpt lat="43.3457334" lon="12.9845924"><ele>232.0</ele><time>2026-04-26T15:40:51.034Z</time></trkpt><trkpt lat="43.3458321" lon="12.9849518"><ele>232.0</ele><time>2026-04-26T15:40:52.024Z</time></trkpt><trkpt lat="43.3459289" lon="12.9853128"><ele>233.0</ele><time>2026-04-26T15:40:53.034Z</time></trkpt><trkpt lat="43.3460272" lon="12.985674"><ele>234.0</ele><time>2026-04-26T15:40:54.042Z</time></trkpt><trkpt lat="43.3461228" lon="12.9860308"><ele>234.5</ele><time>2026-04-26T15:40:55.031Z</time></trkpt><trkpt lat="43.3462169" lon="12.9863874"><ele>235.0</ele><time>2026-04-26T15:40:56.033Z</time></trkpt><trkpt lat="43.3463106" lon="12.9867437"><ele>238.0</ele><time>2026-04-26T15:40:57.025Z</time></trkpt><trkpt lat="43.3464041" lon="12.9870894"><ele>241.0</ele><time>2026-04-26T15:40:58.023Z</time></trkpt><trkpt lat="43.3465004" lon="12.9874192"><ele>240.5</ele><time>2026-04-26T15:40:59.036Z</time></trkpt><trkpt lat="43.3466022" lon="12.9877396"><ele>240.0</ele><time>2026-04-26T15:41:00.011Z</time></trkpt><trkpt lat="43.3467127" lon="12.9880555"><ele>240.0</ele><time>2026-04-26T15:41:01.028Z</time></trkpt><trkpt lat="43.3468394" lon="12.9883702"><ele>240.0</ele><time>2026-04-26T15:41:02.023Z</time></trkpt><trkpt lat="43.3469763" lon="12.9886762"><ele>240.0</ele><time>2026-04-26T15:41:03.027Z</time></trkpt><trkpt lat="43.3471244" lon="12.9889795"><ele>240.0</ele><time>2026-04-26T15:41:04.023Z</time></trkpt><trkpt lat="43.3472873" lon="12.9892866"><ele>234.5</ele><time>2026-04-26T15:41:05.018Z</time></trkpt><trkpt lat="43.3474479" lon="12.9895875"><ele>229.0</ele><time>2026-04-26T15:41:06.016Z</time></trkpt><trkpt lat="43.3503244" lon="12.9954364"><ele>229.0</ele><time>2026-04-26T15:41:24.017Z</time></trkpt><trkpt lat="43.3504689" lon="12.9957365"><ele>229.0</ele><time>2026-04-26T15:41:25.006Z</time></trkpt><trkpt lat="43.350623" lon="12.9960349"><ele>228.0</ele><time>2026-04-26T15:41:26.004Z</time></trkpt><trkpt lat="43.3507719" lon="12.9963463"><ele>227.0</ele><time>2026-04-26T15:41:27.02Z</time></trkpt><trkpt lat="43.3509283" lon="12.9966585"><ele>229.0</ele><time>2026-04-26T15:41:28.017Z</time></trkpt><trkpt lat="43.3510913" lon="12.9969769"><ele>231.0</ele><time>2026-04-26T15:41:29.019Z</time></trkpt><trkpt lat="43.3512505" lon="12.9972974"><ele>231.5</ele><time>2026-04-26T15:41:30.003Z</time></trkpt><trkpt lat="43.3514169" lon="12.9976222"><ele>232.0</ele><time>2026-04-26T15:41:31.02Z</time></trkpt><trkpt lat="43.351579" lon="12.997923"><ele>232.0</ele><time>2026-04-26T15:41:32.016Z</time></trkpt><trkpt lat="43.3517745" lon="12.9982195"><ele>232.0</ele><time>2026-04-26T15:41:33.014Z</time></trkpt><trkpt lat="43.3519771" lon="12.9984935"><ele>229.5</ele><time>2026-04-26T15:41:34.013Z</time></trkpt><trkpt lat="43.3521905" lon="12.9987463"><ele>227.0</ele><time>2026-04-26T15:41:35.023Z</time></trkpt><trkpt lat="43.3524147" lon="12.9989751"><ele>227.0</ele><time>2026-04-26T15:41:36.012Z</time></trkpt><trkpt lat="43.3526503" lon="12.9991823"><ele>227.0</ele><time>2026-04-26T15:41:37.023Z</time></trkpt><trkpt lat="43.3528908" lon="12.9993638"><ele>226.5</ele><time>2026-04-26T15:41:38.03Z</time></trkpt><trkpt lat="43.3531403" lon="12.9995253"><ele>226.0</ele><time>2026-04-26T15:41:39.016Z</time></trkpt><trkpt lat="43.3533981" lon="12.9996572"><ele>226.0</ele><time>2026-04-26T15:41:40.019Z</time></trkpt><trkpt lat="43.3536646" lon="12.9997668"><ele>226.0</ele><time>2026-04-26T15:41:41.027Z</time></trkpt><trkpt lat="43.3539378" lon="12.9998486"><ele>227.0</ele><time>2026-04-26T15:41:42.015Z</time></trkpt><trkpt lat="43.3542129" lon="12.9999091"><ele>228.0</ele><time>2026-04-26T15:41:43.035Z</time></trkpt><trkpt lat="43.3544963" lon="12.9999396"><ele>229.0</ele><time>2026-04-26T15:41:44.021Z</time></trkpt><trkpt lat="43.3547798" lon="12.9999454"><ele>230.0</ele><time>2026-04-26T15:41:45.018Z</time></trkpt><trkpt lat="43.35507" lon="12.9999176"><ele>230.0</ele><time>2026-04-26T15:41:46.023Z</time></trkpt><trkpt lat="43.3553645" lon="12.9998665"><ele>230.0</ele><time>2026-04-26T15:41:47.025Z</time></trkpt><trkpt lat="43.3556527" lon="12.9997831"><ele>236.5</ele><time>2026-04-26T15:41:48.022Z</time></trkpt><trkpt lat="43.3559352" lon="12.9996629"><ele>243.0</ele><time>2026-04-26T15:41:49.016Z</time></trkpt><trkpt lat="43.3562096" lon="12.9995133"><ele>247.5</ele><time>2026-04-26T15:41:50.023Z</time></trkpt><trkpt lat="43.3564811" lon="12.9993271"><ele>252.0</ele><time>2026-04-26T15:41:51.021Z</time></trkpt><trkpt lat="43.3567424" lon="12.9991148"><ele>244.0</ele><time>2026-04-26T15:41:52.025Z</time></trkpt><trkpt lat="43.3570024" lon="12.9988806"><ele>236.0</ele><time>2026-04-26T15:41:53.033Z</time></trkpt><trkpt lat="43.3572542" lon="12.9986252"><ele>236.0</ele><time>2026-04-26T15:41:54.022Z</time></trkpt><trkpt lat="43.3574987" lon="12.9983592"><ele>236.0</ele><time>2026-04-26T15:41:55.042Z</time></trkpt><trkpt lat="43.3577435" lon="12.998085"><ele>234.0</ele><time>2026-04-26T15:41:56.007Z</time></trkpt><trkpt lat="43.3579883" lon="12.9978127"><ele>232.0</ele><time>2026-04-26T15:41:57.024Z</time></trkpt><trkpt lat="43.358239" lon="12.9975511"><ele>229.5</ele><time>2026-04-26T15:41:58.013Z</time></trkpt><trkpt lat="43.3584999" lon="12.9973074"><ele>227.0</ele><time>2026-04-26T15:41:59.023Z</time></trkpt><trkpt lat="43.3587721" lon="12.9970806"><ele>229.5</ele><time>2026-04-26T15:42:00.017Z</time></trkpt><trkpt lat="43.3590582" lon="12.9968802"><ele>232.0</ele><time>2026-04-26T15:42:01.026Z</time></trkpt><trkpt lat="43.3593549" lon="12.9967099"><ele>228.0</ele><time>2026-04-26T15:42:02.031Z</time></trkpt><trkpt lat="43.3596561" lon="12.9965514"><ele>224.0</ele><time>2026-04-26T15:42:03.027Z</time></trkpt><trkpt lat="43.3599642" lon="12.996403"><ele>224.0</ele><time>2026-04-26T15:42:04.018Z</time></trkpt><trkpt lat="43.3602817" lon="12.9962572"><ele>224.0</ele><time>2026-04-26T15:42:05.01Z</time></trkpt><trkpt lat="43.3606057" lon="12.9961076"><ele>223.5</ele><time>2026-04-26T15:42:06.023Z</time></trkpt><trkpt lat="43.3609296" lon="12.9959592"><ele>223.0</ele><time>2026-04-26T15:42:07.019Z</time></trkpt><trkpt lat="43.3612465" lon="12.9958128"><ele>223.5</ele><time>2026-04-26T15:42:08.025Z</time></trkpt><trkpt lat="43.3615478" lon="12.9956769"><ele>224.0</ele><time>2026-04-26T15:42:09.015Z</time></trkpt><trkpt lat="43.3618408" lon="12.9955453"><ele>224.0</ele><time>2026-04-26T15:42:10.016Z</time></trkpt><trkpt lat="43.3621305" lon="12.9954187"><ele>224.0</ele><time>2026-04-26T15:42:11.026Z</time></trkpt><trkpt lat="43.3624051" lon="12.995297"><ele>224.5</ele><time>2026-04-26T15:42:12.006Z</time></trkpt><trkpt lat="43.362681" lon="12.9951746"><ele>225.0</ele><time>2026-04-26T15:42:13.022Z</time></trkpt><trkpt lat="43.3629471" lon="12.9950508"><ele>224.5</ele><time>2026-04-26T15:42:14.019Z</time></trkpt><trkpt lat="43.3632072" lon="12.9949301"><ele>224.0</ele><time>2026-04-26T15:42:15.017Z</time></trkpt><trkpt lat="43.3634632" lon="12.9948109"><ele>224.0</ele><time>2026-04-26T15:42:16.02Z</time></trkpt><trkpt lat="43.3637181" lon="12.9946913"><ele>224.0</ele><time>2026-04-26T15:42:17.019Z</time></trkpt><trkpt lat="43.363969" lon="12.9945763"><ele>228.5</ele><time>2026-04-26T15:42:18.004Z</time></trkpt><trkpt lat="43.3642216" lon="12.9944617"><ele>233.0</ele><time>2026-04-26T15:42:19.009Z</time></trkpt><trkpt lat="43.3644727" lon="12.9943452"><ele>230.5</ele><time>2026-04-26T15:42:20.004Z</time></trkpt><trkpt lat="43.3647256" lon="12.9942254"><ele>228.0</ele><time>2026-04-26T15:42:21.017Z</time></trkpt><trkpt lat="43.36498" lon="12.9941017"><ele>228.0</ele><time>2026-04-26T15:42:22.026Z</time></trkpt><trkpt lat="43.3652329" lon="12.9939815"><ele>228.0</ele><time>2026-04-26T15:42:23.021Z</time></trkpt><trkpt lat="43.3654857" lon="12.9938624"><ele>235.5</ele><time>2026-04-26T15:42:24.001Z</time></trkpt><trkpt lat="43.3657404" lon="12.9937555"><ele>243.0</ele><time>2026-04-26T15:42:25.019Z</time></trkpt><trkpt lat="43.3659929" lon="12.9936415"><ele>243.0</ele><time>2026-04-26T15:42:26.013Z</time></trkpt><trkpt lat="43.3662461" lon="12.9935223"><ele>243.0</ele><time>2026-04-26T15:42:27.003Z</time></trkpt><trkpt lat="43.3664952" lon="12.9934032"><ele>233.5</ele><time>2026-04-26T15:42:28.003Z</time></trkpt><trkpt lat="43.3667454" lon="12.9932876"><ele>224.0</ele><time>2026-04-26T15:42:29.011Z</time></trkpt><trkpt lat="43.366994" lon="12.993168"><ele>232.5</ele><time>2026-04-26T15:42:30.02Z</time></trkpt><trkpt lat="43.3672433" lon="12.9930537"><ele>241.0</ele><time>2026-04-26T15:42:31.023Z</time></trkpt><trkpt lat="43.3674843" lon="12.9929387"><ele>241.0</ele><time>2026-04-26T15:42:32.015Z</time></trkpt><trkpt lat="43.367722" lon="12.9928236"><ele>241.0</ele><time>2026-04-26T15:42:33.012Z</time></trkpt><trkpt lat="43.3679499" lon="12.9927133"><ele>234.0</ele><time>2026-04-26T15:42:34.008Z</time></trkpt><trkpt lat="43.3681735" lon="12.992589"><ele>227.0</ele><time>2026-04-26T15:42:35.013Z</time></trkpt><trkpt lat="43.3683887" lon="12.9924631"><ele>227.0</ele><time>2026-04-26T15:42:36.015Z</time></trkpt><trkpt lat="43.368587" lon="12.992335"><ele>227.0</ele><time>2026-04-26T15:42:37.02Z</time></trkpt><trkpt lat="43.3687763" lon="12.9922053"><ele>227.0</ele><time>2026-04-26T15:42:38.011Z</time></trkpt><trkpt lat="43.3689511" lon="12.9920705"><ele>225.66666666666669</ele><time>2026-04-26T15:42:39.016Z</time></trkpt><trkpt lat="43.3691191" lon="12.9919281"><ele>224.33333333333331</ele><time>2026-04-26T15:42:40.014Z</time></trkpt><trkpt lat="43.369284" lon="12.9917777"><ele>223.0</ele><time>2026-04-26T15:42:41.014Z</time></trkpt><trkpt lat="43.3694439" lon="12.9916217"><ele>223.0</ele><time>2026-04-26T15:42:42.019Z</time></trkpt><trkpt lat="43.3696009" lon="12.9914654"><ele>223.0</ele><time>2026-04-26T15:42:43.027Z</time></trkpt><trkpt lat="43.3697491" lon="12.9913105"><ele>223.0</ele><time>2026-04-26T15:42:44.025Z</time></trkpt><trkpt lat="43.3698871" lon="12.9911624"><ele>221.66666666666666</ele><time>2026-04-26T15:42:45.027Z</time></trkpt><trkpt lat="43.3700211" lon="12.9910142"><ele>220.33333333333331</ele><time>2026-04-26T15:42:46.026Z</time></trkpt><trkpt lat="43.3701523" lon="12.9908639"><ele>219.0</ele><time>2026-04-26T15:42:47.023Z</time></trkpt><trkpt lat="43.3702883" lon="12.9907107"><ele>219.0</ele><time>2026-04-26T15:42:48.022Z</time></trkpt><trkpt lat="43.370428" lon="12.99057"><ele>219.0</ele><time>2026-04-26T15:42:49.024Z</time></trkpt><trkpt lat="43.37057" lon="12.990438"><ele>219.0</ele><time>2026-04-26T15:42:50.015Z</time></trkpt><trkpt lat="43.370718" lon="12.9903155"><ele>220.0</ele><time>2026-04-26T15:42:51.027Z</time></trkpt><trkpt lat="43.3708668" lon="12.9901911"><ele>221.0</ele><time>2026-04-26T15:42:52.018Z</time></trkpt><trkpt lat="43.3710142" lon="12.9900661"><ele>222.0</ele><time>2026-04-26T15:42:53.027Z</time></trkpt><trkpt lat="43.3711598" lon="12.9899452"><ele>222.0</ele><time>2026-04-26T15:42:54.023Z</time></trkpt><trkpt lat="43.3713056" lon="12.9898297"><ele>222.0</ele><time>2026-04-26T15:42:55.019Z</time></trkpt><trkpt lat="43.3714591" lon="12.9897206"><ele>222.0</ele><time>2026-04-26T15:42:56.022Z</time></trkpt><trkpt lat="43.3716217" lon="12.9896202"><ele>229.0</ele><time>2026-04-26T15:42:57.022Z</time></trkpt><trkpt lat="43.3717958" lon="12.9895232"><ele>236.0</ele><time>2026-04-26T15:42:58.026Z</time></trkpt><trkpt lat="43.3719699" lon="12.9894345"><ele>243.0</ele><time>2026-04-26T15:42:59.025Z</time></trkpt><trkpt lat="43.3721451" lon="12.989352"><ele>259.0</ele><time>2026-04-26T15:42:59.997Z</time></trkpt><trkpt lat="43.3831492" lon="12.9845199"><ele>259.0</ele><time>2026-04-26T15:44:07.011Z</time></trkpt><trkpt lat="43.3833232" lon="12.9844552"><ele>259.0</ele><time>2026-04-26T15:44:08.026Z</time></trkpt><trkpt lat="43.3834863" lon="12.9843797"><ele>259.0</ele><time>2026-04-26T15:44:09.034Z</time></trkpt><trkpt lat="43.3836551" lon="12.9843046"><ele>259.0</ele><time>2026-04-26T15:44:10.015Z</time></trkpt><trkpt lat="43.3838279" lon="12.9842255"><ele>259.0</ele><time>2026-04-26T15:44:11.032Z</time></trkpt><trkpt lat="43.3840033" lon="12.9841419"><ele>259.0</ele><time>2026-04-26T15:44:12.013Z</time></trkpt><trkpt lat="43.3841824" lon="12.9840627"><ele>257.0</ele><time>2026-04-26T15:44:13.013Z</time></trkpt><trkpt lat="43.3843579" lon="12.9839882"><ele>255.0</ele><time>2026-04-26T15:44:14.012Z</time></trkpt><trkpt lat="43.384531" lon="12.9839109"><ele>253.0</ele><time>2026-04-26T15:44:15.017Z</time></trkpt><trkpt lat="43.3847024" lon="12.9838393"><ele>284.0</ele><time>2026-04-26T15:44:16.007Z</time></trkpt><trkpt lat="43.3858612" lon="12.9833771"><ele>277.0</ele><time>2026-04-26T15:44:24.009Z</time></trkpt><trkpt lat="43.386027" lon="12.9833148"><ele>270.0</ele><time>2026-04-26T15:44:25.02Z</time></trkpt><trkpt lat="43.3862015" lon="12.9832549"><ele>263.0</ele><time>2026-04-26T15:44:26.014Z</time></trkpt><trkpt lat="43.3863867" lon="12.9832099"><ele>263.0</ele><time>2026-04-26T15:44:27.028Z</time></trkpt><trkpt lat="43.386591" lon="12.9831623"><ele>263.0</ele><time>2026-04-26T15:44:28.016Z</time></trkpt><trkpt lat="43.3868111" lon="12.9831249"><ele>263.0</ele><time>2026-04-26T15:44:29.008Z</time></trkpt><trkpt lat="43.3870467" lon="12.9830916"><ele>268.0</ele><time>2026-04-26T15:44:30.013Z</time></trkpt><trkpt lat="43.3872974" lon="12.9830545"><ele>273.0</ele><time>2026-04-26T15:44:31.007Z</time></trkpt><trkpt lat="43.3875558" lon="12.9830192"><ele>273.0</ele><time>2026-04-26T15:44:32.01Z</time></trkpt><trkpt lat="43.3878249" lon="12.9829837"><ele>273.0</ele><time>2026-04-26T15:44:33.019Z</time></trkpt><trkpt lat="43.3880974" lon="12.9829547"><ele>240.0</ele><time>2026-04-26T15:44:34.01Z</time></trkpt><trkpt lat="43.3956343" lon="12.9822788"><ele>240.0</ele><time>2026-04-26T15:44:59.017Z</time></trkpt><trkpt lat="43.3958236" lon="12.9822812"><ele>240.0</ele><time>2026-04-26T15:45:00.013Z</time></trkpt><trkpt lat="43.3960269" lon="12.9822878"><ele>240.0</ele><time>2026-04-26T15:45:01.026Z</time></trkpt><trkpt lat="43.3962109" lon="12.9823026"><ele>239.5</ele><time>2026-04-26T15:45:02.021Z</time></trkpt><trkpt lat="43.3963697" lon="12.9823259"><ele>239.0</ele><time>2026-04-26T15:45:03.012Z</time></trkpt><trkpt lat="43.3965005" lon="12.982362"><ele>238.5</ele><time>2026-04-26T15:45:04.027Z</time></trkpt><trkpt lat="43.3966089" lon="12.9824432"><ele>238.0</ele><time>2026-04-26T15:45:05.02Z</time></trkpt><trkpt lat="43.3966617" lon="12.9825678"><ele>241.60000000000002</ele><time>2026-04-26T15:45:06.018Z</time></trkpt><trkpt lat="43.3966698" lon="12.982703"><ele>245.20000000000002</ele><time>2026-04-26T15:45:07.007Z</time></trkpt><trkpt lat="43.3966264" lon="12.9828152"><ele>248.8</ele><time>2026-04-26T15:45:08.027Z</time></trkpt><trkpt lat="43.3965403" lon="12.9828939"><ele>252.4</ele><time>2026-04-26T15:45:09.027Z</time></trkpt><trkpt lat="43.3964397" lon="12.9829165"><ele>256.0</ele><time>2026-04-26T15:45:10.01Z</time></trkpt><trkpt lat="43.3963442" lon="12.9828814"><ele>255.83333333333331</ele><time>2026-04-26T15:45:11.029Z</time></trkpt><trkpt lat="43.3962514" lon="12.9828236"><ele>255.66666666666666</ele><time>2026-04-26T15:45:12.029Z</time></trkpt><trkpt lat="43.3961674" lon="12.9827801"><ele>255.5</ele><time>2026-04-26T15:45:13.027Z</time></trkpt><trkpt lat="43.3961034" lon="12.9828177"><ele>255.33333333333331</ele><time>2026-04-26T15:45:14.016Z</time></trkpt><trkpt lat="43.3960595" lon="12.9829255"><ele>255.16666666666666</ele><time>2026-04-26T15:45:15.013Z</time></trkpt><trkpt lat="43.3960313" lon="12.9830412"><ele>255.0</ele><time>2026-04-26T15:45:16.006Z</time></trkpt><trkpt lat="43.3959697" lon="12.9831337"><ele>255.0</ele><time>2026-04-26T15:45:17.019Z</time></trkpt><trkpt lat="43.3958703" lon="12.9831513"><ele>255.0</ele><time>2026-04-26T15:45:18.013Z</time></trkpt><trkpt lat="43.3957649" lon="12.9830999"><ele>255.0</ele><time>2026-04-26T15:45:19.01Z</time></trkpt><trkpt lat="43.3956704" lon="12.9830201"><ele>255.0</ele><time>2026-04-26T15:45:20.021Z</time></trkpt><trkpt lat="43.3955616" lon="12.9829264"><ele>259.0</ele><time>2026-04-26T15:45:21.011Z</time></trkpt><trkpt lat="43.3954276" lon="12.9828417"><ele>263.0</ele><time>2026-04-26T15:45:22.035Z</time></trkpt><trkpt lat="43.3952837" lon="12.9827588"><ele>267.0</ele><time>2026-04-26T15:45:23.018Z</time></trkpt><trkpt lat="43.3951533" lon="12.982658"><ele>267.0</ele><time>2026-04-26T15:45:24.012Z</time></trkpt><trkpt lat="43.395056" lon="12.9825414"><ele>267.0</ele><time>2026-04-26T15:45:25.013Z</time></trkpt><trkpt lat="43.3949703" lon="12.9824557"><ele>267.0</ele><time>2026-04-26T15:45:26.018Z</time></trkpt><trkpt lat="43.3948865" lon="12.9824443"><ele>267.0</ele><time>2026-04-26T15:45:27.022Z</time></trkpt><trkpt lat="43.3948303" lon="12.9825061"><ele>267.0</ele><time>2026-04-26T15:45:28.028Z</time></trkpt><trkpt lat="43.3948278" lon="12.9826376"><ele>267.0</ele><time>2026-04-26T15:45:30.024Z</time></trkpt><trkpt lat="43.394928" lon="12.9827324"><ele>267.0</ele><time>2026-04-26T15:45:32.038Z</time></trkpt><trkpt lat="43.395027" lon="12.9827779"><ele>267.0</ele><time>2026-04-26T15:45:33.023Z</time></trkpt><trkpt lat="43.3951441" lon="12.9828499"><ele>267.0</ele><time>2026-04-26T15:45:34.028Z</time></trkpt><trkpt lat="43.3952683" lon="12.9829529"><ele>267.0</ele><time>2026-04-26T15:45:35.018Z</time></trkpt><trkpt lat="43.3953995" lon="12.9830795"><ele>267.0</ele><time>2026-04-26T15:45:36.012Z</time></trkpt><trkpt lat="43.3955478" lon="12.9832109"><ele>267.0</ele><time>2026-04-26T15:45:37.025Z</time></trkpt><trkpt lat="43.3957219" lon="12.9833214"><ele>268.6666666666667</ele><time>2026-04-26T15:45:38.022Z</time></trkpt><trkpt lat="43.3959207" lon="12.9833836"><ele>270.33333333333337</ele><time>2026-04-26T15:45:39.032Z</time></trkpt><trkpt lat="43.3961289" lon="12.9833912"><ele>272.0</ele><time>2026-04-26T15:45:40.026Z</time></trkpt><trkpt lat="43.3963532" lon="12.9833352"><ele>264.0</ele><time>2026-04-26T15:45:41.026Z</time></trkpt><trkpt lat="43.3965778" lon="12.9832706"><ele>256.0</ele><time>2026-04-26T15:45:42.031Z</time></trkpt><trkpt lat="43.3968028" lon="12.9831999"><ele>256.0</ele><time>2026-04-26T15:45:43.023Z</time></trkpt><trkpt lat="43.3970322" lon="12.9831207"><ele>256.0</ele><time>2026-04-26T15:45:44.007Z</time></trkpt><trkpt lat="43.397258" lon="12.9830389"><ele>258.66666666666663</ele><time>2026-04-26T15:45:45.02Z</time></trkpt><trkpt lat="43.3974757" lon="12.9829615"><ele>261.3333333333333</ele><time>2026-04-26T15:45:46.023Z</time></trkpt><trkpt lat="43.3976778" lon="12.9828789"><ele>264.0</ele><time>2026-04-26T15:45:47.018Z</time></trkpt><trkpt lat="43.3978741" lon="12.9828053"><ele>265.0</ele><time>2026-04-26T15:45:48.013Z</time></trkpt><trkpt lat="43.3980604" lon="12.98274"><ele>266.0</ele><time>2026-04-26T15:45:49.025Z</time></trkpt><trkpt lat="43.3982398" lon="12.9826766"><ele>267.0</ele><time>2026-04-26T15:45:50.011Z</time></trkpt><trkpt lat="43.3984089" lon="12.9826263"><ele>267.0</ele><time>2026-04-26T15:45:51.017Z</time></trkpt><trkpt lat="43.3985625" lon="12.9825823"><ele>267.0</ele><time>2026-04-26T15:45:52.017Z</time></trkpt><trkpt lat="43.3987063" lon="12.9825389"><ele>267.0</ele><time>2026-04-26T15:45:53.028Z</time></trkpt><trkpt lat="43.3988392" lon="12.9824733"><ele>267.0</ele><time>2026-04-26T15:45:54.017Z</time></trkpt><trkpt lat="43.3989604" lon="12.9823687"><ele>263.25</ele><time>2026-04-26T15:45:55.015Z</time></trkpt><trkpt lat="43.3990346" lon="12.9822117"><ele>259.5</ele><time>2026-04-26T15:45:56.021Z</time></trkpt><trkpt lat="43.3990718" lon="12.9820278"><ele>255.75</ele><time>2026-04-26T15:45:57.022Z</time></trkpt><trkpt lat="43.3991008" lon="12.9818376"><ele>252.0</ele><time>2026-04-26T15:45:58.003Z</time></trkpt><trkpt lat="43.3991515" lon="12.9816499"><ele>246.66666666666669</ele><time>2026-04-26T15:45:59.015Z</time></trkpt><trkpt lat="43.3992212" lon="12.9814703"><ele>241.33333333333334</ele><time>2026-04-26T15:46:00.026Z</time></trkpt><trkpt lat="43.3993375" lon="12.9813249"><ele>236.0</ele><time>2026-04-26T15:46:01.011Z</time></trkpt><trkpt lat="43.3994845" lon="12.9812173"><ele>236.0</ele><time>2026-04-26T15:46:02.018Z</time></trkpt><trkpt lat="43.3996501" lon="12.981133"><ele>236.0</ele><time>2026-04-26T15:46:03.021Z</time></trkpt><trkpt lat="43.3998258" lon="12.9810519"><ele>236.0</ele><time>2026-04-26T15:46:04.02Z</time></trkpt><trkpt lat="43.4000048" lon="12.980964"><ele>236.33333333333334</ele><time>2026-04-26T15:46:05.032Z</time></trkpt><trkpt lat="43.4001725" lon="12.9808757"><ele>236.66666666666669</ele><time>2026-04-26T15:46:06.026Z</time></trkpt><trkpt lat="43.4003273" lon="12.9807887"><ele>237.0</ele><time>2026-04-26T15:46:07.031Z</time></trkpt><trkpt lat="43.4004741" lon="12.9806955"><ele>233.33333333333331</ele><time>2026-04-26T15:46:08.027Z</time></trkpt><trkpt lat="43.4006175" lon="12.9806054"><ele>229.66666666666666</ele><time>2026-04-26T15:46:09.032Z</time></trkpt><trkpt lat="43.4007537" lon="12.9805202"><ele>226.0</ele><time>2026-04-26T15:46:10.028Z</time></trkpt><trkpt lat="43.4008988" lon="12.9804617"><ele>226.0</ele><time>2026-04-26T15:46:11.028Z</time></trkpt><trkpt lat="43.4010489" lon="12.980418"><ele>226.0</ele><time>2026-04-26T15:46:12.018Z</time></trkpt><trkpt lat="43.4012041" lon="12.9803692"><ele>226.0</ele><time>2026-04-26T15:46:13.027Z</time></trkpt><trkpt lat="43.4013582" lon="12.980318"><ele>225.5</ele><time>2026-04-26T15:46:14.012Z</time></trkpt><trkpt lat="43.401503" lon="12.9802574"><ele>225.0</ele><time>2026-04-26T15:46:15.027Z</time></trkpt><trkpt lat="43.4016418" lon="12.9801843"><ele>224.5</ele><time>2026-04-26T15:46:16.034Z</time></trkpt><trkpt lat="43.4017669" lon="12.9800938"><ele>224.0</ele><time>2026-04-26T15:46:17.014Z</time></trkpt><trkpt lat="43.4018744" lon="12.9799871"><ele>221.0</ele><time>2026-04-26T15:46:18.026Z</time></trkpt><trkpt lat="43.4019614" lon="12.9798753"><ele>217.99999999999997</ele><time>2026-04-26T15:46:19.019Z</time></trkpt><trkpt lat="43.4020333" lon="12.9797536"><ele>215.0</ele><time>2026-04-26T15:46:20.019Z</time></trkpt><trkpt lat="43.4020738" lon="12.9796213"><ele>212.0</ele><time>2026-04-26T15:46:21.016Z</time></trkpt><trkpt lat="43.4020962" lon="12.9794717"><ele>209.0</ele><time>2026-04-26T15:46:22.023Z</time></trkpt><trkpt lat="43.4021107" lon="12.9793033"><ele>206.0</ele><time>2026-04-26T15:46:23.023Z</time></trkpt><trkpt lat="43.4021182" lon="12.9791293"><ele>203.0</ele><time>2026-04-26T15:46:24.012Z</time></trkpt><trkpt lat="43.4021327" lon="12.9789643"><ele>200.0</ele><time>2026-04-26T15:46:25.027Z</time></trkpt><trkpt lat="43.402163" lon="12.9788067"><ele>197.0</ele><time>2026-04-26T15:46:26.019Z</time></trkpt><trkpt lat="43.4022233" lon="12.9786854"><ele>196.8</ele><time>2026-04-26T15:46:27.018Z</time></trkpt><trkpt lat="43.402316" lon="12.9786323"><ele>196.6</ele><time>2026-04-26T15:46:28.023Z</time></trkpt><trkpt lat="43.4024007" lon="12.978663"><ele>196.4</ele><time>2026-04-26T15:46:29.025Z</time></trkpt><trkpt lat="43.4024852" lon="12.9787555"><ele>196.20000000000002</ele><time>2026-04-26T15:46:30.021Z</time></trkpt><trkpt lat="43.4025321" lon="12.9788662"><ele>196.0</ele><time>2026-04-26T15:46:31.007Z</time></trkpt><trkpt lat="43.4025236" lon="12.9790256"><ele>196.5</ele><time>2026-04-26T15:46:32.022Z</time></trkpt><trkpt lat="43.4024799" lon="12.979195"><ele>197.0</ele><time>2026-04-26T15:46:33.022Z</time></trkpt><trkpt lat="43.4024318" lon="12.9793734"><ele>197.5</ele><time>2026-04-26T15:46:34.019Z</time></trkpt><trkpt lat="43.4023994" lon="12.9795608"><ele>198.0</ele><time>2026-04-26T15:46:35.024Z</time></trkpt><trkpt lat="43.4023836" lon="12.9797763"><ele>198.0</ele><time>2026-04-26T15:46:36.013Z</time></trkpt><trkpt lat="43.4023779" lon="12.9800114"><ele>198.0</ele><time>2026-04-26T15:46:37.011Z</time></trkpt><trkpt lat="43.4023809" lon="12.9802651"><ele>198.0</ele><time>2026-04-26T15:46:38Z</time></trkpt><trkpt lat="43.4023933" lon="12.98051"><ele>198.33333333333331</ele><time>2026-04-26T15:46:39.022Z</time></trkpt><trkpt lat="43.4024083" lon="12.9807427"><ele>198.66666666666666</ele><time>2026-04-26T15:46:40.02Z</time></trkpt><trkpt lat="43.402419" lon="12.9809586"><ele>199.0</ele><time>2026-04-26T15:46:41.018Z</time></trkpt><trkpt lat="43.4024289" lon="12.9811643"><ele>199.0</ele><time>2026-04-26T15:46:42.027Z</time></trkpt><trkpt lat="43.4024367" lon="12.9813534"><ele>199.0</ele><time>2026-04-26T15:46:43.026Z</time></trkpt><trkpt lat="43.4024541" lon="12.9815266"><ele>199.0</ele><time>2026-04-26T15:46:44.017Z</time></trkpt><trkpt lat="43.4025011" lon="12.9816769"><ele>199.0</ele><time>2026-04-26T15:46:45.021Z</time></trkpt><trkpt lat="43.4026059" lon="12.9818026"><ele>204.33333333333331</ele><time>2026-04-26T15:46:46.01Z</time></trkpt><trkpt lat="43.4027343" lon="12.9818557"><ele>209.66666666666669</ele><time>2026-04-26T15:46:47.022Z</time></trkpt><trkpt lat="43.4028889" lon="12.9818798"><ele>215.0</ele><time>2026-04-26T15:46:48.011Z</time></trkpt><trkpt lat="43.4030676" lon="12.9818737"><ele>216.33333333333334</ele><time>2026-04-26T15:46:49.031Z</time></trkpt><trkpt lat="43.403245" lon="12.9818665"><ele>217.66666666666669</ele><time>2026-04-26T15:46:50.024Z</time></trkpt><trkpt lat="43.4034407" lon="12.9818558"><ele>219.0</ele><time>2026-04-26T15:46:51.018Z</time></trkpt><trkpt lat="43.4036426" lon="12.9818402"><ele>219.66666666666669</ele><time>2026-04-26T15:46:52.019Z</time></trkpt><trkpt lat="43.4038572" lon="12.9818289"><ele>220.33333333333334</ele><time>2026-04-26T15:46:53.022Z</time></trkpt><trkpt lat="43.4040787" lon="12.9818155"><ele>221.0</ele><time>2026-04-26T15:46:54.011Z</time></trkpt><trkpt lat="43.4043207" lon="12.9817978"><ele>221.0</ele><time>2026-04-26T15:46:55.027Z</time></trkpt><trkpt lat="43.4045708" lon="12.9817546"><ele>221.0</ele><time>2026-04-26T15:46:56.012Z</time></trkpt><trkpt lat="43.4048154" lon="12.9816942"><ele>211.5</ele><time>2026-04-26T15:46:57.018Z</time></trkpt><trkpt lat="43.4050467" lon="12.9816165"><ele>202.0</ele><time>2026-04-26T15:46:58.014Z</time></trkpt><trkpt lat="43.4052636" lon="12.9815321"><ele>202.0</ele><time>2026-04-26T15:46:59.02Z</time></trkpt><trkpt lat="43.405467" lon="12.9814493"><ele>202.0</ele><time>2026-04-26T15:47:00.025Z</time></trkpt><trkpt lat="43.405663" lon="12.9813738"><ele>202.0</ele><time>2026-04-26T15:47:01.017Z</time></trkpt><trkpt lat="43.4058488" lon="12.9813089"><ele>203.33333333333331</ele><time>2026-04-26T15:47:02.017Z</time></trkpt><trkpt lat="43.4060236" lon="12.9812491"><ele>204.66666666666669</ele><time>2026-04-26T15:47:03.018Z</time></trkpt><trkpt lat="43.40618" lon="12.9811903"><ele>206.0</ele><time>2026-04-26T15:47:04.016Z</time></trkpt><trkpt lat="43.4063182" lon="12.9811392"><ele>206.8</ele><time>2026-04-26T15:47:05.018Z</time></trkpt><trkpt lat="43.4064389" lon="12.9810857"><ele>207.60000000000002</ele><time>2026-04-26T15:47:06.014Z</time></trkpt><trkpt lat="43.4065306" lon="12.9810383"><ele>208.4</ele><time>2026-04-26T15:47:07.015Z</time></trkpt><trkpt lat="43.4065892" lon="12.980972"><ele>209.2</ele><time>2026-04-26T15:47:08.008Z</time></trkpt><trkpt lat="43.4066117" lon="12.9808742"><ele>210.0</ele><time>2026-04-26T15:47:09.031Z</time></trkpt><trkpt lat="43.4066119" lon="12.9807633"><ele>206.5</ele><time>2026-04-26T15:47:10.003Z</time></trkpt><trkpt lat="43.4065843" lon="12.9806804"><ele>203.0</ele><time>2026-04-26T15:47:11.006Z</time></trkpt><trkpt lat="43.4065319" lon="12.980603"><ele>199.5</ele><time>2026-04-26T15:47:12.019Z</time></trkpt><trkpt lat="43.4064809" lon="12.9805053"><ele>196.0</ele><time>2026-04-26T15:47:13.018Z</time></trkpt><trkpt lat="43.4064232" lon="12.9804032"><ele>192.5</ele><time>2026-04-26T15:47:14.001Z</time></trkpt><trkpt lat="43.4063658" lon="12.980295"><ele>189.0</ele><time>2026-04-26T15:47:15.017Z</time></trkpt><trkpt lat="43.4063114" lon="12.9801899"><ele>189.0</ele><time>2026-04-26T15:47:16.003Z</time></trkpt><trkpt lat="43.4062615" lon="12.98009"><ele>189.0</ele><time>2026-04-26T15:47:17.009Z</time></trkpt><trkpt lat="43.4062208" lon="12.9800025"><ele>189.0</ele><time>2026-04-26T15:47:18.019Z</time></trkpt><trkpt lat="43.4061798" lon="12.9799215"><ele>189.0</ele><time>2026-04-26T15:47:19.011Z</time></trkpt><trkpt lat="43.4061376" lon="12.9798436"><ele>189.0</ele><time>2026-04-26T15:47:19.999Z</time></trkpt><trkpt lat="43.4060986" lon="12.9797733"><ele>189.0</ele><time>2026-04-26T15:47:21.007Z</time></trkpt><trkpt lat="43.4060399" lon="12.9796562"><ele>188.5</ele><time>2026-04-26T15:47:23.008Z</time></trkpt><trkpt lat="43.4059907" lon="12.9795713"><ele>188.0</ele><time>2026-04-26T15:47:25.004Z</time></trkpt><trkpt lat="43.405956" lon="12.9794977"><ele>187.5</ele><time>2026-04-26T15:47:27.019Z</time></trkpt><trkpt lat="43.4059149" lon="12.9794252"><ele>187.0</ele><time>2026-04-26T15:47:29.018Z</time></trkpt><trkpt lat="43.4058486" lon="12.9793185"><ele>186.5</ele><time>2026-04-26T15:47:31.01Z</time></trkpt><trkpt lat="43.4058144" lon="12.9792417"><ele>186.0</ele><time>2026-04-26T15:47:32Z</time></trkpt><trkpt lat="43.4057714" lon="12.9791536"><ele>186.0</ele><time>2026-04-26T15:47:33.019Z</time></trkpt><trkpt lat="43.4057183" lon="12.9790561"><ele>186.0</ele><time>2026-04-26T15:47:34.023Z</time></trkpt><trkpt lat="43.4056591" lon="12.9789469"><ele>186.0</ele><time>2026-04-26T15:47:35.031Z</time></trkpt><trkpt lat="43.4055922" lon="12.9788276"><ele>186.0</ele><time>2026-04-26T15:47:36.009Z</time></trkpt><trkpt lat="43.4055227" lon="12.9786897"><ele>186.0</ele><time>2026-04-26T15:47:37.023Z</time></trkpt><trkpt lat="43.4054451" lon="12.9785539"><ele>186.25</ele><time>2026-04-26T15:47:38.014Z</time></trkpt><trkpt lat="43.4053701" lon="12.9784098"><ele>186.5</ele><time>2026-04-26T15:47:39.022Z</time></trkpt><trkpt lat="43.4052925" lon="12.9782537"><ele>186.75</ele><time>2026-04-26T15:47:40.015Z</time></trkpt><trkpt lat="43.4052078" lon="12.978096"><ele>187.0</ele><time>2026-04-26T15:47:41.015Z</time></trkpt><trkpt lat="43.4051211" lon="12.9779293"><ele>187.75</ele><time>2026-04-26T15:47:42.021Z</time></trkpt><trkpt lat="43.4050428" lon="12.9777511"><ele>188.5</ele><time>2026-04-26T15:47:43.013Z</time></trkpt><trkpt lat="43.4049728" lon="12.9775847"><ele>189.25</ele><time>2026-04-26T15:47:44.033Z</time></trkpt><trkpt lat="43.40491" lon="12.9774237"><ele>190.0</ele><time>2026-04-26T15:47:45.016Z</time></trkpt><trkpt lat="43.4048719" lon="12.9772678"><ele>192.25</ele><time>2026-04-26T15:47:46.013Z</time></trkpt><trkpt lat="43.4048402" lon="12.9771137"><ele>194.5</ele><time>2026-04-26T15:47:47.027Z</time></trkpt><trkpt lat="43.4048134" lon="12.9769598"><ele>196.75</ele><time>2026-04-26T15:47:48.018Z</time></trkpt><trkpt lat="43.4047918" lon="12.9768064"><ele>199.0</ele><time>2026-04-26T15:47:49.021Z</time></trkpt><trkpt lat="43.4047737" lon="12.9766553"><ele>202.5</ele><time>2026-04-26T15:47:50.015Z</time></trkpt><trkpt lat="43.4047482" lon="12.9764961"><ele>206.0</ele><time>2026-04-26T15:47:51.03Z</time></trkpt><trkpt lat="43.404722" lon="12.9763326"><ele>209.5</ele><time>2026-04-26T15:47:52.011Z</time></trkpt><trkpt lat="43.4046965" lon="12.9761698"><ele>213.0</ele><time>2026-04-26T15:47:53.017Z</time></trkpt><trkpt lat="43.4046766" lon="12.9760057"><ele>207.75</ele><time>2026-04-26T15:47:54.009Z</time></trkpt><trkpt lat="43.4046506" lon="12.9758406"><ele>202.5</ele><time>2026-04-26T15:47:55.016Z</time></trkpt><trkpt lat="43.4046128" lon="12.9756744"><ele>197.25</ele><time>2026-04-26T15:47:56.013Z</time></trkpt><trkpt lat="43.4045587" lon="12.9755098"><ele>192.0</ele><time>2026-04-26T15:47:57.017Z</time></trkpt><trkpt lat="43.4044829" lon="12.9753568"><ele>192.0</ele><time>2026-04-26T15:47:58.015Z</time></trkpt><trkpt lat="43.4043953" lon="12.9752077"><ele>192.0</ele><time>2026-04-26T15:47:59.015Z</time></trkpt><trkpt lat="43.4042963" lon="12.975069"><ele>192.0</ele><time>2026-04-26T15:48:00.015Z</time></trkpt><trkpt lat="43.4041822" lon="12.9749404"><ele>192.0</ele><time>2026-04-26T15:48:01.021Z</time></trkpt><trkpt lat="43.4040578" lon="12.9748391"><ele>193.33333333333331</ele><time>2026-04-26T15:48:02.017Z</time></trkpt><trkpt lat="43.4039171" lon="12.9747474"><ele>194.66666666666666</ele><time>2026-04-26T15:48:03.024Z</time></trkpt><trkpt lat="43.4037665" lon="12.9746847"><ele>196.0</ele><time>2026-04-26T15:48:04.02Z</time></trkpt><trkpt lat="43.4036082" lon="12.9746444"><ele>196.0</ele><time>2026-04-26T15:48:05.022Z</time></trkpt><trkpt lat="43.4034466" lon="12.9746178"><ele>196.0</ele><time>2026-04-26T15:48:06.021Z</time></trkpt><trkpt lat="43.4032845" lon="12.9745979"><ele>196.0</ele><time>2026-04-26T15:48:07.028Z</time></trkpt><trkpt lat="43.4031224" lon="12.9745768"><ele>196.33333333333331</ele><time>2026-04-26T15:48:08.022Z</time></trkpt><trkpt lat="43.4029593" lon="12.974557"><ele>196.66666666666669</ele><time>2026-04-26T15:48:09.02Z</time></trkpt><trkpt lat="43.4027955" lon="12.9745259"><ele>197.0</ele><time>2026-04-26T15:48:10.017Z</time></trkpt><trkpt lat="43.4026291" lon="12.9744962"><ele>197.0</ele><time>2026-04-26T15:48:11.02Z</time></trkpt><trkpt lat="43.4024649" lon="12.9744698"><ele>197.0</ele><time>2026-04-26T15:48:12.02Z</time></trkpt><trkpt lat="43.4023023" lon="12.9744436"><ele>197.0</ele><time>2026-04-26T15:48:13.03Z</time></trkpt><trkpt lat="43.40215" lon="12.9744192"><ele>201.25</ele><time>2026-04-26T15:48:14.023Z</time></trkpt><trkpt lat="43.4020118" lon="12.9743763"><ele>205.5</ele><time>2026-04-26T15:48:15.027Z</time></trkpt><trkpt lat="43.4018841" lon="12.9743071"><ele>209.75</ele><time>2026-04-26T15:48:16.013Z</time></trkpt><trkpt lat="43.401775" lon="12.9742122"><ele>214.0</ele><time>2026-04-26T15:48:17.023Z</time></trkpt><trkpt lat="43.4016901" lon="12.9740996"><ele>214.0</ele><time>2026-04-26T15:48:18.029Z</time></trkpt><trkpt lat="43.4016399" lon="12.9739744"><ele>213.99999999999997</ele><time>2026-04-26T15:48:19.022Z</time></trkpt><trkpt lat="43.4016402" lon="12.9738474"><ele>213.99999999999997</ele><time>2026-04-26T15:48:20.004Z</time></trkpt><trkpt lat="43.4016877" lon="12.973757"><ele>214.0</ele><time>2026-04-26T15:48:21.024Z</time></trkpt><trkpt lat="43.4017607" lon="12.9737023"><ele>214.0</ele><time>2026-04-26T15:48:22.022Z</time></trkpt><trkpt lat="43.4018473" lon="12.9736689"><ele>214.0</ele><time>2026-04-26T15:48:23.008Z</time></trkpt><trkpt lat="43.4019508" lon="12.9736721"><ele>214.0</ele><time>2026-04-26T15:48:24.008Z</time></trkpt><trkpt lat="43.4020581" lon="12.97364"><ele>214.0</ele><time>2026-04-26T15:48:25.011Z</time></trkpt><trkpt lat="43.4021645" lon="12.9735536"><ele>214.0</ele><time>2026-04-26T15:48:26.013Z</time></trkpt><trkpt lat="43.4022759" lon="12.9734436"><ele>214.75</ele><time>2026-04-26T15:48:27.023Z</time></trkpt><trkpt lat="43.4023771" lon="12.9733139"><ele>215.5</ele><time>2026-04-26T15:48:28.015Z</time></trkpt><trkpt lat="43.4024645" lon="12.9731924"><ele>216.25</ele><time>2026-04-26T15:48:29.027Z</time></trkpt><trkpt lat="43.4025375" lon="12.9730528"><ele>217.0</ele><time>2026-04-26T15:48:30.014Z</time></trkpt><trkpt lat="43.4025893" lon="12.9729099"><ele>217.0</ele><time>2026-04-26T15:48:31.011Z</time></trkpt><trkpt lat="43.4026238" lon="12.9727623"><ele>217.0</ele><time>2026-04-26T15:48:32.01Z</time></trkpt><trkpt lat="43.4026481" lon="12.9726131"><ele>217.0</ele><time>2026-04-26T15:48:33.013Z</time></trkpt><trkpt lat="43.4026635" lon="12.9724622"><ele>217.0</ele><time>2026-04-26T15:48:34.011Z</time></trkpt><trkpt lat="43.4026796" lon="12.9723115"><ele>217.0</ele><time>2026-04-26T15:48:35Z</time></trkpt><trkpt lat="43.4026986" lon="12.9721395"><ele>214.6</ele><time>2026-04-26T15:48:36.033Z</time></trkpt><trkpt lat="43.4027144" lon="12.9719805"><ele>212.2</ele><time>2026-04-26T15:48:37.017Z</time></trkpt><trkpt lat="43.4027275" lon="12.9718365"><ele>209.8</ele><time>2026-04-26T15:48:38.014Z</time></trkpt><trkpt lat="43.4027415" lon="12.9716997"><ele>207.4</ele><time>2026-04-26T15:48:39.015Z</time></trkpt><trkpt lat="43.4027644" lon="12.971565"><ele>205.0</ele><time>2026-04-26T15:48:40.019Z</time></trkpt><trkpt lat="43.402806" lon="12.9714493"><ele>203.99999999999997</ele><time>2026-04-26T15:48:41.029Z</time></trkpt><trkpt lat="43.4028486" lon="12.9713523"><ele>203.0</ele><time>2026-04-26T15:48:42.015Z</time></trkpt><trkpt lat="43.4028801" lon="12.9712675"><ele>202.0</ele><time>2026-04-26T15:48:43.012Z</time></trkpt><trkpt lat="43.4028803" lon="12.9711042"><ele>201.0</ele><time>2026-04-26T15:48:45.028Z</time></trkpt><trkpt lat="43.4027868" lon="12.9710268"><ele>199.99999999999997</ele><time>2026-04-26T15:48:47.033Z</time></trkpt><trkpt lat="43.4027295" lon="12.9709755"><ele>199.0</ele><time>2026-04-26T15:48:51.029Z</time></trkpt><trkpt lat="43.4026581" lon="12.9709372"><ele>198.99999999999997</ele><time>2026-04-26T15:48:55.025Z</time></trkpt><trkpt lat="43.4025949" lon="12.9708708"><ele>199.0</ele><time>2026-04-26T15:48:57.022Z</time></trkpt><trkpt lat="43.4025241" lon="12.9709196"><ele>199.0</ele><time>2026-04-26T15:49:01.018Z</time></trkpt><trkpt lat="43.4024736" lon="12.9709942"><ele>199.0</ele><time>2026-04-26T15:49:03.002Z</time></trkpt><trkpt lat="43.4024238" lon="12.971068"><ele>198.99999999999997</ele><time>2026-04-26T15:49:05.026Z</time></trkpt><trkpt lat="43.4023526" lon="12.9711527"><ele>199.0</ele><time>2026-04-26T15:49:07.023Z</time></trkpt><trkpt lat="43.4022459" lon="12.9712459"><ele>198.99999999999997</ele><time>2026-04-26T15:49:09.018Z</time></trkpt><trkpt lat="43.4021792" lon="12.9712956"><ele>199.0</ele><time>2026-04-26T15:49:10.019Z</time></trkpt><trkpt lat="43.4021094" lon="12.9713495"><ele>199.0</ele><time>2026-04-26T15:49:11.023Z</time></trkpt><trkpt lat="43.402041" lon="12.9714065"><ele>199.0</ele><time>2026-04-26T15:49:12.008Z</time></trkpt><trkpt lat="43.4019726" lon="12.9714647"><ele>198.99999999999997</ele><time>2026-04-26T15:49:13.021Z</time></trkpt><trkpt lat="43.4019112" lon="12.9715291"><ele>199.0</ele><time>2026-04-26T15:49:14.005Z</time></trkpt><trkpt lat="43.4018615" lon="12.9715839"><ele>198.99999999999997</ele><time>2026-04-26T15:49:15.03Z</time></trkpt><trkpt lat="43.4018059" lon="12.9716404"><ele>199.0</ele><time>2026-04-26T15:49:16.024Z</time></trkpt><trkpt lat="43.4017493" lon="12.9716967"><ele>199.0</ele><time>2026-04-26T15:49:17.03Z</time></trkpt><trkpt lat="43.4016934" lon="12.971749"><ele>199.0</ele><time>2026-04-26T15:49:18.019Z</time></trkpt><trkpt lat="43.4015947" lon="12.9718342"><ele>198.99999999999997</ele><time>2026-04-26T15:49:20.025Z</time></trkpt><trkpt lat="43.4015164" lon="12.9718955"><ele>199.0</ele><time>2026-04-26T15:49:22.021Z</time></trkpt><trkpt lat="43.4016006" lon="12.9718509"><ele>198.99999999999997</ele><time>2026-04-26T15:49:28.013Z</time></trkpt><trkpt lat="43.4016871" lon="12.971738"><ele>199.0</ele><time>2026-04-26T15:49:30.026Z</time></trkpt><trkpt lat="43.4017355" lon="12.9716774"><ele>199.0</ele><time>2026-04-26T15:49:31.005Z</time></trkpt><trkpt lat="43.4017958" lon="12.9716152"><ele>199.0</ele><time>2026-04-26T15:49:32.004Z</time></trkpt><trkpt lat="43.401863" lon="12.9715539"><ele>198.99999999999997</ele><time>2026-04-26T15:49:33.024Z</time></trkpt><trkpt lat="43.4019309" lon="12.9714951"><ele>199.0</ele><time>2026-04-26T15:49:34.013Z</time></trkpt><trkpt lat="43.4019982" lon="12.9714312"><ele>198.99999999999997</ele><time>2026-04-26T15:49:35.009Z</time></trkpt><trkpt lat="43.4020662" lon="12.9713683"><ele>199.0</ele><time>2026-04-26T15:49:36.018Z</time></trkpt><trkpt lat="43.402136" lon="12.9713162"><ele>199.0</ele><time>2026-04-26T15:49:37.021Z</time></trkpt><trkpt lat="43.4022041" lon="12.9712771"><ele>199.0</ele><time>2026-04-26T15:49:38.007Z</time></trkpt><trkpt lat="43.4022628" lon="12.971243"><ele>198.99999999999997</ele><time>2026-04-26T15:49:39.018Z</time></trkpt><trkpt lat="43.4023491" lon="12.9711878"><ele>199.0</ele><time>2026-04-26T15:49:41.02Z</time></trkpt><trkpt lat="43.4024198" lon="12.9711563"><ele>198.99999999999997</ele><time>2026-04-26T15:49:44.026Z</time></trkpt><trkpt lat="43.40244" lon="12.9710682"><ele>199.0</ele><time>2026-04-26T16:07:03.012Z</time></trkpt><trkpt lat="43.4024899" lon="12.9709949"><ele>199.0</ele><time>2026-04-26T16:07:05.012Z</time></trkpt><trkpt lat="43.4025269" lon="12.9709246"><ele>199.0</ele><time>2026-04-26T16:07:06.02Z</time></trkpt><trkpt lat="43.4026047" lon="12.9707782"><ele>198.99999999999997</ele><time>2026-04-26T16:07:08.018Z</time></trkpt><trkpt lat="43.4026315" lon="12.9706781"><ele>199.0</ele><time>2026-04-26T16:07:09.038Z</time></trkpt><trkpt lat="43.4026504" lon="12.9705509"><ele>199.0</ele><time>2026-04-26T16:07:10.018Z</time></trkpt><trkpt lat="43.4026639" lon="12.9704189"><ele>199.0</ele><time>2026-04-26T16:07:11.024Z</time></trkpt><trkpt lat="43.4026712" lon="12.9702785"><ele>199.0</ele><time>2026-04-26T16:07:12.011Z</time></trkpt><trkpt lat="43.4026667" lon="12.9701415"><ele>199.0</ele><time>2026-04-26T16:07:13.039Z</time></trkpt><trkpt lat="43.4026586" lon="12.9699959"><ele>199.0</ele><time>2026-04-26T16:07:14.026Z</time></trkpt><trkpt lat="43.4026442" lon="12.9698463"><ele>199.79999999999998</ele><time>2026-04-26T16:07:15.017Z</time></trkpt><trkpt lat="43.402629" lon="12.9697047"><ele>200.6</ele><time>2026-04-26T16:07:16.021Z</time></trkpt><trkpt lat="43.4026168" lon="12.9695647"><ele>201.4</ele><time>2026-04-26T16:07:17.024Z</time></trkpt><trkpt lat="43.4026084" lon="12.9694209"><ele>202.2</ele><time>2026-04-26T16:07:18.007Z</time></trkpt><trkpt lat="43.4026042" lon="12.9692723"><ele>203.0</ele><time>2026-04-26T16:07:19.021Z</time></trkpt><trkpt lat="43.4026166" lon="12.9691186"><ele>203.8</ele><time>2026-04-26T16:07:20.017Z</time></trkpt><trkpt lat="43.4026458" lon="12.9689765"><ele>204.60000000000002</ele><time>2026-04-26T16:07:21.026Z</time></trkpt><trkpt lat="43.4026867" lon="12.9688346"><ele>205.39999999999998</ele><time>2026-04-26T16:07:22.019Z</time></trkpt><trkpt lat="43.4027246" lon="12.9687086"><ele>206.2</ele><time>2026-04-26T16:07:23.027Z</time></trkpt><trkpt lat="43.4027519" lon="12.9685849"><ele>207.0</ele><time>2026-04-26T16:07:24.023Z</time></trkpt><trkpt lat="43.4027558" lon="12.968466"><ele>206.83333333333334</ele><time>2026-04-26T16:07:25.011Z</time></trkpt><trkpt lat="43.4027365" lon="12.9683512"><ele>206.66666666666669</ele><time>2026-04-26T16:07:26.011Z</time></trkpt><trkpt lat="43.4027064" lon="12.9682363"><ele>206.5</ele><time>2026-04-26T16:07:27.018Z</time></trkpt><trkpt lat="43.4026715" lon="12.9681252"><ele>206.33333333333334</ele><time>2026-04-26T16:07:28.027Z</time></trkpt><trkpt lat="43.4026241" lon="12.968026"><ele>206.16666666666669</ele><time>2026-04-26T16:07:29.023Z</time></trkpt><trkpt lat="43.4025697" lon="12.9679373"><ele>206.0</ele><time>2026-04-26T16:07:30.011Z</time></trkpt><trkpt lat="43.4025172" lon="12.9678681"><ele>206.00000000000003</ele><time>2026-04-26T16:07:31.017Z</time></trkpt><trkpt lat="43.4024763" lon="12.967795"><ele>206.0</ele><time>2026-04-26T16:07:32.01Z</time></trkpt><trkpt lat="43.4024437" lon="12.9677109"><ele>206.0</ele><time>2026-04-26T16:07:33.026Z</time></trkpt><trkpt lat="43.402421" lon="12.9676239"><ele>206.0</ele><time>2026-04-26T16:07:34.028Z</time></trkpt><trkpt lat="43.402399" lon="12.9675184"><ele>206.00000000000003</ele><time>2026-04-26T16:07:35.023Z</time></trkpt><trkpt lat="43.4023727" lon="12.9674021"><ele>206.0</ele><time>2026-04-26T16:07:36.012Z</time></trkpt><trkpt lat="43.4023362" lon="12.967285"><ele>206.0</ele><time>2026-04-26T16:07:37.013Z</time></trkpt><trkpt lat="43.4022905" lon="12.9671536"><ele>206.0</ele><time>2026-04-26T16:07:38.021Z</time></trkpt><trkpt lat="43.4022249" lon="12.9670304"><ele>206.0</ele><time>2026-04-26T16:07:39.004Z</time></trkpt><trkpt lat="43.4021453" lon="12.9669069"><ele>206.0</ele><time>2026-04-26T16:07:40.013Z</time></trkpt><trkpt lat="43.4020519" lon="12.9667872"><ele>209.5</ele><time>2026-04-26T16:07:41.018Z</time></trkpt><trkpt lat="43.401945" lon="12.9666728"><ele>213.0</ele><time>2026-04-26T16:07:42.011Z</time></trkpt><trkpt lat="43.4018263" lon="12.9665607"><ele>216.5</ele><time>2026-04-26T16:07:43.018Z</time></trkpt><trkpt lat="43.4016949" lon="12.9664472"><ele>220.0</ele><time>2026-04-26T16:07:44.01Z</time></trkpt><trkpt lat="43.4015525" lon="12.9663364"><ele>220.0</ele><time>2026-04-26T16:07:45.025Z</time></trkpt><trkpt lat="43.4014041" lon="12.966214"><ele>220.0</ele><time>2026-04-26T16:07:46.008Z</time></trkpt><trkpt lat="43.4012532" lon="12.9660888"><ele>220.0</ele><time>2026-04-26T16:07:47.01Z</time></trkpt><trkpt lat="43.4010948" lon="12.9659648"><ele>223.66666666666666</ele><time>2026-04-26T16:07:48.002Z</time></trkpt><trkpt lat="43.4009438" lon="12.9658394"><ele>227.33333333333331</ele><time>2026-04-26T16:07:49.01Z</time></trkpt><trkpt lat="43.4008049" lon="12.9657214"><ele>231.0</ele><time>2026-04-26T16:07:50.009Z</time></trkpt><trkpt lat="43.4006826" lon="12.9655961"><ele>231.0</ele><time>2026-04-26T16:07:51.016Z</time></trkpt><trkpt lat="43.4005812" lon="12.9654525"><ele>231.0</ele><time>2026-04-26T16:07:52.009Z</time></trkpt><trkpt lat="43.400503" lon="12.9652882"><ele>231.0</ele><time>2026-04-26T16:07:53.015Z</time></trkpt><trkpt lat="43.4004534" lon="12.9651079"><ele>231.0</ele><time>2026-04-26T16:07:53.999Z</time></trkpt><trkpt lat="43.4004512" lon="12.9649036"><ele>225.0</ele><time>2026-04-26T16:07:55.015Z</time></trkpt><trkpt lat="43.4004732" lon="12.9646749"><ele>219.0</ele><time>2026-04-26T16:07:56.015Z</time></trkpt><trkpt lat="43.4004911" lon="12.9644421"><ele>213.0</ele><time>2026-04-26T16:07:56.995Z</time></trkpt><trkpt lat="43.4005056" lon="12.9642086"><ele>214.33333333333331</ele><time>2026-04-26T16:07:58.011Z</time></trkpt><trkpt lat="43.4005258" lon="12.9639601"><ele>215.66666666666666</ele><time>2026-04-26T16:07:59.013Z</time></trkpt><trkpt lat="43.4005441" lon="12.9637113"><ele>217.0</ele><time>2026-04-26T16:08:00.007Z</time></trkpt><trkpt lat="43.4005699" lon="12.9634628"><ele>220.0</ele><time>2026-04-26T16:08:01.008Z</time></trkpt><trkpt lat="43.4005844" lon="12.9632178"><ele>223.0</ele><time>2026-04-26T16:08:02.008Z</time></trkpt><trkpt lat="43.4005768" lon="12.9629701"><ele>226.0</ele><time>2026-04-26T16:08:03.016Z</time></trkpt><trkpt lat="43.4005467" lon="12.9627233"><ele>237.33333333333331</ele><time>2026-04-26T16:08:04.007Z</time></trkpt><trkpt lat="43.4004985" lon="12.9624829"><ele>248.66666666666669</ele><time>2026-04-26T16:08:05.012Z</time></trkpt><trkpt lat="43.4004443" lon="12.9622455"><ele>260.0</ele><time>2026-04-26T16:08:06.019Z</time></trkpt><trkpt lat="43.4003972" lon="12.9620205"><ele>260.0</ele><time>2026-04-26T16:08:07.015Z</time></trkpt><trkpt lat="43.4003723" lon="12.9618051"><ele>260.0</ele><time>2026-04-26T16:08:07.992Z</time></trkpt><trkpt lat="43.4003722" lon="12.9615952"><ele>260.0</ele><time>2026-04-26T16:08:09.016Z</time></trkpt><trkpt lat="43.4004043" lon="12.9613851"><ele>260.0</ele><time>2026-04-26T16:08:10.001Z</time></trkpt><trkpt lat="43.4004474" lon="12.9611711"><ele>260.0</ele><time>2026-04-26T16:08:11.025Z</time></trkpt><trkpt lat="43.4005029" lon="12.9609712"><ele>260.0</ele><time>2026-04-26T16:08:12.01Z</time></trkpt><trkpt lat="43.4005628" lon="12.9607835"><ele>260.0</ele><time>2026-04-26T16:08:13.015Z</time></trkpt><trkpt lat="43.400619" lon="12.960607"><ele>260.0</ele><time>2026-04-26T16:08:14.012Z</time></trkpt><trkpt lat="43.4006887" lon="12.9604625"><ele>260.0</ele><time>2026-04-26T16:08:15.008Z</time></trkpt><trkpt lat="43.4007782" lon="12.9603729"><ele>260.0</ele><time>2026-04-26T16:08:16.021Z</time></trkpt><trkpt lat="43.4008592" lon="12.9603152"><ele>260.0</ele><time>2026-04-26T16:08:17.015Z</time></trkpt><trkpt lat="43.4009193" lon="12.9602712"><ele>260.0</ele><time>2026-04-26T16:08:18.009Z</time></trkpt><trkpt lat="43.4009853" lon="12.9602596"><ele>260.0</ele><time>2026-04-26T16:08:22.011Z</time></trkpt><trkpt lat="43.4010489" lon="12.9601999"><ele>260.0</ele><time>2026-04-26T16:08:24.011Z</time></trkpt><trkpt lat="43.4011361" lon="12.9600978"><ele>260.0</ele><time>2026-04-26T16:08:26.015Z</time></trkpt><trkpt lat="43.4012316" lon="12.9599819"><ele>260.0</ele><time>2026-04-26T16:08:28.01Z</time></trkpt><trkpt lat="43.4012837" lon="12.9599075"><ele>260.0</ele><time>2026-04-26T16:08:29.016Z</time></trkpt><trkpt lat="43.4013357" lon="12.9598165"><ele>260.0</ele><time>2026-04-26T16:08:30.014Z</time></trkpt><trkpt lat="43.4013902" lon="12.9597213"><ele>260.0</ele><time>2026-04-26T16:08:31.017Z</time></trkpt><trkpt lat="43.4014425" lon="12.9596143"><ele>260.0</ele><time>2026-04-26T16:08:32.008Z</time></trkpt><trkpt lat="43.4014956" lon="12.9595049"><ele>260.0</ele><time>2026-04-26T16:08:33.002Z</time></trkpt><trkpt lat="43.4015471" lon="12.9593849"><ele>260.0</ele><time>2026-04-26T16:08:34.009Z</time></trkpt><trkpt lat="43.401597" lon="12.9592698"><ele>260.0</ele><time>2026-04-26T16:08:35.022Z</time></trkpt><trkpt lat="43.4016323" lon="12.9591478"><ele>260.0</ele><time>2026-04-26T16:08:36.007Z</time></trkpt><trkpt lat="43.4016607" lon="12.9590141"><ele>260.0</ele><time>2026-04-26T16:08:37.007Z</time></trkpt><trkpt lat="43.4016824" lon="12.9588744"><ele>260.0</ele><time>2026-04-26T16:08:38.013Z</time></trkpt><trkpt lat="43.4016905" lon="12.958725"><ele>260.0</ele><time>2026-04-26T16:08:39.014Z</time></trkpt><trkpt lat="43.4017011" lon="12.9585678"><ele>260.0</ele><time>2026-04-26T16:08:40.019Z</time></trkpt><trkpt lat="43.4017069" lon="12.958408"><ele>260.0</ele><time>2026-04-26T16:08:41.018Z</time></trkpt><trkpt lat="43.4017134" lon="12.9582564"><ele>260.0</ele><time>2026-04-26T16:08:42.008Z</time></trkpt><trkpt lat="43.4017146" lon="12.9581102"><ele>260.0</ele><time>2026-04-26T16:08:43.019Z</time></trkpt><trkpt lat="43.4017149" lon="12.9579643"><ele>260.0</ele><time>2026-04-26T16:08:44.015Z</time></trkpt><trkpt lat="43.4017174" lon="12.9578103"><ele>260.0</ele><time>2026-04-26T16:08:45.011Z</time></trkpt><trkpt lat="43.4017232" lon="12.9576597"><ele>260.0</ele><time>2026-04-26T16:08:46.01Z</time></trkpt><trkpt lat="43.4017275" lon="12.9575044"><ele>260.0</ele><time>2026-04-26T16:08:47.014Z</time></trkpt><trkpt lat="43.4017381" lon="12.9573544"><ele>260.0</ele><time>2026-04-26T16:08:47.999Z</time></trkpt><trkpt lat="43.401753" lon="12.9571959"><ele>260.0</ele><time>2026-04-26T16:08:49.002Z</time></trkpt><trkpt lat="43.4017794" lon="12.9570391"><ele>260.0</ele><time>2026-04-26T16:08:50.001Z</time></trkpt><trkpt lat="43.4018182" lon="12.9568763"><ele>260.0</ele><time>2026-04-26T16:08:51.018Z</time></trkpt><trkpt lat="43.4018623" lon="12.956719"><ele>260.0</ele><time>2026-04-26T16:08:52.008Z</time></trkpt><trkpt lat="43.4018983" lon="12.9565585"><ele>260.0</ele><time>2026-04-26T16:08:53.013Z</time></trkpt><trkpt lat="43.4019263" lon="12.9563997"><ele>260.0</ele><time>2026-04-26T16:08:54.003Z</time></trkpt><trkpt lat="43.4019375" lon="12.9562438"><ele>260.0</ele><time>2026-04-26T16:08:55.009Z</time></trkpt><trkpt lat="43.4019073" lon="12.9560977"><ele>260.0</ele><time>2026-04-26T16:08:56.011Z</time></trkpt><trkpt lat="43.4018394" lon="12.9559674"><ele>260.0</ele><time>2026-04-26T16:08:56.995Z</time></trkpt><trkpt lat="43.4017796" lon="12.9558278"><ele>260.0</ele><time>2026-04-26T16:08:57.999Z</time></trkpt><trkpt lat="43.4017267" lon="12.9556816"><ele>260.0</ele><time>2026-04-26T16:08:59.008Z</time></trkpt><trkpt lat="43.4016941" lon="12.9555118"><ele>260.0</ele><time>2026-04-26T16:08:59.993Z</time></trkpt><trkpt lat="43.4016911" lon="12.9553216"><ele>260.0</ele><time>2026-04-26T16:09:01.014Z</time></trkpt><trkpt lat="43.4016999" lon="12.9551059"><ele>260.0</ele><time>2026-04-26T16:09:02.01Z</time></trkpt><trkpt lat="43.4017102" lon="12.9548711"><ele>260.0</ele><time>2026-04-26T16:09:03.011Z</time></trkpt><trkpt lat="43.4017328" lon="12.9546075"><ele>260.0</ele><time>2026-04-26T16:09:04Z</time></trkpt><trkpt lat="43.4017513" lon="12.9543367"><ele>260.0</ele><time>2026-04-26T16:09:05.001Z</time></trkpt><trkpt lat="43.4017579" lon="12.9540552"><ele>260.0</ele><time>2026-04-26T16:09:06.005Z</time></trkpt><trkpt lat="43.4017558" lon="12.953764"><ele>260.0</ele><time>2026-04-26T16:09:06.997Z</time></trkpt><trkpt lat="43.4017356" lon="12.9534682"><ele>260.0</ele><time>2026-04-26T16:09:08.001Z</time></trkpt><trkpt lat="43.4017134" lon="12.9531768"><ele>260.0</ele><time>2026-04-26T16:09:09.002Z</time></trkpt><trkpt lat="43.4016866" lon="12.952883"><ele>260.0</ele><time>2026-04-26T16:09:10.007Z</time></trkpt><trkpt lat="43.4016623" lon="12.9525908"><ele>260.0</ele><time>2026-04-26T16:09:11.002Z</time></trkpt><trkpt lat="43.4016555" lon="12.9522975"><ele>260.0</ele><time>2026-04-26T16:09:11.999Z</time></trkpt><trkpt lat="43.4016627" lon="12.9520072"><ele>260.0</ele><time>2026-04-26T16:09:13.007Z</time></trkpt><trkpt lat="43.4016877" lon="12.9517272"><ele>260.0</ele><time>2026-04-26T16:09:14.004Z</time></trkpt><trkpt lat="43.4017242" lon="12.9514495"><ele>260.0</ele><time>2026-04-26T16:09:15.009Z</time></trkpt><trkpt lat="43.4017741" lon="12.9511753"><ele>260.0</ele><time>2026-04-26T16:09:16.006Z</time></trkpt><trkpt lat="43.4018291" lon="12.9508986"><ele>260.0</ele><time>2026-04-26T16:09:17.019Z</time></trkpt><trkpt lat="43.401884" lon="12.9506282"><ele>260.0</ele><time>2026-04-26T16:09:18.002Z</time></trkpt><trkpt lat="43.4019231" lon="12.9503854"><ele>260.0</ele><time>2026-04-26T16:09:19.005Z</time></trkpt><trkpt lat="43.4019602" lon="12.9501572"><ele>260.0</ele><time>2026-04-26T16:09:20.002Z</time></trkpt><trkpt lat="43.4019977" lon="12.949938"><ele>260.0</ele><time>2026-04-26T16:09:21.01Z</time></trkpt><trkpt lat="43.4020454" lon="12.9497328"><ele>262.0</ele><time>2026-04-26T16:09:21.999Z</time></trkpt><trkpt lat="43.4021186" lon="12.9495576"><ele>264.0</ele><time>2026-04-26T16:09:23.006Z</time></trkpt><trkpt lat="43.4022172" lon="12.9493958"><ele>266.0</ele><time>2026-04-26T16:09:23.999Z</time></trkpt><trkpt lat="43.4023249" lon="12.9492382"><ele>264.33333333333337</ele><time>2026-04-26T16:09:25.015Z</time></trkpt><trkpt lat="43.4024345" lon="12.949087"><ele>262.6666666666667</ele><time>2026-04-26T16:09:26.007Z</time></trkpt><trkpt lat="43.402558" lon="12.9489358"><ele>261.0</ele><time>2026-04-26T16:09:27.015Z</time></trkpt><trkpt lat="43.4026945" lon="12.948823"><ele>261.0</ele><time>2026-04-26T16:09:28.002Z</time></trkpt><trkpt lat="43.4028417" lon="12.9487707"><ele>261.0</ele><time>2026-04-26T16:09:29.004Z</time></trkpt><trkpt lat="43.4029879" lon="12.9487571"><ele>261.0</ele><time>2026-04-26T16:09:30.003Z</time></trkpt><trkpt lat="43.4031358" lon="12.9487634"><ele>261.0</ele><time>2026-04-26T16:09:31.002Z</time></trkpt><trkpt lat="43.4032832" lon="12.9487487"><ele>258.0</ele><time>2026-04-26T16:09:32.015Z</time></trkpt><trkpt lat="43.4034486" lon="12.9486819"><ele>255.0</ele><time>2026-04-26T16:09:33Z</time></trkpt><trkpt lat="43.4036241" lon="12.9485816"><ele>252.0</ele><time>2026-04-26T16:09:34.016Z</time></trkpt><trkpt lat="43.4038286" lon="12.9484662"><ele>248.66666666666669</ele><time>2026-04-26T16:09:35.021Z</time></trkpt><trkpt lat="43.4040343" lon="12.9483564"><ele>245.33333333333334</ele><time>2026-04-26T16:09:36.008Z</time></trkpt><trkpt lat="43.40423" lon="12.9482434"><ele>242.0</ele><time>2026-04-26T16:09:37.012Z</time></trkpt><trkpt lat="43.4044099" lon="12.9481198"><ele>242.0</ele><time>2026-04-26T16:09:37.998Z</time></trkpt><trkpt lat="43.4045712" lon="12.9479665"><ele>242.0</ele><time>2026-04-26T16:09:39.024Z</time></trkpt><trkpt lat="43.4047144" lon="12.9477787"><ele>242.0</ele><time>2026-04-26T16:09:40.002Z</time></trkpt><trkpt lat="43.4048328" lon="12.9475516"><ele>239.66666666666669</ele><time>2026-04-26T16:09:41.002Z</time></trkpt><trkpt lat="43.4049407" lon="12.9472901"><ele>237.33333333333331</ele><time>2026-04-26T16:09:42Z</time></trkpt><trkpt lat="43.4050305" lon="12.9470027"><ele>235.0</ele><time>2026-04-26T16:09:43.016Z</time></trkpt><trkpt lat="43.4051188" lon="12.9467"><ele>235.0</ele><time>2026-04-26T16:09:44.001Z</time></trkpt><trkpt lat="43.4052175" lon="12.9463973"><ele>235.0</ele><time>2026-04-26T16:09:45.015Z</time></trkpt><trkpt lat="43.405329" lon="12.9460995"><ele>243.0</ele><time>2026-04-26T16:09:46.01Z</time></trkpt><trkpt lat="43.4054519" lon="12.9458183"><ele>251.0</ele><time>2026-04-26T16:09:47.007Z</time></trkpt><trkpt lat="43.4055908" lon="12.9455827"><ele>250.0</ele><time>2026-04-26T16:09:48.017Z</time></trkpt><trkpt lat="43.4057205" lon="12.9453591"><ele>249.0</ele><time>2026-04-26T16:09:49.005Z</time></trkpt><trkpt lat="43.4058077" lon="12.9451023"><ele>248.0</ele><time>2026-04-26T16:09:50.011Z</time></trkpt><trkpt lat="43.4058534" lon="12.9447984"><ele>248.0</ele><time>2026-04-26T16:09:51.007Z</time></trkpt><trkpt lat="43.4058528" lon="12.9444886"><ele>248.0</ele><time>2026-04-26T16:09:52Z</time></trkpt><trkpt lat="43.405819" lon="12.9441655"><ele>248.5</ele><time>2026-04-26T16:09:53.008Z</time></trkpt><trkpt lat="43.4057638" lon="12.9438367"><ele>249.0</ele><time>2026-04-26T16:09:54.002Z</time></trkpt><trkpt lat="43.4057102" lon="12.9435261"><ele>249.0</ele><time>2026-04-26T16:09:55.014Z</time></trkpt><trkpt lat="43.4056594" lon="12.9432285"><ele>249.0</ele><time>2026-04-26T16:09:56Z</time></trkpt><trkpt lat="43.405617" lon="12.9429505"><ele>249.0</ele><time>2026-04-26T16:09:57.009Z</time></trkpt><trkpt lat="43.4055905" lon="12.94268"><ele>247.0</ele><time>2026-04-26T16:09:58.005Z</time></trkpt><trkpt lat="43.4055747" lon="12.9424166"><ele>245.0</ele><time>2026-04-26T16:09:59.019Z</time></trkpt><trkpt lat="43.4055891" lon="12.9421645"><ele>243.0</ele><time>2026-04-26T16:10:00.019Z</time></trkpt><trkpt lat="43.4056295" lon="12.9419346"><ele>243.0</ele><time>2026-04-26T16:10:01.005Z</time></trkpt><trkpt lat="43.4057267" lon="12.9417313"><ele>243.0</ele><time>2026-04-26T16:10:02.011Z</time></trkpt><trkpt lat="43.4058759" lon="12.9415607"><ele>243.0</ele><time>2026-04-26T16:10:03.012Z</time></trkpt><trkpt lat="43.4060505" lon="12.9414072"><ele>239.66666666666669</ele><time>2026-04-26T16:10:04.011Z</time></trkpt><trkpt lat="43.4062049" lon="12.9412451"><ele>236.33333333333334</ele><time>2026-04-26T16:10:05.014Z</time></trkpt><trkpt lat="43.4063607" lon="12.9410862"><ele>233.0</ele><time>2026-04-26T16:10:06.023Z</time></trkpt><trkpt lat="43.4064943" lon="12.9409125"><ele>236.66666666666669</ele><time>2026-04-26T16:10:07.007Z</time></trkpt><trkpt lat="43.4066101" lon="12.9407173"><ele>240.33333333333331</ele><time>2026-04-26T16:10:08.013Z</time></trkpt><trkpt lat="43.4066961" lon="12.9404931"><ele>244.0</ele><time>2026-04-26T16:10:09.015Z</time></trkpt><trkpt lat="43.4067554" lon="12.9402545"><ele>241.33333333333331</ele><time>2026-04-26T16:10:10.017Z</time></trkpt><trkpt lat="43.4068026" lon="12.9400068"><ele>238.66666666666669</ele><time>2026-04-26T16:10:11.014Z</time></trkpt><trkpt lat="43.4068284" lon="12.9397537"><ele>236.0</ele><time>2026-04-26T16:10:12.008Z</time></trkpt><trkpt lat="43.4068458" lon="12.9394869"><ele>233.33333333333334</ele><time>2026-04-26T16:10:13.028Z</time></trkpt><trkpt lat="43.4068552" lon="12.9392133"><ele>230.66666666666669</ele><time>2026-04-26T16:10:14.018Z</time></trkpt><trkpt lat="43.4068617" lon="12.9389369"><ele>228.0</ele><time>2026-04-26T16:10:15.02Z</time></trkpt><trkpt lat="43.4068686" lon="12.9386678"><ele>228.0</ele><time>2026-04-26T16:10:16.018Z</time></trkpt><trkpt lat="43.406872" lon="12.9383957"><ele>228.0</ele><time>2026-04-26T16:10:17.01Z</time></trkpt><trkpt lat="43.4068647" lon="12.9381271"><ele>228.0</ele><time>2026-04-26T16:10:18.024Z</time></trkpt><trkpt lat="43.4068323" lon="12.9378726"><ele>228.33333333333331</ele><time>2026-04-26T16:10:19.025Z</time></trkpt><trkpt lat="43.4067715" lon="12.9376263"><ele>228.66666666666666</ele><time>2026-04-26T16:10:20.03Z</time></trkpt><trkpt lat="43.4067056" lon="12.9374097"><ele>229.0</ele><time>2026-04-26T16:10:21.007Z</time></trkpt><trkpt lat="43.4066358" lon="12.9371972"><ele>229.75</ele><time>2026-04-26T16:10:22.009Z</time></trkpt><trkpt lat="43.4065756" lon="12.9369961"><ele>230.5</ele><time>2026-04-26T16:10:23.016Z</time></trkpt><trkpt lat="43.4065309" lon="12.9368047"><ele>231.25</ele><time>2026-04-26T16:10:24.003Z</time></trkpt><trkpt lat="43.4065224" lon="12.9366169"><ele>232.0</ele><time>2026-04-26T16:10:25.03Z</time></trkpt><trkpt lat="43.4065514" lon="12.9364228"><ele>232.25</ele><time>2026-04-26T16:10:26.025Z</time></trkpt><trkpt lat="43.4066091" lon="12.9362415"><ele>232.5</ele><time>2026-04-26T16:10:27.008Z</time></trkpt><trkpt lat="43.4066818" lon="12.9360746"><ele>232.75</ele><time>2026-04-26T16:10:28.016Z</time></trkpt><trkpt lat="43.4067596" lon="12.9359275"><ele>233.0</ele><time>2026-04-26T16:10:29.009Z</time></trkpt><trkpt lat="43.4068337" lon="12.9358018"><ele>232.4</ele><time>2026-04-26T16:10:30.026Z</time></trkpt><trkpt lat="43.4068951" lon="12.9356933"><ele>231.8</ele><time>2026-04-26T16:10:31.007Z</time></trkpt><trkpt lat="43.4069421" lon="12.9356065"><ele>231.2</ele><time>2026-04-26T16:10:32.01Z</time></trkpt><trkpt lat="43.4069869" lon="12.9355251"><ele>230.6</ele><time>2026-04-26T16:10:34.005Z</time></trkpt><trkpt lat="43.4070535" lon="12.9353912"><ele>230.0</ele><time>2026-04-26T16:11:03.018Z</time></trkpt><trkpt lat="43.4071021" lon="12.9352956"><ele>230.0</ele><time>2026-04-26T16:11:04.013Z</time></trkpt><trkpt lat="43.4071586" lon="12.9351842"><ele>230.0</ele><time>2026-04-26T16:11:05.025Z</time></trkpt><trkpt lat="43.4072231" lon="12.9350576"><ele>230.0</ele><time>2026-04-26T16:11:06.02Z</time></trkpt><trkpt lat="43.4073006" lon="12.9349133"><ele>230.0</ele><time>2026-04-26T16:11:07.025Z</time></trkpt><trkpt lat="43.407386" lon="12.9347589"><ele>230.33333333333334</ele><time>2026-04-26T16:11:08.02Z</time></trkpt><trkpt lat="43.4074795" lon="12.9345895"><ele>230.66666666666669</ele><time>2026-04-26T16:11:09.024Z</time></trkpt><trkpt lat="43.4075762" lon="12.9344055"><ele>231.0</ele><time>2026-04-26T16:11:10.018Z</time></trkpt><trkpt lat="43.4076838" lon="12.9342011"><ele>229.66666666666669</ele><time>2026-04-26T16:11:11.02Z</time></trkpt><trkpt lat="43.4077959" lon="12.9339888"><ele>228.33333333333334</ele><time>2026-04-26T16:11:12.017Z</time></trkpt><trkpt lat="43.4079183" lon="12.9337546"><ele>227.0</ele><time>2026-04-26T16:11:13.014Z</time></trkpt><trkpt lat="43.4080507" lon="12.9335066"><ele>228.5</ele><time>2026-04-26T16:11:14.029Z</time></trkpt><trkpt lat="43.4081872" lon="12.9332444"><ele>230.0</ele><time>2026-04-26T16:11:15.014Z</time></trkpt><trkpt lat="43.4083253" lon="12.9329696"><ele>230.0</ele><time>2026-04-26T16:11:15.996Z</time></trkpt><trkpt lat="43.4084611" lon="12.9326763"><ele>230.0</ele><time>2026-04-26T16:11:17.025Z</time></trkpt><trkpt lat="43.4085862" lon="12.9323554"><ele>236.0</ele><time>2026-04-26T16:11:18.016Z</time></trkpt><trkpt lat="43.4087045" lon="12.932035"><ele>242.0</ele><time>2026-04-26T16:11:19.014Z</time></trkpt><trkpt lat="43.4088119" lon="12.9317057"><ele>237.0</ele><time>2026-04-26T16:11:20.011Z</time></trkpt><trkpt lat="43.4089138" lon="12.9313902"><ele>232.0</ele><time>2026-04-26T16:11:21.005Z</time></trkpt><trkpt lat="43.4090208" lon="12.9310926"><ele>235.5</ele><time>2026-04-26T16:11:22.02Z</time></trkpt><trkpt lat="43.4091371" lon="12.9308168"><ele>239.0</ele><time>2026-04-26T16:11:23.017Z</time></trkpt><trkpt lat="43.4092718" lon="12.9305658"><ele>239.0</ele><time>2026-04-26T16:11:24.014Z</time></trkpt><trkpt lat="43.4094311" lon="12.9303397"><ele>239.0</ele><time>2026-04-26T16:11:25.018Z</time></trkpt><trkpt lat="43.4096164" lon="12.9301438"><ele>238.0</ele><time>2026-04-26T16:11:26.028Z</time></trkpt><trkpt lat="43.409823" lon="12.9299802"><ele>237.0</ele><time>2026-04-26T16:11:27.011Z</time></trkpt><trkpt lat="43.4100497" lon="12.9298406"><ele>237.0</ele><time>2026-04-26T16:11:28.016Z</time></trkpt><trkpt lat="43.4102834" lon="12.9297166"><ele>237.0</ele><time>2026-04-26T16:11:29.011Z</time></trkpt><trkpt lat="43.4105185" lon="12.9296053"><ele>234.5</ele><time>2026-04-26T16:11:30.02Z</time></trkpt><trkpt lat="43.4107545" lon="12.9295141"><ele>232.0</ele><time>2026-04-26T16:11:31.009Z</time></trkpt><trkpt lat="43.4110008" lon="12.9294295"><ele>232.0</ele><time>2026-04-26T16:11:32.02Z</time></trkpt><trkpt lat="43.4112512" lon="12.9293745"><ele>232.0</ele><time>2026-04-26T16:11:33.016Z</time></trkpt><trkpt lat="43.4114898" lon="12.929356"><ele>231.5</ele><time>2026-04-26T16:11:34.001Z</time></trkpt><trkpt lat="43.411752" lon="12.9293735"><ele>231.0</ele><time>2026-04-26T16:11:35.008Z</time></trkpt><trkpt lat="43.4120152" lon="12.9294026"><ele>230.5</ele><time>2026-04-26T16:11:36.011Z</time></trkpt><trkpt lat="43.4122771" lon="12.929427"><ele>230.0</ele><time>2026-04-26T16:11:37.017Z</time></trkpt><trkpt lat="43.4125539" lon="12.9294454"><ele>230.0</ele><time>2026-04-26T16:11:38.009Z</time></trkpt><trkpt lat="43.4128305" lon="12.9294579"><ele>230.0</ele><time>2026-04-26T16:11:39.019Z</time></trkpt><trkpt lat="43.4131076" lon="12.9294797"><ele>230.5</ele><time>2026-04-26T16:11:40.013Z</time></trkpt><trkpt lat="43.4133776" lon="12.9295154"><ele>231.0</ele><time>2026-04-26T16:11:41.004Z</time></trkpt><trkpt lat="43.4136473" lon="12.9295635"><ele>233.0</ele><time>2026-04-26T16:11:42.01Z</time></trkpt><trkpt lat="43.4139144" lon="12.9296326"><ele>235.0</ele><time>2026-04-26T16:11:43.022Z</time></trkpt><trkpt lat="43.4141777" lon="12.9297134"><ele>235.0</ele><time>2026-04-26T16:11:44.021Z</time></trkpt><trkpt lat="43.4144583" lon="12.9298015"><ele>235.0</ele><time>2026-04-26T16:11:45.01Z</time></trkpt><trkpt lat="43.414744" lon="12.9298921"><ele>233.0</ele><time>2026-04-26T16:11:46.016Z</time></trkpt><trkpt lat="43.4150312" lon="12.9299816"><ele>231.0</ele><time>2026-04-26T16:11:47.012Z</time></trkpt><trkpt lat="43.4153115" lon="12.9300669"><ele>231.0</ele><time>2026-04-26T16:11:48.014Z</time></trkpt><trkpt lat="43.4155974" lon="12.9301486"><ele>231.0</ele><time>2026-04-26T16:11:49.027Z</time></trkpt><trkpt lat="43.4158855" lon="12.9302244"><ele>231.0</ele><time>2026-04-26T16:11:50.026Z</time></trkpt><trkpt lat="43.4161749" lon="12.9302994"><ele>231.0</ele><time>2026-04-26T16:11:51.019Z</time></trkpt><trkpt lat="43.4164652" lon="12.9303699"><ele>231.5</ele><time>2026-04-26T16:11:52.011Z</time></trkpt><trkpt lat="43.4167561" lon="12.9304338"><ele>232.0</ele><time>2026-04-26T16:11:53.026Z</time></trkpt><trkpt lat="43.4170474" lon="12.9304977"><ele>233.0</ele><time>2026-04-26T16:11:54.027Z</time></trkpt><trkpt lat="43.4173382" lon="12.9305573"><ele>234.0</ele><time>2026-04-26T16:11:55.025Z</time></trkpt><trkpt lat="43.4176268" lon="12.9306179"><ele>234.0</ele><time>2026-04-26T16:11:56.017Z</time></trkpt><trkpt lat="43.4179178" lon="12.9306801"><ele>234.0</ele><time>2026-04-26T16:11:57.035Z</time></trkpt><trkpt lat="43.4182131" lon="12.9307383"><ele>236.0</ele><time>2026-04-26T16:11:58.016Z</time></trkpt><trkpt lat="43.4185128" lon="12.9307897"><ele>238.0</ele><time>2026-04-26T16:11:59.021Z</time></trkpt><trkpt lat="43.4188211" lon="12.9308389"><ele>240.5</ele><time>2026-04-26T16:12:00.024Z</time></trkpt><trkpt lat="43.4191312" lon="12.9308897"><ele>243.0</ele><time>2026-04-26T16:12:01.014Z</time></trkpt><trkpt lat="43.4194455" lon="12.9309417"><ele>237.5</ele><time>2026-04-26T16:12:02.023Z</time></trkpt><trkpt lat="43.419765" lon="12.9309965"><ele>232.0</ele><time>2026-04-26T16:12:03.015Z</time></trkpt><trkpt lat="43.4200837" lon="12.9310453"><ele>232.0</ele><time>2026-04-26T16:12:04.008Z</time></trkpt><trkpt lat="43.4204072" lon="12.9310903"><ele>232.0</ele><time>2026-04-26T16:12:05.015Z</time></trkpt><trkpt lat="43.4207254" lon="12.931137"><ele>233.0</ele><time>2026-04-26T16:12:05.988Z</time></trkpt><trkpt lat="43.4210369" lon="12.9311838"><ele>234.0</ele><time>2026-04-26T16:12:07.015Z</time></trkpt><trkpt lat="43.4213425" lon="12.9312272"><ele>236.5</ele><time>2026-04-26T16:12:08.022Z</time></trkpt><trkpt lat="43.4216361" lon="12.9312771"><ele>239.0</ele><time>2026-04-26T16:12:09.025Z</time></trkpt><trkpt lat="43.4219086" lon="12.9313308"><ele>240.5</ele><time>2026-04-26T16:12:10.008Z</time></trkpt><trkpt lat="43.4221651" lon="12.9313762"><ele>242.0</ele><time>2026-04-26T16:12:11.012Z</time></trkpt><trkpt lat="43.4224072" lon="12.931429"><ele>242.0</ele><time>2026-04-26T16:12:12.007Z</time></trkpt><trkpt lat="43.422643" lon="12.9314981"><ele>242.0</ele><time>2026-04-26T16:12:13.019Z</time></trkpt><trkpt lat="43.4228712" lon="12.9315907"><ele>238.5</ele><time>2026-04-26T16:12:14.016Z</time></trkpt><trkpt lat="43.4231021" lon="12.9317008"><ele>235.0</ele><time>2026-04-26T16:12:15.021Z</time></trkpt><trkpt lat="43.4233279" lon="12.9318169"><ele>235.0</ele><time>2026-04-26T16:12:16.017Z</time></trkpt><trkpt lat="43.4235605" lon="12.9319326"><ele>235.0</ele><time>2026-04-26T16:12:17.009Z</time></trkpt><trkpt lat="43.4237886" lon="12.9320528"><ele>239.5</ele><time>2026-04-26T16:12:17.996Z</time></trkpt><trkpt lat="43.4240084" lon="12.9321735"><ele>244.0</ele><time>2026-04-26T16:12:19.021Z</time></trkpt><trkpt lat="43.4242162" lon="12.9322936"><ele>244.0</ele><time>2026-04-26T16:12:19.989Z</time></trkpt><trkpt lat="43.4244132" lon="12.9324103"><ele>244.0</ele><time>2026-04-26T16:12:21.013Z</time></trkpt><trkpt lat="43.4246103" lon="12.93252"><ele>244.0</ele><time>2026-04-26T16:12:22.012Z</time></trkpt><trkpt lat="43.4248086" lon="12.9326186"><ele>242.0</ele><time>2026-04-26T16:12:23.009Z</time></trkpt><trkpt lat="43.4250058" lon="12.9326835"><ele>240.0</ele><time>2026-04-26T16:12:24.017Z</time></trkpt><trkpt lat="43.4252062" lon="12.9326977"><ele>238.0</ele><time>2026-04-26T16:12:25.02Z</time></trkpt><trkpt lat="43.4254017" lon="12.9326827"><ele>238.0</ele><time>2026-04-26T16:12:26.016Z</time></trkpt><trkpt lat="43.4255794" lon="12.932644"><ele>238.0</ele><time>2026-04-26T16:12:27.017Z</time></trkpt><trkpt lat="43.425739" lon="12.9325864"><ele>238.0</ele><time>2026-04-26T16:12:28.022Z</time></trkpt><trkpt lat="43.4258731" lon="12.9325274"><ele>241.25</ele><time>2026-04-26T16:12:29.027Z</time></trkpt><trkpt lat="43.4259955" lon="12.9324576"><ele>244.5</ele><time>2026-04-26T16:12:30.019Z</time></trkpt><trkpt lat="43.4261037" lon="12.9323572"><ele>247.75</ele><time>2026-04-26T16:12:31.016Z</time></trkpt><trkpt lat="43.4261994" lon="12.9322159"><ele>251.0</ele><time>2026-04-26T16:12:32.009Z</time></trkpt><trkpt lat="43.4262878" lon="12.932054"><ele>248.0</ele><time>2026-04-26T16:12:33.005Z</time></trkpt><trkpt lat="43.4263791" lon="12.9318751"><ele>245.0</ele><time>2026-04-26T16:12:34Z</time></trkpt><trkpt lat="43.4264692" lon="12.9316849"><ele>242.0</ele><time>2026-04-26T16:12:35.023Z</time></trkpt><trkpt lat="43.4265605" lon="12.9314694"><ele>242.0</ele><time>2026-04-26T16:12:36.029Z</time></trkpt><trkpt lat="43.4266377" lon="12.9312459"><ele>242.0</ele><time>2026-04-26T16:12:37.025Z</time></trkpt><trkpt lat="43.4267155" lon="12.9310144"><ele>242.0</ele><time>2026-04-26T16:12:38.023Z</time></trkpt><trkpt lat="43.4267965" lon="12.9307898"><ele>246.33333333333334</ele><time>2026-04-26T16:12:39.01Z</time></trkpt><trkpt lat="43.4268791" lon="12.9305851"><ele>250.66666666666669</ele><time>2026-04-26T16:12:39.996Z</time></trkpt><trkpt lat="43.4269647" lon="12.9303986"><ele>255.0</ele><time>2026-04-26T16:12:41.017Z</time></trkpt><trkpt lat="43.4270482" lon="12.9302154"><ele>259.3333333333333</ele><time>2026-04-26T16:12:42.014Z</time></trkpt><trkpt lat="43.4271067" lon="12.9300181"><ele>263.66666666666663</ele><time>2026-04-26T16:12:43.025Z</time></trkpt><trkpt lat="43.4271131" lon="12.9298014"><ele>268.0</ele><time>2026-04-26T16:12:44.011Z</time></trkpt><trkpt lat="43.4270762" lon="12.9295603"><ele>268.0</ele><time>2026-04-26T16:12:45.025Z</time></trkpt><trkpt lat="43.4270195" lon="12.9293085"><ele>268.0</ele><time>2026-04-26T16:12:46.014Z</time></trkpt><trkpt lat="43.4269523" lon="12.9290478"><ele>268.0</ele><time>2026-04-26T16:12:47.012Z</time></trkpt><trkpt lat="43.4268941" lon="12.9287766"><ele>264.5</ele><time>2026-04-26T16:12:48.012Z</time></trkpt><trkpt lat="43.4268292" lon="12.9284903"><ele>261.0</ele><time>2026-04-26T16:12:49.025Z</time></trkpt><trkpt lat="43.4267525" lon="12.9281801"><ele>257.5</ele><time>2026-04-26T16:12:50.016Z</time></trkpt><trkpt lat="43.4266791" lon="12.9278693"><ele>254.0</ele><time>2026-04-26T16:12:51.018Z</time></trkpt><trkpt lat="43.4265778" lon="12.9275651"><ele>251.5</ele><time>2026-04-26T16:12:52.019Z</time></trkpt><trkpt lat="43.4264475" lon="12.927265"><ele>249.0</ele><time>2026-04-26T16:12:53.029Z</time></trkpt><trkpt lat="43.426305" lon="12.92696"><ele>258.5</ele><time>2026-04-26T16:12:54.017Z</time></trkpt><trkpt lat="43.426172" lon="12.9266435"><ele>268.0</ele><time>2026-04-26T16:12:55.018Z</time></trkpt><trkpt lat="43.4260567" lon="12.9263091"><ele>268.0</ele><time>2026-04-26T16:12:56.018Z</time></trkpt><trkpt lat="43.4259432" lon="12.925961"><ele>268.0</ele><time>2026-04-26T16:12:57.016Z</time></trkpt><trkpt lat="43.425828" lon="12.9256255"><ele>261.5</ele><time>2026-04-26T16:12:58.007Z</time></trkpt><trkpt lat="43.4257059" lon="12.9252827"><ele>255.0</ele><time>2026-04-26T16:12:59.005Z</time></trkpt><trkpt lat="43.425589" lon="12.9249415"><ele>272.0</ele><time>2026-04-26T16:13:00Z</time></trkpt><trkpt lat="43.4254587" lon="12.9245932"><ele>289.0</ele><time>2026-04-26T16:13:01.014Z</time></trkpt><trkpt lat="43.4253217" lon="12.9242386"><ele>278.5</ele><time>2026-04-26T16:13:02.006Z</time></trkpt><trkpt lat="43.4251847" lon="12.9238994"><ele>268.0</ele><time>2026-04-26T16:13:03.018Z</time></trkpt><trkpt lat="43.4250536" lon="12.9235719"><ele>261.5</ele><time>2026-04-26T16:13:04.027Z</time></trkpt><trkpt lat="43.4249373" lon="12.9232676"><ele>255.0</ele><time>2026-04-26T16:13:05.016Z</time></trkpt><trkpt lat="43.4248287" lon="12.9229801"><ele>255.0</ele><time>2026-04-26T16:13:06.007Z</time></trkpt><trkpt lat="43.4247342" lon="12.9227039"><ele>255.0</ele><time>2026-04-26T16:13:07.024Z</time></trkpt><trkpt lat="43.424652" lon="12.9224407"><ele>255.0</ele><time>2026-04-26T16:13:08.023Z</time></trkpt><trkpt lat="43.4245969" lon="12.9221979"><ele>260.6666666666667</ele><time>2026-04-26T16:13:09.017Z</time></trkpt><trkpt lat="43.4245774" lon="12.9219641"><ele>266.33333333333337</ele><time>2026-04-26T16:13:10.007Z</time></trkpt><trkpt lat="43.4245994" lon="12.9217513"><ele>272.0</ele><time>2026-04-26T16:13:11.027Z</time></trkpt><trkpt lat="43.4246399" lon="12.92156"><ele>272.0</ele><time>2026-04-26T16:13:12.013Z</time></trkpt><trkpt lat="43.4246707" lon="12.9213822"><ele>272.0</ele><time>2026-04-26T16:13:13.021Z</time></trkpt><trkpt lat="43.4246607" lon="12.9212027"><ele>272.0</ele><time>2026-04-26T16:13:14.022Z</time></trkpt><trkpt lat="43.4246237" lon="12.9210169"><ele>272.0</ele><time>2026-04-26T16:13:15.002Z</time></trkpt><trkpt lat="43.4245579" lon="12.9208258"><ele>270.6666666666667</ele><time>2026-04-26T16:13:16.01Z</time></trkpt><trkpt lat="43.4244908" lon="12.9206171"><ele>269.3333333333333</ele><time>2026-04-26T16:13:17.027Z</time></trkpt><trkpt lat="43.4244591" lon="12.9203747"><ele>268.0</ele><time>2026-04-26T16:13:18.026Z</time></trkpt><trkpt lat="43.4244568" lon="12.9201059"><ele>268.0</ele><time>2026-04-26T16:13:19.026Z</time></trkpt><trkpt lat="43.4244875" lon="12.9198152"><ele>268.0</ele><time>2026-04-26T16:13:20.007Z</time></trkpt><trkpt lat="43.424528" lon="12.9195277"><ele>268.0</ele><time>2026-04-26T16:13:21.02Z</time></trkpt><trkpt lat="43.4245676" lon="12.9192139"><ele>272.5</ele><time>2026-04-26T16:13:22.011Z</time></trkpt><trkpt lat="43.4246067" lon="12.9188813"><ele>277.0</ele><time>2026-04-26T16:13:23.017Z</time></trkpt><trkpt lat="43.4246491" lon="12.918543"><ele>261.5</ele><time>2026-04-26T16:13:23.992Z</time></trkpt><trkpt lat="43.4246999" lon="12.9182015"><ele>246.0</ele><time>2026-04-26T16:13:25.025Z</time></trkpt><trkpt lat="43.4247691" lon="12.9178612"><ele>247.0</ele><time>2026-04-26T16:13:26.006Z</time></trkpt><trkpt lat="43.4248495" lon="12.9175291"><ele>248.0</ele><time>2026-04-26T16:13:27.023Z</time></trkpt><trkpt lat="43.4249354" lon="12.9172036"><ele>248.0</ele><time>2026-04-26T16:13:28.005Z</time></trkpt><trkpt lat="43.4250304" lon="12.9168931"><ele>248.0</ele><time>2026-04-26T16:13:29.017Z</time></trkpt><trkpt lat="43.4251229" lon="12.9166008"><ele>250.66666666666669</ele><time>2026-04-26T16:13:30.018Z</time></trkpt><trkpt lat="43.4252199" lon="12.916325"><ele>253.33333333333331</ele><time>2026-04-26T16:13:31.01Z</time></trkpt><trkpt lat="43.4253126" lon="12.9160701"><ele>256.0</ele><time>2026-04-26T16:13:32.02Z</time></trkpt><trkpt lat="43.4254118" lon="12.9158328"><ele>252.0</ele><time>2026-04-26T16:13:33.009Z</time></trkpt><trkpt lat="43.4255128" lon="12.9156062"><ele>248.0</ele><time>2026-04-26T16:13:34.007Z</time></trkpt><trkpt lat="43.4256258" lon="12.915405"><ele>244.0</ele><time>2026-04-26T16:13:35.019Z</time></trkpt><trkpt lat="43.4257349" lon="12.9152294"><ele>245.75</ele><time>2026-04-26T16:13:36.017Z</time></trkpt><trkpt lat="43.4258384" lon="12.9150617"><ele>247.5</ele><time>2026-04-26T16:13:37.02Z</time></trkpt><trkpt lat="43.4259293" lon="12.9149034"><ele>249.25</ele><time>2026-04-26T16:13:38.026Z</time></trkpt><trkpt lat="43.4260082" lon="12.914758"><ele>251.0</ele><time>2026-04-26T16:13:39.004Z</time></trkpt><trkpt lat="43.4260696" lon="12.9146287"><ele>251.0</ele><time>2026-04-26T16:13:40.015Z</time></trkpt><trkpt lat="43.4260929" lon="12.9145018"><ele>251.00000000000003</ele><time>2026-04-26T16:13:41.029Z</time></trkpt><trkpt lat="43.4260756" lon="12.9143688"><ele>251.00000000000003</ele><time>2026-04-26T16:13:42.021Z</time></trkpt><trkpt lat="43.4260251" lon="12.9142384"><ele>251.0</ele><time>2026-04-26T16:13:43.024Z</time></trkpt><trkpt lat="43.4259479" lon="12.9141091"><ele>251.0</ele><time>2026-04-26T16:13:44.016Z</time></trkpt><trkpt lat="43.4258551" lon="12.9139676"><ele>251.66666666666669</ele><time>2026-04-26T16:13:45.035Z</time></trkpt><trkpt lat="43.4257458" lon="12.9138149"><ele>252.33333333333331</ele><time>2026-04-26T16:13:46.006Z</time></trkpt><trkpt lat="43.4256274" lon="12.913653"><ele>253.0</ele><time>2026-04-26T16:13:47.02Z</time></trkpt><trkpt lat="43.4255059" lon="12.9134713"><ele>256.3333333333333</ele><time>2026-04-26T16:13:48.007Z</time></trkpt><trkpt lat="43.4253892" lon="12.9132914"><ele>259.6666666666667</ele><time>2026-04-26T16:13:49.016Z</time></trkpt><trkpt lat="43.4252982" lon="12.9131108"><ele>263.0</ele><time>2026-04-26T16:13:50.02Z</time></trkpt><trkpt lat="43.4252394" lon="12.9129244"><ele>263.0</ele><time>2026-04-26T16:13:51.018Z</time></trkpt><trkpt lat="43.4252025" lon="12.9127145"><ele>263.0</ele><time>2026-04-26T16:13:52.015Z</time></trkpt><trkpt lat="43.425188" lon="12.912501"><ele>263.0</ele><time>2026-04-26T16:13:53.002Z</time></trkpt><trkpt lat="43.4251966" lon="12.9122792"><ele>263.0</ele><time>2026-04-26T16:13:54.029Z</time></trkpt><trkpt lat="43.4252388" lon="12.9120601"><ele>263.0</ele><time>2026-04-26T16:13:55.031Z</time></trkpt><trkpt lat="43.4253085" lon="12.9118385"><ele>263.0</ele><time>2026-04-26T16:13:56.031Z</time></trkpt><trkpt lat="43.4253869" lon="12.9116146"><ele>261.6666666666667</ele><time>2026-04-26T16:13:57.017Z</time></trkpt><trkpt lat="43.4254465" lon="12.9113623"><ele>260.3333333333333</ele><time>2026-04-26T16:13:58.021Z</time></trkpt><trkpt lat="43.4254939" lon="12.9110733"><ele>259.0</ele><time>2026-04-26T16:13:59.026Z</time></trkpt><trkpt lat="43.4255331" lon="12.9107801"><ele>259.0</ele><time>2026-04-26T16:14:00.025Z</time></trkpt><trkpt lat="43.4255663" lon="12.9104811"><ele>259.0</ele><time>2026-04-26T16:14:01.016Z</time></trkpt><trkpt lat="43.4256092" lon="12.9101845"><ele>259.0</ele><time>2026-04-26T16:14:02.019Z</time></trkpt><trkpt lat="43.4256713" lon="12.9098957"><ele>261.0</ele><time>2026-04-26T16:14:03.019Z</time></trkpt><trkpt lat="43.4257474" lon="12.909638"><ele>263.0</ele><time>2026-04-26T16:14:04.025Z</time></trkpt><trkpt lat="43.4258319" lon="12.9093973"><ele>265.0</ele><time>2026-04-26T16:14:05.018Z</time></trkpt><trkpt lat="43.4259407" lon="12.9091612"><ele>262.66666666666663</ele><time>2026-04-26T16:14:06.019Z</time></trkpt><trkpt lat="43.426075" lon="12.9089379"><ele>260.3333333333333</ele><time>2026-04-26T16:14:07.025Z</time></trkpt><trkpt lat="43.4262299" lon="12.9087228"><ele>258.0</ele><time>2026-04-26T16:14:08.011Z</time></trkpt><trkpt lat="43.426388" lon="12.9085114"><ele>259.0</ele><time>2026-04-26T16:14:09.02Z</time></trkpt><trkpt lat="43.4265313" lon="12.9082937"><ele>260.0</ele><time>2026-04-26T16:14:10.02Z</time></trkpt><trkpt lat="43.4266545" lon="12.9080816"><ele>261.0</ele><time>2026-04-26T16:14:11.015Z</time></trkpt><trkpt lat="43.4267628" lon="12.9078912"><ele>261.0</ele><time>2026-04-26T16:14:12.013Z</time></trkpt><trkpt lat="43.4268728" lon="12.9077323"><ele>261.0</ele><time>2026-04-26T16:14:13.02Z</time></trkpt><trkpt lat="43.4269925" lon="12.90763"><ele>261.0</ele><time>2026-04-26T16:14:14.015Z</time></trkpt><trkpt lat="43.4271311" lon="12.9075572"><ele>261.0</ele><time>2026-04-26T16:14:15.015Z</time></trkpt><trkpt lat="43.42726" lon="12.9074935"><ele>260.3333333333333</ele><time>2026-04-26T16:14:16.022Z</time></trkpt><trkpt lat="43.4273664" lon="12.90736"><ele>259.66666666666663</ele><time>2026-04-26T16:14:17.027Z</time></trkpt><trkpt lat="43.4274434" lon="12.907181"><ele>259.0</ele><time>2026-04-26T16:14:18.008Z</time></trkpt><trkpt lat="43.4275161" lon="12.9069885"><ele>259.0</ele><time>2026-04-26T16:14:19.022Z</time></trkpt><trkpt lat="43.4276086" lon="12.9068135"><ele>259.0</ele><time>2026-04-26T16:14:19.996Z</time></trkpt><trkpt lat="43.4277014" lon="12.9066588"><ele>259.0</ele><time>2026-04-26T16:14:21.016Z</time></trkpt><trkpt lat="43.4277579" lon="12.9064951"><ele>259.0</ele><time>2026-04-26T16:14:22.01Z</time></trkpt><trkpt lat="43.4277739" lon="12.9063108"><ele>259.0</ele><time>2026-04-26T16:14:23.008Z</time></trkpt><trkpt lat="43.4277578" lon="12.9061071"><ele>259.0</ele><time>2026-04-26T16:14:24.008Z</time></trkpt><trkpt lat="43.4277312" lon="12.9058884"><ele>259.0</ele><time>2026-04-26T16:14:25.02Z</time></trkpt><trkpt lat="43.4277224" lon="12.9056845"><ele>259.0</ele><time>2026-04-26T16:14:26.014Z</time></trkpt><trkpt lat="43.4277368" lon="12.9055091"><ele>259.0</ele><time>2026-04-26T16:14:27.023Z</time></trkpt><trkpt lat="43.4277479" lon="12.9053656"><ele>259.0</ele><time>2026-04-26T16:14:28.031Z</time></trkpt><trkpt lat="43.427754" lon="12.9052382"><ele>259.0</ele><time>2026-04-26T16:14:29.016Z</time></trkpt><trkpt lat="43.4277546" lon="12.905147"><ele>259.0</ele><time>2026-04-26T16:14:30.012Z</time></trkpt><trkpt lat="43.4277237" lon="12.905017"><ele>259.2</ele><time>2026-04-26T16:14:32.015Z</time></trkpt><trkpt lat="43.4276873" lon="12.9049371"><ele>259.4</ele><time>2026-04-26T16:14:33.006Z</time></trkpt><trkpt lat="43.4276392" lon="12.9048444"><ele>259.6</ele><time>2026-04-26T16:14:34Z</time></trkpt><trkpt lat="43.4275822" lon="12.9047299"><ele>259.8</ele><time>2026-04-26T16:14:35.032Z</time></trkpt><trkpt lat="43.4275256" lon="12.9045885"><ele>260.0</ele><time>2026-04-26T16:14:36.017Z</time></trkpt><trkpt lat="43.4275014" lon="12.9044387"><ele>260.0</ele><time>2026-04-26T16:14:37.019Z</time></trkpt><trkpt lat="43.4275199" lon="12.9042724"><ele>260.0</ele><time>2026-04-26T16:14:38.027Z</time></trkpt><trkpt lat="43.4275817" lon="12.904107"><ele>260.0</ele><time>2026-04-26T16:14:39.032Z</time></trkpt><trkpt lat="43.4276587" lon="12.903945"><ele>260.0</ele><time>2026-04-26T16:14:40.025Z</time></trkpt><trkpt lat="43.4277431" lon="12.9037695"><ele>260.6666666666667</ele><time>2026-04-26T16:14:41.023Z</time></trkpt><trkpt lat="43.4278391" lon="12.9035928"><ele>261.3333333333333</ele><time>2026-04-26T16:14:42.027Z</time></trkpt><trkpt lat="43.4279435" lon="12.9034577"><ele>262.0</ele><time>2026-04-26T16:14:43.018Z</time></trkpt><trkpt lat="43.4280784" lon="12.903379"><ele>262.66666666666663</ele><time>2026-04-26T16:14:44.02Z</time></trkpt><trkpt lat="43.4282305" lon="12.9033644"><ele>263.3333333333333</ele><time>2026-04-26T16:14:45.022Z</time></trkpt><trkpt lat="43.4283841" lon="12.9033902"><ele>264.0</ele><time>2026-04-26T16:14:46.025Z</time></trkpt><trkpt lat="43.4285427" lon="12.9034571"><ele>264.0</ele><time>2026-04-26T16:14:47.014Z</time></trkpt><trkpt lat="43.4287046" lon="12.90353"><ele>264.0</ele><time>2026-04-26T16:14:48.022Z</time></trkpt><trkpt lat="43.4288823" lon="12.9036246"><ele>264.0</ele><time>2026-04-26T16:14:49.016Z</time></trkpt><trkpt lat="43.4290463" lon="12.9037236"><ele>266.25</ele><time>2026-04-26T16:14:50.014Z</time></trkpt><trkpt lat="43.4291812" lon="12.9038133"><ele>268.5</ele><time>2026-04-26T16:14:51.024Z</time></trkpt><trkpt lat="43.4293066" lon="12.9039018"><ele>270.75</ele><time>2026-04-26T16:14:52.02Z</time></trkpt><trkpt lat="43.4294472" lon="12.903963"><ele>273.0</ele><time>2026-04-26T16:14:53.029Z</time></trkpt><trkpt lat="43.4295814" lon="12.9039102"><ele>271.0</ele><time>2026-04-26T16:14:54.019Z</time></trkpt><trkpt lat="43.4296934" lon="12.9037692"><ele>269.0</ele><time>2026-04-26T16:14:55.025Z</time></trkpt><trkpt lat="43.4297965" lon="12.9036115"><ele>267.0</ele><time>2026-04-26T16:14:56.028Z</time></trkpt><trkpt lat="43.4299015" lon="12.9034353"><ele>275.0</ele><time>2026-04-26T16:14:57.018Z</time></trkpt><trkpt lat="43.4300197" lon="12.9032582"><ele>283.0</ele><time>2026-04-26T16:14:58.022Z</time></trkpt><trkpt lat="43.4301694" lon="12.903098"><ele>291.0</ele><time>2026-04-26T16:14:59.017Z</time></trkpt><trkpt lat="43.4303383" lon="12.9029422"><ele>294.0</ele><time>2026-04-26T16:15:00.023Z</time></trkpt><trkpt lat="43.4305084" lon="12.9027833"><ele>297.0</ele><time>2026-04-26T16:15:01.015Z</time></trkpt><trkpt lat="43.4306809" lon="12.9026206"><ele>300.0</ele><time>2026-04-26T16:15:02.012Z</time></trkpt><trkpt lat="43.4308669" lon="12.9024723"><ele>300.0</ele><time>2026-04-26T16:15:03.027Z</time></trkpt><trkpt lat="43.4310564" lon="12.902336"><ele>300.0</ele><time>2026-04-26T16:15:04.011Z</time></trkpt><trkpt lat="43.4312438" lon="12.9022301"><ele>300.0</ele><time>2026-04-26T16:15:05.019Z</time></trkpt><trkpt lat="43.4314111" lon="12.9021383"><ele>292.0</ele><time>2026-04-26T16:15:06.009Z</time></trkpt><trkpt lat="43.4315686" lon="12.9020421"><ele>284.0</ele><time>2026-04-26T16:15:07.023Z</time></trkpt><trkpt lat="43.4317039" lon="12.9019157"><ele>276.0</ele><time>2026-04-26T16:15:08.016Z</time></trkpt><trkpt lat="43.4318078" lon="12.9017635"><ele>285.3333333333333</ele><time>2026-04-26T16:15:09.011Z</time></trkpt><trkpt lat="43.4318707" lon="12.9015782"><ele>294.66666666666663</ele><time>2026-04-26T16:15:10.016Z</time></trkpt><trkpt lat="43.4318981" lon="12.901355"><ele>304.0</ele><time>2026-04-26T16:15:11.017Z</time></trkpt><trkpt lat="43.4319007" lon="12.9011279"><ele>307.66666666666663</ele><time>2026-04-26T16:15:12.012Z</time></trkpt><trkpt lat="43.4318932" lon="12.900894"><ele>311.3333333333333</ele><time>2026-04-26T16:15:13.029Z</time></trkpt><trkpt lat="43.4318687" lon="12.9006619"><ele>315.0</ele><time>2026-04-26T16:15:14.032Z</time></trkpt><trkpt lat="43.431814" lon="12.9004417"><ele>315.0</ele><time>2026-04-26T16:15:15.017Z</time></trkpt><trkpt lat="43.4317356" lon="12.9002378"><ele>315.0</ele><time>2026-04-26T16:15:16.021Z</time></trkpt><trkpt lat="43.4316219" lon="12.9000444"><ele>315.0</ele><time>2026-04-26T16:15:17.025Z</time></trkpt><trkpt lat="43.4314897" lon="12.8998659"><ele>314.3333333333333</ele><time>2026-04-26T16:15:18.021Z</time></trkpt><trkpt lat="43.4313556" lon="12.8996818"><ele>313.66666666666663</ele><time>2026-04-26T16:15:19.022Z</time></trkpt><trkpt lat="43.4312528" lon="12.8994958"><ele>313.0</ele><time>2026-04-26T16:15:20.01Z</time></trkpt><trkpt lat="43.4312042" lon="12.8992852"><ele>315.25</ele><time>2026-04-26T16:15:21.027Z</time></trkpt><trkpt lat="43.4312053" lon="12.8990703"><ele>317.5</ele><time>2026-04-26T16:15:22.015Z</time></trkpt><trkpt lat="43.4312495" lon="12.8988702"><ele>319.75</ele><time>2026-04-26T16:15:23.022Z</time></trkpt><trkpt lat="43.4312865" lon="12.8986967"><ele>322.0</ele><time>2026-04-26T16:15:24.028Z</time></trkpt><trkpt lat="43.4312884" lon="12.8985488"><ele>322.0</ele><time>2026-04-26T16:15:25.016Z</time></trkpt><trkpt lat="43.4312433" lon="12.8984232"><ele>322.0</ele><time>2026-04-26T16:15:26.021Z</time></trkpt><trkpt lat="43.4311523" lon="12.8983521"><ele>322.0</ele><time>2026-04-26T16:15:27.013Z</time></trkpt><trkpt lat="43.4310376" lon="12.8982982"><ele>322.0</ele><time>2026-04-26T16:15:28.017Z</time></trkpt><trkpt lat="43.430911" lon="12.8982441"><ele>324.25</ele><time>2026-04-26T16:15:29.022Z</time></trkpt><trkpt lat="43.4307791" lon="12.8981785"><ele>326.5</ele><time>2026-04-26T16:15:30.009Z</time></trkpt><trkpt lat="43.4306626" lon="12.8981039"><ele>328.75</ele><time>2026-04-26T16:15:31.038Z</time></trkpt><trkpt lat="43.4305603" lon="12.8980219"><ele>331.0</ele><time>2026-04-26T16:15:32.017Z</time></trkpt><trkpt lat="43.430514" lon="12.8979195"><ele>331.0</ele><time>2026-04-26T16:15:33.016Z</time></trkpt><trkpt lat="43.4305265" lon="12.8977955"><ele>331.0</ele><time>2026-04-26T16:15:34.003Z</time></trkpt><trkpt lat="43.4305934" lon="12.8976778"><ele>331.0</ele><time>2026-04-26T16:15:35.024Z</time></trkpt><trkpt lat="43.4307018" lon="12.8976025"><ele>331.0</ele><time>2026-04-26T16:15:36.019Z</time></trkpt><trkpt lat="43.430819" lon="12.8975538"><ele>331.0</ele><time>2026-04-26T16:15:37.028Z</time></trkpt><trkpt lat="43.4309493" lon="12.8974939"><ele>334.75</ele><time>2026-04-26T16:15:38.03Z</time></trkpt><trkpt lat="43.4310772" lon="12.8974248"><ele>338.5</ele><time>2026-04-26T16:15:39.019Z</time></trkpt><trkpt lat="43.4311871" lon="12.8973505"><ele>342.25</ele><time>2026-04-26T16:15:40.025Z</time></trkpt><trkpt lat="43.431247" lon="12.8972505"><ele>346.0</ele><time>2026-04-26T16:15:41.025Z</time></trkpt><trkpt lat="43.4312633" lon="12.8971148"><ele>346.0</ele><time>2026-04-26T16:15:42.027Z</time></trkpt><trkpt lat="43.4312268" lon="12.8969846"><ele>346.0</ele><time>2026-04-26T16:15:43.016Z</time></trkpt><trkpt lat="43.4311406" lon="12.8968814"><ele>346.0</ele><time>2026-04-26T16:15:44.011Z</time></trkpt><trkpt lat="43.4310398" lon="12.8967972"><ele>346.0</ele><time>2026-04-26T16:15:45.022Z</time></trkpt><trkpt lat="43.4309255" lon="12.8966889"><ele>349.0</ele><time>2026-04-26T16:15:46.021Z</time></trkpt><trkpt lat="43.4308047" lon="12.8965554"><ele>352.0</ele><time>2026-04-26T16:15:47.023Z</time></trkpt><trkpt lat="43.4306844" lon="12.896408"><ele>355.0</ele><time>2026-04-26T16:15:48.017Z</time></trkpt><trkpt lat="43.4305618" lon="12.896242"><ele>353.66666666666663</ele><time>2026-04-26T16:15:49.016Z</time></trkpt><trkpt lat="43.4304486" lon="12.8960578"><ele>352.3333333333333</ele><time>2026-04-26T16:15:50.016Z</time></trkpt><trkpt lat="43.430358" lon="12.8958691"><ele>351.0</ele><time>2026-04-26T16:15:51.023Z</time></trkpt><trkpt lat="43.4302961" lon="12.8956806"><ele>355.3333333333333</ele><time>2026-04-26T16:15:52.029Z</time></trkpt><trkpt lat="43.4302564" lon="12.8954855"><ele>359.66666666666663</ele><time>2026-04-26T16:15:53.026Z</time></trkpt><trkpt lat="43.4302215" lon="12.8952787"><ele>364.0</ele><time>2026-04-26T16:15:54.018Z</time></trkpt><trkpt lat="43.4301842" lon="12.895071"><ele>365.75</ele><time>2026-04-26T16:15:55.022Z</time></trkpt><trkpt lat="43.430142" lon="12.8948838"><ele>367.5</ele><time>2026-04-26T16:15:56.027Z</time></trkpt><trkpt lat="43.4300854" lon="12.8947191"><ele>369.25</ele><time>2026-04-26T16:15:57.021Z</time></trkpt><trkpt lat="43.4300148" lon="12.8945637"><ele>371.0</ele><time>2026-04-26T16:15:58.021Z</time></trkpt><trkpt lat="43.4299232" lon="12.8944542"><ele>371.0</ele><time>2026-04-26T16:15:59.029Z</time></trkpt><trkpt lat="43.4298086" lon="12.8944064"><ele>371.0</ele><time>2026-04-26T16:16:00.025Z</time></trkpt><trkpt lat="43.4296816" lon="12.8943851"><ele>371.0</ele><time>2026-04-26T16:16:01.015Z</time></trkpt><trkpt lat="43.4295553" lon="12.8943525"><ele>371.0</ele><time>2026-04-26T16:16:02.027Z</time></trkpt><trkpt lat="43.4294329" lon="12.89431"><ele>373.6666666666667</ele><time>2026-04-26T16:16:03.036Z</time></trkpt><trkpt lat="43.429297" lon="12.8942433"><ele>376.3333333333333</ele><time>2026-04-26T16:16:04.009Z</time></trkpt><trkpt lat="43.4291514" lon="12.894151"><ele>379.0</ele><time>2026-04-26T16:16:05.014Z</time></trkpt><trkpt lat="43.4290085" lon="12.8940666"><ele>379.0</ele><time>2026-04-26T16:16:06.029Z</time></trkpt><trkpt lat="43.4288758" lon="12.8939702"><ele>379.0</ele><time>2026-04-26T16:16:07.017Z</time></trkpt><trkpt lat="43.4287581" lon="12.8938645"><ele>379.0</ele><time>2026-04-26T16:16:08.011Z</time></trkpt><trkpt lat="43.4286427" lon="12.8937618"><ele>379.0</ele><time>2026-04-26T16:16:09.023Z</time></trkpt><trkpt lat="43.428553" lon="12.893626"><ele>380.5</ele><time>2026-04-26T16:16:10.017Z</time></trkpt><trkpt lat="43.4284983" lon="12.8934584"><ele>382.0</ele><time>2026-04-26T16:16:11.019Z</time></trkpt><trkpt lat="43.428445" lon="12.8932758"><ele>383.5</ele><time>2026-04-26T16:16:12.01Z</time></trkpt><trkpt lat="43.4283803" lon="12.893085"><ele>385.0</ele><time>2026-04-26T16:16:13.034Z</time></trkpt><trkpt lat="43.4283104" lon="12.8928911"><ele>385.0</ele><time>2026-04-26T16:16:14.009Z</time></trkpt><trkpt lat="43.4282336" lon="12.8927063"><ele>385.0</ele><time>2026-04-26T16:16:15.017Z</time></trkpt><trkpt lat="43.4281507" lon="12.8925593"><ele>385.0</ele><time>2026-04-26T16:16:16.015Z</time></trkpt><trkpt lat="43.4280502" lon="12.8924327"><ele>385.0</ele><time>2026-04-26T16:16:17.016Z</time></trkpt><trkpt lat="43.4279568" lon="12.8923181"><ele>385.5</ele><time>2026-04-26T16:16:18.014Z</time></trkpt><trkpt lat="43.4278434" lon="12.8922309"><ele>386.0</ele><time>2026-04-26T16:16:19.017Z</time></trkpt><trkpt lat="43.4277235" lon="12.8921675"><ele>386.5</ele><time>2026-04-26T16:16:20.02Z</time></trkpt><trkpt lat="43.4276054" lon="12.8921188"><ele>387.0</ele><time>2026-04-26T16:16:21.023Z</time></trkpt><trkpt lat="43.4274994" lon="12.8920476"><ele>387.0</ele><time>2026-04-26T16:16:22.018Z</time></trkpt><trkpt lat="43.4274093" lon="12.8919251"><ele>387.0</ele><time>2026-04-26T16:16:23.033Z</time></trkpt><trkpt lat="43.4273487" lon="12.8917813"><ele>387.0</ele><time>2026-04-26T16:16:24.013Z</time></trkpt><trkpt lat="43.4273144" lon="12.8916098"><ele>387.0</ele><time>2026-04-26T16:16:25.019Z</time></trkpt><trkpt lat="43.4272849" lon="12.8914465"><ele>385.75</ele><time>2026-04-26T16:16:26.018Z</time></trkpt><trkpt lat="43.4272584" lon="12.8912841"><ele>384.5</ele><time>2026-04-26T16:16:27.025Z</time></trkpt><trkpt lat="43.4272224" lon="12.8911369"><ele>383.25</ele><time>2026-04-26T16:16:28.026Z</time></trkpt><trkpt lat="43.4271651" lon="12.8910075"><ele>382.0</ele><time>2026-04-26T16:16:29.03Z</time></trkpt><trkpt lat="43.4270738" lon="12.8909207"><ele>381.25</ele><time>2026-04-26T16:16:30.022Z</time></trkpt><trkpt lat="43.4269557" lon="12.8908467"><ele>380.5</ele><time>2026-04-26T16:16:31.015Z</time></trkpt><trkpt lat="43.4268043" lon="12.89078"><ele>379.75</ele><time>2026-04-26T16:16:32.009Z</time></trkpt><trkpt lat="43.4266597" lon="12.8907441"><ele>379.0</ele><time>2026-04-26T16:16:33.018Z</time></trkpt><trkpt lat="43.4265325" lon="12.8907296"><ele>379.0</ele><time>2026-04-26T16:16:34.001Z</time></trkpt><trkpt lat="43.4264167" lon="12.8907238"><ele>379.0</ele><time>2026-04-26T16:16:35.023Z</time></trkpt><trkpt lat="43.4263049" lon="12.8907345"><ele>379.0</ele><time>2026-04-26T16:16:36.023Z</time></trkpt><trkpt lat="43.4261875" lon="12.8907576"><ele>379.0</ele><time>2026-04-26T16:16:37.025Z</time></trkpt><trkpt lat="43.4260585" lon="12.8907858"><ele>377.25</ele><time>2026-04-26T16:16:37.996Z</time></trkpt><trkpt lat="43.4259267" lon="12.8908192"><ele>375.5</ele><time>2026-04-26T16:16:39.022Z</time></trkpt><trkpt lat="43.4257899" lon="12.8908364"><ele>373.75</ele><time>2026-04-26T16:16:40.014Z</time></trkpt><trkpt lat="43.4256454" lon="12.8908211"><ele>372.0</ele><time>2026-04-26T16:16:41.027Z</time></trkpt><trkpt lat="43.4254992" lon="12.8907876"><ele>370.3333333333333</ele><time>2026-04-26T16:16:42.014Z</time></trkpt><trkpt lat="43.4253455" lon="12.8907442"><ele>368.66666666666663</ele><time>2026-04-26T16:16:43.028Z</time></trkpt><trkpt lat="43.4251905" lon="12.8906761"><ele>367.0</ele><time>2026-04-26T16:16:44.019Z</time></trkpt><trkpt lat="43.4250294" lon="12.8906026"><ele>367.0</ele><time>2026-04-26T16:16:45.012Z</time></trkpt><trkpt lat="43.4248653" lon="12.8905319"><ele>367.0</ele><time>2026-04-26T16:16:46.018Z</time></trkpt><trkpt lat="43.424713" lon="12.8904627"><ele>367.0</ele><time>2026-04-26T16:16:47.024Z</time></trkpt><trkpt lat="43.4245709" lon="12.8903879"><ele>365.66666666666663</ele><time>2026-04-26T16:16:48.007Z</time></trkpt><trkpt lat="43.4244324" lon="12.8902945"><ele>364.3333333333333</ele><time>2026-04-26T16:16:49.02Z</time></trkpt><trkpt lat="43.4243022" lon="12.890175"><ele>363.0</ele><time>2026-04-26T16:16:50.019Z</time></trkpt><trkpt lat="43.4241868" lon="12.8900381"><ele>365.0</ele><time>2026-04-26T16:16:51.019Z</time></trkpt><trkpt lat="43.4240862" lon="12.8899082"><ele>367.0</ele><time>2026-04-26T16:16:52.014Z</time></trkpt><trkpt lat="43.4239874" lon="12.8897913"><ele>369.0</ele><time>2026-04-26T16:16:53.019Z</time></trkpt><trkpt lat="43.4238883" lon="12.8896796"><ele>371.0</ele><time>2026-04-26T16:16:54.017Z</time></trkpt><trkpt lat="43.4237875" lon="12.8895665"><ele>372.75</ele><time>2026-04-26T16:16:55.019Z</time></trkpt><trkpt lat="43.4236735" lon="12.889451"><ele>374.5</ele><time>2026-04-26T16:16:56.031Z</time></trkpt><trkpt lat="43.4235595" lon="12.8893361"><ele>376.25</ele><time>2026-04-26T16:16:57.026Z</time></trkpt><trkpt lat="43.4234475" lon="12.8892154"><ele>378.0</ele><time>2026-04-26T16:16:58.012Z</time></trkpt><trkpt lat="43.4233283" lon="12.889091"><ele>379.75</ele><time>2026-04-26T16:16:59.034Z</time></trkpt><trkpt lat="43.4232188" lon="12.8889472"><ele>381.5</ele><time>2026-04-26T16:17:00.034Z</time></trkpt><trkpt lat="43.4231121" lon="12.8888001"><ele>383.25</ele><time>2026-04-26T16:17:01.017Z</time></trkpt><trkpt lat="43.4230106" lon="12.8886575"><ele>385.0</ele><time>2026-04-26T16:17:02.024Z</time></trkpt><trkpt lat="43.4228878" lon="12.888529"><ele>389.33333333333337</ele><time>2026-04-26T16:17:03.023Z</time></trkpt><trkpt lat="43.422736" lon="12.8884275"><ele>393.66666666666663</ele><time>2026-04-26T16:17:04.034Z</time></trkpt><trkpt lat="43.4225742" lon="12.8883469"><ele>398.0</ele><time>2026-04-26T16:17:05.008Z</time></trkpt><trkpt lat="43.4224121" lon="12.8882602"><ele>398.0</ele><time>2026-04-26T16:17:06.026Z</time></trkpt><trkpt lat="43.4222538" lon="12.8881664"><ele>398.0</ele><time>2026-04-26T16:17:07.021Z</time></trkpt><trkpt lat="43.422119" lon="12.8880371"><ele>398.0</ele><time>2026-04-26T16:17:08.011Z</time></trkpt><trkpt lat="43.4220278" lon="12.8878523"><ele>406.0</ele><time>2026-04-26T16:17:09.015Z</time></trkpt><trkpt lat="43.4219611" lon="12.8876474"><ele>414.0</ele><time>2026-04-26T16:17:10.007Z</time></trkpt><trkpt lat="43.4219116" lon="12.887429"><ele>422.0</ele><time>2026-04-26T16:17:11.016Z</time></trkpt><trkpt lat="43.4218813" lon="12.8872111"><ele>422.0</ele><time>2026-04-26T16:17:12.017Z</time></trkpt><trkpt lat="43.4218497" lon="12.8870058"><ele>422.0</ele><time>2026-04-26T16:17:13.019Z</time></trkpt><trkpt lat="43.4217917" lon="12.8868367"><ele>422.0</ele><time>2026-04-26T16:17:14.018Z</time></trkpt><trkpt lat="43.421683" lon="12.886699"><ele>422.0</ele><time>2026-04-26T16:17:15.014Z</time></trkpt><trkpt lat="43.4215563" lon="12.8865777"><ele>420.66666666666663</ele><time>2026-04-26T16:17:16.008Z</time></trkpt><trkpt lat="43.4214131" lon="12.8864674"><ele>419.33333333333337</ele><time>2026-04-26T16:17:17.017Z</time></trkpt><trkpt lat="43.4212535" lon="12.8863719"><ele>418.0</ele><time>2026-04-26T16:17:18.016Z</time></trkpt><trkpt lat="43.4210908" lon="12.8862928"><ele>424.5</ele><time>2026-04-26T16:17:19.019Z</time></trkpt><trkpt lat="43.4209352" lon="12.886217"><ele>431.0</ele><time>2026-04-26T16:17:20.023Z</time></trkpt><trkpt lat="43.4207996" lon="12.8861537"><ele>437.5</ele><time>2026-04-26T16:17:21.011Z</time></trkpt><trkpt lat="43.4206812" lon="12.8860938"><ele>444.0</ele><time>2026-04-26T16:17:22.017Z</time></trkpt><trkpt lat="43.4205797" lon="12.8860389"><ele>444.0</ele><time>2026-04-26T16:17:23.014Z</time></trkpt><trkpt lat="43.4204919" lon="12.8860143"><ele>444.0</ele><time>2026-04-26T16:17:24.01Z</time></trkpt><trkpt lat="43.4204265" lon="12.8860417"><ele>444.0</ele><time>2026-04-26T16:17:25.006Z</time></trkpt><trkpt lat="43.420419" lon="12.8861469"><ele>444.0</ele><time>2026-04-26T16:17:26.004Z</time></trkpt><trkpt lat="43.4204566" lon="12.8862232"><ele>444.0</ele><time>2026-04-26T16:17:27.015Z</time></trkpt><trkpt lat="43.4205249" lon="12.8862774"><ele>444.0</ele><time>2026-04-26T16:17:28.014Z</time></trkpt><trkpt lat="43.4206217" lon="12.88633"><ele>444.0</ele><time>2026-04-26T16:17:29.018Z</time></trkpt><trkpt lat="43.4207412" lon="12.8863975"><ele>444.0</ele><time>2026-04-26T16:17:30.022Z</time></trkpt><trkpt lat="43.4208722" lon="12.8864706"><ele>444.0</ele><time>2026-04-26T16:17:30.995Z</time></trkpt><trkpt lat="43.4209929" lon="12.8865863"><ele>444.0</ele><time>2026-04-26T16:17:32.004Z</time></trkpt><trkpt lat="43.4210974" lon="12.886745"><ele>448.0</ele><time>2026-04-26T16:17:33.007Z</time></trkpt><trkpt lat="43.4211483" lon="12.8869216"><ele>452.0</ele><time>2026-04-26T16:17:34.005Z</time></trkpt><trkpt lat="43.4211662" lon="12.8871241"><ele>456.0</ele><time>2026-04-26T16:17:35.014Z</time></trkpt><trkpt lat="43.4211664" lon="12.8873418"><ele>460.0</ele><time>2026-04-26T16:17:36.004Z</time></trkpt><trkpt lat="43.4211605" lon="12.8875594"><ele>462.33333333333337</ele><time>2026-04-26T16:17:37.012Z</time></trkpt><trkpt lat="43.4211403" lon="12.887791"><ele>464.66666666666663</ele><time>2026-04-26T16:17:38.016Z</time></trkpt><trkpt lat="43.4211371" lon="12.8880211"><ele>467.0</ele><time>2026-04-26T16:17:39.009Z</time></trkpt><trkpt lat="43.4211658" lon="12.888256"><ele>466.0</ele><time>2026-04-26T16:17:40.017Z</time></trkpt><trkpt lat="43.4212188" lon="12.8884766"><ele>465.0</ele><time>2026-04-26T16:17:41.009Z</time></trkpt><trkpt lat="43.4212765" lon="12.8886805"><ele>464.0</ele><time>2026-04-26T16:17:41.997Z</time></trkpt><trkpt lat="43.4213164" lon="12.8888763"><ele>460.0</ele><time>2026-04-26T16:17:43.006Z</time></trkpt><trkpt lat="43.4213305" lon="12.889067"><ele>456.0</ele><time>2026-04-26T16:17:44Z</time></trkpt><trkpt lat="43.4213333" lon="12.8892517"><ele>452.0</ele><time>2026-04-26T16:17:45.014Z</time></trkpt><trkpt lat="43.4213102" lon="12.8894154"><ele>448.0</ele><time>2026-04-26T16:17:46.001Z</time></trkpt><trkpt lat="43.4212861" lon="12.8895764"><ele>448.0</ele><time>2026-04-26T16:17:47.012Z</time></trkpt><trkpt lat="43.4212236" lon="12.8897096"><ele>448.0</ele><time>2026-04-26T16:17:48.006Z</time></trkpt><trkpt lat="43.4211286" lon="12.8898111"><ele>448.0</ele><time>2026-04-26T16:17:49.011Z</time></trkpt><trkpt lat="43.4210141" lon="12.8898514"><ele>448.0</ele><time>2026-04-26T16:17:50.009Z</time></trkpt><trkpt lat="43.420867" lon="12.8898458"><ele>448.0</ele><time>2026-04-26T16:17:51.013Z</time></trkpt><trkpt lat="43.4207323" lon="12.8898236"><ele>448.0</ele><time>2026-04-26T16:17:52.013Z</time></trkpt><trkpt lat="43.4206041" lon="12.8897955"><ele>448.0</ele><time>2026-04-26T16:17:53.033Z</time></trkpt><trkpt lat="43.4204939" lon="12.8897821"><ele>448.0</ele><time>2026-04-26T16:17:54.01Z</time></trkpt><trkpt lat="43.4203798" lon="12.8897676"><ele>448.0</ele><time>2026-04-26T16:17:55.006Z</time></trkpt><trkpt lat="43.420278" lon="12.8897778"><ele>447.99999999999994</ele><time>2026-04-26T16:17:56.015Z</time></trkpt><trkpt lat="43.4201819" lon="12.8898132"><ele>447.99999999999994</ele><time>2026-04-26T16:17:57.012Z</time></trkpt><trkpt lat="43.4200982" lon="12.8898839"><ele>448.0</ele><time>2026-04-26T16:17:58.014Z</time></trkpt><trkpt lat="43.4200346" lon="12.8899801"><ele>448.0</ele><time>2026-04-26T16:17:59.007Z</time></trkpt><trkpt lat="43.4199811" lon="12.8901021"><ele>448.0</ele><time>2026-04-26T16:18:00.02Z</time></trkpt><trkpt lat="43.4199312" lon="12.8902343"><ele>448.0</ele><time>2026-04-26T16:18:01.025Z</time></trkpt><trkpt lat="43.4198582" lon="12.8903856"><ele>448.0</ele><time>2026-04-26T16:18:02.011Z</time></trkpt><trkpt lat="43.4197535" lon="12.8905357"><ele>448.0</ele><time>2026-04-26T16:18:03.02Z</time></trkpt><trkpt lat="43.4196386" lon="12.8906707"><ele>450.6666666666667</ele><time>2026-04-26T16:18:04.01Z</time></trkpt><trkpt lat="43.419532" lon="12.8908161"><ele>453.33333333333337</ele><time>2026-04-26T16:18:05.015Z</time></trkpt><trkpt lat="43.4194277" lon="12.890973"><ele>456.0</ele><time>2026-04-26T16:18:06.014Z</time></trkpt><trkpt lat="43.4193236" lon="12.8911423"><ele>456.0</ele><time>2026-04-26T16:18:07.033Z</time></trkpt><trkpt lat="43.4192109" lon="12.8912984"><ele>456.0</ele><time>2026-04-26T16:18:08.013Z</time></trkpt><trkpt lat="43.4190837" lon="12.8914464"><ele>456.0</ele><time>2026-04-26T16:18:09.014Z</time></trkpt><trkpt lat="43.4189492" lon="12.8915791"><ele>458.33333333333337</ele><time>2026-04-26T16:18:10.005Z</time></trkpt><trkpt lat="43.4188137" lon="12.8916929"><ele>460.6666666666667</ele><time>2026-04-26T16:18:10.999Z</time></trkpt><trkpt lat="43.4186821" lon="12.8918163"><ele>463.0</ele><time>2026-04-26T16:18:12.001Z</time></trkpt><trkpt lat="43.4185551" lon="12.8919494"><ele>463.0</ele><time>2026-04-26T16:18:13.013Z</time></trkpt><trkpt lat="43.4184401" lon="12.8920882"><ele>463.0</ele><time>2026-04-26T16:18:13.995Z</time></trkpt><trkpt lat="43.4183403" lon="12.8922229"><ele>463.0</ele><time>2026-04-26T16:18:15.012Z</time></trkpt><trkpt lat="43.4182415" lon="12.892353"><ele>463.0</ele><time>2026-04-26T16:18:16.005Z</time></trkpt><trkpt lat="43.4181507" lon="12.8924636"><ele>463.0</ele><time>2026-04-26T16:18:17.007Z</time></trkpt><trkpt lat="43.4180711" lon="12.892557"><ele>463.0</ele><time>2026-04-26T16:18:18.005Z</time></trkpt><trkpt lat="43.4179996" lon="12.8926323"><ele>450.0</ele><time>2026-04-26T16:18:19.026Z</time></trkpt><trkpt lat="43.4179299" lon="12.8926741"><ele>455.0</ele><time>2026-04-26T16:18:20.01Z</time></trkpt><trkpt lat="43.4178627" lon="12.8926949"><ele>455.0</ele><time>2026-04-26T16:18:21.018Z</time></trkpt></trkseg></trk></gpx>